<?xml version="1.0" encoding="UTF-8"?>
<gpx version="1.1" creator="2bulu-scraper" xmlns="http://www.topografix.com/GPX/1/1">
  <metadata><name>宜宾红岩山大环线</name><desc>source: 2bulu.com trackId=77934811; exported 2026-08-30T14:30:38.645Z</desc></metadata>
  <wpt lat="28.751479" lon="104.747602"><ele>347</ele><name></name></wpt>
  <wpt lat="28.749408" lon="104.742525"><ele>340</ele><name></name></wpt>
  <wpt lat="28.741811" lon="104.741134"><ele>296</ele><name></name></wpt>
  <wpt lat="28.742162" lon="104.743051"><ele>302</ele><name></name></wpt>
  <wpt lat="28.738687" lon="104.745241"><ele>301</ele><name></name></wpt>
  <wpt lat="28.738785" lon="104.742106"><ele>322</ele><name></name></wpt>
  <wpt lat="28.737896" lon="104.741751"><ele>337</ele><name></name></wpt>
  <wpt lat="28.738083" lon="104.74102"><ele>341</ele><name></name></wpt>
  <wpt lat="28.736768" lon="104.740147"><ele>420</ele><name></name></wpt>
  <wpt lat="28.736314" lon="104.740584"><ele>477</ele><name></name></wpt>
  <wpt lat="28.733454" lon="104.741552"><ele>518</ele><name></name></wpt>
  <wpt lat="28.734105" lon="104.74036"><ele>535</ele><name>竹林</name></wpt>
  <wpt lat="28.732877" lon="104.735414"><ele>531</ele><name>大路</name></wpt>
  <wpt lat="28.732648" lon="104.735167"><ele>531</ele><name>分路</name></wpt>
  <wpt lat="28.732488" lon="104.736364"><ele>520</ele><name></name></wpt>
  <wpt lat="28.731564" lon="104.735593"><ele>525</ele><name></name></wpt>
  <wpt lat="28.730233" lon="104.735526"><ele>531</ele><name></name></wpt>
  <wpt lat="28.728461" lon="104.734666"><ele>533</ele><name></name></wpt>
  <wpt lat="28.72372" lon="104.735038"><ele>582</ele><name></name></wpt>
  <wpt lat="28.721764" lon="104.732487"><ele>557</ele><name></name></wpt>
  <wpt lat="28.721989" lon="104.729947"><ele>542</ele><name></name></wpt>
  <wpt lat="28.721885" lon="104.729951"><ele>544</ele><name>大象打卡点</name></wpt>
  <wpt lat="28.721536" lon="104.729893"><ele>542</ele><name></name></wpt>
  <wpt lat="28.719958" lon="104.729332"><ele>567</ele><name></name></wpt>
  <wpt lat="28.716069" lon="104.729869"><ele>601</ele><name></name></wpt>
  <wpt lat="28.714844" lon="104.734085"><ele>580</ele><name></name></wpt>
  <wpt lat="28.717547" lon="104.743731"><ele>466</ele><name></name></wpt>
  <wpt lat="28.717621" lon="104.745633"><ele>458</ele><name></name></wpt>
  <wpt lat="28.719349" lon="104.750833"><ele>472</ele><name></name></wpt>
  <wpt lat="28.719276" lon="104.751096"><ele>471</ele><name></name></wpt>
  <wpt lat="28.7193" lon="104.751103"><ele>470</ele><name></name></wpt>
  <wpt lat="28.719723" lon="104.753382"><ele>454</ele><name></name></wpt>
  <wpt lat="28.722551" lon="104.75753"><ele>431</ele><name></name></wpt>
  <wpt lat="28.724837" lon="104.758477"><ele>449</ele><name></name></wpt>
  <wpt lat="28.72599" lon="104.761581"><ele>423</ele><name></name></wpt>
  <wpt lat="28.736508" lon="104.752712"><ele>325</ele><name></name></wpt>
  <wpt lat="28.74917" lon="104.748952"><ele>312</ele><name></name></wpt>
  <wpt lat="28.750486" lon="104.747172"><ele>330</ele><name></name></wpt>
  <wpt lat="28.752035" lon="104.745341"><ele>364</ele><name>停车位置</name></wpt>
  <trk><name>宜宾红岩山大环线</name>
      <trkseg>
        <trkpt lat="28.752141" lon="104.745277"><ele>365.87512</ele><time>2026-01-16T17:08:29.000Z</time></trkpt>
        <trkpt lat="28.752103" lon="104.745316"><ele>365.27582</ele><time>2026-01-16T17:08:38.000Z</time></trkpt>
        <trkpt lat="28.752073" lon="104.745355"><ele>364.6584</ele><time>2026-01-16T17:08:42.000Z</time></trkpt>
        <trkpt lat="28.752034" lon="104.745392"><ele>363.92917</ele><time>2026-01-16T17:08:47.000Z</time></trkpt>
        <trkpt lat="28.751994" lon="104.745431"><ele>363.34128</ele><time>2026-01-16T17:08:53.000Z</time></trkpt>
        <trkpt lat="28.751951" lon="104.745462"><ele>363.2324</ele><time>2026-01-16T17:08:57.000Z</time></trkpt>
        <trkpt lat="28.751906" lon="104.745496"><ele>362.0096</ele><time>2026-01-16T17:09:03.000Z</time></trkpt>
        <trkpt lat="28.751869" lon="104.745534"><ele>361.69913</ele><time>2026-01-16T17:09:07.000Z</time></trkpt>
        <trkpt lat="28.751825" lon="104.745565"><ele>361.3846</ele><time>2026-01-16T17:09:12.000Z</time></trkpt>
        <trkpt lat="28.751793" lon="104.745611"><ele>360.65955</ele><time>2026-01-16T17:09:17.000Z</time></trkpt>
        <trkpt lat="28.751768" lon="104.745669"><ele>360.60785</ele><time>2026-01-16T17:09:22.000Z</time></trkpt>
        <trkpt lat="28.751745" lon="104.745723"><ele>359.64078</ele><time>2026-01-16T17:09:26.000Z</time></trkpt>
        <trkpt lat="28.75173" lon="104.745777"><ele>359.13123</ele><time>2026-01-16T17:09:30.000Z</time></trkpt>
        <trkpt lat="28.751712" lon="104.745831"><ele>358.3873</ele><time>2026-01-16T17:09:34.000Z</time></trkpt>
        <trkpt lat="28.7517" lon="104.745884"><ele>358.24475</ele><time>2026-01-16T17:09:37.000Z</time></trkpt>
        <trkpt lat="28.751689" lon="104.745943"><ele>358.41724</ele><time>2026-01-16T17:09:41.000Z</time></trkpt>
        <trkpt lat="28.751663" lon="104.745987"><ele>358.1239</ele><time>2026-01-16T17:09:45.000Z</time></trkpt>
        <trkpt lat="28.751629" lon="104.74603"><ele>357.68677</ele><time>2026-01-16T17:09:49.000Z</time></trkpt>
        <trkpt lat="28.7516" lon="104.746083"><ele>357.73404</ele><time>2026-01-16T17:09:55.000Z</time></trkpt>
        <trkpt lat="28.751583" lon="104.746138"><ele>357.40048</ele><time>2026-01-16T17:10:00.000Z</time></trkpt>
        <trkpt lat="28.75156" lon="104.74619"><ele>357.19424</ele><time>2026-01-16T17:10:05.000Z</time></trkpt>
        <trkpt lat="28.751541" lon="104.746242"><ele>356.39694</ele><time>2026-01-16T17:10:08.000Z</time></trkpt>
        <trkpt lat="28.751549" lon="104.746295"><ele>355.77466</ele><time>2026-01-16T17:10:12.000Z</time></trkpt>
        <trkpt lat="28.751565" lon="104.746346"><ele>355.67154</ele><time>2026-01-16T17:10:16.000Z</time></trkpt>
        <trkpt lat="28.751571" lon="104.746407"><ele>355.56226</ele><time>2026-01-16T17:10:20.000Z</time></trkpt>
        <trkpt lat="28.751564" lon="104.746461"><ele>355.32217</ele><time>2026-01-16T17:10:23.000Z</time></trkpt>
        <trkpt lat="28.751563" lon="104.746527"><ele>354.97668</ele><time>2026-01-16T17:10:27.000Z</time></trkpt>
        <trkpt lat="28.751555" lon="104.74659"><ele>354.3044</ele><time>2026-01-16T17:10:31.000Z</time></trkpt>
        <trkpt lat="28.75156" lon="104.746657"><ele>353.959</ele><time>2026-01-16T17:10:35.000Z</time></trkpt>
        <trkpt lat="28.751571" lon="104.746717"><ele>353.53592</ele><time>2026-01-16T17:10:39.000Z</time></trkpt>
        <trkpt lat="28.751574" lon="104.746779"><ele>352.76764</ele><time>2026-01-16T17:10:43.000Z</time></trkpt>
        <trkpt lat="28.751585" lon="104.746829"><ele>352.45065</ele><time>2026-01-16T17:10:46.000Z</time></trkpt>
        <trkpt lat="28.751586" lon="104.746889"><ele>352.28607</ele><time>2026-01-16T17:10:50.000Z</time></trkpt>
        <trkpt lat="28.751586" lon="104.746941"><ele>352.2529</ele><time>2026-01-16T17:10:53.000Z</time></trkpt>
        <trkpt lat="28.751592" lon="104.746997"><ele>351.96622</ele><time>2026-01-16T17:10:57.000Z</time></trkpt>
        <trkpt lat="28.751591" lon="104.74706"><ele>351.48038</ele><time>2026-01-16T17:11:01.000Z</time></trkpt>
        <trkpt lat="28.75159" lon="104.747122"><ele>351.25375</ele><time>2026-01-16T17:11:05.000Z</time></trkpt>
        <trkpt lat="28.751596" lon="104.747182"><ele>351.57025</ele><time>2026-01-16T17:11:10.000Z</time></trkpt>
        <trkpt lat="28.751599" lon="104.747246"><ele>351.10843</ele><time>2026-01-16T17:11:14.000Z</time></trkpt>
        <trkpt lat="28.751601" lon="104.747308"><ele>350.99414</ele><time>2026-01-16T17:11:18.000Z</time></trkpt>
        <trkpt lat="28.751603" lon="104.747373"><ele>350.4685</ele><time>2026-01-16T17:11:22.000Z</time></trkpt>
        <trkpt lat="28.751609" lon="104.747438"><ele>350.3591</ele><time>2026-01-16T17:11:26.000Z</time></trkpt>
        <trkpt lat="28.751623" lon="104.747502"><ele>350.28897</ele><time>2026-01-16T17:11:30.000Z</time></trkpt>
        <trkpt lat="28.751635" lon="104.747554"><ele>350.2259</ele><time>2026-01-16T17:11:33.000Z</time></trkpt>
        <trkpt lat="28.751655" lon="104.747608"><ele>349.65964</ele><time>2026-01-16T17:11:37.000Z</time></trkpt>
        <trkpt lat="28.751645" lon="104.74767"><ele>348.84433</ele><time>2026-01-16T17:11:41.000Z</time></trkpt>
        <trkpt lat="28.751648" lon="104.747724"><ele>349.05695</ele><time>2026-01-16T17:11:44.000Z</time></trkpt>
        <trkpt lat="28.751593" lon="104.747725"><ele>347.97</ele><time>2026-01-16T17:11:47.000Z</time></trkpt>
        <trkpt lat="28.751553" lon="104.747687"><ele>347.5503</ele><time>2026-01-16T17:11:50.000Z</time></trkpt>
        <trkpt lat="28.751523" lon="104.747647"><ele>347.2492</ele><time>2026-01-16T17:11:53.000Z</time></trkpt>
        <trkpt lat="28.751479" lon="104.747602"><ele>347.16492</ele><time>2026-01-16T17:11:57.000Z</time></trkpt>
        <trkpt lat="28.751443" lon="104.747568"><ele>347.47568</ele><time>2026-01-16T17:12:27.000Z</time></trkpt>
        <trkpt lat="28.751412" lon="104.747518"><ele>347.32544</ele><time>2026-01-16T17:12:34.000Z</time></trkpt>
        <trkpt lat="28.751383" lon="104.747472"><ele>346.81213</ele><time>2026-01-16T17:12:39.000Z</time></trkpt>
        <trkpt lat="28.751362" lon="104.747413"><ele>346.94864</ele><time>2026-01-16T17:12:44.000Z</time></trkpt>
        <trkpt lat="28.751334" lon="104.747372"><ele>346.6565</ele><time>2026-01-16T17:12:48.000Z</time></trkpt>
        <trkpt lat="28.751317" lon="104.747317"><ele>346.96738</ele><time>2026-01-16T17:12:52.000Z</time></trkpt>
        <trkpt lat="28.751297" lon="104.747258"><ele>346.9229</ele><time>2026-01-16T17:12:56.000Z</time></trkpt>
        <trkpt lat="28.751281" lon="104.747205"><ele>346.6307</ele><time>2026-01-16T17:13:00.000Z</time></trkpt>
        <trkpt lat="28.751267" lon="104.747151"><ele>346.56094</ele><time>2026-01-16T17:13:04.000Z</time></trkpt>
        <trkpt lat="28.751266" lon="104.747085"><ele>346.77002</ele><time>2026-01-16T17:13:08.000Z</time></trkpt>
        <trkpt lat="28.751264" lon="104.747025"><ele>347.47156</ele><time>2026-01-16T17:13:12.000Z</time></trkpt>
        <trkpt lat="28.751258" lon="104.746965"><ele>347.61972</ele><time>2026-01-16T17:13:17.000Z</time></trkpt>
        <trkpt lat="28.751255" lon="104.746902"><ele>348.57428</ele><time>2026-01-16T17:13:21.000Z</time></trkpt>
        <trkpt lat="28.751231" lon="104.746859"><ele>348.51416</ele><time>2026-01-16T17:13:24.000Z</time></trkpt>
        <trkpt lat="28.751197" lon="104.74681"><ele>348.6297</ele><time>2026-01-16T17:13:28.000Z</time></trkpt>
        <trkpt lat="28.751165" lon="104.746764"><ele>348.32816</ele><time>2026-01-16T17:13:32.000Z</time></trkpt>
        <trkpt lat="28.751124" lon="104.746726"><ele>348.7312</ele><time>2026-01-16T17:13:36.000Z</time></trkpt>
        <trkpt lat="28.751086" lon="104.746697"><ele>348.13748</ele><time>2026-01-16T17:13:40.000Z</time></trkpt>
        <trkpt lat="28.751048" lon="104.746654"><ele>347.78445</ele><time>2026-01-16T17:13:44.000Z</time></trkpt>
        <trkpt lat="28.751012" lon="104.746608"><ele>347.1049</ele><time>2026-01-16T17:13:49.000Z</time></trkpt>
        <trkpt lat="28.750984" lon="104.746563"><ele>347.26895</ele><time>2026-01-16T17:13:53.000Z</time></trkpt>
        <trkpt lat="28.75096" lon="104.746506"><ele>346.86328</ele><time>2026-01-16T17:13:57.000Z</time></trkpt>
        <trkpt lat="28.750935" lon="104.746459"><ele>346.56912</ele><time>2026-01-16T17:14:01.000Z</time></trkpt>
        <trkpt lat="28.750912" lon="104.746403"><ele>345.93295</ele><time>2026-01-16T17:14:05.000Z</time></trkpt>
        <trkpt lat="28.750889" lon="104.746342"><ele>345.23267</ele><time>2026-01-16T17:14:09.000Z</time></trkpt>
        <trkpt lat="28.75086" lon="104.746296"><ele>345.1389</ele><time>2026-01-16T17:14:14.000Z</time></trkpt>
        <trkpt lat="28.750835" lon="104.746246"><ele>344.53296</ele><time>2026-01-16T17:14:18.000Z</time></trkpt>
        <trkpt lat="28.750804" lon="104.746197"><ele>344.13077</ele><time>2026-01-16T17:14:22.000Z</time></trkpt>
        <trkpt lat="28.750776" lon="104.746149"><ele>344.44818</ele><time>2026-01-16T17:14:26.000Z</time></trkpt>
        <trkpt lat="28.750746" lon="104.7461"><ele>344.06305</ele><time>2026-01-16T17:14:29.000Z</time></trkpt>
        <trkpt lat="28.750706" lon="104.74606"><ele>344.0419</ele><time>2026-01-16T17:14:33.000Z</time></trkpt>
        <trkpt lat="28.75067" lon="104.746016"><ele>344.08527</ele><time>2026-01-16T17:14:37.000Z</time></trkpt>
        <trkpt lat="28.750631" lon="104.745978"><ele>343.7509</ele><time>2026-01-16T17:14:41.000Z</time></trkpt>
        <trkpt lat="28.750596" lon="104.745934"><ele>343.90768</ele><time>2026-01-16T17:14:45.000Z</time></trkpt>
        <trkpt lat="28.750561" lon="104.74589"><ele>343.8423</ele><time>2026-01-16T17:14:49.000Z</time></trkpt>
        <trkpt lat="28.750534" lon="104.745837"><ele>343.44968</ele><time>2026-01-16T17:14:53.000Z</time></trkpt>
        <trkpt lat="28.750493" lon="104.745797"><ele>343.47937</ele><time>2026-01-16T17:14:57.000Z</time></trkpt>
        <trkpt lat="28.750459" lon="104.745745"><ele>343.1774</ele><time>2026-01-16T17:15:01.000Z</time></trkpt>
        <trkpt lat="28.750424" lon="104.745703"><ele>343.2438</ele><time>2026-01-16T17:15:05.000Z</time></trkpt>
        <trkpt lat="28.750394" lon="104.745652"><ele>342.69348</ele><time>2026-01-16T17:15:09.000Z</time></trkpt>
        <trkpt lat="28.75036" lon="104.745606"><ele>342.5665</ele><time>2026-01-16T17:15:13.000Z</time></trkpt>
        <trkpt lat="28.750338" lon="104.745545"><ele>342.01923</ele><time>2026-01-16T17:15:17.000Z</time></trkpt>
        <trkpt lat="28.750317" lon="104.745491"><ele>342.09244</ele><time>2026-01-16T17:15:22.000Z</time></trkpt>
        <trkpt lat="28.750303" lon="104.745432"><ele>341.95944</ele><time>2026-01-16T17:15:26.000Z</time></trkpt>
        <trkpt lat="28.750282" lon="104.745375"><ele>342.02792</ele><time>2026-01-16T17:15:30.000Z</time></trkpt>
        <trkpt lat="28.75027" lon="104.745315"><ele>341.75015</ele><time>2026-01-16T17:15:34.000Z</time></trkpt>
        <trkpt lat="28.750269" lon="104.745251"><ele>341.75955</ele><time>2026-01-16T17:15:38.000Z</time></trkpt>
        <trkpt lat="28.75027" lon="104.745186"><ele>341.911</ele><time>2026-01-16T17:15:42.000Z</time></trkpt>
        <trkpt lat="28.750272" lon="104.745122"><ele>341.69144</ele><time>2026-01-16T17:15:46.000Z</time></trkpt>
        <trkpt lat="28.750263" lon="104.745063"><ele>342.19562</ele><time>2026-01-16T17:15:50.000Z</time></trkpt>
        <trkpt lat="28.750244" lon="104.745009"><ele>341.38687</ele><time>2026-01-16T17:15:54.000Z</time></trkpt>
        <trkpt lat="28.750216" lon="104.744961"><ele>341.39026</ele><time>2026-01-16T17:15:58.000Z</time></trkpt>
        <trkpt lat="28.750182" lon="104.744915"><ele>341.48383</ele><time>2026-01-16T17:16:02.000Z</time></trkpt>
        <trkpt lat="28.750149" lon="104.744868"><ele>341.37012</ele><time>2026-01-16T17:16:06.000Z</time></trkpt>
        <trkpt lat="28.750114" lon="104.744824"><ele>341.09436</ele><time>2026-01-16T17:16:10.000Z</time></trkpt>
        <trkpt lat="28.750083" lon="104.744775"><ele>340.9582</ele><time>2026-01-16T17:16:14.000Z</time></trkpt>
        <trkpt lat="28.750059" lon="104.744725"><ele>340.8604</ele><time>2026-01-16T17:16:18.000Z</time></trkpt>
        <trkpt lat="28.750039" lon="104.74467"><ele>340.8112</ele><time>2026-01-16T17:16:21.000Z</time></trkpt>
        <trkpt lat="28.750026" lon="104.744607"><ele>340.7855</ele><time>2026-01-16T17:16:25.000Z</time></trkpt>
        <trkpt lat="28.750018" lon="104.744548"><ele>340.67276</ele><time>2026-01-16T17:16:29.000Z</time></trkpt>
        <trkpt lat="28.75001" lon="104.744484"><ele>341.11176</ele><time>2026-01-16T17:16:33.000Z</time></trkpt>
        <trkpt lat="28.750009" lon="104.744424"><ele>340.98727</ele><time>2026-01-16T17:16:37.000Z</time></trkpt>
        <trkpt lat="28.750009" lon="104.744364"><ele>341.0373</ele><time>2026-01-16T17:16:41.000Z</time></trkpt>
        <trkpt lat="28.750009" lon="104.744303"><ele>341.3854</ele><time>2026-01-16T17:16:45.000Z</time></trkpt>
        <trkpt lat="28.750004" lon="104.744243"><ele>341.23285</ele><time>2026-01-16T17:16:49.000Z</time></trkpt>
        <trkpt lat="28.749999" lon="104.744177"><ele>341.36877</ele><time>2026-01-16T17:16:53.000Z</time></trkpt>
        <trkpt lat="28.749983" lon="104.744118"><ele>341.4471</ele><time>2026-01-16T17:16:57.000Z</time></trkpt>
        <trkpt lat="28.749959" lon="104.744066"><ele>341.0074</ele><time>2026-01-16T17:17:01.000Z</time></trkpt>
        <trkpt lat="28.749931" lon="104.744017"><ele>340.50433</ele><time>2026-01-16T17:17:05.000Z</time></trkpt>
        <trkpt lat="28.749899" lon="104.743969"><ele>340.2027</ele><time>2026-01-16T17:17:09.000Z</time></trkpt>
        <trkpt lat="28.749866" lon="104.743923"><ele>339.74146</ele><time>2026-01-16T17:17:13.000Z</time></trkpt>
        <trkpt lat="28.749831" lon="104.743876"><ele>339.10815</ele><time>2026-01-16T17:17:17.000Z</time></trkpt>
        <trkpt lat="28.749796" lon="104.743828"><ele>339.26166</ele><time>2026-01-16T17:17:21.000Z</time></trkpt>
        <trkpt lat="28.749756" lon="104.743784"><ele>339.7056</ele><time>2026-01-16T17:17:25.000Z</time></trkpt>
        <trkpt lat="28.749722" lon="104.743745"><ele>339.4928</ele><time>2026-01-16T17:17:30.000Z</time></trkpt>
        <trkpt lat="28.749694" lon="104.743692"><ele>339.59756</ele><time>2026-01-16T17:17:34.000Z</time></trkpt>
        <trkpt lat="28.749671" lon="104.743639"><ele>339.65338</ele><time>2026-01-16T17:17:38.000Z</time></trkpt>
        <trkpt lat="28.749651" lon="104.74358"><ele>339.6613</ele><time>2026-01-16T17:17:42.000Z</time></trkpt>
        <trkpt lat="28.749626" lon="104.743524"><ele>339.59344</ele><time>2026-01-16T17:17:46.000Z</time></trkpt>
        <trkpt lat="28.749608" lon="104.743463"><ele>339.60242</ele><time>2026-01-16T17:17:50.000Z</time></trkpt>
        <trkpt lat="28.749588" lon="104.743406"><ele>339.5134</ele><time>2026-01-16T17:17:54.000Z</time></trkpt>
        <trkpt lat="28.749577" lon="104.743349"><ele>339.4826</ele><time>2026-01-16T17:17:58.000Z</time></trkpt>
        <trkpt lat="28.749564" lon="104.743292"><ele>339.9208</ele><time>2026-01-16T17:18:02.000Z</time></trkpt>
        <trkpt lat="28.749551" lon="104.743237"><ele>339.3064</ele><time>2026-01-16T17:18:06.000Z</time></trkpt>
        <trkpt lat="28.749549" lon="104.743174"><ele>339.8226</ele><time>2026-01-16T17:18:10.000Z</time></trkpt>
        <trkpt lat="28.749534" lon="104.743115"><ele>339.87692</ele><time>2026-01-16T17:18:14.000Z</time></trkpt>
        <trkpt lat="28.749526" lon="104.743062"><ele>339.9902</ele><time>2026-01-16T17:18:18.000Z</time></trkpt>
        <trkpt lat="28.74951" lon="104.743013"><ele>340.5486</ele><time>2026-01-16T17:18:23.000Z</time></trkpt>
        <trkpt lat="28.749506" lon="104.742952"><ele>341.21515</ele><time>2026-01-16T17:18:28.000Z</time></trkpt>
        <trkpt lat="28.749491" lon="104.742896"><ele>341.9214</ele><time>2026-01-16T17:18:32.000Z</time></trkpt>
        <trkpt lat="28.749474" lon="104.742841"><ele>341.68347</ele><time>2026-01-16T17:18:35.000Z</time></trkpt>
        <trkpt lat="28.749453" lon="104.742785"><ele>341.41248</ele><time>2026-01-16T17:18:39.000Z</time></trkpt>
        <trkpt lat="28.749439" lon="104.742723"><ele>341.0736</ele><time>2026-01-16T17:18:43.000Z</time></trkpt>
        <trkpt lat="28.749427" lon="104.742668"><ele>340.2526</ele><time>2026-01-16T17:18:47.000Z</time></trkpt>
        <trkpt lat="28.749413" lon="104.742611"><ele>339.54367</ele><time>2026-01-16T17:18:51.000Z</time></trkpt>
        <trkpt lat="28.749398" lon="104.742553"><ele>338.73544</ele><time>2026-01-16T17:18:56.000Z</time></trkpt>
        <trkpt lat="28.74938" lon="104.742497"><ele>338.3599</ele><time>2026-01-16T17:19:00.000Z</time></trkpt>
        <trkpt lat="28.749363" lon="104.742441"><ele>338.33908</ele><time>2026-01-16T17:19:04.000Z</time></trkpt>
        <trkpt lat="28.74935" lon="104.742381"><ele>338.6235</ele><time>2026-01-16T17:19:08.000Z</time></trkpt>
        <trkpt lat="28.749331" lon="104.742327"><ele>338.66647</ele><time>2026-01-16T17:19:12.000Z</time></trkpt>
        <trkpt lat="28.749317" lon="104.742273"><ele>339.50964</ele><time>2026-01-16T17:19:16.000Z</time></trkpt>
        <trkpt lat="28.749291" lon="104.742222"><ele>339.24722</ele><time>2026-01-16T17:19:20.000Z</time></trkpt>
        <trkpt lat="28.749263" lon="104.742171"><ele>339.26773</ele><time>2026-01-16T17:19:24.000Z</time></trkpt>
        <trkpt lat="28.74924" lon="104.742119"><ele>339.1456</ele><time>2026-01-16T17:19:28.000Z</time></trkpt>
        <trkpt lat="28.749219" lon="104.742068"><ele>338.7107</ele><time>2026-01-16T17:19:33.000Z</time></trkpt>
        <trkpt lat="28.749197" lon="104.74201"><ele>339.0958</ele><time>2026-01-16T17:19:37.000Z</time></trkpt>
        <trkpt lat="28.749177" lon="104.741955"><ele>338.48944</ele><time>2026-01-16T17:19:41.000Z</time></trkpt>
        <trkpt lat="28.749158" lon="104.741887"><ele>338.016</ele><time>2026-01-16T17:19:46.000Z</time></trkpt>
        <trkpt lat="28.749152" lon="104.741832"><ele>337.28665</ele><time>2026-01-16T17:19:50.000Z</time></trkpt>
        <trkpt lat="28.749158" lon="104.741774"><ele>337.94547</ele><time>2026-01-16T17:19:54.000Z</time></trkpt>
        <trkpt lat="28.749164" lon="104.741711"><ele>338.10608</ele><time>2026-01-16T17:19:58.000Z</time></trkpt>
        <trkpt lat="28.74917" lon="104.741647"><ele>337.81387</ele><time>2026-01-16T17:20:02.000Z</time></trkpt>
        <trkpt lat="28.749169" lon="104.741579"><ele>338.0564</ele><time>2026-01-16T17:20:06.000Z</time></trkpt>
        <trkpt lat="28.74915" lon="104.741517"><ele>338.3801</ele><time>2026-01-16T17:20:10.000Z</time></trkpt>
        <trkpt lat="28.749116" lon="104.741475"><ele>339.3302</ele><time>2026-01-16T17:20:14.000Z</time></trkpt>
        <trkpt lat="28.749145" lon="104.741532"><ele>338.84152</ele><time>2026-01-16T17:20:22.000Z</time></trkpt>
        <trkpt lat="28.749173" lon="104.741591"><ele>338.656</ele><time>2026-01-16T17:20:26.000Z</time></trkpt>
        <trkpt lat="28.749178" lon="104.741652"><ele>339.2595</ele><time>2026-01-16T17:20:30.000Z</time></trkpt>
        <trkpt lat="28.749177" lon="104.74171"><ele>339.49652</ele><time>2026-01-16T17:20:33.000Z</time></trkpt>
        <trkpt lat="28.749174" lon="104.741762"><ele>339.7174</ele><time>2026-01-16T17:20:35.000Z</time></trkpt>
        <trkpt lat="28.749178" lon="104.741823"><ele>339.3203</ele><time>2026-01-16T17:20:47.000Z</time></trkpt>
        <trkpt lat="28.749178" lon="104.741884"><ele>339.0158</ele><time>2026-01-16T17:20:51.000Z</time></trkpt>
        <trkpt lat="28.749183" lon="104.74194"><ele>338.8967</ele><time>2026-01-16T17:20:55.000Z</time></trkpt>
        <trkpt lat="28.7492" lon="104.741988"><ele>339.11017</ele><time>2026-01-16T17:20:58.000Z</time></trkpt>
        <trkpt lat="28.74922" lon="104.742039"><ele>338.8063</ele><time>2026-01-16T17:21:02.000Z</time></trkpt>
        <trkpt lat="28.749244" lon="104.742091"><ele>338.6573</ele><time>2026-01-16T17:21:07.000Z</time></trkpt>
        <trkpt lat="28.749269" lon="104.742147"><ele>338.10315</ele><time>2026-01-16T17:21:12.000Z</time></trkpt>
        <trkpt lat="28.749296" lon="104.742192"><ele>338.43698</ele><time>2026-01-16T17:21:16.000Z</time></trkpt>
        <trkpt lat="28.749318" lon="104.742245"><ele>338.86154</ele><time>2026-01-16T17:21:20.000Z</time></trkpt>
        <trkpt lat="28.749342" lon="104.742299"><ele>338.8527</ele><time>2026-01-16T17:21:24.000Z</time></trkpt>
        <trkpt lat="28.749367" lon="104.742355"><ele>339.43576</ele><time>2026-01-16T17:21:28.000Z</time></trkpt>
        <trkpt lat="28.749387" lon="104.742408"><ele>339.2989</ele><time>2026-01-16T17:21:32.000Z</time></trkpt>
        <trkpt lat="28.749397" lon="104.742463"><ele>339.37198</ele><time>2026-01-16T17:21:36.000Z</time></trkpt>
        <trkpt lat="28.749408" lon="104.742525"><ele>339.6052</ele><time>2026-01-16T17:21:41.000Z</time></trkpt>
        <trkpt lat="28.749372" lon="104.74256"><ele>338.58624</ele><time>2026-01-16T17:21:58.000Z</time></trkpt>
        <trkpt lat="28.749332" lon="104.742599"><ele>337.84875</ele><time>2026-01-16T17:22:03.000Z</time></trkpt>
        <trkpt lat="28.749289" lon="104.742634"><ele>336.5043</ele><time>2026-01-16T17:22:08.000Z</time></trkpt>
        <trkpt lat="28.749254" lon="104.742668"><ele>336.31168</ele><time>2026-01-16T17:22:12.000Z</time></trkpt>
        <trkpt lat="28.749216" lon="104.742715"><ele>335.86795</ele><time>2026-01-16T17:22:16.000Z</time></trkpt>
        <trkpt lat="28.749179" lon="104.742753"><ele>335.96082</ele><time>2026-01-16T17:22:20.000Z</time></trkpt>
        <trkpt lat="28.749128" lon="104.742782"><ele>335.43137</ele><time>2026-01-16T17:22:24.000Z</time></trkpt>
        <trkpt lat="28.749089" lon="104.742816"><ele>334.78058</ele><time>2026-01-16T17:22:27.000Z</time></trkpt>
        <trkpt lat="28.749039" lon="104.742846"><ele>334.0975</ele><time>2026-01-16T17:22:31.000Z</time></trkpt>
        <trkpt lat="28.748998" lon="104.742893"><ele>333.06003</ele><time>2026-01-16T17:22:35.000Z</time></trkpt>
        <trkpt lat="28.748959" lon="104.742937"><ele>331.75125</ele><time>2026-01-16T17:22:39.000Z</time></trkpt>
        <trkpt lat="28.748924" lon="104.742974"><ele>331.55838</ele><time>2026-01-16T17:22:42.000Z</time></trkpt>
        <trkpt lat="28.748886" lon="104.743014"><ele>330.93567</ele><time>2026-01-16T17:22:46.000Z</time></trkpt>
        <trkpt lat="28.74884" lon="104.743042"><ele>330.2216</ele><time>2026-01-16T17:22:50.000Z</time></trkpt>
        <trkpt lat="28.748797" lon="104.74308"><ele>329.47992</ele><time>2026-01-16T17:22:53.000Z</time></trkpt>
        <trkpt lat="28.74875" lon="104.743111"><ele>327.8481</ele><time>2026-01-16T17:22:57.000Z</time></trkpt>
        <trkpt lat="28.748716" lon="104.743153"><ele>326.84842</ele><time>2026-01-16T17:23:01.000Z</time></trkpt>
        <trkpt lat="28.748682" lon="104.743202"><ele>325.58945</ele><time>2026-01-16T17:23:05.000Z</time></trkpt>
        <trkpt lat="28.748647" lon="104.743248"><ele>324.7524</ele><time>2026-01-16T17:23:09.000Z</time></trkpt>
        <trkpt lat="28.748612" lon="104.743289"><ele>323.86603</ele><time>2026-01-16T17:23:13.000Z</time></trkpt>
        <trkpt lat="28.748566" lon="104.74332"><ele>323.1644</ele><time>2026-01-16T17:23:17.000Z</time></trkpt>
        <trkpt lat="28.748511" lon="104.743322"><ele>322.98038</ele><time>2026-01-16T17:23:21.000Z</time></trkpt>
        <trkpt lat="28.748461" lon="104.743319"><ele>322.29797</ele><time>2026-01-16T17:23:28.000Z</time></trkpt>
        <trkpt lat="28.748416" lon="104.743292"><ele>321.83286</ele><time>2026-01-16T17:23:36.000Z</time></trkpt>
        <trkpt lat="28.748366" lon="104.74329"><ele>321.79904</ele><time>2026-01-16T17:23:40.000Z</time></trkpt>
        <trkpt lat="28.748316" lon="104.743301"><ele>321.18677</ele><time>2026-01-16T17:23:46.000Z</time></trkpt>
        <trkpt lat="28.748271" lon="104.743319"><ele>320.79547</ele><time>2026-01-16T17:23:51.000Z</time></trkpt>
        <trkpt lat="28.74823" lon="104.743366"><ele>321.12787</ele><time>2026-01-16T17:23:56.000Z</time></trkpt>
        <trkpt lat="28.748207" lon="104.743411"><ele>320.96255</ele><time>2026-01-16T17:24:00.000Z</time></trkpt>
        <trkpt lat="28.748182" lon="104.743463"><ele>321.10144</ele><time>2026-01-16T17:24:05.000Z</time></trkpt>
        <trkpt lat="28.748162" lon="104.743514"><ele>321.36978</ele><time>2026-01-16T17:24:10.000Z</time></trkpt>
        <trkpt lat="28.74813" lon="104.743553"><ele>321.26443</ele><time>2026-01-16T17:24:14.000Z</time></trkpt>
        <trkpt lat="28.748088" lon="104.743584"><ele>321.04022</ele><time>2026-01-16T17:24:18.000Z</time></trkpt>
        <trkpt lat="28.748042" lon="104.743615"><ele>320.94992</ele><time>2026-01-16T17:24:22.000Z</time></trkpt>
        <trkpt lat="28.747989" lon="104.743635"><ele>320.92386</ele><time>2026-01-16T17:24:26.000Z</time></trkpt>
        <trkpt lat="28.747943" lon="104.743647"><ele>321.4668</ele><time>2026-01-16T17:24:30.000Z</time></trkpt>
        <trkpt lat="28.747893" lon="104.743652"><ele>322.0637</ele><time>2026-01-16T17:24:34.000Z</time></trkpt>
        <trkpt lat="28.747849" lon="104.743669"><ele>322.17224</ele><time>2026-01-16T17:24:38.000Z</time></trkpt>
        <trkpt lat="28.747799" lon="104.743686"><ele>322.55276</ele><time>2026-01-16T17:24:42.000Z</time></trkpt>
        <trkpt lat="28.747746" lon="104.743712"><ele>323.05624</ele><time>2026-01-16T17:24:46.000Z</time></trkpt>
        <trkpt lat="28.747694" lon="104.743737"><ele>323.19046</ele><time>2026-01-16T17:24:50.000Z</time></trkpt>
        <trkpt lat="28.74764" lon="104.743752"><ele>323.1498</ele><time>2026-01-16T17:24:54.000Z</time></trkpt>
        <trkpt lat="28.747591" lon="104.743764"><ele>323.22482</ele><time>2026-01-16T17:24:58.000Z</time></trkpt>
        <trkpt lat="28.74754" lon="104.743777"><ele>322.79938</ele><time>2026-01-16T17:25:02.000Z</time></trkpt>
        <trkpt lat="28.747489" lon="104.743784"><ele>322.91986</ele><time>2026-01-16T17:25:05.000Z</time></trkpt>
        <trkpt lat="28.747437" lon="104.743783"><ele>323.03152</ele><time>2026-01-16T17:25:09.000Z</time></trkpt>
        <trkpt lat="28.747394" lon="104.74377"><ele>322.9816</ele><time>2026-01-16T17:25:13.000Z</time></trkpt>
        <trkpt lat="28.747348" lon="104.743753"><ele>322.3499</ele><time>2026-01-16T17:25:17.000Z</time></trkpt>
        <trkpt lat="28.747298" lon="104.743726"><ele>322.70322</ele><time>2026-01-16T17:25:21.000Z</time></trkpt>
        <trkpt lat="28.747252" lon="104.743693"><ele>322.09375</ele><time>2026-01-16T17:25:25.000Z</time></trkpt>
        <trkpt lat="28.747204" lon="104.743666"><ele>321.87335</ele><time>2026-01-16T17:25:29.000Z</time></trkpt>
        <trkpt lat="28.747161" lon="104.743622"><ele>321.48422</ele><time>2026-01-16T17:25:33.000Z</time></trkpt>
        <trkpt lat="28.747129" lon="104.743569"><ele>320.60455</ele><time>2026-01-16T17:25:37.000Z</time></trkpt>
        <trkpt lat="28.747101" lon="104.74351"><ele>320.19058</ele><time>2026-01-16T17:25:41.000Z</time></trkpt>
        <trkpt lat="28.747074" lon="104.743452"><ele>319.58133</ele><time>2026-01-16T17:25:45.000Z</time></trkpt>
        <trkpt lat="28.747038" lon="104.743404"><ele>319.04434</ele><time>2026-01-16T17:25:49.000Z</time></trkpt>
        <trkpt lat="28.747014" lon="104.743348"><ele>318.51956</ele><time>2026-01-16T17:25:54.000Z</time></trkpt>
        <trkpt lat="28.746995" lon="104.74329"><ele>317.93338</ele><time>2026-01-16T17:25:58.000Z</time></trkpt>
        <trkpt lat="28.746977" lon="104.743234"><ele>318.24066</ele><time>2026-01-16T17:26:02.000Z</time></trkpt>
        <trkpt lat="28.746965" lon="104.743175"><ele>318.70483</ele><time>2026-01-16T17:26:06.000Z</time></trkpt>
        <trkpt lat="28.746945" lon="104.743122"><ele>317.70657</ele><time>2026-01-16T17:26:10.000Z</time></trkpt>
        <trkpt lat="28.746919" lon="104.743065"><ele>317.7061</ele><time>2026-01-16T17:26:14.000Z</time></trkpt>
        <trkpt lat="28.74689" lon="104.743013"><ele>317.68314</ele><time>2026-01-16T17:26:18.000Z</time></trkpt>
        <trkpt lat="28.746862" lon="104.742967"><ele>317.33038</ele><time>2026-01-16T17:26:22.000Z</time></trkpt>
        <trkpt lat="28.746828" lon="104.742926"><ele>317.75797</ele><time>2026-01-16T17:26:26.000Z</time></trkpt>
        <trkpt lat="28.746781" lon="104.742898"><ele>317.73993</ele><time>2026-01-16T17:26:30.000Z</time></trkpt>
        <trkpt lat="28.746727" lon="104.742889"><ele>317.22583</ele><time>2026-01-16T17:26:35.000Z</time></trkpt>
        <trkpt lat="28.746679" lon="104.742895"><ele>316.76004</ele><time>2026-01-16T17:26:39.000Z</time></trkpt>
        <trkpt lat="28.74663" lon="104.742912"><ele>316.72852</ele><time>2026-01-16T17:26:43.000Z</time></trkpt>
        <trkpt lat="28.74659" lon="104.742951"><ele>316.99387</ele><time>2026-01-16T17:26:47.000Z</time></trkpt>
        <trkpt lat="28.746547" lon="104.742979"><ele>316.09885</ele><time>2026-01-16T17:26:51.000Z</time></trkpt>
        <trkpt lat="28.746502" lon="104.74301"><ele>315.22495</ele><time>2026-01-16T17:26:55.000Z</time></trkpt>
        <trkpt lat="28.746461" lon="104.743045"><ele>315.20383</ele><time>2026-01-16T17:26:59.000Z</time></trkpt>
        <trkpt lat="28.746413" lon="104.743068"><ele>314.77545</ele><time>2026-01-16T17:27:03.000Z</time></trkpt>
        <trkpt lat="28.746362" lon="104.743081"><ele>314.2279</ele><time>2026-01-16T17:27:06.000Z</time></trkpt>
        <trkpt lat="28.746308" lon="104.743066"><ele>313.5014</ele><time>2026-01-16T17:27:10.000Z</time></trkpt>
        <trkpt lat="28.746261" lon="104.743045"><ele>313.09036</ele><time>2026-01-16T17:27:14.000Z</time></trkpt>
        <trkpt lat="28.746212" lon="104.743022"><ele>313.68585</ele><time>2026-01-16T17:27:18.000Z</time></trkpt>
        <trkpt lat="28.746175" lon="104.742986"><ele>312.93582</ele><time>2026-01-16T17:27:22.000Z</time></trkpt>
        <trkpt lat="28.746134" lon="104.742946"><ele>312.93677</ele><time>2026-01-16T17:27:26.000Z</time></trkpt>
        <trkpt lat="28.746085" lon="104.742919"><ele>312.89352</ele><time>2026-01-16T17:27:30.000Z</time></trkpt>
        <trkpt lat="28.746038" lon="104.742899"><ele>312.79498</ele><time>2026-01-16T17:27:34.000Z</time></trkpt>
        <trkpt lat="28.745991" lon="104.74287"><ele>312.84326</ele><time>2026-01-16T17:27:38.000Z</time></trkpt>
        <trkpt lat="28.745945" lon="104.742846"><ele>313.39764</ele><time>2026-01-16T17:27:42.000Z</time></trkpt>
        <trkpt lat="28.745898" lon="104.742825"><ele>312.74207</ele><time>2026-01-16T17:27:46.000Z</time></trkpt>
        <trkpt lat="28.745854" lon="104.742793"><ele>313.7561</ele><time>2026-01-16T17:27:50.000Z</time></trkpt>
        <trkpt lat="28.745806" lon="104.742777"><ele>314.69278</ele><time>2026-01-16T17:27:54.000Z</time></trkpt>
        <trkpt lat="28.74576" lon="104.742749"><ele>315.7727</ele><time>2026-01-16T17:27:59.000Z</time></trkpt>
        <trkpt lat="28.745713" lon="104.74275"><ele>316.31863</ele><time>2026-01-16T17:28:03.000Z</time></trkpt>
        <trkpt lat="28.745667" lon="104.742759"><ele>317.65533</ele><time>2026-01-16T17:28:07.000Z</time></trkpt>
        <trkpt lat="28.745613" lon="104.742781"><ele>318.01962</ele><time>2026-01-16T17:28:12.000Z</time></trkpt>
        <trkpt lat="28.745572" lon="104.742802"><ele>318.4743</ele><time>2026-01-16T17:28:16.000Z</time></trkpt>
        <trkpt lat="28.745529" lon="104.742819"><ele>318.27887</ele><time>2026-01-16T17:28:20.000Z</time></trkpt>
        <trkpt lat="28.745478" lon="104.742838"><ele>317.39206</ele><time>2026-01-16T17:28:25.000Z</time></trkpt>
        <trkpt lat="28.745431" lon="104.742858"><ele>317.92456</ele><time>2026-01-16T17:28:29.000Z</time></trkpt>
        <trkpt lat="28.74538" lon="104.742869"><ele>317.95355</ele><time>2026-01-16T17:28:33.000Z</time></trkpt>
        <trkpt lat="28.74533" lon="104.742876"><ele>318.5227</ele><time>2026-01-16T17:28:37.000Z</time></trkpt>
        <trkpt lat="28.745277" lon="104.742877"><ele>318.86948</ele><time>2026-01-16T17:28:41.000Z</time></trkpt>
        <trkpt lat="28.74523" lon="104.742871"><ele>319.83743</ele><time>2026-01-16T17:28:45.000Z</time></trkpt>
        <trkpt lat="28.745179" lon="104.742846"><ele>319.02777</ele><time>2026-01-16T17:28:50.000Z</time></trkpt>
        <trkpt lat="28.745138" lon="104.742814"><ele>318.2813</ele><time>2026-01-16T17:28:54.000Z</time></trkpt>
        <trkpt lat="28.745111" lon="104.742761"><ele>317.54913</ele><time>2026-01-16T17:28:59.000Z</time></trkpt>
        <trkpt lat="28.7451" lon="104.742705"><ele>316.97925</ele><time>2026-01-16T17:29:03.000Z</time></trkpt>
        <trkpt lat="28.745115" lon="104.742649"><ele>316.8594</ele><time>2026-01-16T17:29:07.000Z</time></trkpt>
        <trkpt lat="28.745131" lon="104.742598"><ele>316.57468</ele><time>2026-01-16T17:29:12.000Z</time></trkpt>
        <trkpt lat="28.745138" lon="104.742539"><ele>317.1537</ele><time>2026-01-16T17:29:15.000Z</time></trkpt>
        <trkpt lat="28.745137" lon="104.74248"><ele>317.78644</ele><time>2026-01-16T17:29:19.000Z</time></trkpt>
        <trkpt lat="28.745141" lon="104.742425"><ele>318.01822</ele><time>2026-01-16T17:29:23.000Z</time></trkpt>
        <trkpt lat="28.745129" lon="104.742374"><ele>318.83038</ele><time>2026-01-16T17:29:27.000Z</time></trkpt>
        <trkpt lat="28.745115" lon="104.742312"><ele>318.8498</ele><time>2026-01-16T17:29:32.000Z</time></trkpt>
        <trkpt lat="28.745116" lon="104.742261"><ele>318.24112</ele><time>2026-01-16T17:29:35.000Z</time></trkpt>
        <trkpt lat="28.745101" lon="104.742206"><ele>318.8899</ele><time>2026-01-16T17:29:39.000Z</time></trkpt>
        <trkpt lat="28.745087" lon="104.742156"><ele>318.69434</ele><time>2026-01-16T17:29:43.000Z</time></trkpt>
        <trkpt lat="28.745067" lon="104.742098"><ele>318.85577</ele><time>2026-01-16T17:29:47.000Z</time></trkpt>
        <trkpt lat="28.745045" lon="104.742047"><ele>318.9902</ele><time>2026-01-16T17:29:51.000Z</time></trkpt>
        <trkpt lat="28.745019" lon="104.741999"><ele>318.28503</ele><time>2026-01-16T17:29:55.000Z</time></trkpt>
        <trkpt lat="28.74499" lon="104.741952"><ele>318.4331</ele><time>2026-01-16T17:29:59.000Z</time></trkpt>
        <trkpt lat="28.744951" lon="104.741907"><ele>318.62723</ele><time>2026-01-16T17:30:04.000Z</time></trkpt>
        <trkpt lat="28.744921" lon="104.741864"><ele>317.43173</ele><time>2026-01-16T17:30:09.000Z</time></trkpt>
        <trkpt lat="28.744879" lon="104.741835"><ele>315.59995</ele><time>2026-01-16T17:30:18.000Z</time></trkpt>
        <trkpt lat="28.744825" lon="104.741838"><ele>313.70227</ele><time>2026-01-16T17:30:23.000Z</time></trkpt>
        <trkpt lat="28.744773" lon="104.741825"><ele>312.81436</ele><time>2026-01-16T17:30:27.000Z</time></trkpt>
        <trkpt lat="28.744716" lon="104.741814"><ele>312.0684</ele><time>2026-01-16T17:30:31.000Z</time></trkpt>
        <trkpt lat="28.74467" lon="104.741795"><ele>310.64142</ele><time>2026-01-16T17:30:35.000Z</time></trkpt>
        <trkpt lat="28.744625" lon="104.741761"><ele>309.4123</ele><time>2026-01-16T17:30:39.000Z</time></trkpt>
        <trkpt lat="28.744579" lon="104.741737"><ele>309.33408</ele><time>2026-01-16T17:30:43.000Z</time></trkpt>
        <trkpt lat="28.744537" lon="104.741698"><ele>308.43375</ele><time>2026-01-16T17:30:47.000Z</time></trkpt>
        <trkpt lat="28.744498" lon="104.741669"><ele>307.552</ele><time>2026-01-16T17:30:51.000Z</time></trkpt>
        <trkpt lat="28.744451" lon="104.741653"><ele>307.8746</ele><time>2026-01-16T17:31:04.000Z</time></trkpt>
        <trkpt lat="28.744393" lon="104.741653"><ele>306.8106</ele><time>2026-01-16T17:31:09.000Z</time></trkpt>
        <trkpt lat="28.744344" lon="104.741668"><ele>306.35104</ele><time>2026-01-16T17:31:13.000Z</time></trkpt>
        <trkpt lat="28.744301" lon="104.741691"><ele>305.76147</ele><time>2026-01-16T17:31:17.000Z</time></trkpt>
        <trkpt lat="28.744262" lon="104.741724"><ele>305.24957</ele><time>2026-01-16T17:31:21.000Z</time></trkpt>
        <trkpt lat="28.744217" lon="104.741759"><ele>304.2937</ele><time>2026-01-16T17:31:26.000Z</time></trkpt>
        <trkpt lat="28.744181" lon="104.741794"><ele>303.7288</ele><time>2026-01-16T17:31:30.000Z</time></trkpt>
        <trkpt lat="28.744128" lon="104.741825"><ele>303.0402</ele><time>2026-01-16T17:31:35.000Z</time></trkpt>
        <trkpt lat="28.744092" lon="104.741857"><ele>302.745</ele><time>2026-01-16T17:31:38.000Z</time></trkpt>
        <trkpt lat="28.744046" lon="104.741859"><ele>303.40067</ele><time>2026-01-16T17:31:41.000Z</time></trkpt>
        <trkpt lat="28.744009" lon="104.741903"><ele>303.32895</ele><time>2026-01-16T17:31:45.000Z</time></trkpt>
        <trkpt lat="28.743974" lon="104.741945"><ele>302.8499</ele><time>2026-01-16T17:31:49.000Z</time></trkpt>
        <trkpt lat="28.74394" lon="104.741985"><ele>303.0129</ele><time>2026-01-16T17:31:53.000Z</time></trkpt>
        <trkpt lat="28.743903" lon="104.742026"><ele>302.77985</ele><time>2026-01-16T17:31:56.000Z</time></trkpt>
        <trkpt lat="28.743859" lon="104.742053"><ele>303.3449</ele><time>2026-01-16T17:31:59.000Z</time></trkpt>
        <trkpt lat="28.743808" lon="104.742079"><ele>302.7675</ele><time>2026-01-16T17:32:03.000Z</time></trkpt>
        <trkpt lat="28.743754" lon="104.742091"><ele>302.4422</ele><time>2026-01-16T17:32:07.000Z</time></trkpt>
        <trkpt lat="28.743719" lon="104.742133"><ele>302.58453</ele><time>2026-01-16T17:32:12.000Z</time></trkpt>
        <trkpt lat="28.743672" lon="104.742158"><ele>302.1389</ele><time>2026-01-16T17:32:16.000Z</time></trkpt>
        <trkpt lat="28.743615" lon="104.742171"><ele>302.261</ele><time>2026-01-16T17:32:20.000Z</time></trkpt>
        <trkpt lat="28.743566" lon="104.742179"><ele>302.12448</ele><time>2026-01-16T17:32:24.000Z</time></trkpt>
        <trkpt lat="28.743513" lon="104.742188"><ele>300.18082</ele><time>2026-01-16T17:32:29.000Z</time></trkpt>
        <trkpt lat="28.743461" lon="104.742176"><ele>299.28506</ele><time>2026-01-16T17:32:33.000Z</time></trkpt>
        <trkpt lat="28.743406" lon="104.74217"><ele>298.60715</ele><time>2026-01-16T17:32:37.000Z</time></trkpt>
        <trkpt lat="28.743352" lon="104.742178"><ele>298.00452</ele><time>2026-01-16T17:32:41.000Z</time></trkpt>
        <trkpt lat="28.743303" lon="104.742171"><ele>296.83347</ele><time>2026-01-16T17:32:45.000Z</time></trkpt>
        <trkpt lat="28.743251" lon="104.74215"><ele>297.11618</ele><time>2026-01-16T17:32:49.000Z</time></trkpt>
        <trkpt lat="28.743201" lon="104.74213"><ele>297.08466</ele><time>2026-01-16T17:32:53.000Z</time></trkpt>
        <trkpt lat="28.743161" lon="104.742106"><ele>298.1021</ele><time>2026-01-16T17:32:56.000Z</time></trkpt>
        <trkpt lat="28.743112" lon="104.742079"><ele>298.64462</ele><time>2026-01-16T17:33:00.000Z</time></trkpt>
        <trkpt lat="28.743061" lon="104.742055"><ele>297.78995</ele><time>2026-01-16T17:33:04.000Z</time></trkpt>
        <trkpt lat="28.743009" lon="104.742046"><ele>298.9293</ele><time>2026-01-16T17:33:08.000Z</time></trkpt>
        <trkpt lat="28.742956" lon="104.742054"><ele>298.25845</ele><time>2026-01-16T17:33:12.000Z</time></trkpt>
        <trkpt lat="28.742905" lon="104.742071"><ele>297.26764</ele><time>2026-01-16T17:33:16.000Z</time></trkpt>
        <trkpt lat="28.742859" lon="104.742101"><ele>296.43753</ele><time>2026-01-16T17:33:20.000Z</time></trkpt>
        <trkpt lat="28.742827" lon="104.74215"><ele>295.3446</ele><time>2026-01-16T17:33:25.000Z</time></trkpt>
        <trkpt lat="28.742801" lon="104.742203"><ele>294.97504</ele><time>2026-01-16T17:33:30.000Z</time></trkpt>
        <trkpt lat="28.742787" lon="104.742259"><ele>294.33133</ele><time>2026-01-16T17:33:35.000Z</time></trkpt>
        <trkpt lat="28.742745" lon="104.742296"><ele>294.54855</ele><time>2026-01-16T17:33:39.000Z</time></trkpt>
        <trkpt lat="28.742691" lon="104.742314"><ele>295.09766</ele><time>2026-01-16T17:33:42.000Z</time></trkpt>
        <trkpt lat="28.742641" lon="104.742345"><ele>294.77487</ele><time>2026-01-16T17:33:46.000Z</time></trkpt>
        <trkpt lat="28.74259" lon="104.742366"><ele>295.7067</ele><time>2026-01-16T17:33:50.000Z</time></trkpt>
        <trkpt lat="28.742534" lon="104.742373"><ele>296.5667</ele><time>2026-01-16T17:33:54.000Z</time></trkpt>
        <trkpt lat="28.742488" lon="104.742379"><ele>296.89066</ele><time>2026-01-16T17:33:58.000Z</time></trkpt>
        <trkpt lat="28.742442" lon="104.742355"><ele>297.46027</ele><time>2026-01-16T17:34:02.000Z</time></trkpt>
        <trkpt lat="28.74239" lon="104.742332"><ele>297.94986</ele><time>2026-01-16T17:34:06.000Z</time></trkpt>
        <trkpt lat="28.742347" lon="104.742294"><ele>297.6178</ele><time>2026-01-16T17:34:11.000Z</time></trkpt>
        <trkpt lat="28.742329" lon="104.742225"><ele>297.47345</ele><time>2026-01-16T17:34:16.000Z</time></trkpt>
        <trkpt lat="28.742306" lon="104.742166"><ele>297.14285</ele><time>2026-01-16T17:34:20.000Z</time></trkpt>
        <trkpt lat="28.742287" lon="104.742106"><ele>296.37073</ele><time>2026-01-16T17:34:24.000Z</time></trkpt>
        <trkpt lat="28.742257" lon="104.74205"><ele>296.31058</ele><time>2026-01-16T17:34:29.000Z</time></trkpt>
        <trkpt lat="28.742243" lon="104.742001"><ele>296.31635</ele><time>2026-01-16T17:34:33.000Z</time></trkpt>
        <trkpt lat="28.74223" lon="104.741945"><ele>296.1971</ele><time>2026-01-16T17:34:37.000Z</time></trkpt>
        <trkpt lat="28.742212" lon="104.741887"><ele>295.3094</ele><time>2026-01-16T17:34:41.000Z</time></trkpt>
        <trkpt lat="28.742194" lon="104.741837"><ele>295.73813</ele><time>2026-01-16T17:34:44.000Z</time></trkpt>
        <trkpt lat="28.742185" lon="104.741784"><ele>296.50922</ele><time>2026-01-16T17:34:48.000Z</time></trkpt>
        <trkpt lat="28.742172" lon="104.741733"><ele>295.9144</ele><time>2026-01-16T17:34:51.000Z</time></trkpt>
        <trkpt lat="28.742165" lon="104.741673"><ele>296.33868</ele><time>2026-01-16T17:34:55.000Z</time></trkpt>
        <trkpt lat="28.742142" lon="104.741619"><ele>296.61984</ele><time>2026-01-16T17:34:59.000Z</time></trkpt>
        <trkpt lat="28.742128" lon="104.741565"><ele>295.87726</ele><time>2026-01-16T17:35:03.000Z</time></trkpt>
        <trkpt lat="28.742118" lon="104.741514"><ele>296.25317</ele><time>2026-01-16T17:35:06.000Z</time></trkpt>
        <trkpt lat="28.742091" lon="104.741457"><ele>295.92517</ele><time>2026-01-16T17:35:10.000Z</time></trkpt>
        <trkpt lat="28.742056" lon="104.741412"><ele>295.81497</ele><time>2026-01-16T17:35:15.000Z</time></trkpt>
        <trkpt lat="28.742025" lon="104.741373"><ele>295.75674</ele><time>2026-01-16T17:35:19.000Z</time></trkpt>
        <trkpt lat="28.741983" lon="104.74133"><ele>296.3101</ele><time>2026-01-16T17:35:23.000Z</time></trkpt>
        <trkpt lat="28.741939" lon="104.741292"><ele>296.03336</ele><time>2026-01-16T17:35:27.000Z</time></trkpt>
        <trkpt lat="28.741899" lon="104.741267"><ele>296.85822</ele><time>2026-01-16T17:35:32.000Z</time></trkpt>
        <trkpt lat="28.741844" lon="104.741244"><ele>296.64395</ele><time>2026-01-16T17:35:36.000Z</time></trkpt>
        <trkpt lat="28.741829" lon="104.741182"><ele>296.33203</ele><time>2026-01-16T17:35:42.000Z</time></trkpt>
        <trkpt lat="28.741813" lon="104.741127"><ele>296.03687</ele><time>2026-01-16T17:36:00.000Z</time></trkpt>
        <trkpt lat="28.741796" lon="104.741185"><ele>295.96286</ele><time>2026-01-16T17:36:16.000Z</time></trkpt>
        <trkpt lat="28.741811" lon="104.741134"><ele>296.39053</ele><time>2026-01-16T17:36:34.000Z</time></trkpt>
        <trkpt lat="28.741803" lon="104.741188"><ele>296.44855</ele><time>2026-01-16T17:36:44.000Z</time></trkpt>
        <trkpt lat="28.741788" lon="104.741248"><ele>297.26508</ele><time>2026-01-16T17:36:48.000Z</time></trkpt>
        <trkpt lat="28.74177" lon="104.741305"><ele>296.9966</ele><time>2026-01-16T17:36:53.000Z</time></trkpt>
        <trkpt lat="28.741755" lon="104.741355"><ele>296.60532</ele><time>2026-01-16T17:36:58.000Z</time></trkpt>
        <trkpt lat="28.741755" lon="104.741408"><ele>296.43954</ele><time>2026-01-16T17:37:02.000Z</time></trkpt>
        <trkpt lat="28.741749" lon="104.741466"><ele>296.5767</ele><time>2026-01-16T17:37:07.000Z</time></trkpt>
        <trkpt lat="28.741754" lon="104.741522"><ele>296.99155</ele><time>2026-01-16T17:37:11.000Z</time></trkpt>
        <trkpt lat="28.741756" lon="104.741582"><ele>296.7812</ele><time>2026-01-16T17:37:15.000Z</time></trkpt>
        <trkpt lat="28.741764" lon="104.741639"><ele>296.67685</ele><time>2026-01-16T17:37:20.000Z</time></trkpt>
        <trkpt lat="28.741752" lon="104.7417"><ele>296.54022</ele><time>2026-01-16T17:37:24.000Z</time></trkpt>
        <trkpt lat="28.741748" lon="104.741765"><ele>296.43417</ele><time>2026-01-16T17:37:29.000Z</time></trkpt>
        <trkpt lat="28.741769" lon="104.741826"><ele>296.3471</ele><time>2026-01-16T17:37:33.000Z</time></trkpt>
        <trkpt lat="28.741763" lon="104.74189"><ele>295.99628</ele><time>2026-01-16T17:37:38.000Z</time></trkpt>
        <trkpt lat="28.741767" lon="104.741948"><ele>296.30466</ele><time>2026-01-16T17:37:42.000Z</time></trkpt>
        <trkpt lat="28.741769" lon="104.742003"><ele>296.51453</ele><time>2026-01-16T17:37:46.000Z</time></trkpt>
        <trkpt lat="28.741769" lon="104.742064"><ele>296.28244</ele><time>2026-01-16T17:37:51.000Z</time></trkpt>
        <trkpt lat="28.741775" lon="104.742118"><ele>296.1937</ele><time>2026-01-16T17:37:54.000Z</time></trkpt>
        <trkpt lat="28.741778" lon="104.74217"><ele>295.93042</ele><time>2026-01-16T17:37:57.000Z</time></trkpt>
        <trkpt lat="28.741763" lon="104.742221"><ele>295.64886</ele><time>2026-01-16T17:38:00.000Z</time></trkpt>
        <trkpt lat="28.741758" lon="104.742278"><ele>296.0032</ele><time>2026-01-16T17:38:03.000Z</time></trkpt>
        <trkpt lat="28.741741" lon="104.742341"><ele>296.58524</ele><time>2026-01-16T17:38:08.000Z</time></trkpt>
        <trkpt lat="28.741742" lon="104.742392"><ele>296.67236</ele><time>2026-01-16T17:38:12.000Z</time></trkpt>
        <trkpt lat="28.741745" lon="104.742446"><ele>297.4272</ele><time>2026-01-16T17:38:15.000Z</time></trkpt>
        <trkpt lat="28.741752" lon="104.742514"><ele>298.04678</ele><time>2026-01-16T17:38:19.000Z</time></trkpt>
        <trkpt lat="28.74175" lon="104.742569"><ele>298.8234</ele><time>2026-01-16T17:38:23.000Z</time></trkpt>
        <trkpt lat="28.741782" lon="104.742622"><ele>299.0856</ele><time>2026-01-16T17:38:27.000Z</time></trkpt>
        <trkpt lat="28.741786" lon="104.742696"><ele>300.12244</ele><time>2026-01-16T17:38:32.000Z</time></trkpt>
        <trkpt lat="28.741791" lon="104.742748"><ele>301.44897</ele><time>2026-01-16T17:38:36.000Z</time></trkpt>
        <trkpt lat="28.74181" lon="104.742807"><ele>301.3457</ele><time>2026-01-16T17:38:41.000Z</time></trkpt>
        <trkpt lat="28.741834" lon="104.742854"><ele>301.7269</ele><time>2026-01-16T17:38:45.000Z</time></trkpt>
        <trkpt lat="28.741862" lon="104.742902"><ele>301.96045</ele><time>2026-01-16T17:38:49.000Z</time></trkpt>
        <trkpt lat="28.741893" lon="104.742942"><ele>302.2825</ele><time>2026-01-16T17:38:53.000Z</time></trkpt>
        <trkpt lat="28.74193" lon="104.742985"><ele>302.2888</ele><time>2026-01-16T17:38:57.000Z</time></trkpt>
        <trkpt lat="28.741967" lon="104.743022"><ele>302.66376</ele><time>2026-01-16T17:39:01.000Z</time></trkpt>
        <trkpt lat="28.742013" lon="104.743034"><ele>302.56842</ele><time>2026-01-16T17:39:05.000Z</time></trkpt>
        <trkpt lat="28.742068" lon="104.743032"><ele>302.51047</ele><time>2026-01-16T17:39:09.000Z</time></trkpt>
        <trkpt lat="28.742113" lon="104.743023"><ele>302.49228</ele><time>2026-01-16T17:39:14.000Z</time></trkpt>
        <trkpt lat="28.742162" lon="104.743051"><ele>302.1829</ele><time>2026-01-16T17:39:19.000Z</time></trkpt>
        <trkpt lat="28.742189" lon="104.743095"><ele>302.124</ele><time>2026-01-16T17:39:41.000Z</time></trkpt>
        <trkpt lat="28.742198" lon="104.743153"><ele>301.16336</ele><time>2026-01-16T17:39:46.000Z</time></trkpt>
        <trkpt lat="28.74223" lon="104.743209"><ele>302.05606</ele><time>2026-01-16T17:39:50.000Z</time></trkpt>
        <trkpt lat="28.742254" lon="104.743257"><ele>302.5212</ele><time>2026-01-16T17:39:54.000Z</time></trkpt>
        <trkpt lat="28.742273" lon="104.743314"><ele>303.06055</ele><time>2026-01-16T17:39:59.000Z</time></trkpt>
        <trkpt lat="28.742313" lon="104.743351"><ele>303.51318</ele><time>2026-01-16T17:40:03.000Z</time></trkpt>
        <trkpt lat="28.742354" lon="104.743383"><ele>304.37152</ele><time>2026-01-16T17:40:09.000Z</time></trkpt>
        <trkpt lat="28.742385" lon="104.743422"><ele>304.99506</ele><time>2026-01-16T17:40:13.000Z</time></trkpt>
        <trkpt lat="28.742407" lon="104.743473"><ele>305.66144</ele><time>2026-01-16T17:40:18.000Z</time></trkpt>
        <trkpt lat="28.742419" lon="104.74353"><ele>306.17557</ele><time>2026-01-16T17:40:23.000Z</time></trkpt>
        <trkpt lat="28.74241" lon="104.743594"><ele>306.07825</ele><time>2026-01-16T17:40:28.000Z</time></trkpt>
        <trkpt lat="28.74242" lon="104.743651"><ele>306.8581</ele><time>2026-01-16T17:40:36.000Z</time></trkpt>
        <trkpt lat="28.742431" lon="104.743711"><ele>306.09598</ele><time>2026-01-16T17:40:40.000Z</time></trkpt>
        <trkpt lat="28.742434" lon="104.743768"><ele>305.63644</ele><time>2026-01-16T17:40:44.000Z</time></trkpt>
        <trkpt lat="28.742447" lon="104.743821"><ele>304.80078</ele><time>2026-01-16T17:40:48.000Z</time></trkpt>
        <trkpt lat="28.742456" lon="104.743875"><ele>303.4309</ele><time>2026-01-16T17:40:52.000Z</time></trkpt>
        <trkpt lat="28.742475" lon="104.743929"><ele>303.94296</ele><time>2026-01-16T17:40:56.000Z</time></trkpt>
        <trkpt lat="28.742484" lon="104.743985"><ele>303.459</ele><time>2026-01-16T17:41:00.000Z</time></trkpt>
        <trkpt lat="28.742492" lon="104.744038"><ele>303.38193</ele><time>2026-01-16T17:41:04.000Z</time></trkpt>
        <trkpt lat="28.742522" lon="104.744089"><ele>303.5051</ele><time>2026-01-16T17:41:08.000Z</time></trkpt>
        <trkpt lat="28.742528" lon="104.744146"><ele>304.50882</ele><time>2026-01-16T17:41:12.000Z</time></trkpt>
        <trkpt lat="28.742533" lon="104.744209"><ele>304.70963</ele><time>2026-01-16T17:41:16.000Z</time></trkpt>
        <trkpt lat="28.742535" lon="104.744267"><ele>304.45154</ele><time>2026-01-16T17:41:20.000Z</time></trkpt>
        <trkpt lat="28.742535" lon="104.744326"><ele>304.23294</ele><time>2026-01-16T17:41:24.000Z</time></trkpt>
        <trkpt lat="28.74253" lon="104.744384"><ele>304.18875</ele><time>2026-01-16T17:41:28.000Z</time></trkpt>
        <trkpt lat="28.74254" lon="104.744443"><ele>304.10352</ele><time>2026-01-16T17:41:32.000Z</time></trkpt>
        <trkpt lat="28.742537" lon="104.744501"><ele>304.35242</ele><time>2026-01-16T17:41:36.000Z</time></trkpt>
        <trkpt lat="28.742521" lon="104.744561"><ele>304.3099</ele><time>2026-01-16T17:41:40.000Z</time></trkpt>
        <trkpt lat="28.742515" lon="104.744619"><ele>303.50293</ele><time>2026-01-16T17:41:44.000Z</time></trkpt>
        <trkpt lat="28.74251" lon="104.744673"><ele>303.73553</ele><time>2026-01-16T17:41:48.000Z</time></trkpt>
        <trkpt lat="28.742481" lon="104.744718"><ele>303.21902</ele><time>2026-01-16T17:41:52.000Z</time></trkpt>
        <trkpt lat="28.742439" lon="104.744764"><ele>303.49725</ele><time>2026-01-16T17:41:56.000Z</time></trkpt>
        <trkpt lat="28.742396" lon="104.744786"><ele>303.53934</ele><time>2026-01-16T17:42:00.000Z</time></trkpt>
        <trkpt lat="28.742341" lon="104.744782"><ele>303.6663</ele><time>2026-01-16T17:42:03.000Z</time></trkpt>
        <trkpt lat="28.742288" lon="104.744776"><ele>303.68008</ele><time>2026-01-16T17:42:07.000Z</time></trkpt>
        <trkpt lat="28.742239" lon="104.744782"><ele>303.6586</ele><time>2026-01-16T17:42:11.000Z</time></trkpt>
        <trkpt lat="28.742191" lon="104.744798"><ele>302.47488</ele><time>2026-01-16T17:42:15.000Z</time></trkpt>
        <trkpt lat="28.742137" lon="104.744785"><ele>303.6007</ele><time>2026-01-16T17:42:19.000Z</time></trkpt>
        <trkpt lat="28.742085" lon="104.744787"><ele>303.46124</ele><time>2026-01-16T17:42:23.000Z</time></trkpt>
        <trkpt lat="28.742033" lon="104.744792"><ele>303.5943</ele><time>2026-01-16T17:42:27.000Z</time></trkpt>
        <trkpt lat="28.741987" lon="104.744806"><ele>302.91684</ele><time>2026-01-16T17:42:30.000Z</time></trkpt>
        <trkpt lat="28.74194" lon="104.744802"><ele>302.8267</ele><time>2026-01-16T17:42:34.000Z</time></trkpt>
        <trkpt lat="28.741894" lon="104.744814"><ele>302.96255</ele><time>2026-01-16T17:42:37.000Z</time></trkpt>
        <trkpt lat="28.741849" lon="104.744831"><ele>302.27933</ele><time>2026-01-16T17:42:42.000Z</time></trkpt>
        <trkpt lat="28.741797" lon="104.744834"><ele>302.42706</ele><time>2026-01-16T17:42:46.000Z</time></trkpt>
        <trkpt lat="28.74174" lon="104.744843"><ele>302.6497</ele><time>2026-01-16T17:42:50.000Z</time></trkpt>
        <trkpt lat="28.74171" lon="104.744895"><ele>302.83423</ele><time>2026-01-16T17:42:53.000Z</time></trkpt>
        <trkpt lat="28.741676" lon="104.744943"><ele>302.49686</ele><time>2026-01-16T17:42:57.000Z</time></trkpt>
        <trkpt lat="28.741661" lon="104.744995"><ele>302.06256</ele><time>2026-01-16T17:43:00.000Z</time></trkpt>
        <trkpt lat="28.741656" lon="104.745056"><ele>301.90683</ele><time>2026-01-16T17:43:04.000Z</time></trkpt>
        <trkpt lat="28.741622" lon="104.745104"><ele>301.65332</ele><time>2026-01-16T17:43:09.000Z</time></trkpt>
        <trkpt lat="28.741594" lon="104.745157"><ele>301.80316</ele><time>2026-01-16T17:43:13.000Z</time></trkpt>
        <trkpt lat="28.741558" lon="104.745201"><ele>301.55093</ele><time>2026-01-16T17:43:18.000Z</time></trkpt>
        <trkpt lat="28.741525" lon="104.745241"><ele>301.88187</ele><time>2026-01-16T17:43:22.000Z</time></trkpt>
        <trkpt lat="28.741476" lon="104.745266"><ele>302.60226</ele><time>2026-01-16T17:43:27.000Z</time></trkpt>
        <trkpt lat="28.741433" lon="104.74529"><ele>302.23767</ele><time>2026-01-16T17:43:32.000Z</time></trkpt>
        <trkpt lat="28.741388" lon="104.745299"><ele>301.18417</ele><time>2026-01-16T17:43:35.000Z</time></trkpt>
        <trkpt lat="28.741339" lon="104.745306"><ele>302.05945</ele><time>2026-01-16T17:43:41.000Z</time></trkpt>
        <trkpt lat="28.741288" lon="104.745302"><ele>302.50302</ele><time>2026-01-16T17:43:51.000Z</time></trkpt>
        <trkpt lat="28.741238" lon="104.745303"><ele>301.95172</ele><time>2026-01-16T17:43:55.000Z</time></trkpt>
        <trkpt lat="28.741184" lon="104.745312"><ele>302.4089</ele><time>2026-01-16T17:43:59.000Z</time></trkpt>
        <trkpt lat="28.741128" lon="104.745322"><ele>302.11246</ele><time>2026-01-16T17:44:03.000Z</time></trkpt>
        <trkpt lat="28.741075" lon="104.745326"><ele>302.17203</ele><time>2026-01-16T17:44:07.000Z</time></trkpt>
        <trkpt lat="28.741029" lon="104.745337"><ele>301.60052</ele><time>2026-01-16T17:44:11.000Z</time></trkpt>
        <trkpt lat="28.740982" lon="104.745346"><ele>301.60376</ele><time>2026-01-16T17:44:15.000Z</time></trkpt>
        <trkpt lat="28.740928" lon="104.74535"><ele>301.49545</ele><time>2026-01-16T17:44:19.000Z</time></trkpt>
        <trkpt lat="28.740882" lon="104.745356"><ele>301.6518</ele><time>2026-01-16T17:44:23.000Z</time></trkpt>
        <trkpt lat="28.740837" lon="104.745362"><ele>300.8796</ele><time>2026-01-16T17:44:26.000Z</time></trkpt>
        <trkpt lat="28.740787" lon="104.745367"><ele>300.98233</ele><time>2026-01-16T17:44:30.000Z</time></trkpt>
        <trkpt lat="28.740732" lon="104.745365"><ele>300.90997</ele><time>2026-01-16T17:44:34.000Z</time></trkpt>
        <trkpt lat="28.740681" lon="104.745371"><ele>301.58435</ele><time>2026-01-16T17:44:38.000Z</time></trkpt>
        <trkpt lat="28.74063" lon="104.74537"><ele>302.52234</ele><time>2026-01-16T17:44:42.000Z</time></trkpt>
        <trkpt lat="28.740574" lon="104.745373"><ele>302.46796</ele><time>2026-01-16T17:44:47.000Z</time></trkpt>
        <trkpt lat="28.740523" lon="104.745379"><ele>302.6812</ele><time>2026-01-16T17:44:51.000Z</time></trkpt>
        <trkpt lat="28.740473" lon="104.745376"><ele>302.07352</ele><time>2026-01-16T17:44:55.000Z</time></trkpt>
        <trkpt lat="28.740419" lon="104.745397"><ele>302.0955</ele><time>2026-01-16T17:45:00.000Z</time></trkpt>
        <trkpt lat="28.740363" lon="104.745412"><ele>302.3112</ele><time>2026-01-16T17:45:05.000Z</time></trkpt>
        <trkpt lat="28.740318" lon="104.745412"><ele>302.39136</ele><time>2026-01-16T17:45:09.000Z</time></trkpt>
        <trkpt lat="28.740271" lon="104.745423"><ele>301.6998</ele><time>2026-01-16T17:45:13.000Z</time></trkpt>
        <trkpt lat="28.740223" lon="104.745432"><ele>301.7928</ele><time>2026-01-16T17:45:17.000Z</time></trkpt>
        <trkpt lat="28.740168" lon="104.745448"><ele>302.0448</ele><time>2026-01-16T17:45:21.000Z</time></trkpt>
        <trkpt lat="28.740122" lon="104.745462"><ele>301.15836</ele><time>2026-01-16T17:45:25.000Z</time></trkpt>
        <trkpt lat="28.740063" lon="104.745476"><ele>300.8239</ele><time>2026-01-16T17:45:30.000Z</time></trkpt>
        <trkpt lat="28.740014" lon="104.745477"><ele>300.56366</ele><time>2026-01-16T17:45:34.000Z</time></trkpt>
        <trkpt lat="28.739962" lon="104.74548"><ele>300.773</ele><time>2026-01-16T17:45:39.000Z</time></trkpt>
        <trkpt lat="28.739908" lon="104.745483"><ele>301.13382</ele><time>2026-01-16T17:45:43.000Z</time></trkpt>
        <trkpt lat="28.73986" lon="104.745478"><ele>301.36508</ele><time>2026-01-16T17:45:47.000Z</time></trkpt>
        <trkpt lat="28.739807" lon="104.745488"><ele>301.99655</ele><time>2026-01-16T17:45:50.000Z</time></trkpt>
        <trkpt lat="28.739756" lon="104.745498"><ele>301.92804</ele><time>2026-01-16T17:45:54.000Z</time></trkpt>
        <trkpt lat="28.739701" lon="104.745497"><ele>302.1789</ele><time>2026-01-16T17:45:59.000Z</time></trkpt>
        <trkpt lat="28.739648" lon="104.745502"><ele>301.7753</ele><time>2026-01-16T17:46:03.000Z</time></trkpt>
        <trkpt lat="28.739599" lon="104.74553"><ele>301.83575</ele><time>2026-01-16T17:46:06.000Z</time></trkpt>
        <trkpt lat="28.739552" lon="104.745536"><ele>301.57074</ele><time>2026-01-16T17:46:10.000Z</time></trkpt>
        <trkpt lat="28.739491" lon="104.745552"><ele>301.0537</ele><time>2026-01-16T17:46:15.000Z</time></trkpt>
        <trkpt lat="28.739444" lon="104.745559"><ele>300.8558</ele><time>2026-01-16T17:46:19.000Z</time></trkpt>
        <trkpt lat="28.739396" lon="104.745565"><ele>300.06967</ele><time>2026-01-16T17:46:23.000Z</time></trkpt>
        <trkpt lat="28.739344" lon="104.745586"><ele>299.97885</ele><time>2026-01-16T17:46:27.000Z</time></trkpt>
        <trkpt lat="28.739294" lon="104.745587"><ele>300.43607</ele><time>2026-01-16T17:46:31.000Z</time></trkpt>
        <trkpt lat="28.739242" lon="104.745588"><ele>300.1412</ele><time>2026-01-16T17:46:35.000Z</time></trkpt>
        <trkpt lat="28.739192" lon="104.745572"><ele>300.4003</ele><time>2026-01-16T17:46:39.000Z</time></trkpt>
        <trkpt lat="28.739136" lon="104.745575"><ele>300.44135</ele><time>2026-01-16T17:46:43.000Z</time></trkpt>
        <trkpt lat="28.739095" lon="104.745553"><ele>300.41162</ele><time>2026-01-16T17:46:47.000Z</time></trkpt>
        <trkpt lat="28.739045" lon="104.745527"><ele>300.56525</ele><time>2026-01-16T17:46:53.000Z</time></trkpt>
        <trkpt lat="28.739005" lon="104.7455"><ele>300.9067</ele><time>2026-01-16T17:46:57.000Z</time></trkpt>
        <trkpt lat="28.738953" lon="104.745467"><ele>302.0568</ele><time>2026-01-16T17:47:02.000Z</time></trkpt>
        <trkpt lat="28.738911" lon="104.745429"><ele>302.5725</ele><time>2026-01-16T17:47:07.000Z</time></trkpt>
        <trkpt lat="28.738869" lon="104.745404"><ele>303.32153</ele><time>2026-01-16T17:47:11.000Z</time></trkpt>
        <trkpt lat="28.738824" lon="104.745366"><ele>303.49225</ele><time>2026-01-16T17:47:16.000Z</time></trkpt>
        <trkpt lat="28.738772" lon="104.745356"><ele>304.0231</ele><time>2026-01-16T17:47:21.000Z</time></trkpt>
        <trkpt lat="28.738743" lon="104.745317"><ele>303.2652</ele><time>2026-01-16T17:47:25.000Z</time></trkpt>
        <trkpt lat="28.738698" lon="104.745294"><ele>302.71198</ele><time>2026-01-16T17:47:30.000Z</time></trkpt>
        <trkpt lat="28.738646" lon="104.745277"><ele>301.88828</ele><time>2026-01-16T17:47:35.000Z</time></trkpt>
        <trkpt lat="28.73861" lon="104.745246"><ele>301.1093</ele><time>2026-01-16T17:47:39.000Z</time></trkpt>
        <trkpt lat="28.738566" lon="104.745231"><ele>300.49374</ele><time>2026-01-16T17:47:43.000Z</time></trkpt>
        <trkpt lat="28.73852" lon="104.745227"><ele>299.41367</ele><time>2026-01-16T17:47:47.000Z</time></trkpt>
        <trkpt lat="28.738468" lon="104.745232"><ele>299.53845</ele><time>2026-01-16T17:47:51.000Z</time></trkpt>
        <trkpt lat="28.738418" lon="104.745234"><ele>299.22186</ele><time>2026-01-16T17:47:57.000Z</time></trkpt>
        <trkpt lat="28.738374" lon="104.745261"><ele>299.20914</ele><time>2026-01-16T17:48:11.000Z</time></trkpt>
        <trkpt lat="28.738414" lon="104.74522"><ele>298.27393</ele><time>2026-01-16T17:48:23.000Z</time></trkpt>
        <trkpt lat="28.738457" lon="104.745204"><ele>299.88837</ele><time>2026-01-16T17:48:46.000Z</time></trkpt>
        <trkpt lat="28.738516" lon="104.745199"><ele>300.0829</ele><time>2026-01-16T17:48:51.000Z</time></trkpt>
        <trkpt lat="28.738576" lon="104.745212"><ele>300.77072</ele><time>2026-01-16T17:48:55.000Z</time></trkpt>
        <trkpt lat="28.738627" lon="104.745219"><ele>301.04453</ele><time>2026-01-16T17:48:59.000Z</time></trkpt>
        <trkpt lat="28.738681" lon="104.745237"><ele>301.94788</ele><time>2026-01-16T17:49:04.000Z</time></trkpt>
        <trkpt lat="28.738652" lon="104.745183"><ele>303.52542</ele><time>2026-01-16T17:49:17.000Z</time></trkpt>
        <trkpt lat="28.738657" lon="104.745129"><ele>303.45358</ele><time>2026-01-16T17:49:24.000Z</time></trkpt>
        <trkpt lat="28.738683" lon="104.745074"><ele>303.56348</ele><time>2026-01-16T17:49:30.000Z</time></trkpt>
        <trkpt lat="28.738736" lon="104.745076"><ele>305.17398</ele><time>2026-01-16T17:49:40.000Z</time></trkpt>
        <trkpt lat="28.738777" lon="104.745106"><ele>306.20724</ele><time>2026-01-16T17:49:46.000Z</time></trkpt>
        <trkpt lat="28.73873" lon="104.745101"><ele>304.34714</ele><time>2026-01-16T17:50:07.000Z</time></trkpt>
        <trkpt lat="28.738683" lon="104.745116"><ele>302.2184</ele><time>2026-01-16T17:50:14.000Z</time></trkpt>
        <trkpt lat="28.738682" lon="104.745176"><ele>301.65732</ele><time>2026-01-16T17:50:17.000Z</time></trkpt>
        <trkpt lat="28.738687" lon="104.745241"><ele>300.78244</ele><time>2026-01-16T17:50:22.000Z</time></trkpt>
        <trkpt lat="28.738651" lon="104.745204"><ele>303.34338</ele><time>2026-01-16T17:50:36.000Z</time></trkpt>
        <trkpt lat="28.738658" lon="104.745144"><ele>304.57837</ele><time>2026-01-16T17:50:39.000Z</time></trkpt>
        <trkpt lat="28.738682" lon="104.745096"><ele>303.93176</ele><time>2026-01-16T17:50:43.000Z</time></trkpt>
        <trkpt lat="28.738727" lon="104.745072"><ele>305.59744</ele><time>2026-01-16T17:50:49.000Z</time></trkpt>
        <trkpt lat="28.738737" lon="104.745126"><ele>305.7866</ele><time>2026-01-16T17:50:53.000Z</time></trkpt>
        <trkpt lat="28.738785" lon="104.74512"><ele>305.93018</ele><time>2026-01-16T17:50:58.000Z</time></trkpt>
        <trkpt lat="28.738802" lon="104.745062"><ele>306.82068</ele><time>2026-01-16T17:53:40.000Z</time></trkpt>
        <trkpt lat="28.738819" lon="104.745009"><ele>307.17413</ele><time>2026-01-16T17:53:46.000Z</time></trkpt>
        <trkpt lat="28.738834" lon="104.744957"><ele>307.63437</ele><time>2026-01-16T17:53:51.000Z</time></trkpt>
        <trkpt lat="28.738851" lon="104.744904"><ele>308.36734</ele><time>2026-01-16T17:53:56.000Z</time></trkpt>
        <trkpt lat="28.738872" lon="104.744851"><ele>309.3996</ele><time>2026-01-16T17:54:02.000Z</time></trkpt>
        <trkpt lat="28.738916" lon="104.74482"><ele>310.21478</ele><time>2026-01-16T17:54:08.000Z</time></trkpt>
        <trkpt lat="28.738957" lon="104.744794"><ele>310.52002</ele><time>2026-01-16T17:54:20.000Z</time></trkpt>
        <trkpt lat="28.739002" lon="104.744761"><ele>311.22455</ele><time>2026-01-16T17:54:27.000Z</time></trkpt>
        <trkpt lat="28.739034" lon="104.744724"><ele>311.34702</ele><time>2026-01-16T17:54:34.000Z</time></trkpt>
        <trkpt lat="28.739048" lon="104.744672"><ele>309.3095</ele><time>2026-01-16T17:54:44.000Z</time></trkpt>
        <trkpt lat="28.739044" lon="104.744616"><ele>309.96304</ele><time>2026-01-16T17:54:49.000Z</time></trkpt>
        <trkpt lat="28.739039" lon="104.744557"><ele>309.52072</ele><time>2026-01-16T17:54:55.000Z</time></trkpt>
        <trkpt lat="28.739064" lon="104.744514"><ele>308.8859</ele><time>2026-01-16T17:54:59.000Z</time></trkpt>
        <trkpt lat="28.739067" lon="104.744452"><ele>308.53885</ele><time>2026-01-16T17:55:05.000Z</time></trkpt>
        <trkpt lat="28.739079" lon="104.744398"><ele>308.31924</ele><time>2026-01-16T17:55:09.000Z</time></trkpt>
        <trkpt lat="28.739102" lon="104.74435"><ele>308.67374</ele><time>2026-01-16T17:55:13.000Z</time></trkpt>
        <trkpt lat="28.739146" lon="104.744319"><ele>308.88583</ele><time>2026-01-16T17:55:18.000Z</time></trkpt>
        <trkpt lat="28.739143" lon="104.744266"><ele>310.06897</ele><time>2026-01-16T17:55:24.000Z</time></trkpt>
        <trkpt lat="28.739144" lon="104.74421"><ele>310.09006</ele><time>2026-01-16T17:55:29.000Z</time></trkpt>
        <trkpt lat="28.739163" lon="104.744162"><ele>310.00995</ele><time>2026-01-16T17:55:34.000Z</time></trkpt>
        <trkpt lat="28.739189" lon="104.744118"><ele>310.36984</ele><time>2026-01-16T17:55:38.000Z</time></trkpt>
        <trkpt lat="28.73923" lon="104.744078"><ele>310.03568</ele><time>2026-01-16T17:55:43.000Z</time></trkpt>
        <trkpt lat="28.739268" lon="104.74404"><ele>310.46838</ele><time>2026-01-16T17:55:48.000Z</time></trkpt>
        <trkpt lat="28.739294" lon="104.743984"><ele>310.58423</ele><time>2026-01-16T17:55:54.000Z</time></trkpt>
        <trkpt lat="28.739309" lon="104.743925"><ele>311.11508</ele><time>2026-01-16T17:56:00.000Z</time></trkpt>
        <trkpt lat="28.739325" lon="104.743871"><ele>311.2493</ele><time>2026-01-16T17:56:05.000Z</time></trkpt>
        <trkpt lat="28.739354" lon="104.743831"><ele>311.47025</ele><time>2026-01-16T17:56:09.000Z</time></trkpt>
        <trkpt lat="28.739369" lon="104.743774"><ele>312.08978</ele><time>2026-01-16T17:56:14.000Z</time></trkpt>
        <trkpt lat="28.739387" lon="104.743723"><ele>312.2174</ele><time>2026-01-16T17:56:18.000Z</time></trkpt>
        <trkpt lat="28.739384" lon="104.74367"><ele>312.34317</ele><time>2026-01-16T17:56:28.000Z</time></trkpt>
        <trkpt lat="28.739388" lon="104.743611"><ele>312.44467</ele><time>2026-01-16T17:56:32.000Z</time></trkpt>
        <trkpt lat="28.739411" lon="104.74356"><ele>312.41113</ele><time>2026-01-16T17:56:35.000Z</time></trkpt>
        <trkpt lat="28.739421" lon="104.7435"><ele>313.00595</ele><time>2026-01-16T17:56:39.000Z</time></trkpt>
        <trkpt lat="28.739409" lon="104.743438"><ele>313.18427</ele><time>2026-01-16T17:56:44.000Z</time></trkpt>
        <trkpt lat="28.73939" lon="104.743375"><ele>313.33908</ele><time>2026-01-16T17:56:49.000Z</time></trkpt>
        <trkpt lat="28.739376" lon="104.74332"><ele>313.60263</ele><time>2026-01-16T17:56:54.000Z</time></trkpt>
        <trkpt lat="28.739364" lon="104.743267"><ele>313.96625</ele><time>2026-01-16T17:56:58.000Z</time></trkpt>
        <trkpt lat="28.739364" lon="104.743209"><ele>313.9531</ele><time>2026-01-16T17:57:02.000Z</time></trkpt>
        <trkpt lat="28.739341" lon="104.743159"><ele>313.78928</ele><time>2026-01-16T17:57:07.000Z</time></trkpt>
        <trkpt lat="28.739324" lon="104.743107"><ele>313.99222</ele><time>2026-01-16T17:57:12.000Z</time></trkpt>
        <trkpt lat="28.739318" lon="104.743057"><ele>314.40967</ele><time>2026-01-16T17:57:15.000Z</time></trkpt>
        <trkpt lat="28.739323" lon="104.742996"><ele>313.9143</ele><time>2026-01-16T17:57:19.000Z</time></trkpt>
        <trkpt lat="28.739288" lon="104.742953"><ele>314.0316</ele><time>2026-01-16T17:57:30.000Z</time></trkpt>
        <trkpt lat="28.739276" lon="104.742899"><ele>314.4928</ele><time>2026-01-16T17:57:34.000Z</time></trkpt>
        <trkpt lat="28.739274" lon="104.742847"><ele>314.8037</ele><time>2026-01-16T17:57:38.000Z</time></trkpt>
        <trkpt lat="28.739247" lon="104.742793"><ele>315.30466</ele><time>2026-01-16T17:57:43.000Z</time></trkpt>
        <trkpt lat="28.739226" lon="104.742736"><ele>315.33282</ele><time>2026-01-16T17:57:48.000Z</time></trkpt>
        <trkpt lat="28.739212" lon="104.742687"><ele>315.91776</ele><time>2026-01-16T17:57:53.000Z</time></trkpt>
        <trkpt lat="28.739197" lon="104.742625"><ele>315.5703</ele><time>2026-01-16T17:57:58.000Z</time></trkpt>
        <trkpt lat="28.739176" lon="104.742578"><ele>315.7486</ele><time>2026-01-16T17:58:02.000Z</time></trkpt>
        <trkpt lat="28.739143" lon="104.742533"><ele>315.74783</ele><time>2026-01-16T17:58:07.000Z</time></trkpt>
        <trkpt lat="28.739107" lon="104.742492"><ele>315.91534</ele><time>2026-01-16T17:58:11.000Z</time></trkpt>
        <trkpt lat="28.739076" lon="104.742443"><ele>315.55154</ele><time>2026-01-16T17:58:16.000Z</time></trkpt>
        <trkpt lat="28.739053" lon="104.742397"><ele>315.84207</ele><time>2026-01-16T17:58:20.000Z</time></trkpt>
        <trkpt lat="28.739035" lon="104.742344"><ele>316.7189</ele><time>2026-01-16T17:58:24.000Z</time></trkpt>
        <trkpt lat="28.739014" lon="104.742289"><ele>319.31607</ele><time>2026-01-16T17:58:31.000Z</time></trkpt>
        <trkpt lat="28.738969" lon="104.742267"><ele>320.22186</ele><time>2026-01-16T17:58:35.000Z</time></trkpt>
        <trkpt lat="28.738918" lon="104.742263"><ele>321.27914</ele><time>2026-01-16T17:58:41.000Z</time></trkpt>
        <trkpt lat="28.738867" lon="104.742238"><ele>321.4034</ele><time>2026-01-16T17:58:46.000Z</time></trkpt>
        <trkpt lat="28.738841" lon="104.742193"><ele>321.10757</ele><time>2026-01-16T17:58:50.000Z</time></trkpt>
        <trkpt lat="28.738822" lon="104.742138"><ele>321.6662</ele><time>2026-01-16T17:58:54.000Z</time></trkpt>
        <trkpt lat="28.738785" lon="104.742106"><ele>322.1192</ele><time>2026-01-16T17:58:58.000Z</time></trkpt>
        <trkpt lat="28.738765" lon="104.742057"><ele>322.29813</ele><time>2026-01-16T17:59:11.000Z</time></trkpt>
        <trkpt lat="28.738721" lon="104.742037"><ele>322.33725</ele><time>2026-01-16T17:59:15.000Z</time></trkpt>
        <trkpt lat="28.738666" lon="104.742029"><ele>322.7902</ele><time>2026-01-16T17:59:20.000Z</time></trkpt>
        <trkpt lat="28.738615" lon="104.742027"><ele>323.03906</ele><time>2026-01-16T17:59:24.000Z</time></trkpt>
        <trkpt lat="28.738563" lon="104.742021"><ele>322.90524</ele><time>2026-01-16T17:59:30.000Z</time></trkpt>
        <trkpt lat="28.738515" lon="104.742022"><ele>323.1717</ele><time>2026-01-16T17:59:35.000Z</time></trkpt>
        <trkpt lat="28.738464" lon="104.742003"><ele>323.9446</ele><time>2026-01-16T17:59:41.000Z</time></trkpt>
        <trkpt lat="28.738422" lon="104.741963"><ele>325.07864</ele><time>2026-01-16T17:59:49.000Z</time></trkpt>
        <trkpt lat="28.73837" lon="104.741954"><ele>325.7603</ele><time>2026-01-16T18:00:18.000Z</time></trkpt>
        <trkpt lat="28.738358" lon="104.741895"><ele>326.88245</ele><time>2026-01-16T18:00:25.000Z</time></trkpt>
        <trkpt lat="28.73832" lon="104.741867"><ele>327.80136</ele><time>2026-01-16T18:00:33.000Z</time></trkpt>
        <trkpt lat="28.738301" lon="104.741818"><ele>327.9051</ele><time>2026-01-16T18:00:38.000Z</time></trkpt>
        <trkpt lat="28.738273" lon="104.741776"><ele>328.33978</ele><time>2026-01-16T18:00:41.000Z</time></trkpt>
        <trkpt lat="28.738223" lon="104.741767"><ele>331.08237</ele><time>2026-01-16T18:00:51.000Z</time></trkpt>
        <trkpt lat="28.738166" lon="104.741784"><ele>332.02014</ele><time>2026-01-16T18:00:57.000Z</time></trkpt>
        <trkpt lat="28.738135" lon="104.741746"><ele>332.00964</ele><time>2026-01-16T18:01:07.000Z</time></trkpt>
        <trkpt lat="28.738093" lon="104.741727"><ele>332.35367</ele><time>2026-01-16T18:01:12.000Z</time></trkpt>
        <trkpt lat="28.73804" lon="104.741732"><ele>332.52814</ele><time>2026-01-16T18:01:16.000Z</time></trkpt>
        <trkpt lat="28.737991" lon="104.741725"><ele>334.31616</ele><time>2026-01-16T18:01:25.000Z</time></trkpt>
        <trkpt lat="28.737943" lon="104.741732"><ele>336.1981</ele><time>2026-01-16T18:01:36.000Z</time></trkpt>
        <trkpt lat="28.737896" lon="104.741751"><ele>336.58615</ele><time>2026-01-16T18:01:42.000Z</time></trkpt>
        <trkpt lat="28.737882" lon="104.741801"><ele>338.24176</ele><time>2026-01-16T18:01:49.000Z</time></trkpt>
        <trkpt lat="28.737839" lon="104.741836"><ele>339.4203</ele><time>2026-01-16T18:01:58.000Z</time></trkpt>
        <trkpt lat="28.737815" lon="104.741888"><ele>340.23563</ele><time>2026-01-16T18:02:07.000Z</time></trkpt>
        <trkpt lat="28.737773" lon="104.741917"><ele>340.96103</ele><time>2026-01-16T18:02:20.000Z</time></trkpt>
        <trkpt lat="28.737728" lon="104.741908"><ele>342.05603</ele><time>2026-01-16T18:02:24.000Z</time></trkpt>
        <trkpt lat="28.737675" lon="104.741891"><ele>343.08145</ele><time>2026-01-16T18:02:30.000Z</time></trkpt>
        <trkpt lat="28.737636" lon="104.74186"><ele>344.19366</ele><time>2026-01-16T18:02:35.000Z</time></trkpt>
        <trkpt lat="28.737591" lon="104.741831"><ele>344.90472</ele><time>2026-01-16T18:02:40.000Z</time></trkpt>
        <trkpt lat="28.73761" lon="104.741784"><ele>344.45908</ele><time>2026-01-16T18:02:44.000Z</time></trkpt>
        <trkpt lat="28.737607" lon="104.741731"><ele>346.39224</ele><time>2026-01-16T18:02:49.000Z</time></trkpt>
        <trkpt lat="28.737587" lon="104.741686"><ele>349.1547</ele><time>2026-01-16T18:03:18.000Z</time></trkpt>
        <trkpt lat="28.737538" lon="104.74171"><ele>350.00928</ele><time>2026-01-16T18:03:36.000Z</time></trkpt>
        <trkpt lat="28.737495" lon="104.741686"><ele>352.92465</ele><time>2026-01-16T18:03:51.000Z</time></trkpt>
        <trkpt lat="28.73748" lon="104.741636"><ele>354.42868</ele><time>2026-01-16T18:04:03.000Z</time></trkpt>
        <trkpt lat="28.737508" lon="104.741591"><ele>355.0682</ele><time>2026-01-16T18:04:09.000Z</time></trkpt>
        <trkpt lat="28.737554" lon="104.741554"><ele>354.07974</ele><time>2026-01-16T18:04:17.000Z</time></trkpt>
        <trkpt lat="28.737585" lon="104.741512"><ele>353.03168</ele><time>2026-01-16T18:04:21.000Z</time></trkpt>
        <trkpt lat="28.737632" lon="104.741479"><ele>351.50748</ele><time>2026-01-16T18:04:25.000Z</time></trkpt>
        <trkpt lat="28.737656" lon="104.741434"><ele>350.88174</ele><time>2026-01-16T18:04:29.000Z</time></trkpt>
        <trkpt lat="28.737691" lon="104.741377"><ele>350.18045</ele><time>2026-01-16T18:04:34.000Z</time></trkpt>
        <trkpt lat="28.737709" lon="104.741326"><ele>349.11075</ele><time>2026-01-16T18:04:39.000Z</time></trkpt>
        <trkpt lat="28.737741" lon="104.741276"><ele>349.24826</ele><time>2026-01-16T18:04:43.000Z</time></trkpt>
        <trkpt lat="28.737779" lon="104.741246"><ele>348.40256</ele><time>2026-01-16T18:04:48.000Z</time></trkpt>
        <trkpt lat="28.737812" lon="104.741202"><ele>347.71872</ele><time>2026-01-16T18:04:53.000Z</time></trkpt>
        <trkpt lat="28.737851" lon="104.741164"><ele>347.0084</ele><time>2026-01-16T18:04:58.000Z</time></trkpt>
        <trkpt lat="28.737899" lon="104.741145"><ele>345.13422</ele><time>2026-01-16T18:05:06.000Z</time></trkpt>
        <trkpt lat="28.737952" lon="104.74112"><ele>344.39944</ele><time>2026-01-16T18:05:11.000Z</time></trkpt>
        <trkpt lat="28.738007" lon="104.741107"><ele>343.40036</ele><time>2026-01-16T18:05:16.000Z</time></trkpt>
        <trkpt lat="28.738056" lon="104.74109"><ele>342.13113</ele><time>2026-01-16T18:05:21.000Z</time></trkpt>
        <trkpt lat="28.738104" lon="104.741079"><ele>340.3187</ele><time>2026-01-16T18:05:28.000Z</time></trkpt>
        <trkpt lat="28.738156" lon="104.741081"><ele>339.67343</ele><time>2026-01-16T18:05:33.000Z</time></trkpt>
        <trkpt lat="28.738202" lon="104.74108"><ele>339.58826</ele><time>2026-01-16T18:05:38.000Z</time></trkpt>
        <trkpt lat="28.738243" lon="104.741115"><ele>338.08224</ele><time>2026-01-16T18:05:51.000Z</time></trkpt>
        <trkpt lat="28.738198" lon="104.741101"><ele>336.2661</ele><time>2026-01-16T18:06:09.000Z</time></trkpt>
        <trkpt lat="28.738179" lon="104.741053"><ele>337.44824</ele><time>2026-01-16T18:06:22.000Z</time></trkpt>
        <trkpt lat="28.738127" lon="104.741051"><ele>340.01257</ele><time>2026-01-16T18:06:27.000Z</time></trkpt>
        <trkpt lat="28.738083" lon="104.74102"><ele>341.3815</ele><time>2026-01-16T18:06:32.000Z</time></trkpt>
        <trkpt lat="28.73805" lon="104.740983"><ele>342.6733</ele><time>2026-01-16T18:06:48.000Z</time></trkpt>
        <trkpt lat="28.738002" lon="104.740961"><ele>344.47073</ele><time>2026-01-16T18:06:52.000Z</time></trkpt>
        <trkpt lat="28.737957" lon="104.740952"><ele>346.96146</ele><time>2026-01-16T18:07:01.000Z</time></trkpt>
        <trkpt lat="28.737908" lon="104.740939"><ele>347.91953</ele><time>2026-01-16T18:07:07.000Z</time></trkpt>
        <trkpt lat="28.737864" lon="104.740912"><ele>350.4829</ele><time>2026-01-16T18:07:16.000Z</time></trkpt>
        <trkpt lat="28.737813" lon="104.740894"><ele>353.2412</ele><time>2026-01-16T18:07:26.000Z</time></trkpt>
        <trkpt lat="28.737767" lon="104.740899"><ele>355.6219</ele><time>2026-01-16T18:07:39.000Z</time></trkpt>
        <trkpt lat="28.737729" lon="104.740853"><ele>363.10138</ele><time>2026-01-16T18:07:52.000Z</time></trkpt>
        <trkpt lat="28.737685" lon="104.740817"><ele>363.76114</ele><time>2026-01-16T18:08:00.000Z</time></trkpt>
        <trkpt lat="28.737645" lon="104.740784"><ele>364.30893</ele><time>2026-01-16T18:08:13.000Z</time></trkpt>
        <trkpt lat="28.7376" lon="104.740761"><ele>367.58676</ele><time>2026-01-16T18:08:25.000Z</time></trkpt>
        <trkpt lat="28.737567" lon="104.740724"><ele>369.38193</ele><time>2026-01-16T18:08:39.000Z</time></trkpt>
        <trkpt lat="28.737522" lon="104.740733"><ele>375.26273</ele><time>2026-01-16T18:08:52.000Z</time></trkpt>
        <trkpt lat="28.737479" lon="104.740712"><ele>376.3509</ele><time>2026-01-16T18:09:26.000Z</time></trkpt>
        <trkpt lat="28.737449" lon="104.740667"><ele>377.15912</ele><time>2026-01-16T18:09:39.000Z</time></trkpt>
        <trkpt lat="28.737403" lon="104.740667"><ele>379.34857</ele><time>2026-01-16T18:09:53.000Z</time></trkpt>
        <trkpt lat="28.737374" lon="104.740625"><ele>381.31873</ele><time>2026-01-16T18:10:02.000Z</time></trkpt>
        <trkpt lat="28.737327" lon="104.740618"><ele>393.45264</ele><time>2026-01-16T18:10:38.000Z</time></trkpt>
        <trkpt lat="28.737289" lon="104.740583"><ele>391.4219</ele><time>2026-01-16T18:10:54.000Z</time></trkpt>
        <trkpt lat="28.737236" lon="104.740571"><ele>391.01154</ele><time>2026-01-16T18:11:04.000Z</time></trkpt>
        <trkpt lat="28.737175" lon="104.740574"><ele>391.96445</ele><time>2026-01-16T18:11:15.000Z</time></trkpt>
        <trkpt lat="28.737143" lon="104.740535"><ele>397.87146</ele><time>2026-01-16T18:11:46.000Z</time></trkpt>
        <trkpt lat="28.737138" lon="104.740484"><ele>399.74243</ele><time>2026-01-16T18:11:53.000Z</time></trkpt>
        <trkpt lat="28.737109" lon="104.740441"><ele>403.25885</ele><time>2026-01-16T18:12:06.000Z</time></trkpt>
        <trkpt lat="28.737088" lon="104.74039"><ele>405.98495</ele><time>2026-01-16T18:12:14.000Z</time></trkpt>
        <trkpt lat="28.737048" lon="104.740337"><ele>411.59332</ele><time>2026-01-16T18:12:25.000Z</time></trkpt>
        <trkpt lat="28.737085" lon="104.740367"><ele>416.37723</ele><time>2026-01-16T18:12:45.000Z</time></trkpt>
        <trkpt lat="28.737035" lon="104.740344"><ele>415.99704</ele><time>2026-01-16T18:12:58.000Z</time></trkpt>
        <trkpt lat="28.73699" lon="104.740347"><ele>410.8952</ele><time>2026-01-16T18:13:04.000Z</time></trkpt>
        <trkpt lat="28.736947" lon="104.74033"><ele>411.47147</ele><time>2026-01-16T18:13:19.000Z</time></trkpt>
        <trkpt lat="28.7369" lon="104.740309"><ele>411.7441</ele><time>2026-01-16T18:13:25.000Z</time></trkpt>
        <trkpt lat="28.736882" lon="104.740261"><ele>413.58978</ele><time>2026-01-16T18:13:29.000Z</time></trkpt>
        <trkpt lat="28.736844" lon="104.740213"><ele>414.8205</ele><time>2026-01-16T18:13:32.000Z</time></trkpt>
        <trkpt lat="28.736814" lon="104.740174"><ele>415.7909</ele><time>2026-01-16T18:13:38.000Z</time></trkpt>
        <trkpt lat="28.736768" lon="104.740147"><ele>419.86813</ele><time>2026-01-16T18:13:49.000Z</time></trkpt>
        <trkpt lat="28.736719" lon="104.74014"><ele>422.7087</ele><time>2026-01-16T18:13:57.000Z</time></trkpt>
        <trkpt lat="28.736687" lon="104.740099"><ele>424.30548</ele><time>2026-01-16T18:14:05.000Z</time></trkpt>
        <trkpt lat="28.736684" lon="104.740039"><ele>424.66525</ele><time>2026-01-16T18:14:12.000Z</time></trkpt>
        <trkpt lat="28.736641" lon="104.740021"><ele>424.48743</ele><time>2026-01-16T18:14:18.000Z</time></trkpt>
        <trkpt lat="28.736607" lon="104.739985"><ele>425.10223</ele><time>2026-01-16T18:14:27.000Z</time></trkpt>
        <trkpt lat="28.73656" lon="104.73997"><ele>427.0071</ele><time>2026-01-16T18:14:35.000Z</time></trkpt>
        <trkpt lat="28.736528" lon="104.73992"><ele>429.98242</ele><time>2026-01-16T18:14:47.000Z</time></trkpt>
        <trkpt lat="28.736484" lon="104.739893"><ele>428.99338</ele><time>2026-01-16T18:15:32.000Z</time></trkpt>
        <trkpt lat="28.736506" lon="104.739947"><ele>434.66684</ele><time>2026-01-16T18:16:27.000Z</time></trkpt>
        <trkpt lat="28.73652" lon="104.740001"><ele>435.20502</ele><time>2026-01-16T18:16:40.000Z</time></trkpt>
        <trkpt lat="28.736464" lon="104.74001"><ele>437.64114</ele><time>2026-01-16T18:16:46.000Z</time></trkpt>
        <trkpt lat="28.736458" lon="104.739958"><ele>437.84924</ele><time>2026-01-16T18:16:50.000Z</time></trkpt>
        <trkpt lat="28.736412" lon="104.739953"><ele>437.7919</ele><time>2026-01-16T18:16:57.000Z</time></trkpt>
        <trkpt lat="28.736404" lon="104.740005"><ele>440.81586</ele><time>2026-01-16T18:17:11.000Z</time></trkpt>
        <trkpt lat="28.736431" lon="104.740049"><ele>443.71304</ele><time>2026-01-16T18:17:29.000Z</time></trkpt>
        <trkpt lat="28.736445" lon="104.740101"><ele>444.03818</ele><time>2026-01-16T18:17:37.000Z</time></trkpt>
        <trkpt lat="28.736477" lon="104.740143"><ele>444.40247</ele><time>2026-01-16T18:17:47.000Z</time></trkpt>
        <trkpt lat="28.736482" lon="104.740202"><ele>445.09888</ele><time>2026-01-16T18:17:54.000Z</time></trkpt>
        <trkpt lat="28.736503" lon="104.740253"><ele>446.43204</ele><time>2026-01-16T18:18:05.000Z</time></trkpt>
        <trkpt lat="28.736503" lon="104.740305"><ele>447.6145</ele><time>2026-01-16T18:18:16.000Z</time></trkpt>
        <trkpt lat="28.736527" lon="104.740351"><ele>448.64706</ele><time>2026-01-16T18:18:25.000Z</time></trkpt>
        <trkpt lat="28.736549" lon="104.7404"><ele>449.7526</ele><time>2026-01-16T18:18:34.000Z</time></trkpt>
        <trkpt lat="28.736546" lon="104.740453"><ele>450.6246</ele><time>2026-01-16T18:18:44.000Z</time></trkpt>
        <trkpt lat="28.736581" lon="104.740487"><ele>450.74063</ele><time>2026-01-16T18:18:54.000Z</time></trkpt>
        <trkpt lat="28.73661" lon="104.740533"><ele>451.38818</ele><time>2026-01-16T18:19:04.000Z</time></trkpt>
        <trkpt lat="28.736555" lon="104.740528"><ele>451.94492</ele><time>2026-01-16T18:19:17.000Z</time></trkpt>
        <trkpt lat="28.736499" lon="104.740544"><ele>456.05823</ele><time>2026-01-16T18:19:29.000Z</time></trkpt>
        <trkpt lat="28.736454" lon="104.740555"><ele>460.4101</ele><time>2026-01-16T18:19:40.000Z</time></trkpt>
        <trkpt lat="28.736405" lon="104.740525"><ele>465.70306</ele><time>2026-01-16T18:19:57.000Z</time></trkpt>
        <trkpt lat="28.736418" lon="104.740476"><ele>466.28323</ele><time>2026-01-16T18:20:10.000Z</time></trkpt>
        <trkpt lat="28.736363" lon="104.740473"><ele>466.13348</ele><time>2026-01-16T18:20:17.000Z</time></trkpt>
        <trkpt lat="28.736322" lon="104.74045"><ele>467.44693</ele><time>2026-01-16T18:20:30.000Z</time></trkpt>
        <trkpt lat="28.736278" lon="104.740431"><ele>469.4208</ele><time>2026-01-16T18:20:39.000Z</time></trkpt>
        <trkpt lat="28.736308" lon="104.74048"><ele>476.63245</ele><time>2026-01-16T18:20:57.000Z</time></trkpt>
        <trkpt lat="28.73634" lon="104.740523"><ele>475.24448</ele><time>2026-01-16T18:21:06.000Z</time></trkpt>
        <trkpt lat="28.736314" lon="104.740584"><ele>477.398</ele><time>2026-01-16T18:21:16.000Z</time></trkpt>
        <trkpt lat="28.736265" lon="104.740554"><ele>493.909</ele><time>2026-01-16T18:21:57.000Z</time></trkpt>
        <trkpt lat="28.73621" lon="104.740537"><ele>495.33118</ele><time>2026-01-16T18:22:03.000Z</time></trkpt>
        <trkpt lat="28.736163" lon="104.740527"><ele>496.68506</ele><time>2026-01-16T18:22:08.000Z</time></trkpt>
        <trkpt lat="28.736117" lon="104.740532"><ele>498.47415</ele><time>2026-01-16T18:22:14.000Z</time></trkpt>
        <trkpt lat="28.736072" lon="104.740536"><ele>499.17322</ele><time>2026-01-16T18:22:19.000Z</time></trkpt>
        <trkpt lat="28.736023" lon="104.740546"><ele>499.60315</ele><time>2026-01-16T18:22:25.000Z</time></trkpt>
        <trkpt lat="28.735978" lon="104.740555"><ele>500.62405</ele><time>2026-01-16T18:22:29.000Z</time></trkpt>
        <trkpt lat="28.735927" lon="104.74054"><ele>495.711</ele><time>2026-01-16T18:22:35.000Z</time></trkpt>
        <trkpt lat="28.735882" lon="104.740526"><ele>493.0512</ele><time>2026-01-16T18:22:40.000Z</time></trkpt>
        <trkpt lat="28.735827" lon="104.74051"><ele>494.04703</ele><time>2026-01-16T18:22:45.000Z</time></trkpt>
        <trkpt lat="28.735775" lon="104.740528"><ele>494.85788</ele><time>2026-01-16T18:22:49.000Z</time></trkpt>
        <trkpt lat="28.735725" lon="104.740557"><ele>495.89294</ele><time>2026-01-16T18:22:57.000Z</time></trkpt>
        <trkpt lat="28.735684" lon="104.740594"><ele>496.19116</ele><time>2026-01-16T18:23:02.000Z</time></trkpt>
        <trkpt lat="28.735638" lon="104.740614"><ele>495.9802</ele><time>2026-01-16T18:23:09.000Z</time></trkpt>
        <trkpt lat="28.735592" lon="104.740626"><ele>495.64624</ele><time>2026-01-16T18:23:14.000Z</time></trkpt>
        <trkpt lat="28.735541" lon="104.740656"><ele>495.86185</ele><time>2026-01-16T18:23:20.000Z</time></trkpt>
        <trkpt lat="28.73549" lon="104.740667"><ele>496.12314</ele><time>2026-01-16T18:23:26.000Z</time></trkpt>
        <trkpt lat="28.73544" lon="104.740689"><ele>497.796</ele><time>2026-01-16T18:23:28.000Z</time></trkpt>
        <trkpt lat="28.735398" lon="104.740711"><ele>499.3304</ele><time>2026-01-16T18:23:32.000Z</time></trkpt>
        <trkpt lat="28.735366" lon="104.740761"><ele>499.45908</ele><time>2026-01-16T18:23:36.000Z</time></trkpt>
        <trkpt lat="28.735328" lon="104.740812"><ele>498.87482</ele><time>2026-01-16T18:23:40.000Z</time></trkpt>
        <trkpt lat="28.735283" lon="104.740836"><ele>497.93286</ele><time>2026-01-16T18:23:45.000Z</time></trkpt>
        <trkpt lat="28.735244" lon="104.74087"><ele>497.5741</ele><time>2026-01-16T18:23:58.000Z</time></trkpt>
        <trkpt lat="28.735199" lon="104.740885"><ele>498.2184</ele><time>2026-01-16T18:24:03.000Z</time></trkpt>
        <trkpt lat="28.735162" lon="104.740854"><ele>498.98087</ele><time>2026-01-16T18:24:06.000Z</time></trkpt>
        <trkpt lat="28.735109" lon="104.740844"><ele>499.40482</ele><time>2026-01-16T18:24:10.000Z</time></trkpt>
        <trkpt lat="28.735054" lon="104.74084"><ele>499.6604</ele><time>2026-01-16T18:24:15.000Z</time></trkpt>
        <trkpt lat="28.735007" lon="104.740876"><ele>501.25293</ele><time>2026-01-16T18:24:24.000Z</time></trkpt>
        <trkpt lat="28.734965" lon="104.740903"><ele>503.18018</ele><time>2026-01-16T18:24:31.000Z</time></trkpt>
        <trkpt lat="28.734921" lon="104.74092"><ele>503.48212</ele><time>2026-01-16T18:24:36.000Z</time></trkpt>
        <trkpt lat="28.734871" lon="104.740929"><ele>503.92773</ele><time>2026-01-16T18:24:42.000Z</time></trkpt>
        <trkpt lat="28.734823" lon="104.740953"><ele>503.91766</ele><time>2026-01-16T18:24:48.000Z</time></trkpt>
        <trkpt lat="28.734769" lon="104.740972"><ele>504.72937</ele><time>2026-01-16T18:24:53.000Z</time></trkpt>
        <trkpt lat="28.734738" lon="104.741022"><ele>505.40247</ele><time>2026-01-16T18:24:58.000Z</time></trkpt>
        <trkpt lat="28.73471" lon="104.741066"><ele>506.2769</ele><time>2026-01-16T18:25:03.000Z</time></trkpt>
        <trkpt lat="28.734697" lon="104.741126"><ele>507.17993</ele><time>2026-01-16T18:25:08.000Z</time></trkpt>
        <trkpt lat="28.734687" lon="104.741178"><ele>507.75668</ele><time>2026-01-16T18:25:13.000Z</time></trkpt>
        <trkpt lat="28.734653" lon="104.741235"><ele>508.98267</ele><time>2026-01-16T18:25:19.000Z</time></trkpt>
        <trkpt lat="28.734621" lon="104.741272"><ele>510.50577</ele><time>2026-01-16T18:25:24.000Z</time></trkpt>
        <trkpt lat="28.734572" lon="104.741293"><ele>511.71942</ele><time>2026-01-16T18:25:29.000Z</time></trkpt>
        <trkpt lat="28.734526" lon="104.741325"><ele>512.89355</ele><time>2026-01-16T18:25:34.000Z</time></trkpt>
        <trkpt lat="28.734499" lon="104.74137"><ele>513.0352</ele><time>2026-01-16T18:25:43.000Z</time></trkpt>
        <trkpt lat="28.734461" lon="104.741412"><ele>513.83734</ele><time>2026-01-16T18:25:45.000Z</time></trkpt>
        <trkpt lat="28.73443" lon="104.741477"><ele>514.3556</ele><time>2026-01-16T18:25:50.000Z</time></trkpt>
        <trkpt lat="28.734435" lon="104.741535"><ele>515.891</ele><time>2026-01-16T18:25:58.000Z</time></trkpt>
        <trkpt lat="28.734445" lon="104.741586"><ele>516.28656</ele><time>2026-01-16T18:26:01.000Z</time></trkpt>
        <trkpt lat="28.734402" lon="104.741634"><ele>517.7021</ele><time>2026-01-16T18:26:07.000Z</time></trkpt>
        <trkpt lat="28.734367" lon="104.741679"><ele>518.1136</ele><time>2026-01-16T18:26:11.000Z</time></trkpt>
        <trkpt lat="28.734334" lon="104.741725"><ele>519.22156</ele><time>2026-01-16T18:26:16.000Z</time></trkpt>
        <trkpt lat="28.734289" lon="104.741746"><ele>518.17456</ele><time>2026-01-16T18:26:20.000Z</time></trkpt>
        <trkpt lat="28.734236" lon="104.741737"><ele>517.2094</ele><time>2026-01-16T18:26:26.000Z</time></trkpt>
        <trkpt lat="28.73419" lon="104.741738"><ele>516.07684</ele><time>2026-01-16T18:26:34.000Z</time></trkpt>
        <trkpt lat="28.73415" lon="104.741712"><ele>514.921</ele><time>2026-01-16T18:26:39.000Z</time></trkpt>
        <trkpt lat="28.734107" lon="104.741737"><ele>514.75885</ele><time>2026-01-16T18:26:43.000Z</time></trkpt>
        <trkpt lat="28.734063" lon="104.741755"><ele>515.02905</ele><time>2026-01-16T18:26:49.000Z</time></trkpt>
        <trkpt lat="28.734037" lon="104.7417"><ele>514.16675</ele><time>2026-01-16T18:26:54.000Z</time></trkpt>
        <trkpt lat="28.73404" lon="104.741648"><ele>512.6545</ele><time>2026-01-16T18:27:00.000Z</time></trkpt>
        <trkpt lat="28.733996" lon="104.741605"><ele>512.6805</ele><time>2026-01-16T18:27:05.000Z</time></trkpt>
        <trkpt lat="28.733943" lon="104.741596"><ele>513.3378</ele><time>2026-01-16T18:27:14.000Z</time></trkpt>
        <trkpt lat="28.733888" lon="104.741597"><ele>513.888</ele><time>2026-01-16T18:27:21.000Z</time></trkpt>
        <trkpt lat="28.733855" lon="104.741633"><ele>513.7367</ele><time>2026-01-16T18:27:30.000Z</time></trkpt>
        <trkpt lat="28.733807" lon="104.741642"><ele>513.66815</ele><time>2026-01-16T18:27:37.000Z</time></trkpt>
        <trkpt lat="28.733765" lon="104.741675"><ele>514.9924</ele><time>2026-01-16T18:27:42.000Z</time></trkpt>
        <trkpt lat="28.733716" lon="104.741687"><ele>516.1207</ele><time>2026-01-16T18:27:47.000Z</time></trkpt>
        <trkpt lat="28.733669" lon="104.74166"><ele>517.21277</ele><time>2026-01-16T18:27:52.000Z</time></trkpt>
        <trkpt lat="28.733616" lon="104.741634"><ele>517.6467</ele><time>2026-01-16T18:27:58.000Z</time></trkpt>
        <trkpt lat="28.73357" lon="104.741626"><ele>518.6277</ele><time>2026-01-16T18:28:03.000Z</time></trkpt>
        <trkpt lat="28.733531" lon="104.741596"><ele>518.29755</ele><time>2026-01-16T18:28:08.000Z</time></trkpt>
        <trkpt lat="28.733499" lon="104.74156"><ele>518.00037</ele><time>2026-01-16T18:28:12.000Z</time></trkpt>
        <trkpt lat="28.733454" lon="104.741552"><ele>518.0265</ele><time>2026-01-16T18:28:18.000Z</time></trkpt>
        <trkpt lat="28.733416" lon="104.74151"><ele>516.53296</ele><time>2026-01-16T18:28:35.000Z</time></trkpt>
        <trkpt lat="28.733392" lon="104.741454"><ele>514.9209</ele><time>2026-01-16T18:28:41.000Z</time></trkpt>
        <trkpt lat="28.733362" lon="104.741408"><ele>514.3564</ele><time>2026-01-16T18:28:46.000Z</time></trkpt>
        <trkpt lat="28.733332" lon="104.741362"><ele>512.2296</ele><time>2026-01-16T18:28:54.000Z</time></trkpt>
        <trkpt lat="28.733288" lon="104.741325"><ele>511.35553</ele><time>2026-01-16T18:29:00.000Z</time></trkpt>
        <trkpt lat="28.733235" lon="104.741311"><ele>510.35507</ele><time>2026-01-16T18:29:06.000Z</time></trkpt>
        <trkpt lat="28.733196" lon="104.741282"><ele>509.85764</ele><time>2026-01-16T18:29:11.000Z</time></trkpt>
        <trkpt lat="28.733147" lon="104.741292"><ele>510.0621</ele><time>2026-01-16T18:29:15.000Z</time></trkpt>
        <trkpt lat="28.733102" lon="104.741318"><ele>510.5224</ele><time>2026-01-16T18:29:19.000Z</time></trkpt>
        <trkpt lat="28.733059" lon="104.741334"><ele>510.7045</ele><time>2026-01-16T18:29:23.000Z</time></trkpt>
        <trkpt lat="28.733009" lon="104.741319"><ele>510.35416</ele><time>2026-01-16T18:29:27.000Z</time></trkpt>
        <trkpt lat="28.73297" lon="104.74129"><ele>510.4854</ele><time>2026-01-16T18:29:31.000Z</time></trkpt>
        <trkpt lat="28.732947" lon="104.741231"><ele>510.02725</ele><time>2026-01-16T18:29:36.000Z</time></trkpt>
        <trkpt lat="28.732918" lon="104.74119"><ele>511.68942</ele><time>2026-01-16T18:29:39.000Z</time></trkpt>
        <trkpt lat="28.732871" lon="104.741177"><ele>512.6648</ele><time>2026-01-16T18:29:45.000Z</time></trkpt>
        <trkpt lat="28.7329" lon="104.741131"><ele>510.95847</ele><time>2026-01-16T18:29:54.000Z</time></trkpt>
        <trkpt lat="28.732935" lon="104.741091"><ele>511.17447</ele><time>2026-01-16T18:29:58.000Z</time></trkpt>
        <trkpt lat="28.732975" lon="104.741066"><ele>511.43707</ele><time>2026-01-16T18:30:02.000Z</time></trkpt>
        <trkpt lat="28.733012" lon="104.741031"><ele>512.7887</ele><time>2026-01-16T18:30:09.000Z</time></trkpt>
        <trkpt lat="28.733058" lon="104.741004"><ele>514.30634</ele><time>2026-01-16T18:30:17.000Z</time></trkpt>
        <trkpt lat="28.733101" lon="104.740982"><ele>515.02094</ele><time>2026-01-16T18:30:26.000Z</time></trkpt>
        <trkpt lat="28.733143" lon="104.740961"><ele>515.5955</ele><time>2026-01-16T18:30:31.000Z</time></trkpt>
        <trkpt lat="28.733189" lon="104.740938"><ele>515.694</ele><time>2026-01-16T18:30:46.000Z</time></trkpt>
        <trkpt lat="28.733222" lon="104.740892"><ele>515.98035</ele><time>2026-01-16T18:30:54.000Z</time></trkpt>
        <trkpt lat="28.733262" lon="104.740857"><ele>515.84845</ele><time>2026-01-16T18:31:05.000Z</time></trkpt>
        <trkpt lat="28.733307" lon="104.740851"><ele>515.8234</ele><time>2026-01-16T18:31:12.000Z</time></trkpt>
        <trkpt lat="28.733343" lon="104.740815"><ele>515.1709</ele><time>2026-01-16T18:31:19.000Z</time></trkpt>
        <trkpt lat="28.733383" lon="104.740788"><ele>516.6702</ele><time>2026-01-16T18:31:23.000Z</time></trkpt>
        <trkpt lat="28.733425" lon="104.740767"><ele>518.2401</ele><time>2026-01-16T18:31:27.000Z</time></trkpt>
        <trkpt lat="28.733472" lon="104.740768"><ele>519.7639</ele><time>2026-01-16T18:31:31.000Z</time></trkpt>
        <trkpt lat="28.733521" lon="104.74079"><ele>520.5047</ele><time>2026-01-16T18:31:36.000Z</time></trkpt>
        <trkpt lat="28.733572" lon="104.740797"><ele>521.8452</ele><time>2026-01-16T18:31:41.000Z</time></trkpt>
        <trkpt lat="28.733618" lon="104.740819"><ele>522.2614</ele><time>2026-01-16T18:31:47.000Z</time></trkpt>
        <trkpt lat="28.733663" lon="104.740845"><ele>522.45416</ele><time>2026-01-16T18:31:53.000Z</time></trkpt>
        <trkpt lat="28.733696" lon="104.740881"><ele>522.1229</ele><time>2026-01-16T18:32:03.000Z</time></trkpt>
        <trkpt lat="28.733744" lon="104.740894"><ele>523.46216</ele><time>2026-01-16T18:32:07.000Z</time></trkpt>
        <trkpt lat="28.733791" lon="104.740913"><ele>524.1149</ele><time>2026-01-16T18:32:14.000Z</time></trkpt>
        <trkpt lat="28.733837" lon="104.740927"><ele>524.8179</ele><time>2026-01-16T18:32:20.000Z</time></trkpt>
        <trkpt lat="28.733884" lon="104.740926"><ele>526.01294</ele><time>2026-01-16T18:32:26.000Z</time></trkpt>
        <trkpt lat="28.73393" lon="104.74092"><ele>526.9815</ele><time>2026-01-16T18:32:38.000Z</time></trkpt>
        <trkpt lat="28.73398" lon="104.740895"><ele>526.89935</ele><time>2026-01-16T18:32:44.000Z</time></trkpt>
        <trkpt lat="28.734012" lon="104.740853"><ele>527.1014</ele><time>2026-01-16T18:32:48.000Z</time></trkpt>
        <trkpt lat="28.734033" lon="104.740803"><ele>527.4573</ele><time>2026-01-16T18:32:52.000Z</time></trkpt>
        <trkpt lat="28.734054" lon="104.740757"><ele>527.3969</ele><time>2026-01-16T18:32:59.000Z</time></trkpt>
        <trkpt lat="28.734065" lon="104.740695"><ele>527.9072</ele><time>2026-01-16T18:33:07.000Z</time></trkpt>
        <trkpt lat="28.734089" lon="104.740644"><ele>529.6998</ele><time>2026-01-16T18:33:15.000Z</time></trkpt>
        <trkpt lat="28.7341" lon="104.740585"><ele>530.905</ele><time>2026-01-16T18:33:20.000Z</time></trkpt>
        <trkpt lat="28.73411" lon="104.740531"><ele>531.3528</ele><time>2026-01-16T18:33:25.000Z</time></trkpt>
        <trkpt lat="28.73411" lon="104.740477"><ele>533.5339</ele><time>2026-01-16T18:33:33.000Z</time></trkpt>
        <trkpt lat="28.734112" lon="104.740421"><ele>534.28516</ele><time>2026-01-16T18:33:42.000Z</time></trkpt>
        <trkpt lat="28.734105" lon="104.74036"><ele>535.47076</ele><time>2026-01-16T18:33:50.000Z</time></trkpt>
        <trkpt lat="28.734114" lon="104.740298"><ele>536.6445</ele><time>2026-01-16T18:33:56.000Z</time></trkpt>
        <trkpt lat="28.734142" lon="104.740243"><ele>537.0975</ele><time>2026-01-16T18:34:01.000Z</time></trkpt>
        <trkpt lat="28.734179" lon="104.740209"><ele>538.0954</ele><time>2026-01-16T18:34:06.000Z</time></trkpt>
        <trkpt lat="28.734216" lon="104.740176"><ele>538.3472</ele><time>2026-01-16T18:34:09.000Z</time></trkpt>
        <trkpt lat="28.73425" lon="104.740127"><ele>537.6256</ele><time>2026-01-16T18:34:12.000Z</time></trkpt>
        <trkpt lat="28.734293" lon="104.740079"><ele>537.6663</ele><time>2026-01-16T18:34:17.000Z</time></trkpt>
        <trkpt lat="28.734347" lon="104.740051"><ele>537.76483</ele><time>2026-01-16T18:34:21.000Z</time></trkpt>
        <trkpt lat="28.734393" lon="104.740031"><ele>537.2264</ele><time>2026-01-16T18:34:24.000Z</time></trkpt>
        <trkpt lat="28.734443" lon="104.740019"><ele>536.13385</ele><time>2026-01-16T18:34:30.000Z</time></trkpt>
        <trkpt lat="28.734514" lon="104.740018"><ele>536.58923</ele><time>2026-01-16T18:34:34.000Z</time></trkpt>
        <trkpt lat="28.734566" lon="104.739994"><ele>535.47363</ele><time>2026-01-16T18:34:40.000Z</time></trkpt>
        <trkpt lat="28.734615" lon="104.739971"><ele>534.86145</ele><time>2026-01-16T18:34:44.000Z</time></trkpt>
        <trkpt lat="28.734649" lon="104.739931"><ele>533.64954</ele><time>2026-01-16T18:34:48.000Z</time></trkpt>
        <trkpt lat="28.734669" lon="104.739884"><ele>533.7971</ele><time>2026-01-16T18:34:53.000Z</time></trkpt>
        <trkpt lat="28.734693" lon="104.739831"><ele>532.63214</ele><time>2026-01-16T18:34:58.000Z</time></trkpt>
        <trkpt lat="28.734701" lon="104.739771"><ele>531.193</ele><time>2026-01-16T18:35:13.000Z</time></trkpt>
        <trkpt lat="28.734719" lon="104.739711"><ele>531.7362</ele><time>2026-01-16T18:35:19.000Z</time></trkpt>
        <trkpt lat="28.73471" lon="104.739645"><ele>529.14185</ele><time>2026-01-16T18:35:25.000Z</time></trkpt>
        <trkpt lat="28.734666" lon="104.739627"><ele>528.37695</ele><time>2026-01-16T18:35:32.000Z</time></trkpt>
        <trkpt lat="28.734616" lon="104.73962"><ele>529.0732</ele><time>2026-01-16T18:35:38.000Z</time></trkpt>
        <trkpt lat="28.734563" lon="104.739594"><ele>530.2325</ele><time>2026-01-16T18:35:43.000Z</time></trkpt>
        <trkpt lat="28.73457" lon="104.739539"><ele>530.8571</ele><time>2026-01-16T18:35:47.000Z</time></trkpt>
        <trkpt lat="28.734573" lon="104.739478"><ele>530.47455</ele><time>2026-01-16T18:35:52.000Z</time></trkpt>
        <trkpt lat="28.734541" lon="104.739433"><ele>528.4545</ele><time>2026-01-16T18:36:04.000Z</time></trkpt>
        <trkpt lat="28.734529" lon="104.739371"><ele>526.6247</ele><time>2026-01-16T18:36:12.000Z</time></trkpt>
        <trkpt lat="28.734474" lon="104.739345"><ele>526.9319</ele><time>2026-01-16T18:36:16.000Z</time></trkpt>
        <trkpt lat="28.734429" lon="104.739308"><ele>527.28674</ele><time>2026-01-16T18:36:22.000Z</time></trkpt>
        <trkpt lat="28.734373" lon="104.739287"><ele>527.5474</ele><time>2026-01-16T18:36:27.000Z</time></trkpt>
        <trkpt lat="28.734302" lon="104.739272"><ele>526.18774</ele><time>2026-01-16T18:36:36.000Z</time></trkpt>
        <trkpt lat="28.734251" lon="104.739266"><ele>525.3731</ele><time>2026-01-16T18:36:41.000Z</time></trkpt>
        <trkpt lat="28.734204" lon="104.739254"><ele>525.84406</ele><time>2026-01-16T18:36:46.000Z</time></trkpt>
        <trkpt lat="28.734175" lon="104.739209"><ele>524.9049</ele><time>2026-01-16T18:36:50.000Z</time></trkpt>
        <trkpt lat="28.73416" lon="104.739153"><ele>524.019</ele><time>2026-01-16T18:36:54.000Z</time></trkpt>
        <trkpt lat="28.734187" lon="104.739103"><ele>524.3254</ele><time>2026-01-16T18:37:02.000Z</time></trkpt>
        <trkpt lat="28.734213" lon="104.739054"><ele>525.0024</ele><time>2026-01-16T18:37:06.000Z</time></trkpt>
        <trkpt lat="28.734252" lon="104.739028"><ele>525.25867</ele><time>2026-01-16T18:37:10.000Z</time></trkpt>
        <trkpt lat="28.73429" lon="104.738975"><ele>525.0353</ele><time>2026-01-16T18:37:16.000Z</time></trkpt>
        <trkpt lat="28.734309" lon="104.738917"><ele>526.3229</ele><time>2026-01-16T18:37:22.000Z</time></trkpt>
        <trkpt lat="28.734292" lon="104.738857"><ele>525.8951</ele><time>2026-01-16T18:37:26.000Z</time></trkpt>
        <trkpt lat="28.734303" lon="104.738803"><ele>525.9249</ele><time>2026-01-16T18:37:31.000Z</time></trkpt>
        <trkpt lat="28.734284" lon="104.738753"><ele>526.82275</ele><time>2026-01-16T18:37:36.000Z</time></trkpt>
        <trkpt lat="28.734253" lon="104.738674"><ele>527.3605</ele><time>2026-01-16T18:37:45.000Z</time></trkpt>
        <trkpt lat="28.734218" lon="104.738632"><ele>528.20245</ele><time>2026-01-16T18:37:51.000Z</time></trkpt>
        <trkpt lat="28.734189" lon="104.738586"><ele>529.7981</ele><time>2026-01-16T18:37:59.000Z</time></trkpt>
        <trkpt lat="28.734161" lon="104.738529"><ele>529.58484</ele><time>2026-01-16T18:38:04.000Z</time></trkpt>
        <trkpt lat="28.734173" lon="104.738478"><ele>529.4213</ele><time>2026-01-16T18:38:08.000Z</time></trkpt>
        <trkpt lat="28.734145" lon="104.738426"><ele>528.3389</ele><time>2026-01-16T18:38:14.000Z</time></trkpt>
        <trkpt lat="28.734097" lon="104.738389"><ele>529.0163</ele><time>2026-01-16T18:38:20.000Z</time></trkpt>
        <trkpt lat="28.734067" lon="104.73835"><ele>529.9184</ele><time>2026-01-16T18:38:25.000Z</time></trkpt>
        <trkpt lat="28.734021" lon="104.738305"><ele>529.9024</ele><time>2026-01-16T18:38:29.000Z</time></trkpt>
        <trkpt lat="28.733987" lon="104.738265"><ele>529.74036</ele><time>2026-01-16T18:38:34.000Z</time></trkpt>
        <trkpt lat="28.733975" lon="104.738207"><ele>529.10443</ele><time>2026-01-16T18:38:39.000Z</time></trkpt>
        <trkpt lat="28.733962" lon="104.738154"><ele>527.8903</ele><time>2026-01-16T18:38:46.000Z</time></trkpt>
        <trkpt lat="28.733926" lon="104.738108"><ele>527.2086</ele><time>2026-01-16T18:38:51.000Z</time></trkpt>
        <trkpt lat="28.733887" lon="104.73807"><ele>526.6072</ele><time>2026-01-16T18:38:57.000Z</time></trkpt>
        <trkpt lat="28.733859" lon="104.738029"><ele>524.43463</ele><time>2026-01-16T18:39:09.000Z</time></trkpt>
        <trkpt lat="28.733822" lon="104.737999"><ele>523.6843</ele><time>2026-01-16T18:39:16.000Z</time></trkpt>
        <trkpt lat="28.733823" lon="104.737944"><ele>522.8104</ele><time>2026-01-16T18:39:21.000Z</time></trkpt>
        <trkpt lat="28.733783" lon="104.73791"><ele>520.42505</ele><time>2026-01-16T18:39:29.000Z</time></trkpt>
        <trkpt lat="28.733736" lon="104.737919"><ele>518.9636</ele><time>2026-01-16T18:39:34.000Z</time></trkpt>
        <trkpt lat="28.73369" lon="104.737927"><ele>518.4044</ele><time>2026-01-16T18:39:44.000Z</time></trkpt>
        <trkpt lat="28.733702" lon="104.737875"><ele>517.0224</ele><time>2026-01-16T18:39:50.000Z</time></trkpt>
        <trkpt lat="28.733714" lon="104.737825"><ele>516.2426</ele><time>2026-01-16T18:39:56.000Z</time></trkpt>
        <trkpt lat="28.733715" lon="104.737772"><ele>516.4578</ele><time>2026-01-16T18:40:00.000Z</time></trkpt>
        <trkpt lat="28.733658" lon="104.737754"><ele>516.0821</ele><time>2026-01-16T18:40:05.000Z</time></trkpt>
        <trkpt lat="28.73363" lon="104.737707"><ele>515.5312</ele><time>2026-01-16T18:40:09.000Z</time></trkpt>
        <trkpt lat="28.733605" lon="104.737663"><ele>515.58264</ele><time>2026-01-16T18:40:15.000Z</time></trkpt>
        <trkpt lat="28.733598" lon="104.737611"><ele>516.32324</ele><time>2026-01-16T18:40:19.000Z</time></trkpt>
        <trkpt lat="28.733602" lon="104.737545"><ele>516.2253</ele><time>2026-01-16T18:40:24.000Z</time></trkpt>
        <trkpt lat="28.733566" lon="104.737491"><ele>516.9312</ele><time>2026-01-16T18:40:29.000Z</time></trkpt>
        <trkpt lat="28.733551" lon="104.73744"><ele>517.7117</ele><time>2026-01-16T18:40:35.000Z</time></trkpt>
        <trkpt lat="28.733498" lon="104.737423"><ele>517.46893</ele><time>2026-01-16T18:40:42.000Z</time></trkpt>
        <trkpt lat="28.733445" lon="104.737407"><ele>518.7564</ele><time>2026-01-16T18:40:47.000Z</time></trkpt>
        <trkpt lat="28.733389" lon="104.737422"><ele>519.43756</ele><time>2026-01-16T18:40:55.000Z</time></trkpt>
        <trkpt lat="28.733347" lon="104.7374"><ele>519.99585</ele><time>2026-01-16T18:40:58.000Z</time></trkpt>
        <trkpt lat="28.733291" lon="104.73739"><ele>520.81836</ele><time>2026-01-16T18:41:04.000Z</time></trkpt>
        <trkpt lat="28.733278" lon="104.737333"><ele>521.38086</ele><time>2026-01-16T18:41:10.000Z</time></trkpt>
        <trkpt lat="28.733274" lon="104.737387"><ele>521.7034</ele><time>2026-01-16T18:41:13.000Z</time></trkpt>
        <trkpt lat="28.733216" lon="104.737405"><ele>521.4519</ele><time>2026-01-16T18:41:19.000Z</time></trkpt>
        <trkpt lat="28.7332" lon="104.737357"><ele>520.91205</ele><time>2026-01-16T18:41:22.000Z</time></trkpt>
        <trkpt lat="28.733155" lon="104.737356"><ele>520.601</ele><time>2026-01-16T18:41:27.000Z</time></trkpt>
        <trkpt lat="28.733146" lon="104.737285"><ele>519.9935</ele><time>2026-01-16T18:41:33.000Z</time></trkpt>
        <trkpt lat="28.733163" lon="104.737224"><ele>519.09564</ele><time>2026-01-16T18:41:38.000Z</time></trkpt>
        <trkpt lat="28.733196" lon="104.737188"><ele>516.64606</ele><time>2026-01-16T18:41:54.000Z</time></trkpt>
        <trkpt lat="28.733234" lon="104.737159"><ele>518.0815</ele><time>2026-01-16T18:42:37.000Z</time></trkpt>
        <trkpt lat="28.733278" lon="104.737146"><ele>519.34406</ele><time>2026-01-16T18:42:42.000Z</time></trkpt>
        <trkpt lat="28.733327" lon="104.737126"><ele>519.4041</ele><time>2026-01-16T18:42:45.000Z</time></trkpt>
        <trkpt lat="28.733334" lon="104.737069"><ele>520.65515</ele><time>2026-01-16T18:42:52.000Z</time></trkpt>
        <trkpt lat="28.733357" lon="104.737021"><ele>521.08044</ele><time>2026-01-16T18:43:02.000Z</time></trkpt>
        <trkpt lat="28.733353" lon="104.736964"><ele>521.64185</ele><time>2026-01-16T18:43:08.000Z</time></trkpt>
        <trkpt lat="28.733365" lon="104.736911"><ele>522.5934</ele><time>2026-01-16T18:43:16.000Z</time></trkpt>
        <trkpt lat="28.733351" lon="104.736858"><ele>521.6214</ele><time>2026-01-16T18:43:26.000Z</time></trkpt>
        <trkpt lat="28.733337" lon="104.736809"><ele>522.125</ele><time>2026-01-16T18:43:34.000Z</time></trkpt>
        <trkpt lat="28.733327" lon="104.736746"><ele>521.59106</ele><time>2026-01-16T18:43:40.000Z</time></trkpt>
        <trkpt lat="28.733324" lon="104.736683"><ele>522.4179</ele><time>2026-01-16T18:43:48.000Z</time></trkpt>
        <trkpt lat="28.733317" lon="104.736616"><ele>522.59784</ele><time>2026-01-16T18:43:59.000Z</time></trkpt>
        <trkpt lat="28.733302" lon="104.736559"><ele>524.70154</ele><time>2026-01-16T18:44:06.000Z</time></trkpt>
        <trkpt lat="28.733253" lon="104.736544"><ele>525.98096</ele><time>2026-01-16T18:44:14.000Z</time></trkpt>
        <trkpt lat="28.7332" lon="104.736541"><ele>527.10486</ele><time>2026-01-16T18:44:22.000Z</time></trkpt>
        <trkpt lat="28.733152" lon="104.736555"><ele>527.59595</ele><time>2026-01-16T18:44:27.000Z</time></trkpt>
        <trkpt lat="28.733107" lon="104.736542"><ele>527.0982</ele><time>2026-01-16T18:44:32.000Z</time></trkpt>
        <trkpt lat="28.73307" lon="104.736499"><ele>527.31995</ele><time>2026-01-16T18:44:38.000Z</time></trkpt>
        <trkpt lat="28.733035" lon="104.736466"><ele>528.39355</ele><time>2026-01-16T18:44:42.000Z</time></trkpt>
        <trkpt lat="28.733" lon="104.736427"><ele>528.4612</ele><time>2026-01-16T18:44:46.000Z</time></trkpt>
        <trkpt lat="28.732987" lon="104.736365"><ele>528.44934</ele><time>2026-01-16T18:44:51.000Z</time></trkpt>
        <trkpt lat="28.733013" lon="104.736319"><ele>528.86</ele><time>2026-01-16T18:44:55.000Z</time></trkpt>
        <trkpt lat="28.733037" lon="104.736271"><ele>529.62946</ele><time>2026-01-16T18:44:59.000Z</time></trkpt>
        <trkpt lat="28.73305" lon="104.736216"><ele>531.0722</ele><time>2026-01-16T18:45:04.000Z</time></trkpt>
        <trkpt lat="28.733053" lon="104.736162"><ele>531.54785</ele><time>2026-01-16T18:45:10.000Z</time></trkpt>
        <trkpt lat="28.73306" lon="104.7361"><ele>533.2467</ele><time>2026-01-16T18:45:17.000Z</time></trkpt>
        <trkpt lat="28.733091" lon="104.736057"><ele>532.9628</ele><time>2026-01-16T18:45:22.000Z</time></trkpt>
        <trkpt lat="28.733108" lon="104.736001"><ele>533.5705</ele><time>2026-01-16T18:45:27.000Z</time></trkpt>
        <trkpt lat="28.733129" lon="104.735941"><ele>533.94916</ele><time>2026-01-16T18:45:32.000Z</time></trkpt>
        <trkpt lat="28.733136" lon="104.735885"><ele>534.27905</ele><time>2026-01-16T18:45:37.000Z</time></trkpt>
        <trkpt lat="28.733104" lon="104.735837"><ele>533.50934</ele><time>2026-01-16T18:45:53.000Z</time></trkpt>
        <trkpt lat="28.733088" lon="104.735781"><ele>532.632</ele><time>2026-01-16T18:45:59.000Z</time></trkpt>
        <trkpt lat="28.733066" lon="104.735732"><ele>533.5254</ele><time>2026-01-16T18:46:04.000Z</time></trkpt>
        <trkpt lat="28.733033" lon="104.73569"><ele>532.99896</ele><time>2026-01-16T18:46:08.000Z</time></trkpt>
        <trkpt lat="28.733011" lon="104.735638"><ele>532.7702</ele><time>2026-01-16T18:46:13.000Z</time></trkpt>
        <trkpt lat="28.732994" lon="104.735587"><ele>531.9445</ele><time>2026-01-16T18:46:27.000Z</time></trkpt>
        <trkpt lat="28.732973" lon="104.735538"><ele>531.75836</ele><time>2026-01-16T18:46:32.000Z</time></trkpt>
        <trkpt lat="28.732946" lon="104.735488"><ele>531.5984</ele><time>2026-01-16T18:46:38.000Z</time></trkpt>
        <trkpt lat="28.732915" lon="104.735448"><ele>531.2071</ele><time>2026-01-16T18:46:43.000Z</time></trkpt>
        <trkpt lat="28.732877" lon="104.735414"><ele>531.48834</ele><time>2026-01-16T18:46:51.000Z</time></trkpt>
        <trkpt lat="28.732863" lon="104.735363"><ele>530.91284</ele><time>2026-01-16T18:47:15.000Z</time></trkpt>
        <trkpt lat="28.73284" lon="104.735319"><ele>531.01624</ele><time>2026-01-16T18:47:19.000Z</time></trkpt>
        <trkpt lat="28.732811" lon="104.735276"><ele>530.6953</ele><time>2026-01-16T18:47:23.000Z</time></trkpt>
        <trkpt lat="28.732775" lon="104.735239"><ele>530.5004</ele><time>2026-01-16T18:47:27.000Z</time></trkpt>
        <trkpt lat="28.732739" lon="104.735199"><ele>530.6234</ele><time>2026-01-16T18:47:32.000Z</time></trkpt>
        <trkpt lat="28.732693" lon="104.735171"><ele>531.16565</ele><time>2026-01-16T18:47:37.000Z</time></trkpt>
        <trkpt lat="28.732648" lon="104.735167"><ele>531.42883</ele><time>2026-01-16T18:47:43.000Z</time></trkpt>
        <trkpt lat="28.732608" lon="104.735208"><ele>532.97723</ele><time>2026-01-16T18:48:05.000Z</time></trkpt>
        <trkpt lat="28.73259" lon="104.735258"><ele>529.206</ele><time>2026-01-16T18:48:15.000Z</time></trkpt>
        <trkpt lat="28.732557" lon="104.735313"><ele>529.3938</ele><time>2026-01-16T18:48:24.000Z</time></trkpt>
        <trkpt lat="28.732541" lon="104.735373"><ele>528.2119</ele><time>2026-01-16T18:48:30.000Z</time></trkpt>
        <trkpt lat="28.732547" lon="104.735434"><ele>527.21295</ele><time>2026-01-16T18:48:41.000Z</time></trkpt>
        <trkpt lat="28.732543" lon="104.73549"><ele>527.16254</ele><time>2026-01-16T18:48:46.000Z</time></trkpt>
        <trkpt lat="28.732522" lon="104.735538"><ele>526.15643</ele><time>2026-01-16T18:48:52.000Z</time></trkpt>
        <trkpt lat="28.732517" lon="104.735597"><ele>525.7412</ele><time>2026-01-16T18:48:58.000Z</time></trkpt>
        <trkpt lat="28.732507" lon="104.735653"><ele>525.0146</ele><time>2026-01-16T18:49:03.000Z</time></trkpt>
        <trkpt lat="28.732502" lon="104.735705"><ele>523.3584</ele><time>2026-01-16T18:49:11.000Z</time></trkpt>
        <trkpt lat="28.732532" lon="104.735751"><ele>522.98206</ele><time>2026-01-16T18:49:21.000Z</time></trkpt>
        <trkpt lat="28.732525" lon="104.735803"><ele>522.366</ele><time>2026-01-16T18:49:28.000Z</time></trkpt>
        <trkpt lat="28.732493" lon="104.735766"><ele>523.6684</ele><time>2026-01-16T18:49:47.000Z</time></trkpt>
        <trkpt lat="28.732475" lon="104.735713"><ele>524.7668</ele><time>2026-01-16T18:49:56.000Z</time></trkpt>
        <trkpt lat="28.73248" lon="104.735662"><ele>525.14886</ele><time>2026-01-16T18:50:03.000Z</time></trkpt>
        <trkpt lat="28.73249" lon="104.735609"><ele>525.7715</ele><time>2026-01-16T18:50:09.000Z</time></trkpt>
        <trkpt lat="28.732515" lon="104.735654"><ele>525.0979</ele><time>2026-01-16T18:50:50.000Z</time></trkpt>
        <trkpt lat="28.732526" lon="104.735709"><ele>523.695</ele><time>2026-01-16T18:50:57.000Z</time></trkpt>
        <trkpt lat="28.73257" lon="104.735725"><ele>523.54694</ele><time>2026-01-16T18:51:06.000Z</time></trkpt>
        <trkpt lat="28.732602" lon="104.735686"><ele>523.36896</ele><time>2026-01-16T18:51:21.000Z</time></trkpt>
        <trkpt lat="28.732649" lon="104.735696"><ele>524.0169</ele><time>2026-01-16T18:51:25.000Z</time></trkpt>
        <trkpt lat="28.732693" lon="104.735716"><ele>524.25885</ele><time>2026-01-16T18:51:29.000Z</time></trkpt>
        <trkpt lat="28.732727" lon="104.735757"><ele>523.8573</ele><time>2026-01-16T18:51:33.000Z</time></trkpt>
        <trkpt lat="28.732753" lon="104.735801"><ele>523.70685</ele><time>2026-01-16T18:51:41.000Z</time></trkpt>
        <trkpt lat="28.732713" lon="104.735835"><ele>522.8908</ele><time>2026-01-16T18:51:53.000Z</time></trkpt>
        <trkpt lat="28.732764" lon="104.735835"><ele>523.93896</ele><time>2026-01-16T18:52:29.000Z</time></trkpt>
        <trkpt lat="28.732736" lon="104.73579"><ele>524.2494</ele><time>2026-01-16T18:52:57.000Z</time></trkpt>
        <trkpt lat="28.73269" lon="104.735784"><ele>523.5289</ele><time>2026-01-16T18:53:11.000Z</time></trkpt>
        <trkpt lat="28.732724" lon="104.735822"><ele>523.1959</ele><time>2026-01-16T18:53:30.000Z</time></trkpt>
        <trkpt lat="28.732749" lon="104.735866"><ele>523.6655</ele><time>2026-01-16T18:53:52.000Z</time></trkpt>
        <trkpt lat="28.732751" lon="104.735919"><ele>523.69556</ele><time>2026-01-16T18:54:05.000Z</time></trkpt>
        <trkpt lat="28.73276" lon="104.73597"><ele>523.39294</ele><time>2026-01-16T18:54:11.000Z</time></trkpt>
        <trkpt lat="28.732759" lon="104.736023"><ele>523.6659</ele><time>2026-01-16T18:54:16.000Z</time></trkpt>
        <trkpt lat="28.732756" lon="104.736081"><ele>523.4124</ele><time>2026-01-16T18:54:21.000Z</time></trkpt>
        <trkpt lat="28.732743" lon="104.736139"><ele>523.1353</ele><time>2026-01-16T18:54:25.000Z</time></trkpt>
        <trkpt lat="28.732725" lon="104.736191"><ele>523.4214</ele><time>2026-01-16T18:54:29.000Z</time></trkpt>
        <trkpt lat="28.732687" lon="104.73623"><ele>522.8252</ele><time>2026-01-16T18:54:35.000Z</time></trkpt>
        <trkpt lat="28.732687" lon="104.736282"><ele>522.48254</ele><time>2026-01-16T18:54:45.000Z</time></trkpt>
        <trkpt lat="28.732693" lon="104.736341"><ele>522.2182</ele><time>2026-01-16T18:54:52.000Z</time></trkpt>
        <trkpt lat="28.732719" lon="104.736391"><ele>522.3733</ele><time>2026-01-16T18:54:57.000Z</time></trkpt>
        <trkpt lat="28.732742" lon="104.736437"><ele>522.98724</ele><time>2026-01-16T18:55:01.000Z</time></trkpt>
        <trkpt lat="28.732771" lon="104.736486"><ele>523.01276</ele><time>2026-01-16T18:55:06.000Z</time></trkpt>
        <trkpt lat="28.732779" lon="104.73654"><ele>523.0154</ele><time>2026-01-16T18:55:11.000Z</time></trkpt>
        <trkpt lat="28.732747" lon="104.736582"><ele>522.2636</ele><time>2026-01-16T18:55:20.000Z</time></trkpt>
        <trkpt lat="28.732706" lon="104.736614"><ele>519.8544</ele><time>2026-01-16T18:55:24.000Z</time></trkpt>
        <trkpt lat="28.732658" lon="104.736602"><ele>521.49225</ele><time>2026-01-16T18:55:30.000Z</time></trkpt>
        <trkpt lat="28.732638" lon="104.736547"><ele>522.51544</ele><time>2026-01-16T18:55:36.000Z</time></trkpt>
        <trkpt lat="28.732603" lon="104.736491"><ele>522.1474</ele><time>2026-01-16T18:55:41.000Z</time></trkpt>
        <trkpt lat="28.732577" lon="104.736438"><ele>521.6152</ele><time>2026-01-16T18:55:46.000Z</time></trkpt>
        <trkpt lat="28.732553" lon="104.736385"><ele>521.5293</ele><time>2026-01-16T18:55:50.000Z</time></trkpt>
        <trkpt lat="28.73253" lon="104.736331"><ele>521.00183</ele><time>2026-01-16T18:55:56.000Z</time></trkpt>
        <trkpt lat="28.732488" lon="104.736364"><ele>520.4298</ele><time>2026-01-16T18:56:57.000Z</time></trkpt>
        <trkpt lat="28.732454" lon="104.736401"><ele>519.48584</ele><time>2026-01-16T18:57:20.000Z</time></trkpt>
        <trkpt lat="28.732401" lon="104.736402"><ele>519.54095</ele><time>2026-01-16T18:57:25.000Z</time></trkpt>
        <trkpt lat="28.732354" lon="104.736393"><ele>519.5333</ele><time>2026-01-16T18:57:29.000Z</time></trkpt>
        <trkpt lat="28.732298" lon="104.736389"><ele>519.4787</ele><time>2026-01-16T18:57:34.000Z</time></trkpt>
        <trkpt lat="28.732245" lon="104.736383"><ele>518.8567</ele><time>2026-01-16T18:57:41.000Z</time></trkpt>
        <trkpt lat="28.732189" lon="104.736369"><ele>518.9182</ele><time>2026-01-16T18:57:47.000Z</time></trkpt>
        <trkpt lat="28.732138" lon="104.736353"><ele>519.7684</ele><time>2026-01-16T18:57:51.000Z</time></trkpt>
        <trkpt lat="28.732089" lon="104.736339"><ele>520.58966</ele><time>2026-01-16T18:57:55.000Z</time></trkpt>
        <trkpt lat="28.732039" lon="104.73635"><ele>522.1747</ele><time>2026-01-16T18:58:00.000Z</time></trkpt>
        <trkpt lat="28.731988" lon="104.73633"><ele>523.59454</ele><time>2026-01-16T18:58:05.000Z</time></trkpt>
        <trkpt lat="28.73195" lon="104.736301"><ele>524.4506</ele><time>2026-01-16T18:58:10.000Z</time></trkpt>
        <trkpt lat="28.7319" lon="104.73629"><ele>524.4397</ele><time>2026-01-16T18:58:14.000Z</time></trkpt>
        <trkpt lat="28.731861" lon="104.736252"><ele>525.4131</ele><time>2026-01-16T18:58:20.000Z</time></trkpt>
        <trkpt lat="28.731821" lon="104.736215"><ele>525.99054</ele><time>2026-01-16T18:58:24.000Z</time></trkpt>
        <trkpt lat="28.731827" lon="104.73616"><ele>525.7358</ele><time>2026-01-16T18:58:31.000Z</time></trkpt>
        <trkpt lat="28.731804" lon="104.736106"><ele>525.8341</ele><time>2026-01-16T18:58:39.000Z</time></trkpt>
        <trkpt lat="28.731785" lon="104.736049"><ele>525.6225</ele><time>2026-01-16T18:58:46.000Z</time></trkpt>
        <trkpt lat="28.731759" lon="104.736003"><ele>525.494</ele><time>2026-01-16T18:58:50.000Z</time></trkpt>
        <trkpt lat="28.731759" lon="104.73595"><ele>525.7106</ele><time>2026-01-16T18:58:58.000Z</time></trkpt>
        <trkpt lat="28.731741" lon="104.735891"><ele>525.43054</ele><time>2026-01-16T18:59:05.000Z</time></trkpt>
        <trkpt lat="28.731745" lon="104.73583"><ele>525.4059</ele><time>2026-01-16T18:59:09.000Z</time></trkpt>
        <trkpt lat="28.731747" lon="104.73577"><ele>524.93085</ele><time>2026-01-16T18:59:14.000Z</time></trkpt>
        <trkpt lat="28.731738" lon="104.735713"><ele>524.3162</ele><time>2026-01-16T18:59:18.000Z</time></trkpt>
        <trkpt lat="28.731718" lon="104.735663"><ele>524.1349</ele><time>2026-01-16T18:59:24.000Z</time></trkpt>
        <trkpt lat="28.731694" lon="104.735606"><ele>523.59235</ele><time>2026-01-16T18:59:29.000Z</time></trkpt>
        <trkpt lat="28.731658" lon="104.735574"><ele>523.40436</ele><time>2026-01-16T18:59:35.000Z</time></trkpt>
        <trkpt lat="28.731613" lon="104.735588"><ele>524.06995</ele><time>2026-01-16T18:59:42.000Z</time></trkpt>
        <trkpt lat="28.731564" lon="104.735593"><ele>524.7372</ele><time>2026-01-16T18:59:48.000Z</time></trkpt>
        <trkpt lat="28.731519" lon="104.735586"><ele>525.80023</ele><time>2026-01-16T19:00:03.000Z</time></trkpt>
        <trkpt lat="28.731468" lon="104.735567"><ele>526.40546</ele><time>2026-01-16T19:00:09.000Z</time></trkpt>
        <trkpt lat="28.731417" lon="104.73558"><ele>527.7476</ele><time>2026-01-16T19:00:14.000Z</time></trkpt>
        <trkpt lat="28.731374" lon="104.735597"><ele>528.6485</ele><time>2026-01-16T19:00:21.000Z</time></trkpt>
        <trkpt lat="28.731344" lon="104.735642"><ele>529.46124</ele><time>2026-01-16T19:00:26.000Z</time></trkpt>
        <trkpt lat="28.731306" lon="104.735687"><ele>528.9049</ele><time>2026-01-16T19:00:33.000Z</time></trkpt>
        <trkpt lat="28.731257" lon="104.735713"><ele>529.48</ele><time>2026-01-16T19:00:38.000Z</time></trkpt>
        <trkpt lat="28.7312" lon="104.735727"><ele>529.0153</ele><time>2026-01-16T19:00:44.000Z</time></trkpt>
        <trkpt lat="28.731152" lon="104.735718"><ele>528.74835</ele><time>2026-01-16T19:00:49.000Z</time></trkpt>
        <trkpt lat="28.731101" lon="104.735711"><ele>528.8479</ele><time>2026-01-16T19:00:55.000Z</time></trkpt>
        <trkpt lat="28.731085" lon="104.735653"><ele>528.2497</ele><time>2026-01-16T19:01:04.000Z</time></trkpt>
        <trkpt lat="28.73109" lon="104.735591"><ele>529.1975</ele><time>2026-01-16T19:01:08.000Z</time></trkpt>
        <trkpt lat="28.731104" lon="104.735536"><ele>529.4347</ele><time>2026-01-16T19:01:12.000Z</time></trkpt>
        <trkpt lat="28.731083" lon="104.735593"><ele>528.31323</ele><time>2026-01-16T19:01:23.000Z</time></trkpt>
        <trkpt lat="28.731042" lon="104.735628"><ele>528.1973</ele><time>2026-01-16T19:01:29.000Z</time></trkpt>
        <trkpt lat="28.730987" lon="104.735641"><ele>528.4136</ele><time>2026-01-16T19:01:34.000Z</time></trkpt>
        <trkpt lat="28.730945" lon="104.735619"><ele>529.78534</ele><time>2026-01-16T19:01:41.000Z</time></trkpt>
        <trkpt lat="28.731" lon="104.735595"><ele>528.33405</ele><time>2026-01-16T19:01:57.000Z</time></trkpt>
        <trkpt lat="28.73104" lon="104.735572"><ele>527.4557</ele><time>2026-01-16T19:02:00.000Z</time></trkpt>
        <trkpt lat="28.731061" lon="104.735619"><ele>525.9086</ele><time>2026-01-16T19:02:08.000Z</time></trkpt>
        <trkpt lat="28.731035" lon="104.735663"><ele>525.8373</ele><time>2026-01-16T19:02:11.000Z</time></trkpt>
        <trkpt lat="28.730998" lon="104.735701"><ele>526.9328</ele><time>2026-01-16T19:02:14.000Z</time></trkpt>
        <trkpt lat="28.730954" lon="104.73574"><ele>527.01056</ele><time>2026-01-16T19:02:18.000Z</time></trkpt>
        <trkpt lat="28.730907" lon="104.735769"><ele>527.6651</ele><time>2026-01-16T19:02:25.000Z</time></trkpt>
        <trkpt lat="28.730857" lon="104.735773"><ele>527.0314</ele><time>2026-01-16T19:02:30.000Z</time></trkpt>
        <trkpt lat="28.73081" lon="104.735747"><ele>527.18365</ele><time>2026-01-16T19:02:34.000Z</time></trkpt>
        <trkpt lat="28.73076" lon="104.735728"><ele>527.438</ele><time>2026-01-16T19:02:38.000Z</time></trkpt>
        <trkpt lat="28.73082" lon="104.735733"><ele>528.45514</ele><time>2026-01-16T19:03:04.000Z</time></trkpt>
        <trkpt lat="28.730874" lon="104.735727"><ele>528.23065</ele><time>2026-01-16T19:03:08.000Z</time></trkpt>
        <trkpt lat="28.73092" lon="104.73571"><ele>528.2198</ele><time>2026-01-16T19:03:11.000Z</time></trkpt>
        <trkpt lat="28.730964" lon="104.73568"><ele>528.41364</ele><time>2026-01-16T19:03:14.000Z</time></trkpt>
        <trkpt lat="28.731014" lon="104.735638"><ele>528.369</ele><time>2026-01-16T19:03:17.000Z</time></trkpt>
        <trkpt lat="28.731046" lon="104.735601"><ele>528.7616</ele><time>2026-01-16T19:03:20.000Z</time></trkpt>
        <trkpt lat="28.731057" lon="104.735551"><ele>529.03723</ele><time>2026-01-16T19:03:25.000Z</time></trkpt>
        <trkpt lat="28.731013" lon="104.735574"><ele>529.0037</ele><time>2026-01-16T19:03:36.000Z</time></trkpt>
        <trkpt lat="28.730972" lon="104.735603"><ele>529.53455</ele><time>2026-01-16T19:03:40.000Z</time></trkpt>
        <trkpt lat="28.730925" lon="104.735609"><ele>529.5646</ele><time>2026-01-16T19:03:43.000Z</time></trkpt>
        <trkpt lat="28.730874" lon="104.735592"><ele>530.3046</ele><time>2026-01-16T19:03:47.000Z</time></trkpt>
        <trkpt lat="28.730822" lon="104.735565"><ele>531.0937</ele><time>2026-01-16T19:03:52.000Z</time></trkpt>
        <trkpt lat="28.730765" lon="104.73554"><ele>531.03503</ele><time>2026-01-16T19:03:57.000Z</time></trkpt>
        <trkpt lat="28.730728" lon="104.735488"><ele>533.0271</ele><time>2026-01-16T19:04:03.000Z</time></trkpt>
        <trkpt lat="28.730684" lon="104.735454"><ele>533.2752</ele><time>2026-01-16T19:04:07.000Z</time></trkpt>
        <trkpt lat="28.730643" lon="104.735411"><ele>534.15063</ele><time>2026-01-16T19:04:16.000Z</time></trkpt>
        <trkpt lat="28.730588" lon="104.735409"><ele>533.78973</ele><time>2026-01-16T19:04:21.000Z</time></trkpt>
        <trkpt lat="28.730544" lon="104.735381"><ele>533.41205</ele><time>2026-01-16T19:04:27.000Z</time></trkpt>
        <trkpt lat="28.730494" lon="104.735367"><ele>533.33746</ele><time>2026-01-16T19:04:33.000Z</time></trkpt>
        <trkpt lat="28.730446" lon="104.73534"><ele>532.5505</ele><time>2026-01-16T19:04:38.000Z</time></trkpt>
        <trkpt lat="28.730398" lon="104.735331"><ele>532.45184</ele><time>2026-01-16T19:04:45.000Z</time></trkpt>
        <trkpt lat="28.730353" lon="104.735372"><ele>532.4421</ele><time>2026-01-16T19:04:51.000Z</time></trkpt>
        <trkpt lat="28.730313" lon="104.735403"><ele>531.98</ele><time>2026-01-16T19:04:55.000Z</time></trkpt>
        <trkpt lat="28.730295" lon="104.735455"><ele>530.5506</ele><time>2026-01-16T19:05:00.000Z</time></trkpt>
        <trkpt lat="28.730279" lon="104.735508"><ele>530.72095</ele><time>2026-01-16T19:05:05.000Z</time></trkpt>
        <trkpt lat="28.730233" lon="104.735526"><ele>531.07794</ele><time>2026-01-16T19:05:11.000Z</time></trkpt>
        <trkpt lat="28.730186" lon="104.735552"><ele>530.7202</ele><time>2026-01-16T19:05:31.000Z</time></trkpt>
        <trkpt lat="28.73014" lon="104.735561"><ele>532.0996</ele><time>2026-01-16T19:05:35.000Z</time></trkpt>
        <trkpt lat="28.730095" lon="104.735584"><ele>532.2005</ele><time>2026-01-16T19:05:41.000Z</time></trkpt>
        <trkpt lat="28.730059" lon="104.735616"><ele>532.5925</ele><time>2026-01-16T19:05:45.000Z</time></trkpt>
        <trkpt lat="28.730011" lon="104.735646"><ele>532.43256</ele><time>2026-01-16T19:05:51.000Z</time></trkpt>
        <trkpt lat="28.729982" lon="104.735685"><ele>533.49207</ele><time>2026-01-16T19:06:07.000Z</time></trkpt>
        <trkpt lat="28.729947" lon="104.735646"><ele>533.4816</ele><time>2026-01-16T19:06:14.000Z</time></trkpt>
        <trkpt lat="28.729904" lon="104.735632"><ele>534.4855</ele><time>2026-01-16T19:06:21.000Z</time></trkpt>
        <trkpt lat="28.729859" lon="104.735665"><ele>534.8321</ele><time>2026-01-16T19:06:30.000Z</time></trkpt>
        <trkpt lat="28.729806" lon="104.735667"><ele>534.764</ele><time>2026-01-16T19:06:36.000Z</time></trkpt>
        <trkpt lat="28.729775" lon="104.735704"><ele>534.1824</ele><time>2026-01-16T19:06:42.000Z</time></trkpt>
        <trkpt lat="28.72974" lon="104.735738"><ele>533.95764</ele><time>2026-01-16T19:06:46.000Z</time></trkpt>
        <trkpt lat="28.729696" lon="104.735719"><ele>533.7045</ele><time>2026-01-16T19:06:50.000Z</time></trkpt>
        <trkpt lat="28.729655" lon="104.735686"><ele>533.8927</ele><time>2026-01-16T19:06:53.000Z</time></trkpt>
        <trkpt lat="28.729618" lon="104.735656"><ele>534.2998</ele><time>2026-01-16T19:07:03.000Z</time></trkpt>
        <trkpt lat="28.729571" lon="104.735629"><ele>534.17145</ele><time>2026-01-16T19:07:08.000Z</time></trkpt>
        <trkpt lat="28.729543" lon="104.73558"><ele>533.73975</ele><time>2026-01-16T19:07:14.000Z</time></trkpt>
        <trkpt lat="28.729503" lon="104.735538"><ele>533.1819</ele><time>2026-01-16T19:07:20.000Z</time></trkpt>
        <trkpt lat="28.729473" lon="104.735497"><ele>533.98236</ele><time>2026-01-16T19:07:25.000Z</time></trkpt>
        <trkpt lat="28.729436" lon="104.735467"><ele>533.50116</ele><time>2026-01-16T19:07:29.000Z</time></trkpt>
        <trkpt lat="28.729386" lon="104.735444"><ele>533.11206</ele><time>2026-01-16T19:07:33.000Z</time></trkpt>
        <trkpt lat="28.729349" lon="104.735407"><ele>533.4568</ele><time>2026-01-16T19:07:38.000Z</time></trkpt>
        <trkpt lat="28.729305" lon="104.735393"><ele>533.26764</ele><time>2026-01-16T19:07:41.000Z</time></trkpt>
        <trkpt lat="28.729259" lon="104.735357"><ele>533.7582</ele><time>2026-01-16T19:07:46.000Z</time></trkpt>
        <trkpt lat="28.72924" lon="104.735311"><ele>532.63556</ele><time>2026-01-16T19:07:51.000Z</time></trkpt>
        <trkpt lat="28.729207" lon="104.735257"><ele>531.8369</ele><time>2026-01-16T19:07:57.000Z</time></trkpt>
        <trkpt lat="28.729169" lon="104.735218"><ele>532.6341</ele><time>2026-01-16T19:08:02.000Z</time></trkpt>
        <trkpt lat="28.729132" lon="104.735184"><ele>532.12384</ele><time>2026-01-16T19:08:05.000Z</time></trkpt>
        <trkpt lat="28.729119" lon="104.735125"><ele>531.7872</ele><time>2026-01-16T19:08:09.000Z</time></trkpt>
        <trkpt lat="28.729087" lon="104.735074"><ele>531.57794</ele><time>2026-01-16T19:08:14.000Z</time></trkpt>
        <trkpt lat="28.729067" lon="104.735013"><ele>532.68256</ele><time>2026-01-16T19:08:19.000Z</time></trkpt>
        <trkpt lat="28.729048" lon="104.734957"><ele>532.2844</ele><time>2026-01-16T19:08:27.000Z</time></trkpt>
        <trkpt lat="28.729056" lon="104.734889"><ele>531.5506</ele><time>2026-01-16T19:08:35.000Z</time></trkpt>
        <trkpt lat="28.729052" lon="104.734838"><ele>531.7662</ele><time>2026-01-16T19:08:38.000Z</time></trkpt>
        <trkpt lat="28.729074" lon="104.734778"><ele>531.5163</ele><time>2026-01-16T19:08:43.000Z</time></trkpt>
        <trkpt lat="28.729064" lon="104.734718"><ele>530.51996</ele><time>2026-01-16T19:08:49.000Z</time></trkpt>
        <trkpt lat="28.729096" lon="104.734669"><ele>530.0773</ele><time>2026-01-16T19:08:53.000Z</time></trkpt>
        <trkpt lat="28.729147" lon="104.734634"><ele>531.6361</ele><time>2026-01-16T19:08:58.000Z</time></trkpt>
        <trkpt lat="28.729108" lon="104.734609"><ele>531.54297</ele><time>2026-01-16T19:09:20.000Z</time></trkpt>
        <trkpt lat="28.729092" lon="104.734553"><ele>531.6548</ele><time>2026-01-16T19:09:25.000Z</time></trkpt>
        <trkpt lat="28.729054" lon="104.734514"><ele>532.10187</ele><time>2026-01-16T19:09:29.000Z</time></trkpt>
        <trkpt lat="28.728998" lon="104.734504"><ele>532.0043</ele><time>2026-01-16T19:09:34.000Z</time></trkpt>
        <trkpt lat="28.728962" lon="104.734474"><ele>532.2237</ele><time>2026-01-16T19:09:38.000Z</time></trkpt>
        <trkpt lat="28.728931" lon="104.734426"><ele>532.3274</ele><time>2026-01-16T19:09:45.000Z</time></trkpt>
        <trkpt lat="28.728922" lon="104.73437"><ele>532.4148</ele><time>2026-01-16T19:09:49.000Z</time></trkpt>
        <trkpt lat="28.728915" lon="104.734309"><ele>532.5794</ele><time>2026-01-16T19:09:54.000Z</time></trkpt>
        <trkpt lat="28.728907" lon="104.734257"><ele>532.0051</ele><time>2026-01-16T19:09:59.000Z</time></trkpt>
        <trkpt lat="28.728899" lon="104.734199"><ele>531.67944</ele><time>2026-01-16T19:10:04.000Z</time></trkpt>
        <trkpt lat="28.728866" lon="104.73416"><ele>530.64105</ele><time>2026-01-16T19:10:11.000Z</time></trkpt>
        <trkpt lat="28.728821" lon="104.734181"><ele>531.37915</ele><time>2026-01-16T19:10:17.000Z</time></trkpt>
        <trkpt lat="28.72879" lon="104.734219"><ele>533.46</ele><time>2026-01-16T19:10:23.000Z</time></trkpt>
        <trkpt lat="28.728808" lon="104.73427"><ele>533.5202</ele><time>2026-01-16T19:10:28.000Z</time></trkpt>
        <trkpt lat="28.728795" lon="104.734322"><ele>533.79626</ele><time>2026-01-16T19:10:39.000Z</time></trkpt>
        <trkpt lat="28.728762" lon="104.734358"><ele>534.57263</ele><time>2026-01-16T19:10:45.000Z</time></trkpt>
        <trkpt lat="28.72873" lon="104.734406"><ele>535.45905</ele><time>2026-01-16T19:10:52.000Z</time></trkpt>
        <trkpt lat="28.728727" lon="104.734463"><ele>535.2154</ele><time>2026-01-16T19:11:10.000Z</time></trkpt>
        <trkpt lat="28.728679" lon="104.734478"><ele>535.47845</ele><time>2026-01-16T19:11:16.000Z</time></trkpt>
        <trkpt lat="28.728649" lon="104.734519"><ele>535.78754</ele><time>2026-01-16T19:11:30.000Z</time></trkpt>
        <trkpt lat="28.728612" lon="104.734563"><ele>536.1406</ele><time>2026-01-16T19:11:41.000Z</time></trkpt>
        <trkpt lat="28.728574" lon="104.734589"><ele>534.6805</ele><time>2026-01-16T19:11:54.000Z</time></trkpt>
        <trkpt lat="28.728602" lon="104.734641"><ele>534.2144</ele><time>2026-01-16T19:11:59.000Z</time></trkpt>
        <trkpt lat="28.728591" lon="104.734697"><ele>533.8126</ele><time>2026-01-16T19:12:04.000Z</time></trkpt>
        <trkpt lat="28.728564" lon="104.734738"><ele>533.3097</ele><time>2026-01-16T19:12:09.000Z</time></trkpt>
        <trkpt lat="28.728516" lon="104.734763"><ele>533.07587</ele><time>2026-01-16T19:12:14.000Z</time></trkpt>
        <trkpt lat="28.728482" lon="104.73472"><ele>532.91064</ele><time>2026-01-16T19:12:19.000Z</time></trkpt>
        <trkpt lat="28.728461" lon="104.734666"><ele>533.4066</ele><time>2026-01-16T19:12:24.000Z</time></trkpt>
        <trkpt lat="28.728433" lon="104.734622"><ele>534.01843</ele><time>2026-01-16T19:12:40.000Z</time></trkpt>
        <trkpt lat="28.728396" lon="104.734577"><ele>534.64465</ele><time>2026-01-16T19:12:51.000Z</time></trkpt>
        <trkpt lat="28.728374" lon="104.734525"><ele>536.1788</ele><time>2026-01-16T19:12:57.000Z</time></trkpt>
        <trkpt lat="28.728358" lon="104.734473"><ele>537.4147</ele><time>2026-01-16T19:13:02.000Z</time></trkpt>
        <trkpt lat="28.72836" lon="104.734419"><ele>537.6734</ele><time>2026-01-16T19:13:08.000Z</time></trkpt>
        <trkpt lat="28.728363" lon="104.734367"><ele>538.7544</ele><time>2026-01-16T19:13:14.000Z</time></trkpt>
        <trkpt lat="28.728364" lon="104.734315"><ele>539.6922</ele><time>2026-01-16T19:13:19.000Z</time></trkpt>
        <trkpt lat="28.728343" lon="104.73426"><ele>541.3045</ele><time>2026-01-16T19:13:27.000Z</time></trkpt>
        <trkpt lat="28.72836" lon="104.734209"><ele>542.56885</ele><time>2026-01-16T19:13:33.000Z</time></trkpt>
        <trkpt lat="28.72836" lon="104.734155"><ele>543.42224</ele><time>2026-01-16T19:13:38.000Z</time></trkpt>
        <trkpt lat="28.728366" lon="104.734103"><ele>544.93286</ele><time>2026-01-16T19:13:43.000Z</time></trkpt>
        <trkpt lat="28.728362" lon="104.734045"><ele>546.8345</ele><time>2026-01-16T19:13:50.000Z</time></trkpt>
        <trkpt lat="28.728387" lon="104.733997"><ele>548.1453</ele><time>2026-01-16T19:13:56.000Z</time></trkpt>
        <trkpt lat="28.728396" lon="104.733939"><ele>549.4529</ele><time>2026-01-16T19:14:01.000Z</time></trkpt>
        <trkpt lat="28.728412" lon="104.73388"><ele>550.8748</ele><time>2026-01-16T19:14:06.000Z</time></trkpt>
        <trkpt lat="28.728415" lon="104.733822"><ele>552.06537</ele><time>2026-01-16T19:14:11.000Z</time></trkpt>
        <trkpt lat="28.72842" lon="104.733769"><ele>553.5528</ele><time>2026-01-16T19:14:15.000Z</time></trkpt>
        <trkpt lat="28.728416" lon="104.733708"><ele>555.11523</ele><time>2026-01-16T19:14:20.000Z</time></trkpt>
        <trkpt lat="28.72841" lon="104.733653"><ele>557.15466</ele><time>2026-01-16T19:14:25.000Z</time></trkpt>
        <trkpt lat="28.728394" lon="104.7336"><ele>558.49133</ele><time>2026-01-16T19:14:30.000Z</time></trkpt>
        <trkpt lat="28.728359" lon="104.733548"><ele>560.2937</ele><time>2026-01-16T19:14:35.000Z</time></trkpt>
        <trkpt lat="28.728324" lon="104.733514"><ele>561.31134</ele><time>2026-01-16T19:14:39.000Z</time></trkpt>
        <trkpt lat="28.72828" lon="104.733491"><ele>561.99554</ele><time>2026-01-16T19:14:44.000Z</time></trkpt>
        <trkpt lat="28.728228" lon="104.733493"><ele>562.0612</ele><time>2026-01-16T19:14:49.000Z</time></trkpt>
        <trkpt lat="28.728182" lon="104.733487"><ele>561.8782</ele><time>2026-01-16T19:14:57.000Z</time></trkpt>
        <trkpt lat="28.728133" lon="104.733469"><ele>561.65607</ele><time>2026-01-16T19:15:04.000Z</time></trkpt>
        <trkpt lat="28.728108" lon="104.733426"><ele>561.73206</ele><time>2026-01-16T19:15:09.000Z</time></trkpt>
        <trkpt lat="28.728075" lon="104.733377"><ele>562.2082</ele><time>2026-01-16T19:15:15.000Z</time></trkpt>
        <trkpt lat="28.728053" lon="104.733316"><ele>562.45886</ele><time>2026-01-16T19:15:20.000Z</time></trkpt>
        <trkpt lat="28.72805" lon="104.733264"><ele>561.9988</ele><time>2026-01-16T19:15:24.000Z</time></trkpt>
        <trkpt lat="28.728032" lon="104.733215"><ele>562.2452</ele><time>2026-01-16T19:15:31.000Z</time></trkpt>
        <trkpt lat="28.728005" lon="104.733167"><ele>562.1432</ele><time>2026-01-16T19:15:36.000Z</time></trkpt>
        <trkpt lat="28.727978" lon="104.733125"><ele>561.51855</ele><time>2026-01-16T19:15:41.000Z</time></trkpt>
        <trkpt lat="28.727947" lon="104.733086"><ele>560.64026</ele><time>2026-01-16T19:15:46.000Z</time></trkpt>
        <trkpt lat="28.727903" lon="104.733059"><ele>560.7537</ele><time>2026-01-16T19:15:52.000Z</time></trkpt>
        <trkpt lat="28.727862" lon="104.733028"><ele>560.74585</ele><time>2026-01-16T19:16:10.000Z</time></trkpt>
        <trkpt lat="28.72791" lon="104.733013"><ele>561.1897</ele><time>2026-01-16T19:16:16.000Z</time></trkpt>
        <trkpt lat="28.727956" lon="104.733007"><ele>561.8669</ele><time>2026-01-16T19:16:41.000Z</time></trkpt>
        <trkpt lat="28.728002" lon="104.733012"><ele>561.34106</ele><time>2026-01-16T19:16:48.000Z</time></trkpt>
        <trkpt lat="28.727941" lon="104.733018"><ele>561.3882</ele><time>2026-01-16T19:17:11.000Z</time></trkpt>
        <trkpt lat="28.72789" lon="104.73302"><ele>561.32526</ele><time>2026-01-16T19:17:15.000Z</time></trkpt>
        <trkpt lat="28.727835" lon="104.733033"><ele>560.8244</ele><time>2026-01-16T19:17:19.000Z</time></trkpt>
        <trkpt lat="28.72778" lon="104.733027"><ele>559.70593</ele><time>2026-01-16T19:17:24.000Z</time></trkpt>
        <trkpt lat="28.727724" lon="104.733"><ele>559.35266</ele><time>2026-01-16T19:17:29.000Z</time></trkpt>
        <trkpt lat="28.727686" lon="104.732959"><ele>559.27136</ele><time>2026-01-16T19:17:34.000Z</time></trkpt>
        <trkpt lat="28.727647" lon="104.732918"><ele>558.4867</ele><time>2026-01-16T19:17:39.000Z</time></trkpt>
        <trkpt lat="28.727613" lon="104.732875"><ele>558.1888</ele><time>2026-01-16T19:17:44.000Z</time></trkpt>
        <trkpt lat="28.727591" lon="104.732827"><ele>559.7445</ele><time>2026-01-16T19:17:49.000Z</time></trkpt>
        <trkpt lat="28.727549" lon="104.73279"><ele>558.8892</ele><time>2026-01-16T19:17:56.000Z</time></trkpt>
        <trkpt lat="28.727513" lon="104.73275"><ele>558.28906</ele><time>2026-01-16T19:18:01.000Z</time></trkpt>
        <trkpt lat="28.727468" lon="104.732719"><ele>557.2564</ele><time>2026-01-16T19:18:07.000Z</time></trkpt>
        <trkpt lat="28.727421" lon="104.732697"><ele>556.9984</ele><time>2026-01-16T19:18:12.000Z</time></trkpt>
        <trkpt lat="28.727371" lon="104.732684"><ele>557.3751</ele><time>2026-01-16T19:18:17.000Z</time></trkpt>
        <trkpt lat="28.727322" lon="104.732691"><ele>556.662</ele><time>2026-01-16T19:18:22.000Z</time></trkpt>
        <trkpt lat="28.727268" lon="104.732699"><ele>557.03</ele><time>2026-01-16T19:18:27.000Z</time></trkpt>
        <trkpt lat="28.727223" lon="104.732706"><ele>557.50885</ele><time>2026-01-16T19:18:31.000Z</time></trkpt>
        <trkpt lat="28.727168" lon="104.732722"><ele>556.955</ele><time>2026-01-16T19:18:36.000Z</time></trkpt>
        <trkpt lat="28.727121" lon="104.732723"><ele>556.9221</ele><time>2026-01-16T19:18:40.000Z</time></trkpt>
        <trkpt lat="28.727063" lon="104.732725"><ele>558.0195</ele><time>2026-01-16T19:18:45.000Z</time></trkpt>
        <trkpt lat="28.72701" lon="104.732733"><ele>557.7369</ele><time>2026-01-16T19:18:50.000Z</time></trkpt>
        <trkpt lat="28.726964" lon="104.732728"><ele>558.69885</ele><time>2026-01-16T19:18:55.000Z</time></trkpt>
        <trkpt lat="28.726918" lon="104.732737"><ele>558.3328</ele><time>2026-01-16T19:19:01.000Z</time></trkpt>
        <trkpt lat="28.726868" lon="104.732728"><ele>558.6965</ele><time>2026-01-16T19:19:11.000Z</time></trkpt>
        <trkpt lat="28.726823" lon="104.732749"><ele>558.26666</ele><time>2026-01-16T19:19:17.000Z</time></trkpt>
        <trkpt lat="28.72677" lon="104.732757"><ele>557.53156</ele><time>2026-01-16T19:19:25.000Z</time></trkpt>
        <trkpt lat="28.726723" lon="104.732768"><ele>557.06323</ele><time>2026-01-16T19:19:30.000Z</time></trkpt>
        <trkpt lat="28.726677" lon="104.73278"><ele>557.0382</ele><time>2026-01-16T19:19:35.000Z</time></trkpt>
        <trkpt lat="28.726633" lon="104.732806"><ele>556.8116</ele><time>2026-01-16T19:19:40.000Z</time></trkpt>
        <trkpt lat="28.726588" lon="104.732826"><ele>557.72504</ele><time>2026-01-16T19:19:45.000Z</time></trkpt>
        <trkpt lat="28.726546" lon="104.732849"><ele>558.27893</ele><time>2026-01-16T19:19:50.000Z</time></trkpt>
        <trkpt lat="28.726505" lon="104.732878"><ele>559.64703</ele><time>2026-01-16T19:19:59.000Z</time></trkpt>
        <trkpt lat="28.726465" lon="104.732904"><ele>561.57874</ele><time>2026-01-16T19:20:06.000Z</time></trkpt>
        <trkpt lat="28.726415" lon="104.732923"><ele>562.80896</ele><time>2026-01-16T19:20:13.000Z</time></trkpt>
        <trkpt lat="28.726371" lon="104.732945"><ele>563.7538</ele><time>2026-01-16T19:20:19.000Z</time></trkpt>
        <trkpt lat="28.726334" lon="104.732975"><ele>564.2692</ele><time>2026-01-16T19:20:25.000Z</time></trkpt>
        <trkpt lat="28.726301" lon="104.733017"><ele>565.6127</ele><time>2026-01-16T19:20:31.000Z</time></trkpt>
        <trkpt lat="28.726266" lon="104.733059"><ele>566.8817</ele><time>2026-01-16T19:20:37.000Z</time></trkpt>
        <trkpt lat="28.726229" lon="104.733097"><ele>568.075</ele><time>2026-01-16T19:20:43.000Z</time></trkpt>
        <trkpt lat="28.726185" lon="104.733121"><ele>568.5714</ele><time>2026-01-16T19:20:48.000Z</time></trkpt>
        <trkpt lat="28.726146" lon="104.733151"><ele>568.9477</ele><time>2026-01-16T19:20:54.000Z</time></trkpt>
        <trkpt lat="28.726107" lon="104.733187"><ele>569.1272</ele><time>2026-01-16T19:21:00.000Z</time></trkpt>
        <trkpt lat="28.726064" lon="104.733219"><ele>569.55023</ele><time>2026-01-16T19:21:07.000Z</time></trkpt>
        <trkpt lat="28.726017" lon="104.733241"><ele>569.95734</ele><time>2026-01-16T19:21:14.000Z</time></trkpt>
        <trkpt lat="28.725971" lon="104.733261"><ele>570.6101</ele><time>2026-01-16T19:21:22.000Z</time></trkpt>
        <trkpt lat="28.725926" lon="104.733286"><ele>570.8229</ele><time>2026-01-16T19:21:28.000Z</time></trkpt>
        <trkpt lat="28.725884" lon="104.733305"><ele>570.9306</ele><time>2026-01-16T19:21:33.000Z</time></trkpt>
        <trkpt lat="28.725844" lon="104.733334"><ele>570.727</ele><time>2026-01-16T19:21:41.000Z</time></trkpt>
        <trkpt lat="28.725797" lon="104.733365"><ele>571.2152</ele><time>2026-01-16T19:21:46.000Z</time></trkpt>
        <trkpt lat="28.725756" lon="104.733401"><ele>571.4783</ele><time>2026-01-16T19:21:51.000Z</time></trkpt>
        <trkpt lat="28.725717" lon="104.733438"><ele>571.31274</ele><time>2026-01-16T19:21:56.000Z</time></trkpt>
        <trkpt lat="28.725678" lon="104.733479"><ele>571.1331</ele><time>2026-01-16T19:22:01.000Z</time></trkpt>
        <trkpt lat="28.725647" lon="104.733518"><ele>571.7316</ele><time>2026-01-16T19:22:06.000Z</time></trkpt>
        <trkpt lat="28.725619" lon="104.733559"><ele>571.4831</ele><time>2026-01-16T19:22:14.000Z</time></trkpt>
        <trkpt lat="28.725586" lon="104.733606"><ele>571.893</ele><time>2026-01-16T19:22:20.000Z</time></trkpt>
        <trkpt lat="28.725551" lon="104.733644"><ele>572.4508</ele><time>2026-01-16T19:22:26.000Z</time></trkpt>
        <trkpt lat="28.72553" lon="104.733697"><ele>571.7001</ele><time>2026-01-16T19:22:32.000Z</time></trkpt>
        <trkpt lat="28.725528" lon="104.733753"><ele>572.4888</ele><time>2026-01-16T19:22:38.000Z</time></trkpt>
        <trkpt lat="28.725517" lon="104.733808"><ele>572.0653</ele><time>2026-01-16T19:22:43.000Z</time></trkpt>
        <trkpt lat="28.72551" lon="104.733861"><ele>572.74786</ele><time>2026-01-16T19:22:48.000Z</time></trkpt>
        <trkpt lat="28.725485" lon="104.733907"><ele>572.47546</ele><time>2026-01-16T19:22:53.000Z</time></trkpt>
        <trkpt lat="28.725459" lon="104.733959"><ele>572.2311</ele><time>2026-01-16T19:22:59.000Z</time></trkpt>
        <trkpt lat="28.725446" lon="104.734012"><ele>572.77124</ele><time>2026-01-16T19:23:04.000Z</time></trkpt>
        <trkpt lat="28.725421" lon="104.734059"><ele>571.92773</ele><time>2026-01-16T19:23:08.000Z</time></trkpt>
        <trkpt lat="28.725375" lon="104.734099"><ele>572.23083</ele><time>2026-01-16T19:23:12.000Z</time></trkpt>
        <trkpt lat="28.725344" lon="104.734149"><ele>572.8375</ele><time>2026-01-16T19:23:15.000Z</time></trkpt>
        <trkpt lat="28.725307" lon="104.734182"><ele>573.3193</ele><time>2026-01-16T19:23:19.000Z</time></trkpt>
        <trkpt lat="28.725277" lon="104.734226"><ele>574.2831</ele><time>2026-01-16T19:23:24.000Z</time></trkpt>
        <trkpt lat="28.725251" lon="104.734269"><ele>575.4137</ele><time>2026-01-16T19:23:32.000Z</time></trkpt>
        <trkpt lat="28.725223" lon="104.734311"><ele>575.67816</ele><time>2026-01-16T19:23:36.000Z</time></trkpt>
        <trkpt lat="28.72519" lon="104.734361"><ele>575.0121</ele><time>2026-01-16T19:23:41.000Z</time></trkpt>
        <trkpt lat="28.72515" lon="104.734396"><ele>575.5588</ele><time>2026-01-16T19:23:45.000Z</time></trkpt>
        <trkpt lat="28.725099" lon="104.734417"><ele>575.8387</ele><time>2026-01-16T19:23:50.000Z</time></trkpt>
        <trkpt lat="28.725057" lon="104.734436"><ele>576.5089</ele><time>2026-01-16T19:23:54.000Z</time></trkpt>
        <trkpt lat="28.725012" lon="104.734451"><ele>577.56213</ele><time>2026-01-16T19:23:58.000Z</time></trkpt>
        <trkpt lat="28.724966" lon="104.734473"><ele>577.54083</ele><time>2026-01-16T19:24:04.000Z</time></trkpt>
        <trkpt lat="28.724921" lon="104.734499"><ele>577.7549</ele><time>2026-01-16T19:24:09.000Z</time></trkpt>
        <trkpt lat="28.724869" lon="104.734505"><ele>577.9157</ele><time>2026-01-16T19:24:16.000Z</time></trkpt>
        <trkpt lat="28.72482" lon="104.734519"><ele>578.5796</ele><time>2026-01-16T19:24:21.000Z</time></trkpt>
        <trkpt lat="28.724771" lon="104.734536"><ele>578.54614</ele><time>2026-01-16T19:24:26.000Z</time></trkpt>
        <trkpt lat="28.724724" lon="104.734546"><ele>579.2961</ele><time>2026-01-16T19:24:31.000Z</time></trkpt>
        <trkpt lat="28.724685" lon="104.734579"><ele>580.4043</ele><time>2026-01-16T19:24:37.000Z</time></trkpt>
        <trkpt lat="28.724642" lon="104.734605"><ele>580.2525</ele><time>2026-01-16T19:24:42.000Z</time></trkpt>
        <trkpt lat="28.724602" lon="104.734633"><ele>580.58575</ele><time>2026-01-16T19:24:49.000Z</time></trkpt>
        <trkpt lat="28.724552" lon="104.734642"><ele>580.3043</ele><time>2026-01-16T19:24:54.000Z</time></trkpt>
        <trkpt lat="28.724515" lon="104.734676"><ele>580.9438</ele><time>2026-01-16T19:24:58.000Z</time></trkpt>
        <trkpt lat="28.724463" lon="104.734681"><ele>581.08563</ele><time>2026-01-16T19:25:03.000Z</time></trkpt>
        <trkpt lat="28.724418" lon="104.734683"><ele>581.792</ele><time>2026-01-16T19:25:07.000Z</time></trkpt>
        <trkpt lat="28.724359" lon="104.734677"><ele>582.034</ele><time>2026-01-16T19:25:11.000Z</time></trkpt>
        <trkpt lat="28.724312" lon="104.734675"><ele>582.46484</ele><time>2026-01-16T19:25:15.000Z</time></trkpt>
        <trkpt lat="28.724257" lon="104.734687"><ele>582.62305</ele><time>2026-01-16T19:25:20.000Z</time></trkpt>
        <trkpt lat="28.724209" lon="104.734692"><ele>582.62573</ele><time>2026-01-16T19:25:25.000Z</time></trkpt>
        <trkpt lat="28.724162" lon="104.734702"><ele>582.624</ele><time>2026-01-16T19:25:29.000Z</time></trkpt>
        <trkpt lat="28.724105" lon="104.734704"><ele>582.33765</ele><time>2026-01-16T19:25:35.000Z</time></trkpt>
        <trkpt lat="28.724058" lon="104.734713"><ele>582.4987</ele><time>2026-01-16T19:25:41.000Z</time></trkpt>
        <trkpt lat="28.724006" lon="104.734724"><ele>583.5434</ele><time>2026-01-16T19:25:46.000Z</time></trkpt>
        <trkpt lat="28.723961" lon="104.734747"><ele>584.20807</ele><time>2026-01-16T19:25:50.000Z</time></trkpt>
        <trkpt lat="28.723926" lon="104.734791"><ele>584.7941</ele><time>2026-01-16T19:25:55.000Z</time></trkpt>
        <trkpt lat="28.723893" lon="104.734833"><ele>584.5553</ele><time>2026-01-16T19:26:00.000Z</time></trkpt>
        <trkpt lat="28.723856" lon="104.734881"><ele>583.9482</ele><time>2026-01-16T19:26:05.000Z</time></trkpt>
        <trkpt lat="28.723812" lon="104.73492"><ele>583.6981</ele><time>2026-01-16T19:26:10.000Z</time></trkpt>
        <trkpt lat="28.723784" lon="104.734967"><ele>582.7882</ele><time>2026-01-16T19:26:15.000Z</time></trkpt>
        <trkpt lat="28.723771" lon="104.735017"><ele>582.75183</ele><time>2026-01-16T19:26:19.000Z</time></trkpt>
        <trkpt lat="28.723755" lon="104.735068"><ele>582.56934</ele><time>2026-01-16T19:26:23.000Z</time></trkpt>
        <trkpt lat="28.723751" lon="104.735125"><ele>582.07104</ele><time>2026-01-16T19:26:28.000Z</time></trkpt>
        <trkpt lat="28.723745" lon="104.735183"><ele>581.7069</ele><time>2026-01-16T19:26:33.000Z</time></trkpt>
        <trkpt lat="28.723719" lon="104.735233"><ele>580.0963</ele><time>2026-01-16T19:26:38.000Z</time></trkpt>
        <trkpt lat="28.7237" lon="104.735282"><ele>579.7258</ele><time>2026-01-16T19:26:43.000Z</time></trkpt>
        <trkpt lat="28.723688" lon="104.735333"><ele>580.94293</ele><time>2026-01-16T19:26:47.000Z</time></trkpt>
        <trkpt lat="28.723663" lon="104.735399"><ele>581.8769</ele><time>2026-01-16T19:26:52.000Z</time></trkpt>
        <trkpt lat="28.723658" lon="104.735455"><ele>583.6039</ele><time>2026-01-16T19:26:57.000Z</time></trkpt>
        <trkpt lat="28.723654" lon="104.735508"><ele>584.97504</ele><time>2026-01-16T19:27:01.000Z</time></trkpt>
        <trkpt lat="28.723652" lon="104.735561"><ele>586.20715</ele><time>2026-01-16T19:27:05.000Z</time></trkpt>
        <trkpt lat="28.723636" lon="104.735615"><ele>587.6405</ele><time>2026-01-16T19:27:10.000Z</time></trkpt>
        <trkpt lat="28.723625" lon="104.735678"><ele>588.69904</ele><time>2026-01-16T19:27:14.000Z</time></trkpt>
        <trkpt lat="28.723611" lon="104.735728"><ele>589.1471</ele><time>2026-01-16T19:27:18.000Z</time></trkpt>
        <trkpt lat="28.723636" lon="104.735784"><ele>588.8932</ele><time>2026-01-16T19:27:23.000Z</time></trkpt>
        <trkpt lat="28.723669" lon="104.735834"><ele>588.3602</ele><time>2026-01-16T19:27:29.000Z</time></trkpt>
        <trkpt lat="28.723702" lon="104.735874"><ele>587.6265</ele><time>2026-01-16T19:27:34.000Z</time></trkpt>
        <trkpt lat="28.723754" lon="104.735878"><ele>586.61395</ele><time>2026-01-16T19:27:40.000Z</time></trkpt>
        <trkpt lat="28.723783" lon="104.735919"><ele>585.49426</ele><time>2026-01-16T19:27:45.000Z</time></trkpt>
        <trkpt lat="28.723829" lon="104.735937"><ele>585.6827</ele><time>2026-01-16T19:27:49.000Z</time></trkpt>
        <trkpt lat="28.723879" lon="104.735959"><ele>585.0636</ele><time>2026-01-16T19:27:54.000Z</time></trkpt>
        <trkpt lat="28.723926" lon="104.735986"><ele>584.6328</ele><time>2026-01-16T19:27:59.000Z</time></trkpt>
        <trkpt lat="28.723965" lon="104.736015"><ele>585.0677</ele><time>2026-01-16T19:28:04.000Z</time></trkpt>
        <trkpt lat="28.723917" lon="104.735991"><ele>584.7343</ele><time>2026-01-16T19:28:22.000Z</time></trkpt>
        <trkpt lat="28.723861" lon="104.735976"><ele>584.38007</ele><time>2026-01-16T19:28:26.000Z</time></trkpt>
        <trkpt lat="28.723812" lon="104.735959"><ele>584.6599</ele><time>2026-01-16T19:28:29.000Z</time></trkpt>
        <trkpt lat="28.723772" lon="104.735932"><ele>585.13586</ele><time>2026-01-16T19:28:32.000Z</time></trkpt>
        <trkpt lat="28.723724" lon="104.735916"><ele>585.6635</ele><time>2026-01-16T19:28:36.000Z</time></trkpt>
        <trkpt lat="28.723678" lon="104.735895"><ele>585.928</ele><time>2026-01-16T19:28:40.000Z</time></trkpt>
        <trkpt lat="28.723631" lon="104.735869"><ele>587.19305</ele><time>2026-01-16T19:28:44.000Z</time></trkpt>
        <trkpt lat="28.723589" lon="104.735841"><ele>588.28186</ele><time>2026-01-16T19:28:48.000Z</time></trkpt>
        <trkpt lat="28.723563" lon="104.735799"><ele>589.218</ele><time>2026-01-16T19:28:52.000Z</time></trkpt>
        <trkpt lat="28.723533" lon="104.73575"><ele>589.96826</ele><time>2026-01-16T19:28:59.000Z</time></trkpt>
        <trkpt lat="28.723538" lon="104.735693"><ele>590.20245</ele><time>2026-01-16T19:29:03.000Z</time></trkpt>
        <trkpt lat="28.723559" lon="104.73564"><ele>590.0879</ele><time>2026-01-16T19:29:06.000Z</time></trkpt>
        <trkpt lat="28.723575" lon="104.735578"><ele>589.697</ele><time>2026-01-16T19:29:10.000Z</time></trkpt>
        <trkpt lat="28.723595" lon="104.735521"><ele>589.4135</ele><time>2026-01-16T19:29:14.000Z</time></trkpt>
        <trkpt lat="28.723599" lon="104.735467"><ele>588.7401</ele><time>2026-01-16T19:29:18.000Z</time></trkpt>
        <trkpt lat="28.723616" lon="104.735413"><ele>587.8904</ele><time>2026-01-16T19:29:22.000Z</time></trkpt>
        <trkpt lat="28.723636" lon="104.735355"><ele>586.58984</ele><time>2026-01-16T19:29:26.000Z</time></trkpt>
        <trkpt lat="28.723653" lon="104.735301"><ele>585.7983</ele><time>2026-01-16T19:29:30.000Z</time></trkpt>
        <trkpt lat="28.723657" lon="104.735244"><ele>582.85925</ele><time>2026-01-16T19:29:34.000Z</time></trkpt>
        <trkpt lat="28.72368" lon="104.735198"><ele>582.854</ele><time>2026-01-16T19:29:38.000Z</time></trkpt>
        <trkpt lat="28.723694" lon="104.735148"><ele>581.43604</ele><time>2026-01-16T19:29:45.000Z</time></trkpt>
        <trkpt lat="28.723708" lon="104.735089"><ele>581.8578</ele><time>2026-01-16T19:29:50.000Z</time></trkpt>
        <trkpt lat="28.72372" lon="104.735038"><ele>581.5585</ele><time>2026-01-16T19:29:54.000Z</time></trkpt>
        <trkpt lat="28.723726" lon="104.734982"><ele>582.3239</ele><time>2026-01-16T19:30:03.000Z</time></trkpt>
        <trkpt lat="28.723741" lon="104.734928"><ele>585.0377</ele><time>2026-01-16T19:30:10.000Z</time></trkpt>
        <trkpt lat="28.723743" lon="104.734874"><ele>586.1435</ele><time>2026-01-16T19:30:25.000Z</time></trkpt>
        <trkpt lat="28.723787" lon="104.734844"><ele>587.3577</ele><time>2026-01-16T19:30:31.000Z</time></trkpt>
        <trkpt lat="28.723738" lon="104.734853"><ele>587.54645</ele><time>2026-01-16T19:30:40.000Z</time></trkpt>
        <trkpt lat="28.723689" lon="104.734862"><ele>587.9908</ele><time>2026-01-16T19:30:45.000Z</time></trkpt>
        <trkpt lat="28.723638" lon="104.734856"><ele>587.8814</ele><time>2026-01-16T19:30:53.000Z</time></trkpt>
        <trkpt lat="28.723597" lon="104.734835"><ele>588.39276</ele><time>2026-01-16T19:30:58.000Z</time></trkpt>
        <trkpt lat="28.723546" lon="104.734804"><ele>588.51495</ele><time>2026-01-16T19:31:02.000Z</time></trkpt>
        <trkpt lat="28.723513" lon="104.734755"><ele>587.41986</ele><time>2026-01-16T19:31:08.000Z</time></trkpt>
        <trkpt lat="28.723476" lon="104.734709"><ele>586.24207</ele><time>2026-01-16T19:31:14.000Z</time></trkpt>
        <trkpt lat="28.723434" lon="104.734671"><ele>584.6388</ele><time>2026-01-16T19:31:20.000Z</time></trkpt>
        <trkpt lat="28.723411" lon="104.734626"><ele>583.9807</ele><time>2026-01-16T19:31:23.000Z</time></trkpt>
        <trkpt lat="28.723368" lon="104.734593"><ele>583.33185</ele><time>2026-01-16T19:31:27.000Z</time></trkpt>
        <trkpt lat="28.723318" lon="104.734589"><ele>582.44574</ele><time>2026-01-16T19:31:31.000Z</time></trkpt>
        <trkpt lat="28.723309" lon="104.734639"><ele>580.872</ele><time>2026-01-16T19:31:39.000Z</time></trkpt>
        <trkpt lat="28.723263" lon="104.734626"><ele>580.47974</ele><time>2026-01-16T19:31:46.000Z</time></trkpt>
        <trkpt lat="28.72323" lon="104.734662"><ele>580.0313</ele><time>2026-01-16T19:31:52.000Z</time></trkpt>
        <trkpt lat="28.723199" lon="104.734706"><ele>578.88293</ele><time>2026-01-16T19:31:57.000Z</time></trkpt>
        <trkpt lat="28.723165" lon="104.734741"><ele>577.30115</ele><time>2026-01-16T19:32:03.000Z</time></trkpt>
        <trkpt lat="28.723119" lon="104.734742"><ele>577.1472</ele><time>2026-01-16T19:32:06.000Z</time></trkpt>
        <trkpt lat="28.723072" lon="104.734739"><ele>576.2431</ele><time>2026-01-16T19:32:10.000Z</time></trkpt>
        <trkpt lat="28.723032" lon="104.734701"><ele>574.1247</ele><time>2026-01-16T19:32:15.000Z</time></trkpt>
        <trkpt lat="28.722983" lon="104.734692"><ele>574.24084</ele><time>2026-01-16T19:32:18.000Z</time></trkpt>
        <trkpt lat="28.722931" lon="104.73471"><ele>574.7191</ele><time>2026-01-16T19:32:22.000Z</time></trkpt>
        <trkpt lat="28.722884" lon="104.734742"><ele>574.7296</ele><time>2026-01-16T19:32:26.000Z</time></trkpt>
        <trkpt lat="28.722825" lon="104.734743"><ele>574.2558</ele><time>2026-01-16T19:32:30.000Z</time></trkpt>
        <trkpt lat="28.722776" lon="104.734771"><ele>575.0253</ele><time>2026-01-16T19:32:34.000Z</time></trkpt>
        <trkpt lat="28.722727" lon="104.734782"><ele>574.8777</ele><time>2026-01-16T19:32:38.000Z</time></trkpt>
        <trkpt lat="28.722676" lon="104.734802"><ele>575.13745</ele><time>2026-01-16T19:32:42.000Z</time></trkpt>
        <trkpt lat="28.72263" lon="104.734804"><ele>574.26135</ele><time>2026-01-16T19:32:45.000Z</time></trkpt>
        <trkpt lat="28.722573" lon="104.734796"><ele>574.69183</ele><time>2026-01-16T19:32:49.000Z</time></trkpt>
        <trkpt lat="28.722538" lon="104.734848"><ele>575.76276</ele><time>2026-01-16T19:32:58.000Z</time></trkpt>
        <trkpt lat="28.722486" lon="104.734863"><ele>574.6441</ele><time>2026-01-16T19:33:02.000Z</time></trkpt>
        <trkpt lat="28.72244" lon="104.734845"><ele>573.45416</ele><time>2026-01-16T19:33:05.000Z</time></trkpt>
        <trkpt lat="28.722398" lon="104.734819"><ele>572.30725</ele><time>2026-01-16T19:33:09.000Z</time></trkpt>
        <trkpt lat="28.722359" lon="104.734791"><ele>571.72034</ele><time>2026-01-16T19:33:14.000Z</time></trkpt>
        <trkpt lat="28.722327" lon="104.734723"><ele>571.61334</ele><time>2026-01-16T19:33:58.000Z</time></trkpt>
        <trkpt lat="28.722289" lon="104.734691"><ele>571.41315</ele><time>2026-01-16T19:34:05.000Z</time></trkpt>
        <trkpt lat="28.722231" lon="104.734688"><ele>572.16455</ele><time>2026-01-16T19:34:10.000Z</time></trkpt>
        <trkpt lat="28.72218" lon="104.734692"><ele>569.871</ele><time>2026-01-16T19:34:16.000Z</time></trkpt>
        <trkpt lat="28.722142" lon="104.734737"><ele>570.34827</ele><time>2026-01-16T19:34:22.000Z</time></trkpt>
        <trkpt lat="28.722093" lon="104.734758"><ele>568.88025</ele><time>2026-01-16T19:34:29.000Z</time></trkpt>
        <trkpt lat="28.72205" lon="104.734741"><ele>566.1472</ele><time>2026-01-16T19:34:33.000Z</time></trkpt>
        <trkpt lat="28.722016" lon="104.734701"><ele>563.5186</ele><time>2026-01-16T19:34:37.000Z</time></trkpt>
        <trkpt lat="28.721972" lon="104.734658"><ele>561.6567</ele><time>2026-01-16T19:34:42.000Z</time></trkpt>
        <trkpt lat="28.721938" lon="104.734623"><ele>561.19885</ele><time>2026-01-16T19:34:46.000Z</time></trkpt>
        <trkpt lat="28.721906" lon="104.734579"><ele>561.3942</ele><time>2026-01-16T19:34:50.000Z</time></trkpt>
        <trkpt lat="28.721866" lon="104.734544"><ele>560.15967</ele><time>2026-01-16T19:34:55.000Z</time></trkpt>
        <trkpt lat="28.721815" lon="104.734525"><ele>560.05475</ele><time>2026-01-16T19:35:00.000Z</time></trkpt>
        <trkpt lat="28.721764" lon="104.734504"><ele>560.38153</ele><time>2026-01-16T19:35:04.000Z</time></trkpt>
        <trkpt lat="28.721716" lon="104.734485"><ele>563.2509</ele><time>2026-01-16T19:35:08.000Z</time></trkpt>
        <trkpt lat="28.721679" lon="104.734446"><ele>563.88824</ele><time>2026-01-16T19:35:13.000Z</time></trkpt>
        <trkpt lat="28.721646" lon="104.734409"><ele>565.0604</ele><time>2026-01-16T19:35:19.000Z</time></trkpt>
        <trkpt lat="28.721628" lon="104.734355"><ele>565.6718</ele><time>2026-01-16T19:35:23.000Z</time></trkpt>
        <trkpt lat="28.72159" lon="104.734326"><ele>566.9285</ele><time>2026-01-16T19:35:25.000Z</time></trkpt>
        <trkpt lat="28.721569" lon="104.734279"><ele>567.3106</ele><time>2026-01-16T19:35:29.000Z</time></trkpt>
        <trkpt lat="28.721564" lon="104.734217"><ele>568.86816</ele><time>2026-01-16T19:35:35.000Z</time></trkpt>
        <trkpt lat="28.721576" lon="104.734166"><ele>567.8657</ele><time>2026-01-16T19:35:41.000Z</time></trkpt>
        <trkpt lat="28.721612" lon="104.734116"><ele>562.57196</ele><time>2026-01-16T19:35:47.000Z</time></trkpt>
        <trkpt lat="28.721616" lon="104.734107"><ele>561.9703</ele><time>2026-01-16T19:35:48.000Z</time></trkpt>
        <trkpt lat="28.721616" lon="104.734045"><ele>567.6661</ele><time>2026-01-16T19:35:52.000Z</time></trkpt>
        <trkpt lat="28.721641" lon="104.733997"><ele>567.15125</ele><time>2026-01-16T19:35:56.000Z</time></trkpt>
        <trkpt lat="28.721672" lon="104.733939"><ele>563.06213</ele><time>2026-01-16T19:36:01.000Z</time></trkpt>
        <trkpt lat="28.721699" lon="104.733897"><ele>559.68677</ele><time>2026-01-16T19:36:06.000Z</time></trkpt>
        <trkpt lat="28.721743" lon="104.733862"><ele>559.52435</ele><time>2026-01-16T19:36:11.000Z</time></trkpt>
        <trkpt lat="28.721775" lon="104.733826"><ele>560.21014</ele><time>2026-01-16T19:36:16.000Z</time></trkpt>
        <trkpt lat="28.721795" lon="104.733778"><ele>561.5212</ele><time>2026-01-16T19:36:21.000Z</time></trkpt>
        <trkpt lat="28.721819" lon="104.73373"><ele>562.8704</ele><time>2026-01-16T19:36:27.000Z</time></trkpt>
        <trkpt lat="28.721836" lon="104.733678"><ele>564.24866</ele><time>2026-01-16T19:36:33.000Z</time></trkpt>
        <trkpt lat="28.721842" lon="104.733625"><ele>564.841</ele><time>2026-01-16T19:36:37.000Z</time></trkpt>
        <trkpt lat="28.721818" lon="104.733578"><ele>565.1077</ele><time>2026-01-16T19:36:41.000Z</time></trkpt>
        <trkpt lat="28.721769" lon="104.733558"><ele>564.18835</ele><time>2026-01-16T19:36:49.000Z</time></trkpt>
        <trkpt lat="28.721718" lon="104.733538"><ele>561.6192</ele><time>2026-01-16T19:36:55.000Z</time></trkpt>
        <trkpt lat="28.721678" lon="104.733511"><ele>560.5549</ele><time>2026-01-16T19:37:00.000Z</time></trkpt>
        <trkpt lat="28.721649" lon="104.733464"><ele>559.0586</ele><time>2026-01-16T19:37:04.000Z</time></trkpt>
        <trkpt lat="28.721626" lon="104.733407"><ele>557.7984</ele><time>2026-01-16T19:37:09.000Z</time></trkpt>
        <trkpt lat="28.721609" lon="104.733345"><ele>557.1514</ele><time>2026-01-16T19:37:14.000Z</time></trkpt>
        <trkpt lat="28.7216" lon="104.733286"><ele>555.8146</ele><time>2026-01-16T19:37:20.000Z</time></trkpt>
        <trkpt lat="28.721623" lon="104.733237"><ele>555.0349</ele><time>2026-01-16T19:37:24.000Z</time></trkpt>
        <trkpt lat="28.721623" lon="104.733174"><ele>556.64746</ele><time>2026-01-16T19:37:30.000Z</time></trkpt>
        <trkpt lat="28.721608" lon="104.733112"><ele>557.4072</ele><time>2026-01-16T19:37:34.000Z</time></trkpt>
        <trkpt lat="28.721601" lon="104.733055"><ele>557.04474</ele><time>2026-01-16T19:37:38.000Z</time></trkpt>
        <trkpt lat="28.721623" lon="104.733"><ele>556.10583</ele><time>2026-01-16T19:37:44.000Z</time></trkpt>
        <trkpt lat="28.721639" lon="104.732951"><ele>556.2345</ele><time>2026-01-16T19:37:48.000Z</time></trkpt>
        <trkpt lat="28.721647" lon="104.732898"><ele>556.59564</ele><time>2026-01-16T19:37:52.000Z</time></trkpt>
        <trkpt lat="28.721654" lon="104.732844"><ele>557.27075</ele><time>2026-01-16T19:37:57.000Z</time></trkpt>
        <trkpt lat="28.721675" lon="104.732794"><ele>557.5171</ele><time>2026-01-16T19:38:02.000Z</time></trkpt>
        <trkpt lat="28.721671" lon="104.732738"><ele>557.63007</ele><time>2026-01-16T19:38:06.000Z</time></trkpt>
        <trkpt lat="28.721695" lon="104.732687"><ele>557.4154</ele><time>2026-01-16T19:38:11.000Z</time></trkpt>
        <trkpt lat="28.721708" lon="104.732634"><ele>557.985</ele><time>2026-01-16T19:38:16.000Z</time></trkpt>
        <trkpt lat="28.721733" lon="104.732589"><ele>558.35974</ele><time>2026-01-16T19:38:20.000Z</time></trkpt>
        <trkpt lat="28.721764" lon="104.732539"><ele>557.8293</ele><time>2026-01-16T19:38:27.000Z</time></trkpt>
        <trkpt lat="28.721764" lon="104.732487"><ele>556.7082</ele><time>2026-01-16T19:38:47.000Z</time></trkpt>
        <trkpt lat="28.72176" lon="104.732427"><ele>556.3855</ele><time>2026-01-16T19:38:53.000Z</time></trkpt>
        <trkpt lat="28.721761" lon="104.732373"><ele>556.51636</ele><time>2026-01-16T19:38:59.000Z</time></trkpt>
        <trkpt lat="28.721769" lon="104.732316"><ele>556.0852</ele><time>2026-01-16T19:39:06.000Z</time></trkpt>
        <trkpt lat="28.721761" lon="104.732258"><ele>554.9591</ele><time>2026-01-16T19:39:15.000Z</time></trkpt>
        <trkpt lat="28.721763" lon="104.732202"><ele>554.2497</ele><time>2026-01-16T19:39:24.000Z</time></trkpt>
        <trkpt lat="28.721735" lon="104.732156"><ele>555.0035</ele><time>2026-01-16T19:39:30.000Z</time></trkpt>
        <trkpt lat="28.721695" lon="104.732127"><ele>555.04285</ele><time>2026-01-16T19:39:38.000Z</time></trkpt>
        <trkpt lat="28.7217" lon="104.732071"><ele>554.2595</ele><time>2026-01-16T19:39:44.000Z</time></trkpt>
        <trkpt lat="28.721686" lon="104.732011"><ele>555.2072</ele><time>2026-01-16T19:39:53.000Z</time></trkpt>
        <trkpt lat="28.721683" lon="104.731957"><ele>555.5451</ele><time>2026-01-16T19:39:57.000Z</time></trkpt>
        <trkpt lat="28.721701" lon="104.7319"><ele>555.7315</ele><time>2026-01-16T19:40:02.000Z</time></trkpt>
        <trkpt lat="28.721703" lon="104.731843"><ele>556.0474</ele><time>2026-01-16T19:40:07.000Z</time></trkpt>
        <trkpt lat="28.721705" lon="104.731791"><ele>556.23975</ele><time>2026-01-16T19:40:11.000Z</time></trkpt>
        <trkpt lat="28.721739" lon="104.731743"><ele>554.9961</ele><time>2026-01-16T19:40:19.000Z</time></trkpt>
        <trkpt lat="28.721754" lon="104.731693"><ele>554.91266</ele><time>2026-01-16T19:40:24.000Z</time></trkpt>
        <trkpt lat="28.721776" lon="104.731647"><ele>554.2675</ele><time>2026-01-16T19:40:29.000Z</time></trkpt>
        <trkpt lat="28.721792" lon="104.731597"><ele>553.77997</ele><time>2026-01-16T19:40:35.000Z</time></trkpt>
        <trkpt lat="28.721793" lon="104.73154"><ele>554.1992</ele><time>2026-01-16T19:40:40.000Z</time></trkpt>
        <trkpt lat="28.721806" lon="104.73148"><ele>555.4252</ele><time>2026-01-16T19:40:46.000Z</time></trkpt>
        <trkpt lat="28.721798" lon="104.731415"><ele>556.35046</ele><time>2026-01-16T19:40:50.000Z</time></trkpt>
        <trkpt lat="28.721787" lon="104.731358"><ele>557.69867</ele><time>2026-01-16T19:40:54.000Z</time></trkpt>
        <trkpt lat="28.721804" lon="104.731304"><ele>558.67065</ele><time>2026-01-16T19:41:00.000Z</time></trkpt>
        <trkpt lat="28.721791" lon="104.731249"><ele>559.4467</ele><time>2026-01-16T19:41:04.000Z</time></trkpt>
        <trkpt lat="28.721795" lon="104.731177"><ele>560.3685</ele><time>2026-01-16T19:41:10.000Z</time></trkpt>
        <trkpt lat="28.721856" lon="104.731165"><ele>560.8912</ele><time>2026-01-16T19:41:13.000Z</time></trkpt>
        <trkpt lat="28.721892" lon="104.731116"><ele>559.93933</ele><time>2026-01-16T19:41:18.000Z</time></trkpt>
        <trkpt lat="28.721937" lon="104.731092"><ele>559.66064</ele><time>2026-01-16T19:41:24.000Z</time></trkpt>
        <trkpt lat="28.721973" lon="104.731049"><ele>559.7208</ele><time>2026-01-16T19:41:29.000Z</time></trkpt>
        <trkpt lat="28.72201" lon="104.73101"><ele>556.0774</ele><time>2026-01-16T19:41:33.000Z</time></trkpt>
        <trkpt lat="28.722019" lon="104.730954"><ele>553.37476</ele><time>2026-01-16T19:41:38.000Z</time></trkpt>
        <trkpt lat="28.722003" lon="104.730898"><ele>551.73975</ele><time>2026-01-16T19:41:43.000Z</time></trkpt>
        <trkpt lat="28.721967" lon="104.730857"><ele>550.67053</ele><time>2026-01-16T19:41:53.000Z</time></trkpt>
        <trkpt lat="28.721938" lon="104.730813"><ele>552.20874</ele><time>2026-01-16T19:42:01.000Z</time></trkpt>
        <trkpt lat="28.721888" lon="104.730783"><ele>552.2474</ele><time>2026-01-16T19:42:05.000Z</time></trkpt>
        <trkpt lat="28.721843" lon="104.730764"><ele>554.7803</ele><time>2026-01-16T19:42:11.000Z</time></trkpt>
        <trkpt lat="28.721826" lon="104.730709"><ele>555.8187</ele><time>2026-01-16T19:42:16.000Z</time></trkpt>
        <trkpt lat="28.721784" lon="104.730689"><ele>555.8167</ele><time>2026-01-16T19:42:21.000Z</time></trkpt>
        <trkpt lat="28.721764" lon="104.730626"><ele>556.93225</ele><time>2026-01-16T19:42:25.000Z</time></trkpt>
        <trkpt lat="28.721745" lon="104.730569"><ele>556.74097</ele><time>2026-01-16T19:42:30.000Z</time></trkpt>
        <trkpt lat="28.721745" lon="104.730514"><ele>557.5932</ele><time>2026-01-16T19:42:33.000Z</time></trkpt>
        <trkpt lat="28.721713" lon="104.73047"><ele>557.4793</ele><time>2026-01-16T19:42:38.000Z</time></trkpt>
        <trkpt lat="28.721673" lon="104.730428"><ele>558.1753</ele><time>2026-01-16T19:42:45.000Z</time></trkpt>
        <trkpt lat="28.721681" lon="104.730368"><ele>557.2867</ele><time>2026-01-16T19:42:49.000Z</time></trkpt>
        <trkpt lat="28.721716" lon="104.730325"><ele>556.1978</ele><time>2026-01-16T19:42:54.000Z</time></trkpt>
        <trkpt lat="28.721727" lon="104.730266"><ele>554.48267</ele><time>2026-01-16T19:43:00.000Z</time></trkpt>
        <trkpt lat="28.721773" lon="104.730241"><ele>553.09955</ele><time>2026-01-16T19:43:04.000Z</time></trkpt>
        <trkpt lat="28.721767" lon="104.730183"><ele>551.5057</ele><time>2026-01-16T19:43:09.000Z</time></trkpt>
        <trkpt lat="28.721812" lon="104.730153"><ele>549.4077</ele><time>2026-01-16T19:43:23.000Z</time></trkpt>
        <trkpt lat="28.721856" lon="104.730137"><ele>547.40967</ele><time>2026-01-16T19:43:28.000Z</time></trkpt>
        <trkpt lat="28.721903" lon="104.730115"><ele>545.9035</ele><time>2026-01-16T19:43:32.000Z</time></trkpt>
        <trkpt lat="28.721931" lon="104.730059"><ele>545.3738</ele><time>2026-01-16T19:43:37.000Z</time></trkpt>
        <trkpt lat="28.721968" lon="104.730018"><ele>545.2952</ele><time>2026-01-16T19:43:42.000Z</time></trkpt>
        <trkpt lat="28.721997" lon="104.729976"><ele>544.2172</ele><time>2026-01-16T19:43:47.000Z</time></trkpt>
        <trkpt lat="28.722033" lon="104.729934"><ele>542.50946</ele><time>2026-01-16T19:43:52.000Z</time></trkpt>
        <trkpt lat="28.721989" lon="104.729947"><ele>542.3644</ele><time>2026-01-16T19:44:10.000Z</time></trkpt>
        <trkpt lat="28.721936" lon="104.729941"><ele>543.00116</ele><time>2026-01-16T19:44:34.000Z</time></trkpt>
        <trkpt lat="28.721885" lon="104.729951"><ele>544.35034</ele><time>2026-01-16T19:44:41.000Z</time></trkpt>
        <trkpt lat="28.721837" lon="104.729947"><ele>542.50494</ele><time>2026-01-16T19:52:33.000Z</time></trkpt>
        <trkpt lat="28.721882" lon="104.729956"><ele>543.70245</ele><time>2026-01-16T19:56:12.000Z</time></trkpt>
        <trkpt lat="28.721842" lon="104.729931"><ele>542.9197</ele><time>2026-01-16T19:58:17.000Z</time></trkpt>
        <trkpt lat="28.721794" lon="104.729946"><ele>542.48956</ele><time>2026-01-16T19:59:48.000Z</time></trkpt>
        <trkpt lat="28.721783" lon="104.729893"><ele>540.1944</ele><time>2026-01-16T20:00:35.000Z</time></trkpt>
        <trkpt lat="28.721733" lon="104.729905"><ele>540.04614</ele><time>2026-01-16T20:00:43.000Z</time></trkpt>
        <trkpt lat="28.721685" lon="104.729922"><ele>541.3487</ele><time>2026-01-16T20:00:53.000Z</time></trkpt>
        <trkpt lat="28.721642" lon="104.729906"><ele>540.6299</ele><time>2026-01-16T20:00:58.000Z</time></trkpt>
        <trkpt lat="28.721584" lon="104.729892"><ele>540.0699</ele><time>2026-01-16T20:01:04.000Z</time></trkpt>
        <trkpt lat="28.721536" lon="104.729893"><ele>541.6014</ele><time>2026-01-16T20:01:12.000Z</time></trkpt>
        <trkpt lat="28.721514" lon="104.729942"><ele>544.0227</ele><time>2026-01-16T20:01:54.000Z</time></trkpt>
        <trkpt lat="28.721473" lon="104.729964"><ele>545.5296</ele><time>2026-01-16T20:02:03.000Z</time></trkpt>
        <trkpt lat="28.721426" lon="104.729965"><ele>547.0887</ele><time>2026-01-16T20:02:22.000Z</time></trkpt>
        <trkpt lat="28.721372" lon="104.729949"><ele>548.0695</ele><time>2026-01-16T20:03:03.000Z</time></trkpt>
        <trkpt lat="28.721327" lon="104.729953"><ele>548.8033</ele><time>2026-01-16T20:03:13.000Z</time></trkpt>
        <trkpt lat="28.72129" lon="104.729988"><ele>550.11707</ele><time>2026-01-16T20:03:19.000Z</time></trkpt>
        <trkpt lat="28.721245" lon="104.730024"><ele>550.67566</ele><time>2026-01-16T20:03:26.000Z</time></trkpt>
        <trkpt lat="28.721189" lon="104.730007"><ele>551.329</ele><time>2026-01-16T20:03:31.000Z</time></trkpt>
        <trkpt lat="28.721147" lon="104.729977"><ele>551.9373</ele><time>2026-01-16T20:03:35.000Z</time></trkpt>
        <trkpt lat="28.721099" lon="104.729956"><ele>551.8765</ele><time>2026-01-16T20:03:40.000Z</time></trkpt>
        <trkpt lat="28.721044" lon="104.729942"><ele>552.054</ele><time>2026-01-16T20:03:45.000Z</time></trkpt>
        <trkpt lat="28.720996" lon="104.729933"><ele>551.8324</ele><time>2026-01-16T20:03:49.000Z</time></trkpt>
        <trkpt lat="28.720959" lon="104.729896"><ele>551.6519</ele><time>2026-01-16T20:03:56.000Z</time></trkpt>
        <trkpt lat="28.720914" lon="104.729882"><ele>550.80676</ele><time>2026-01-16T20:04:00.000Z</time></trkpt>
        <trkpt lat="28.720866" lon="104.729869"><ele>550.279</ele><time>2026-01-16T20:04:04.000Z</time></trkpt>
        <trkpt lat="28.720813" lon="104.729876"><ele>550.5287</ele><time>2026-01-16T20:04:09.000Z</time></trkpt>
        <trkpt lat="28.720765" lon="104.729879"><ele>551.6063</ele><time>2026-01-16T20:04:12.000Z</time></trkpt>
        <trkpt lat="28.720711" lon="104.729876"><ele>552.0428</ele><time>2026-01-16T20:04:16.000Z</time></trkpt>
        <trkpt lat="28.720664" lon="104.729879"><ele>551.8663</ele><time>2026-01-16T20:04:20.000Z</time></trkpt>
        <trkpt lat="28.720617" lon="104.729874"><ele>558.3625</ele><time>2026-01-16T20:04:25.000Z</time></trkpt>
        <trkpt lat="28.720571" lon="104.729871"><ele>558.0281</ele><time>2026-01-16T20:04:29.000Z</time></trkpt>
        <trkpt lat="28.720516" lon="104.729867"><ele>557.9258</ele><time>2026-01-16T20:04:33.000Z</time></trkpt>
        <trkpt lat="28.720462" lon="104.729869"><ele>558.3754</ele><time>2026-01-16T20:04:37.000Z</time></trkpt>
        <trkpt lat="28.720413" lon="104.729855"><ele>558.32745</ele><time>2026-01-16T20:04:41.000Z</time></trkpt>
        <trkpt lat="28.72036" lon="104.729852"><ele>558.4555</ele><time>2026-01-16T20:04:46.000Z</time></trkpt>
        <trkpt lat="28.720315" lon="104.729856"><ele>557.969</ele><time>2026-01-16T20:04:52.000Z</time></trkpt>
        <trkpt lat="28.720261" lon="104.729859"><ele>558.3084</ele><time>2026-01-16T20:04:56.000Z</time></trkpt>
        <trkpt lat="28.720214" lon="104.729843"><ele>558.05444</ele><time>2026-01-16T20:05:01.000Z</time></trkpt>
        <trkpt lat="28.720154" lon="104.729832"><ele>557.328</ele><time>2026-01-16T20:05:07.000Z</time></trkpt>
        <trkpt lat="28.720107" lon="104.729836"><ele>557.237</ele><time>2026-01-16T20:05:15.000Z</time></trkpt>
        <trkpt lat="28.720055" lon="104.729828"><ele>557.44495</ele><time>2026-01-16T20:05:21.000Z</time></trkpt>
        <trkpt lat="28.720005" lon="104.729837"><ele>558.5054</ele><time>2026-01-16T20:05:24.000Z</time></trkpt>
        <trkpt lat="28.719957" lon="104.729842"><ele>559.1808</ele><time>2026-01-16T20:05:28.000Z</time></trkpt>
        <trkpt lat="28.719911" lon="104.729849"><ele>562.1242</ele><time>2026-01-16T20:05:35.000Z</time></trkpt>
        <trkpt lat="28.719862" lon="104.72977"><ele>563.0581</ele><time>2026-01-16T20:05:47.000Z</time></trkpt>
        <trkpt lat="28.719835" lon="104.729716"><ele>564.9594</ele><time>2026-01-16T20:06:00.000Z</time></trkpt>
        <trkpt lat="28.719842" lon="104.729652"><ele>566.39404</ele><time>2026-01-16T20:06:03.000Z</time></trkpt>
        <trkpt lat="28.719837" lon="104.729584"><ele>565.9728</ele><time>2026-01-16T20:06:08.000Z</time></trkpt>
        <trkpt lat="28.71987" lon="104.729545"><ele>564.5557</ele><time>2026-01-16T20:06:14.000Z</time></trkpt>
        <trkpt lat="28.719893" lon="104.729495"><ele>564.77637</ele><time>2026-01-16T20:06:18.000Z</time></trkpt>
        <trkpt lat="28.719919" lon="104.729433"><ele>565.7399</ele><time>2026-01-16T20:06:23.000Z</time></trkpt>
        <trkpt lat="28.719942" lon="104.729389"><ele>567.683</ele><time>2026-01-16T20:06:29.000Z</time></trkpt>
        <trkpt lat="28.719958" lon="104.729332"><ele>566.7073</ele><time>2026-01-16T20:06:37.000Z</time></trkpt>
        <trkpt lat="28.719977" lon="104.729271"><ele>566.3626</ele><time>2026-01-16T20:06:43.000Z</time></trkpt>
        <trkpt lat="28.720003" lon="104.729225"><ele>565.6194</ele><time>2026-01-16T20:06:48.000Z</time></trkpt>
        <trkpt lat="28.720016" lon="104.729176"><ele>565.14545</ele><time>2026-01-16T20:06:52.000Z</time></trkpt>
        <trkpt lat="28.720039" lon="104.729127"><ele>566.10724</ele><time>2026-01-16T20:06:56.000Z</time></trkpt>
        <trkpt lat="28.720067" lon="104.729086"><ele>565.76416</ele><time>2026-01-16T20:07:00.000Z</time></trkpt>
        <trkpt lat="28.720069" lon="104.72903"><ele>565.50745</ele><time>2026-01-16T20:07:05.000Z</time></trkpt>
        <trkpt lat="28.720087" lon="104.728978"><ele>565.2958</ele><time>2026-01-16T20:07:10.000Z</time></trkpt>
        <trkpt lat="28.720101" lon="104.728928"><ele>564.77814</ele><time>2026-01-16T20:07:14.000Z</time></trkpt>
        <trkpt lat="28.720122" lon="104.72887"><ele>565.2834</ele><time>2026-01-16T20:07:18.000Z</time></trkpt>
        <trkpt lat="28.720142" lon="104.728823"><ele>566.13495</ele><time>2026-01-16T20:07:23.000Z</time></trkpt>
        <trkpt lat="28.720177" lon="104.728784"><ele>572.9413</ele><time>2026-01-16T20:07:26.000Z</time></trkpt>
        <trkpt lat="28.720215" lon="104.728735"><ele>574.7201</ele><time>2026-01-16T20:07:30.000Z</time></trkpt>
        <trkpt lat="28.720231" lon="104.728686"><ele>574.04803</ele><time>2026-01-16T20:07:36.000Z</time></trkpt>
        <trkpt lat="28.72027" lon="104.728646"><ele>573.74335</ele><time>2026-01-16T20:07:41.000Z</time></trkpt>
        <trkpt lat="28.720293" lon="104.728601"><ele>572.40546</ele><time>2026-01-16T20:07:46.000Z</time></trkpt>
        <trkpt lat="28.720314" lon="104.72855"><ele>571.84894</ele><time>2026-01-16T20:07:54.000Z</time></trkpt>
        <trkpt lat="28.720352" lon="104.728506"><ele>571.1868</ele><time>2026-01-16T20:07:59.000Z</time></trkpt>
        <trkpt lat="28.720389" lon="104.728465"><ele>570.2389</ele><time>2026-01-16T20:08:04.000Z</time></trkpt>
        <trkpt lat="28.720423" lon="104.728418"><ele>569.64294</ele><time>2026-01-16T20:08:10.000Z</time></trkpt>
        <trkpt lat="28.72047" lon="104.728393"><ele>568.078</ele><time>2026-01-16T20:08:15.000Z</time></trkpt>
        <trkpt lat="28.720485" lon="104.728334"><ele>567.8571</ele><time>2026-01-16T20:08:19.000Z</time></trkpt>
        <trkpt lat="28.720522" lon="104.728301"><ele>566.6042</ele><time>2026-01-16T20:08:24.000Z</time></trkpt>
        <trkpt lat="28.720538" lon="104.728252"><ele>565.42706</ele><time>2026-01-16T20:08:29.000Z</time></trkpt>
        <trkpt lat="28.720567" lon="104.728206"><ele>566.49646</ele><time>2026-01-16T20:08:34.000Z</time></trkpt>
        <trkpt lat="28.720577" lon="104.728147"><ele>566.34656</ele><time>2026-01-16T20:08:38.000Z</time></trkpt>
        <trkpt lat="28.720615" lon="104.728118"><ele>566.0887</ele><time>2026-01-16T20:08:45.000Z</time></trkpt>
        <trkpt lat="28.720625" lon="104.728054"><ele>565.6678</ele><time>2026-01-16T20:08:52.000Z</time></trkpt>
        <trkpt lat="28.720607" lon="104.727994"><ele>566.9718</ele><time>2026-01-16T20:08:55.000Z</time></trkpt>
        <trkpt lat="28.720623" lon="104.72794"><ele>565.9405</ele><time>2026-01-16T20:09:00.000Z</time></trkpt>
        <trkpt lat="28.720643" lon="104.727894"><ele>565.9626</ele><time>2026-01-16T20:09:04.000Z</time></trkpt>
        <trkpt lat="28.720661" lon="104.72782"><ele>565.84973</ele><time>2026-01-16T20:09:08.000Z</time></trkpt>
        <trkpt lat="28.72063" lon="104.727773"><ele>564.95703</ele><time>2026-01-16T20:09:13.000Z</time></trkpt>
        <trkpt lat="28.720576" lon="104.727737"><ele>566.1588</ele><time>2026-01-16T20:09:17.000Z</time></trkpt>
        <trkpt lat="28.720532" lon="104.727709"><ele>566.3558</ele><time>2026-01-16T20:09:22.000Z</time></trkpt>
        <trkpt lat="28.72049" lon="104.727686"><ele>566.17365</ele><time>2026-01-16T20:09:26.000Z</time></trkpt>
        <trkpt lat="28.720457" lon="104.727723"><ele>564.5508</ele><time>2026-01-16T20:09:31.000Z</time></trkpt>
        <trkpt lat="28.720414" lon="104.727741"><ele>565.3819</ele><time>2026-01-16T20:09:35.000Z</time></trkpt>
        <trkpt lat="28.720373" lon="104.727765"><ele>565.6739</ele><time>2026-01-16T20:09:40.000Z</time></trkpt>
        <trkpt lat="28.720327" lon="104.727796"><ele>566.0118</ele><time>2026-01-16T20:09:44.000Z</time></trkpt>
        <trkpt lat="28.720291" lon="104.727839"><ele>566.03394</ele><time>2026-01-16T20:09:50.000Z</time></trkpt>
        <trkpt lat="28.720262" lon="104.727881"><ele>566.42786</ele><time>2026-01-16T20:09:54.000Z</time></trkpt>
        <trkpt lat="28.720228" lon="104.72792"><ele>567.3851</ele><time>2026-01-16T20:09:57.000Z</time></trkpt>
        <trkpt lat="28.720227" lon="104.727972"><ele>567.623</ele><time>2026-01-16T20:10:03.000Z</time></trkpt>
        <trkpt lat="28.72018" lon="104.728004"><ele>568.13873</ele><time>2026-01-16T20:10:07.000Z</time></trkpt>
        <trkpt lat="28.720146" lon="104.728044"><ele>569.0395</ele><time>2026-01-16T20:10:12.000Z</time></trkpt>
        <trkpt lat="28.720126" lon="104.728099"><ele>568.64026</ele><time>2026-01-16T20:10:17.000Z</time></trkpt>
        <trkpt lat="28.720086" lon="104.728142"><ele>568.7473</ele><time>2026-01-16T20:10:22.000Z</time></trkpt>
        <trkpt lat="28.72005" lon="104.728183"><ele>569.5844</ele><time>2026-01-16T20:10:26.000Z</time></trkpt>
        <trkpt lat="28.720004" lon="104.728205"><ele>570.05835</ele><time>2026-01-16T20:10:30.000Z</time></trkpt>
        <trkpt lat="28.719953" lon="104.728221"><ele>570.5112</ele><time>2026-01-16T20:10:34.000Z</time></trkpt>
        <trkpt lat="28.719909" lon="104.72823"><ele>571.2916</ele><time>2026-01-16T20:10:37.000Z</time></trkpt>
        <trkpt lat="28.719868" lon="104.728196"><ele>571.4691</ele><time>2026-01-16T20:10:41.000Z</time></trkpt>
        <trkpt lat="28.719854" lon="104.728142"><ele>571.4911</ele><time>2026-01-16T20:10:45.000Z</time></trkpt>
        <trkpt lat="28.719822" lon="104.728097"><ele>570.5465</ele><time>2026-01-16T20:10:49.000Z</time></trkpt>
        <trkpt lat="28.719794" lon="104.728055"><ele>570.1934</ele><time>2026-01-16T20:10:51.000Z</time></trkpt>
        <trkpt lat="28.719778" lon="104.72799"><ele>571.4198</ele><time>2026-01-16T20:10:55.000Z</time></trkpt>
        <trkpt lat="28.71981" lon="104.72795"><ele>569.88934</ele><time>2026-01-16T20:10:58.000Z</time></trkpt>
        <trkpt lat="28.719827" lon="104.727892"><ele>570.3556</ele><time>2026-01-16T20:11:01.000Z</time></trkpt>
        <trkpt lat="28.719859" lon="104.727843"><ele>569.0929</ele><time>2026-01-16T20:11:07.000Z</time></trkpt>
        <trkpt lat="28.719895" lon="104.727796"><ele>568.4839</ele><time>2026-01-16T20:11:13.000Z</time></trkpt>
        <trkpt lat="28.719893" lon="104.727742"><ele>567.6489</ele><time>2026-01-16T20:11:17.000Z</time></trkpt>
        <trkpt lat="28.719871" lon="104.727689"><ele>567.3454</ele><time>2026-01-16T20:11:21.000Z</time></trkpt>
        <trkpt lat="28.719833" lon="104.727639"><ele>568.396</ele><time>2026-01-16T20:11:26.000Z</time></trkpt>
        <trkpt lat="28.719815" lon="104.727581"><ele>568.65204</ele><time>2026-01-16T20:11:31.000Z</time></trkpt>
        <trkpt lat="28.71981" lon="104.727527"><ele>569.62195</ele><time>2026-01-16T20:11:35.000Z</time></trkpt>
        <trkpt lat="28.719801" lon="104.727467"><ele>569.8626</ele><time>2026-01-16T20:11:39.000Z</time></trkpt>
        <trkpt lat="28.719786" lon="104.727411"><ele>570.1345</ele><time>2026-01-16T20:11:43.000Z</time></trkpt>
        <trkpt lat="28.719774" lon="104.727351"><ele>570.3802</ele><time>2026-01-16T20:11:48.000Z</time></trkpt>
        <trkpt lat="28.719761" lon="104.72729"><ele>570.40247</ele><time>2026-01-16T20:11:53.000Z</time></trkpt>
        <trkpt lat="28.71976" lon="104.727239"><ele>570.0323</ele><time>2026-01-16T20:11:57.000Z</time></trkpt>
        <trkpt lat="28.719734" lon="104.727187"><ele>570.1002</ele><time>2026-01-16T20:12:00.000Z</time></trkpt>
        <trkpt lat="28.719701" lon="104.727152"><ele>569.6726</ele><time>2026-01-16T20:12:05.000Z</time></trkpt>
        <trkpt lat="28.71965" lon="104.727141"><ele>568.05054</ele><time>2026-01-16T20:12:11.000Z</time></trkpt>
        <trkpt lat="28.719606" lon="104.727116"><ele>569.04333</ele><time>2026-01-16T20:12:15.000Z</time></trkpt>
        <trkpt lat="28.719555" lon="104.727126"><ele>569.57025</ele><time>2026-01-16T20:12:19.000Z</time></trkpt>
        <trkpt lat="28.7195" lon="104.727129"><ele>571.19635</ele><time>2026-01-16T20:12:23.000Z</time></trkpt>
        <trkpt lat="28.719454" lon="104.727114"><ele>572.7927</ele><time>2026-01-16T20:12:27.000Z</time></trkpt>
        <trkpt lat="28.719396" lon="104.727112"><ele>573.3986</ele><time>2026-01-16T20:12:32.000Z</time></trkpt>
        <trkpt lat="28.719345" lon="104.727102"><ele>575.2878</ele><time>2026-01-16T20:12:37.000Z</time></trkpt>
        <trkpt lat="28.719303" lon="104.727063"><ele>575.4917</ele><time>2026-01-16T20:12:43.000Z</time></trkpt>
        <trkpt lat="28.719253" lon="104.727045"><ele>575.12854</ele><time>2026-01-16T20:12:47.000Z</time></trkpt>
        <trkpt lat="28.719202" lon="104.727032"><ele>574.7976</ele><time>2026-01-16T20:12:52.000Z</time></trkpt>
        <trkpt lat="28.719158" lon="104.727018"><ele>574.771</ele><time>2026-01-16T20:12:55.000Z</time></trkpt>
        <trkpt lat="28.719101" lon="104.727017"><ele>574.774</ele><time>2026-01-16T20:12:58.000Z</time></trkpt>
        <trkpt lat="28.719072" lon="104.726969"><ele>575.16895</ele><time>2026-01-16T20:13:02.000Z</time></trkpt>
        <trkpt lat="28.719027" lon="104.726939"><ele>573.99445</ele><time>2026-01-16T20:13:06.000Z</time></trkpt>
        <trkpt lat="28.719014" lon="104.726879"><ele>574.28876</ele><time>2026-01-16T20:13:09.000Z</time></trkpt>
        <trkpt lat="28.71903" lon="104.726818"><ele>574.07227</ele><time>2026-01-16T20:13:13.000Z</time></trkpt>
        <trkpt lat="28.719044" lon="104.726768"><ele>573.5081</ele><time>2026-01-16T20:13:16.000Z</time></trkpt>
        <trkpt lat="28.719064" lon="104.726708"><ele>572.3944</ele><time>2026-01-16T20:13:20.000Z</time></trkpt>
        <trkpt lat="28.719057" lon="104.726649"><ele>571.89624</ele><time>2026-01-16T20:13:24.000Z</time></trkpt>
        <trkpt lat="28.719055" lon="104.726594"><ele>573.0021</ele><time>2026-01-16T20:13:28.000Z</time></trkpt>
        <trkpt lat="28.719067" lon="104.726542"><ele>572.2881</ele><time>2026-01-16T20:13:32.000Z</time></trkpt>
        <trkpt lat="28.719078" lon="104.726477"><ele>572.34155</ele><time>2026-01-16T20:13:38.000Z</time></trkpt>
        <trkpt lat="28.719078" lon="104.726422"><ele>573.4078</ele><time>2026-01-16T20:13:42.000Z</time></trkpt>
        <trkpt lat="28.719085" lon="104.726366"><ele>574.20294</ele><time>2026-01-16T20:13:46.000Z</time></trkpt>
        <trkpt lat="28.719087" lon="104.726315"><ele>574.6701</ele><time>2026-01-16T20:13:49.000Z</time></trkpt>
        <trkpt lat="28.71912" lon="104.726276"><ele>575.4812</ele><time>2026-01-16T20:13:54.000Z</time></trkpt>
        <trkpt lat="28.719144" lon="104.726215"><ele>574.4661</ele><time>2026-01-16T20:13:58.000Z</time></trkpt>
        <trkpt lat="28.719172" lon="104.726172"><ele>574.32684</ele><time>2026-01-16T20:14:02.000Z</time></trkpt>
        <trkpt lat="28.719183" lon="104.726095"><ele>573.7537</ele><time>2026-01-16T20:14:06.000Z</time></trkpt>
        <trkpt lat="28.719207" lon="104.726046"><ele>574.7575</ele><time>2026-01-16T20:14:12.000Z</time></trkpt>
        <trkpt lat="28.719221" lon="104.725988"><ele>574.8026</ele><time>2026-01-16T20:14:16.000Z</time></trkpt>
        <trkpt lat="28.719248" lon="104.725935"><ele>574.8234</ele><time>2026-01-16T20:14:21.000Z</time></trkpt>
        <trkpt lat="28.71928" lon="104.725887"><ele>574.85535</ele><time>2026-01-16T20:14:25.000Z</time></trkpt>
        <trkpt lat="28.719325" lon="104.725867"><ele>573.8104</ele><time>2026-01-16T20:14:54.000Z</time></trkpt>
        <trkpt lat="28.719359" lon="104.725826"><ele>573.5336</ele><time>2026-01-16T20:14:57.000Z</time></trkpt>
        <trkpt lat="28.719411" lon="104.725799"><ele>573.09</ele><time>2026-01-16T20:15:03.000Z</time></trkpt>
        <trkpt lat="28.719443" lon="104.725753"><ele>571.9524</ele><time>2026-01-16T20:15:07.000Z</time></trkpt>
        <trkpt lat="28.719411" lon="104.725707"><ele>571.1926</ele><time>2026-01-16T20:17:34.000Z</time></trkpt>
        <trkpt lat="28.719377" lon="104.725668"><ele>571.1796</ele><time>2026-01-16T20:17:38.000Z</time></trkpt>
        <trkpt lat="28.719338" lon="104.725631"><ele>571.61505</ele><time>2026-01-16T20:17:42.000Z</time></trkpt>
        <trkpt lat="28.719295" lon="104.72565"><ele>573.7111</ele><time>2026-01-16T20:17:46.000Z</time></trkpt>
        <trkpt lat="28.719243" lon="104.725654"><ele>573.7507</ele><time>2026-01-16T20:17:52.000Z</time></trkpt>
        <trkpt lat="28.719189" lon="104.725663"><ele>574.38904</ele><time>2026-01-16T20:17:56.000Z</time></trkpt>
        <trkpt lat="28.719146" lon="104.725686"><ele>575.7181</ele><time>2026-01-16T20:18:01.000Z</time></trkpt>
        <trkpt lat="28.719101" lon="104.725705"><ele>577.6445</ele><time>2026-01-16T20:18:07.000Z</time></trkpt>
        <trkpt lat="28.719053" lon="104.725727"><ele>577.93933</ele><time>2026-01-16T20:18:14.000Z</time></trkpt>
        <trkpt lat="28.71901" lon="104.725749"><ele>578.5009</ele><time>2026-01-16T20:18:21.000Z</time></trkpt>
        <trkpt lat="28.718964" lon="104.725788"><ele>580.3341</ele><time>2026-01-16T20:18:26.000Z</time></trkpt>
        <trkpt lat="28.718922" lon="104.725808"><ele>582.08264</ele><time>2026-01-16T20:18:32.000Z</time></trkpt>
        <trkpt lat="28.718872" lon="104.725845"><ele>583.74225</ele><time>2026-01-16T20:18:38.000Z</time></trkpt>
        <trkpt lat="28.718827" lon="104.725875"><ele>585.0033</ele><time>2026-01-16T20:18:47.000Z</time></trkpt>
        <trkpt lat="28.71879" lon="104.725911"><ele>586.12775</ele><time>2026-01-16T20:18:53.000Z</time></trkpt>
        <trkpt lat="28.71876" lon="104.725954"><ele>587.92883</ele><time>2026-01-16T20:19:00.000Z</time></trkpt>
        <trkpt lat="28.718732" lon="104.725997"><ele>589.9253</ele><time>2026-01-16T20:19:10.000Z</time></trkpt>
        <trkpt lat="28.718692" lon="104.726032"><ele>591.673</ele><time>2026-01-16T20:19:18.000Z</time></trkpt>
        <trkpt lat="28.718664" lon="104.726077"><ele>593.48376</ele><time>2026-01-16T20:19:26.000Z</time></trkpt>
        <trkpt lat="28.718627" lon="104.726107"><ele>595.6893</ele><time>2026-01-16T20:19:32.000Z</time></trkpt>
        <trkpt lat="28.718599" lon="104.726161"><ele>597.1048</ele><time>2026-01-16T20:19:37.000Z</time></trkpt>
        <trkpt lat="28.718561" lon="104.726195"><ele>599.6186</ele><time>2026-01-16T20:19:44.000Z</time></trkpt>
        <trkpt lat="28.718509" lon="104.726202"><ele>601.852</ele><time>2026-01-16T20:19:50.000Z</time></trkpt>
        <trkpt lat="28.718447" lon="104.726203"><ele>603.6442</ele><time>2026-01-16T20:19:56.000Z</time></trkpt>
        <trkpt lat="28.718399" lon="104.726233"><ele>603.9548</ele><time>2026-01-16T20:20:02.000Z</time></trkpt>
        <trkpt lat="28.718342" lon="104.726237"><ele>604.0963</ele><time>2026-01-16T20:20:09.000Z</time></trkpt>
        <trkpt lat="28.718297" lon="104.726223"><ele>604.44574</ele><time>2026-01-16T20:20:12.000Z</time></trkpt>
        <trkpt lat="28.718239" lon="104.726202"><ele>604.0691</ele><time>2026-01-16T20:20:17.000Z</time></trkpt>
        <trkpt lat="28.718191" lon="104.726175"><ele>604.112</ele><time>2026-01-16T20:20:22.000Z</time></trkpt>
        <trkpt lat="28.718147" lon="104.726146"><ele>601.96185</ele><time>2026-01-16T20:20:26.000Z</time></trkpt>
        <trkpt lat="28.718112" lon="104.72611"><ele>601.4826</ele><time>2026-01-16T20:20:30.000Z</time></trkpt>
        <trkpt lat="28.718069" lon="104.726077"><ele>599.04236</ele><time>2026-01-16T20:20:36.000Z</time></trkpt>
        <trkpt lat="28.718035" lon="104.726043"><ele>596.8023</ele><time>2026-01-16T20:20:40.000Z</time></trkpt>
        <trkpt lat="28.718004" lon="104.726003"><ele>595.59937</ele><time>2026-01-16T20:20:45.000Z</time></trkpt>
        <trkpt lat="28.717957" lon="104.725979"><ele>593.93854</ele><time>2026-01-16T20:20:50.000Z</time></trkpt>
        <trkpt lat="28.717904" lon="104.725982"><ele>593.82874</ele><time>2026-01-16T20:20:55.000Z</time></trkpt>
        <trkpt lat="28.717846" lon="104.725994"><ele>592.98364</ele><time>2026-01-16T20:21:00.000Z</time></trkpt>
        <trkpt lat="28.717798" lon="104.726027"><ele>593.77026</ele><time>2026-01-16T20:21:04.000Z</time></trkpt>
        <trkpt lat="28.717765" lon="104.726069"><ele>593.87573</ele><time>2026-01-16T20:21:08.000Z</time></trkpt>
        <trkpt lat="28.717711" lon="104.726075"><ele>594.4823</ele><time>2026-01-16T20:21:14.000Z</time></trkpt>
        <trkpt lat="28.717664" lon="104.726086"><ele>595.93896</ele><time>2026-01-16T20:21:17.000Z</time></trkpt>
        <trkpt lat="28.717618" lon="104.726079"><ele>595.8876</ele><time>2026-01-16T20:21:20.000Z</time></trkpt>
        <trkpt lat="28.717573" lon="104.726082"><ele>596.5156</ele><time>2026-01-16T20:21:24.000Z</time></trkpt>
        <trkpt lat="28.717525" lon="104.726104"><ele>597.861</ele><time>2026-01-16T20:21:29.000Z</time></trkpt>
        <trkpt lat="28.717468" lon="104.726131"><ele>598.8373</ele><time>2026-01-16T20:21:34.000Z</time></trkpt>
        <trkpt lat="28.717422" lon="104.726121"><ele>598.6244</ele><time>2026-01-16T20:21:38.000Z</time></trkpt>
        <trkpt lat="28.717377" lon="104.726099"><ele>598.9028</ele><time>2026-01-16T20:21:42.000Z</time></trkpt>
        <trkpt lat="28.717332" lon="104.726083"><ele>598.2903</ele><time>2026-01-16T20:21:46.000Z</time></trkpt>
        <trkpt lat="28.717257" lon="104.726077"><ele>598.09576</ele><time>2026-01-16T20:21:52.000Z</time></trkpt>
        <trkpt lat="28.717207" lon="104.726066"><ele>596.9219</ele><time>2026-01-16T20:21:59.000Z</time></trkpt>
        <trkpt lat="28.717157" lon="104.726036"><ele>596.5369</ele><time>2026-01-16T20:22:30.000Z</time></trkpt>
        <trkpt lat="28.717124" lon="104.725998"><ele>596.7294</ele><time>2026-01-16T20:22:33.000Z</time></trkpt>
        <trkpt lat="28.717076" lon="104.72598"><ele>595.7299</ele><time>2026-01-16T20:22:38.000Z</time></trkpt>
        <trkpt lat="28.717032" lon="104.725962"><ele>595.77637</ele><time>2026-01-16T20:22:42.000Z</time></trkpt>
        <trkpt lat="28.716995" lon="104.725931"><ele>594.32825</ele><time>2026-01-16T20:22:50.000Z</time></trkpt>
        <trkpt lat="28.716957" lon="104.725902"><ele>594.33777</ele><time>2026-01-16T20:22:56.000Z</time></trkpt>
        <trkpt lat="28.716909" lon="104.725868"><ele>594.04474</ele><time>2026-01-16T20:23:02.000Z</time></trkpt>
        <trkpt lat="28.716868" lon="104.725824"><ele>594.9769</ele><time>2026-01-16T20:23:09.000Z</time></trkpt>
        <trkpt lat="28.716832" lon="104.725791"><ele>595.2643</ele><time>2026-01-16T20:23:14.000Z</time></trkpt>
        <trkpt lat="28.716793" lon="104.725743"><ele>596.26984</ele><time>2026-01-16T20:23:19.000Z</time></trkpt>
        <trkpt lat="28.716749" lon="104.725697"><ele>596.4241</ele><time>2026-01-16T20:23:23.000Z</time></trkpt>
        <trkpt lat="28.716702" lon="104.725672"><ele>597.28955</ele><time>2026-01-16T20:23:29.000Z</time></trkpt>
        <trkpt lat="28.716654" lon="104.725657"><ele>597.6266</ele><time>2026-01-16T20:23:33.000Z</time></trkpt>
        <trkpt lat="28.716599" lon="104.725673"><ele>598.8047</ele><time>2026-01-16T20:23:37.000Z</time></trkpt>
        <trkpt lat="28.716552" lon="104.725674"><ele>598.3323</ele><time>2026-01-16T20:23:41.000Z</time></trkpt>
        <trkpt lat="28.716507" lon="104.725663"><ele>596.47894</ele><time>2026-01-16T20:23:46.000Z</time></trkpt>
        <trkpt lat="28.716451" lon="104.725664"><ele>594.2013</ele><time>2026-01-16T20:23:51.000Z</time></trkpt>
        <trkpt lat="28.716397" lon="104.725642"><ele>593.4766</ele><time>2026-01-16T20:23:55.000Z</time></trkpt>
        <trkpt lat="28.716345" lon="104.725639"><ele>591.4488</ele><time>2026-01-16T20:23:59.000Z</time></trkpt>
        <trkpt lat="28.71629" lon="104.725605"><ele>590.83704</ele><time>2026-01-16T20:24:04.000Z</time></trkpt>
        <trkpt lat="28.716245" lon="104.725592"><ele>590.4455</ele><time>2026-01-16T20:24:08.000Z</time></trkpt>
        <trkpt lat="28.716201" lon="104.725603"><ele>589.02936</ele><time>2026-01-16T20:24:12.000Z</time></trkpt>
        <trkpt lat="28.71616" lon="104.725567"><ele>588.9973</ele><time>2026-01-16T20:24:16.000Z</time></trkpt>
        <trkpt lat="28.716112" lon="104.725538"><ele>588.34717</ele><time>2026-01-16T20:24:21.000Z</time></trkpt>
        <trkpt lat="28.716079" lon="104.725503"><ele>588.1552</ele><time>2026-01-16T20:24:24.000Z</time></trkpt>
        <trkpt lat="28.716084" lon="104.725558"><ele>586.6078</ele><time>2026-01-16T20:24:38.000Z</time></trkpt>
        <trkpt lat="28.71611" lon="104.725607"><ele>586.7465</ele><time>2026-01-16T20:24:42.000Z</time></trkpt>
        <trkpt lat="28.716136" lon="104.725657"><ele>587.67487</ele><time>2026-01-16T20:24:46.000Z</time></trkpt>
        <trkpt lat="28.716171" lon="104.725708"><ele>588.2906</ele><time>2026-01-16T20:24:49.000Z</time></trkpt>
        <trkpt lat="28.716197" lon="104.72577"><ele>589.5941</ele><time>2026-01-16T20:24:54.000Z</time></trkpt>
        <trkpt lat="28.716218" lon="104.725827"><ele>591.33795</ele><time>2026-01-16T20:24:59.000Z</time></trkpt>
        <trkpt lat="28.716214" lon="104.725881"><ele>591.8889</ele><time>2026-01-16T20:25:03.000Z</time></trkpt>
        <trkpt lat="28.716216" lon="104.725935"><ele>592.0112</ele><time>2026-01-16T20:25:07.000Z</time></trkpt>
        <trkpt lat="28.716223" lon="104.725998"><ele>591.1933</ele><time>2026-01-16T20:25:14.000Z</time></trkpt>
        <trkpt lat="28.716226" lon="104.726052"><ele>591.65125</ele><time>2026-01-16T20:25:19.000Z</time></trkpt>
        <trkpt lat="28.716246" lon="104.726103"><ele>593.2694</ele><time>2026-01-16T20:25:25.000Z</time></trkpt>
        <trkpt lat="28.716249" lon="104.726155"><ele>592.8933</ele><time>2026-01-16T20:25:28.000Z</time></trkpt>
        <trkpt lat="28.716257" lon="104.726207"><ele>592.15015</ele><time>2026-01-16T20:25:36.000Z</time></trkpt>
        <trkpt lat="28.716272" lon="104.726258"><ele>592.2035</ele><time>2026-01-16T20:25:41.000Z</time></trkpt>
        <trkpt lat="28.716303" lon="104.726306"><ele>590.05554</ele><time>2026-01-16T20:25:46.000Z</time></trkpt>
        <trkpt lat="28.716343" lon="104.726338"><ele>590.07495</ele><time>2026-01-16T20:25:51.000Z</time></trkpt>
        <trkpt lat="28.716381" lon="104.726371"><ele>590.2253</ele><time>2026-01-16T20:25:55.000Z</time></trkpt>
        <trkpt lat="28.716418" lon="104.726409"><ele>590.0493</ele><time>2026-01-16T20:25:59.000Z</time></trkpt>
        <trkpt lat="28.716459" lon="104.726449"><ele>590.61743</ele><time>2026-01-16T20:26:04.000Z</time></trkpt>
        <trkpt lat="28.716499" lon="104.726489"><ele>591.3751</ele><time>2026-01-16T20:26:09.000Z</time></trkpt>
        <trkpt lat="28.716542" lon="104.726532"><ele>592.802</ele><time>2026-01-16T20:26:14.000Z</time></trkpt>
        <trkpt lat="28.716587" lon="104.726568"><ele>593.2156</ele><time>2026-01-16T20:26:22.000Z</time></trkpt>
        <trkpt lat="28.716627" lon="104.726599"><ele>593.9675</ele><time>2026-01-16T20:26:29.000Z</time></trkpt>
        <trkpt lat="28.716677" lon="104.726605"><ele>594.87067</ele><time>2026-01-16T20:26:34.000Z</time></trkpt>
        <trkpt lat="28.716729" lon="104.7266"><ele>595.3224</ele><time>2026-01-16T20:26:39.000Z</time></trkpt>
        <trkpt lat="28.716791" lon="104.726611"><ele>595.5795</ele><time>2026-01-16T20:26:44.000Z</time></trkpt>
        <trkpt lat="28.716842" lon="104.726646"><ele>595.8952</ele><time>2026-01-16T20:26:48.000Z</time></trkpt>
        <trkpt lat="28.716885" lon="104.726671"><ele>596.49695</ele><time>2026-01-16T20:26:52.000Z</time></trkpt>
        <trkpt lat="28.716913" lon="104.726724"><ele>596.1546</ele><time>2026-01-16T20:26:55.000Z</time></trkpt>
        <trkpt lat="28.716915" lon="104.726787"><ele>596.6062</ele><time>2026-01-16T20:26:57.000Z</time></trkpt>
        <trkpt lat="28.716909" lon="104.726847"><ele>598.0213</ele><time>2026-01-16T20:27:00.000Z</time></trkpt>
        <trkpt lat="28.716872" lon="104.726894"><ele>600.0488</ele><time>2026-01-16T20:27:04.000Z</time></trkpt>
        <trkpt lat="28.71683" lon="104.726935"><ele>601.11426</ele><time>2026-01-16T20:27:09.000Z</time></trkpt>
        <trkpt lat="28.716805" lon="104.726979"><ele>600.6843</ele><time>2026-01-16T20:27:15.000Z</time></trkpt>
        <trkpt lat="28.716797" lon="104.727032"><ele>602.44714</ele><time>2026-01-16T20:27:21.000Z</time></trkpt>
        <trkpt lat="28.716806" lon="104.727083"><ele>603.6854</ele><time>2026-01-16T20:27:25.000Z</time></trkpt>
        <trkpt lat="28.716804" lon="104.727146"><ele>603.8574</ele><time>2026-01-16T20:27:30.000Z</time></trkpt>
        <trkpt lat="28.716782" lon="104.727206"><ele>606.45807</ele><time>2026-01-16T20:27:35.000Z</time></trkpt>
        <trkpt lat="28.71673" lon="104.727224"><ele>606.4882</ele><time>2026-01-16T20:27:38.000Z</time></trkpt>
        <trkpt lat="28.716685" lon="104.727228"><ele>606.86163</ele><time>2026-01-16T20:27:41.000Z</time></trkpt>
        <trkpt lat="28.71664" lon="104.72722"><ele>606.446</ele><time>2026-01-16T20:27:44.000Z</time></trkpt>
        <trkpt lat="28.716583" lon="104.727221"><ele>604.8939</ele><time>2026-01-16T20:27:47.000Z</time></trkpt>
        <trkpt lat="28.71653" lon="104.727214"><ele>603.86005</ele><time>2026-01-16T20:27:50.000Z</time></trkpt>
        <trkpt lat="28.716481" lon="104.727207"><ele>602.5208</ele><time>2026-01-16T20:27:53.000Z</time></trkpt>
        <trkpt lat="28.716428" lon="104.727209"><ele>598.832</ele><time>2026-01-16T20:28:00.000Z</time></trkpt>
        <trkpt lat="28.716382" lon="104.727207"><ele>597.12354</ele><time>2026-01-16T20:28:05.000Z</time></trkpt>
        <trkpt lat="28.716337" lon="104.727215"><ele>594.25946</ele><time>2026-01-16T20:28:10.000Z</time></trkpt>
        <trkpt lat="28.716289" lon="104.727222"><ele>592.96594</ele><time>2026-01-16T20:28:16.000Z</time></trkpt>
        <trkpt lat="28.716233" lon="104.727231"><ele>591.3054</ele><time>2026-01-16T20:28:22.000Z</time></trkpt>
        <trkpt lat="28.716191" lon="104.727251"><ele>591.65106</ele><time>2026-01-16T20:28:26.000Z</time></trkpt>
        <trkpt lat="28.716135" lon="104.727271"><ele>590.3736</ele><time>2026-01-16T20:28:31.000Z</time></trkpt>
        <trkpt lat="28.716081" lon="104.72729"><ele>589.3547</ele><time>2026-01-16T20:28:39.000Z</time></trkpt>
        <trkpt lat="28.716034" lon="104.727323"><ele>589.059</ele><time>2026-01-16T20:28:44.000Z</time></trkpt>
        <trkpt lat="28.715993" lon="104.727354"><ele>588.79236</ele><time>2026-01-16T20:28:49.000Z</time></trkpt>
        <trkpt lat="28.715954" lon="104.72738"><ele>587.25256</ele><time>2026-01-16T20:28:53.000Z</time></trkpt>
        <trkpt lat="28.715915" lon="104.727411"><ele>585.18634</ele><time>2026-01-16T20:28:57.000Z</time></trkpt>
        <trkpt lat="28.715872" lon="104.727443"><ele>584.37195</ele><time>2026-01-16T20:29:01.000Z</time></trkpt>
        <trkpt lat="28.715824" lon="104.727467"><ele>583.05365</ele><time>2026-01-16T20:29:05.000Z</time></trkpt>
        <trkpt lat="28.715766" lon="104.727486"><ele>583.3909</ele><time>2026-01-16T20:29:09.000Z</time></trkpt>
        <trkpt lat="28.715722" lon="104.727507"><ele>581.01227</ele><time>2026-01-16T20:29:14.000Z</time></trkpt>
        <trkpt lat="28.715685" lon="104.727541"><ele>579.35596</ele><time>2026-01-16T20:29:18.000Z</time></trkpt>
        <trkpt lat="28.715669" lon="104.727593"><ele>578.14526</ele><time>2026-01-16T20:29:22.000Z</time></trkpt>
        <trkpt lat="28.715677" lon="104.727646"><ele>577.60675</ele><time>2026-01-16T20:29:27.000Z</time></trkpt>
        <trkpt lat="28.715712" lon="104.727683"><ele>578.99695</ele><time>2026-01-16T20:29:33.000Z</time></trkpt>
        <trkpt lat="28.71576" lon="104.727718"><ele>581.8786</ele><time>2026-01-16T20:29:39.000Z</time></trkpt>
        <trkpt lat="28.715805" lon="104.727748"><ele>585.62866</ele><time>2026-01-16T20:29:44.000Z</time></trkpt>
        <trkpt lat="28.715837" lon="104.727785"><ele>587.0177</ele><time>2026-01-16T20:29:49.000Z</time></trkpt>
        <trkpt lat="28.715887" lon="104.727839"><ele>588.42755</ele><time>2026-01-16T20:29:53.000Z</time></trkpt>
        <trkpt lat="28.71592" lon="104.727877"><ele>590.6348</ele><time>2026-01-16T20:29:59.000Z</time></trkpt>
        <trkpt lat="28.71595" lon="104.727922"><ele>592.8545</ele><time>2026-01-16T20:30:03.000Z</time></trkpt>
        <trkpt lat="28.715963" lon="104.727976"><ele>594.7722</ele><time>2026-01-16T20:30:08.000Z</time></trkpt>
        <trkpt lat="28.715996" lon="104.728029"><ele>596.8913</ele><time>2026-01-16T20:30:12.000Z</time></trkpt>
        <trkpt lat="28.716017" lon="104.728088"><ele>596.9342</ele><time>2026-01-16T20:30:17.000Z</time></trkpt>
        <trkpt lat="28.716039" lon="104.728147"><ele>597.5951</ele><time>2026-01-16T20:30:21.000Z</time></trkpt>
        <trkpt lat="28.716066" lon="104.728193"><ele>597.74786</ele><time>2026-01-16T20:30:25.000Z</time></trkpt>
        <trkpt lat="28.716099" lon="104.728233"><ele>598.4791</ele><time>2026-01-16T20:30:29.000Z</time></trkpt>
        <trkpt lat="28.716134" lon="104.728274"><ele>599.0196</ele><time>2026-01-16T20:30:35.000Z</time></trkpt>
        <trkpt lat="28.716168" lon="104.728308"><ele>598.6875</ele><time>2026-01-16T20:30:41.000Z</time></trkpt>
        <trkpt lat="28.716211" lon="104.72833"><ele>599.94147</ele><time>2026-01-16T20:30:46.000Z</time></trkpt>
        <trkpt lat="28.716256" lon="104.728353"><ele>600.1707</ele><time>2026-01-16T20:30:52.000Z</time></trkpt>
        <trkpt lat="28.716292" lon="104.728387"><ele>602.29443</ele><time>2026-01-16T20:30:57.000Z</time></trkpt>
        <trkpt lat="28.716336" lon="104.72841"><ele>602.9203</ele><time>2026-01-16T20:31:01.000Z</time></trkpt>
        <trkpt lat="28.716382" lon="104.72844"><ele>603.6888</ele><time>2026-01-16T20:31:05.000Z</time></trkpt>
        <trkpt lat="28.716428" lon="104.728465"><ele>603.6213</ele><time>2026-01-16T20:31:09.000Z</time></trkpt>
        <trkpt lat="28.716478" lon="104.728504"><ele>607.06726</ele><time>2026-01-16T20:31:14.000Z</time></trkpt>
        <trkpt lat="28.716518" lon="104.728545"><ele>606.8205</ele><time>2026-01-16T20:31:18.000Z</time></trkpt>
        <trkpt lat="28.716528" lon="104.728597"><ele>606.63275</ele><time>2026-01-16T20:31:22.000Z</time></trkpt>
        <trkpt lat="28.716509" lon="104.728651"><ele>606.4469</ele><time>2026-01-16T20:31:27.000Z</time></trkpt>
        <trkpt lat="28.716471" lon="104.728679"><ele>606.48975</ele><time>2026-01-16T20:31:31.000Z</time></trkpt>
        <trkpt lat="28.716426" lon="104.728689"><ele>605.2048</ele><time>2026-01-16T20:31:34.000Z</time></trkpt>
        <trkpt lat="28.716372" lon="104.7287"><ele>602.829</ele><time>2026-01-16T20:31:39.000Z</time></trkpt>
        <trkpt lat="28.716326" lon="104.728709"><ele>603.31964</ele><time>2026-01-16T20:31:43.000Z</time></trkpt>
        <trkpt lat="28.716273" lon="104.728719"><ele>602.80176</ele><time>2026-01-16T20:31:47.000Z</time></trkpt>
        <trkpt lat="28.716217" lon="104.728718"><ele>600.661</ele><time>2026-01-16T20:31:54.000Z</time></trkpt>
        <trkpt lat="28.716157" lon="104.728725"><ele>600.2933</ele><time>2026-01-16T20:31:57.000Z</time></trkpt>
        <trkpt lat="28.71611" lon="104.728727"><ele>600.05444</ele><time>2026-01-16T20:32:00.000Z</time></trkpt>
        <trkpt lat="28.716063" lon="104.728721"><ele>598.9548</ele><time>2026-01-16T20:32:03.000Z</time></trkpt>
        <trkpt lat="28.716011" lon="104.728726"><ele>597.55896</ele><time>2026-01-16T20:32:07.000Z</time></trkpt>
        <trkpt lat="28.71596" lon="104.728726"><ele>597.3681</ele><time>2026-01-16T20:32:12.000Z</time></trkpt>
        <trkpt lat="28.715916" lon="104.72874"><ele>597.4604</ele><time>2026-01-16T20:32:17.000Z</time></trkpt>
        <trkpt lat="28.715865" lon="104.728748"><ele>595.9554</ele><time>2026-01-16T20:32:22.000Z</time></trkpt>
        <trkpt lat="28.715815" lon="104.728758"><ele>596.16907</ele><time>2026-01-16T20:32:27.000Z</time></trkpt>
        <trkpt lat="28.715762" lon="104.728768"><ele>595.32385</ele><time>2026-01-16T20:32:32.000Z</time></trkpt>
        <trkpt lat="28.71571" lon="104.728774"><ele>597.2425</ele><time>2026-01-16T20:32:37.000Z</time></trkpt>
        <trkpt lat="28.715653" lon="104.728791"><ele>597.1135</ele><time>2026-01-16T20:32:42.000Z</time></trkpt>
        <trkpt lat="28.715597" lon="104.728805"><ele>598.21893</ele><time>2026-01-16T20:32:47.000Z</time></trkpt>
        <trkpt lat="28.715549" lon="104.728815"><ele>600.36316</ele><time>2026-01-16T20:32:51.000Z</time></trkpt>
        <trkpt lat="28.715501" lon="104.728824"><ele>598.8136</ele><time>2026-01-16T20:32:55.000Z</time></trkpt>
        <trkpt lat="28.71545" lon="104.728833"><ele>597.477</ele><time>2026-01-16T20:32:59.000Z</time></trkpt>
        <trkpt lat="28.715396" lon="104.728846"><ele>595.7576</ele><time>2026-01-16T20:33:03.000Z</time></trkpt>
        <trkpt lat="28.715349" lon="104.728866"><ele>593.86957</ele><time>2026-01-16T20:33:08.000Z</time></trkpt>
        <trkpt lat="28.715319" lon="104.728907"><ele>591.6666</ele><time>2026-01-16T20:33:13.000Z</time></trkpt>
        <trkpt lat="28.715297" lon="104.728961"><ele>589.5885</ele><time>2026-01-16T20:33:24.000Z</time></trkpt>
        <trkpt lat="28.715297" lon="104.729019"><ele>588.66473</ele><time>2026-01-16T20:33:30.000Z</time></trkpt>
        <trkpt lat="28.715292" lon="104.729074"><ele>588.06805</ele><time>2026-01-16T20:33:35.000Z</time></trkpt>
        <trkpt lat="28.715315" lon="104.729122"><ele>586.7816</ele><time>2026-01-16T20:33:40.000Z</time></trkpt>
        <trkpt lat="28.715338" lon="104.72917"><ele>583.5533</ele><time>2026-01-16T20:33:46.000Z</time></trkpt>
        <trkpt lat="28.715366" lon="104.729224"><ele>582.5663</ele><time>2026-01-16T20:33:52.000Z</time></trkpt>
        <trkpt lat="28.715394" lon="104.729273"><ele>584.1986</ele><time>2026-01-16T20:33:58.000Z</time></trkpt>
        <trkpt lat="28.715435" lon="104.729319"><ele>585.37634</ele><time>2026-01-16T20:34:03.000Z</time></trkpt>
        <trkpt lat="28.71547" lon="104.729366"><ele>587.6914</ele><time>2026-01-16T20:34:10.000Z</time></trkpt>
        <trkpt lat="28.715507" lon="104.729411"><ele>589.0715</ele><time>2026-01-16T20:34:15.000Z</time></trkpt>
        <trkpt lat="28.71555" lon="104.72943"><ele>590.4736</ele><time>2026-01-16T20:34:21.000Z</time></trkpt>
        <trkpt lat="28.7156" lon="104.729439"><ele>592.3512</ele><time>2026-01-16T20:34:26.000Z</time></trkpt>
        <trkpt lat="28.715655" lon="104.729446"><ele>592.8737</ele><time>2026-01-16T20:34:31.000Z</time></trkpt>
        <trkpt lat="28.715707" lon="104.729457"><ele>593.3167</ele><time>2026-01-16T20:34:36.000Z</time></trkpt>
        <trkpt lat="28.71575" lon="104.729477"><ele>593.6527</ele><time>2026-01-16T20:34:40.000Z</time></trkpt>
        <trkpt lat="28.71579" lon="104.729509"><ele>594.59454</ele><time>2026-01-16T20:34:44.000Z</time></trkpt>
        <trkpt lat="28.71583" lon="104.729541"><ele>594.94525</ele><time>2026-01-16T20:34:47.000Z</time></trkpt>
        <trkpt lat="28.715865" lon="104.729575"><ele>596.33826</ele><time>2026-01-16T20:34:52.000Z</time></trkpt>
        <trkpt lat="28.715908" lon="104.729617"><ele>596.60876</ele><time>2026-01-16T20:34:56.000Z</time></trkpt>
        <trkpt lat="28.71595" lon="104.729658"><ele>596.0329</ele><time>2026-01-16T20:35:00.000Z</time></trkpt>
        <trkpt lat="28.71599" lon="104.729686"><ele>597.28015</ele><time>2026-01-16T20:35:12.000Z</time></trkpt>
        <trkpt lat="28.716031" lon="104.729721"><ele>600.0815</ele><time>2026-01-16T20:35:28.000Z</time></trkpt>
        <trkpt lat="28.716066" lon="104.729763"><ele>599.1595</ele><time>2026-01-16T20:35:32.000Z</time></trkpt>
        <trkpt lat="28.716076" lon="104.729814"><ele>600.6041</ele><time>2026-01-16T20:35:38.000Z</time></trkpt>
        <trkpt lat="28.716069" lon="104.729869"><ele>600.9408</ele><time>2026-01-16T20:35:47.000Z</time></trkpt>
        <trkpt lat="28.716055" lon="104.729931"><ele>600.6602</ele><time>2026-01-16T20:35:57.000Z</time></trkpt>
        <trkpt lat="28.716025" lon="104.729974"><ele>600.1411</ele><time>2026-01-16T20:36:01.000Z</time></trkpt>
        <trkpt lat="28.71597" lon="104.729993"><ele>598.69763</ele><time>2026-01-16T20:36:04.000Z</time></trkpt>
        <trkpt lat="28.715917" lon="104.730017"><ele>597.578</ele><time>2026-01-16T20:36:08.000Z</time></trkpt>
        <trkpt lat="28.715858" lon="104.730019"><ele>597.0756</ele><time>2026-01-16T20:36:12.000Z</time></trkpt>
        <trkpt lat="28.715805" lon="104.730028"><ele>596.1249</ele><time>2026-01-16T20:36:16.000Z</time></trkpt>
        <trkpt lat="28.715751" lon="104.730025"><ele>595.26013</ele><time>2026-01-16T20:36:20.000Z</time></trkpt>
        <trkpt lat="28.715706" lon="104.730003"><ele>594.37476</ele><time>2026-01-16T20:36:24.000Z</time></trkpt>
        <trkpt lat="28.715659" lon="104.729996"><ele>592.4718</ele><time>2026-01-16T20:36:28.000Z</time></trkpt>
        <trkpt lat="28.715613" lon="104.729989"><ele>591.8792</ele><time>2026-01-16T20:36:32.000Z</time></trkpt>
        <trkpt lat="28.715562" lon="104.729997"><ele>591.2299</ele><time>2026-01-16T20:36:36.000Z</time></trkpt>
        <trkpt lat="28.715517" lon="104.730008"><ele>591.41394</ele><time>2026-01-16T20:36:39.000Z</time></trkpt>
        <trkpt lat="28.715469" lon="104.730032"><ele>589.9107</ele><time>2026-01-16T20:36:44.000Z</time></trkpt>
        <trkpt lat="28.715423" lon="104.73005"><ele>589.112</ele><time>2026-01-16T20:36:49.000Z</time></trkpt>
        <trkpt lat="28.715387" lon="104.730093"><ele>588.86255</ele><time>2026-01-16T20:36:54.000Z</time></trkpt>
        <trkpt lat="28.715346" lon="104.730117"><ele>586.925</ele><time>2026-01-16T20:36:59.000Z</time></trkpt>
        <trkpt lat="28.715306" lon="104.730156"><ele>585.909</ele><time>2026-01-16T20:37:03.000Z</time></trkpt>
        <trkpt lat="28.71526" lon="104.730194"><ele>584.71875</ele><time>2026-01-16T20:37:08.000Z</time></trkpt>
        <trkpt lat="28.715223" lon="104.730225"><ele>583.3287</ele><time>2026-01-16T20:37:13.000Z</time></trkpt>
        <trkpt lat="28.71518" lon="104.730241"><ele>582.8035</ele><time>2026-01-16T20:37:18.000Z</time></trkpt>
        <trkpt lat="28.71514" lon="104.730274"><ele>583.441</ele><time>2026-01-16T20:37:22.000Z</time></trkpt>
        <trkpt lat="28.715093" lon="104.730288"><ele>581.77527</ele><time>2026-01-16T20:37:26.000Z</time></trkpt>
        <trkpt lat="28.715045" lon="104.730294"><ele>580.4357</ele><time>2026-01-16T20:37:30.000Z</time></trkpt>
        <trkpt lat="28.715002" lon="104.730308"><ele>578.69025</ele><time>2026-01-16T20:37:33.000Z</time></trkpt>
        <trkpt lat="28.714955" lon="104.730324"><ele>577.973</ele><time>2026-01-16T20:37:37.000Z</time></trkpt>
        <trkpt lat="28.7149" lon="104.730327"><ele>576.6453</ele><time>2026-01-16T20:37:41.000Z</time></trkpt>
        <trkpt lat="28.714855" lon="104.730345"><ele>574.3833</ele><time>2026-01-16T20:37:45.000Z</time></trkpt>
        <trkpt lat="28.714817" lon="104.730375"><ele>572.9938</ele><time>2026-01-16T20:37:50.000Z</time></trkpt>
        <trkpt lat="28.714781" lon="104.730418"><ele>572.17377</ele><time>2026-01-16T20:37:54.000Z</time></trkpt>
        <trkpt lat="28.714772" lon="104.730482"><ele>570.96027</ele><time>2026-01-16T20:37:59.000Z</time></trkpt>
        <trkpt lat="28.714783" lon="104.730538"><ele>570.7537</ele><time>2026-01-16T20:38:03.000Z</time></trkpt>
        <trkpt lat="28.714819" lon="104.730584"><ele>571.3156</ele><time>2026-01-16T20:38:08.000Z</time></trkpt>
        <trkpt lat="28.714849" lon="104.730627"><ele>572.8915</ele><time>2026-01-16T20:38:12.000Z</time></trkpt>
        <trkpt lat="28.714891" lon="104.730665"><ele>574.52527</ele><time>2026-01-16T20:38:17.000Z</time></trkpt>
        <trkpt lat="28.714932" lon="104.730698"><ele>575.8819</ele><time>2026-01-16T20:38:21.000Z</time></trkpt>
        <trkpt lat="28.714972" lon="104.730727"><ele>576.8903</ele><time>2026-01-16T20:38:25.000Z</time></trkpt>
        <trkpt lat="28.715019" lon="104.730767"><ele>578.8345</ele><time>2026-01-16T20:38:30.000Z</time></trkpt>
        <trkpt lat="28.715064" lon="104.730799"><ele>579.7111</ele><time>2026-01-16T20:38:35.000Z</time></trkpt>
        <trkpt lat="28.715115" lon="104.730823"><ele>580.37866</ele><time>2026-01-16T20:38:40.000Z</time></trkpt>
        <trkpt lat="28.715161" lon="104.73085"><ele>581.8632</ele><time>2026-01-16T20:38:45.000Z</time></trkpt>
        <trkpt lat="28.715207" lon="104.730878"><ele>583.20984</ele><time>2026-01-16T20:38:50.000Z</time></trkpt>
        <trkpt lat="28.715246" lon="104.730906"><ele>583.8992</ele><time>2026-01-16T20:38:54.000Z</time></trkpt>
        <trkpt lat="28.715288" lon="104.730936"><ele>585.2023</ele><time>2026-01-16T20:38:58.000Z</time></trkpt>
        <trkpt lat="28.715329" lon="104.730971"><ele>585.22205</ele><time>2026-01-16T20:39:03.000Z</time></trkpt>
        <trkpt lat="28.715376" lon="104.730982"><ele>587.36774</ele><time>2026-01-16T20:39:09.000Z</time></trkpt>
        <trkpt lat="28.715418" lon="104.731006"><ele>587.2126</ele><time>2026-01-16T20:39:12.000Z</time></trkpt>
        <trkpt lat="28.715473" lon="104.73103"><ele>587.77356</ele><time>2026-01-16T20:39:17.000Z</time></trkpt>
        <trkpt lat="28.715528" lon="104.731055"><ele>587.58496</ele><time>2026-01-16T20:39:21.000Z</time></trkpt>
        <trkpt lat="28.715578" lon="104.731065"><ele>587.7554</ele><time>2026-01-16T20:39:26.000Z</time></trkpt>
        <trkpt lat="28.715625" lon="104.73106"><ele>588.0059</ele><time>2026-01-16T20:39:31.000Z</time></trkpt>
        <trkpt lat="28.715675" lon="104.731057"><ele>588.2491</ele><time>2026-01-16T20:39:35.000Z</time></trkpt>
        <trkpt lat="28.715736" lon="104.731056"><ele>588.7195</ele><time>2026-01-16T20:39:40.000Z</time></trkpt>
        <trkpt lat="28.715781" lon="104.731067"><ele>589.3461</ele><time>2026-01-16T20:39:44.000Z</time></trkpt>
        <trkpt lat="28.715831" lon="104.7311"><ele>590.1627</ele><time>2026-01-16T20:39:48.000Z</time></trkpt>
        <trkpt lat="28.715867" lon="104.731131"><ele>591.0785</ele><time>2026-01-16T20:39:52.000Z</time></trkpt>
        <trkpt lat="28.71591" lon="104.731171"><ele>590.9748</ele><time>2026-01-16T20:39:56.000Z</time></trkpt>
        <trkpt lat="28.715964" lon="104.731197"><ele>591.0942</ele><time>2026-01-16T20:40:00.000Z</time></trkpt>
        <trkpt lat="28.716011" lon="104.731211"><ele>591.11926</ele><time>2026-01-16T20:40:05.000Z</time></trkpt>
        <trkpt lat="28.716059" lon="104.731218"><ele>592.3978</ele><time>2026-01-16T20:40:10.000Z</time></trkpt>
        <trkpt lat="28.716112" lon="104.731227"><ele>591.9367</ele><time>2026-01-16T20:40:15.000Z</time></trkpt>
        <trkpt lat="28.716165" lon="104.731239"><ele>592.3569</ele><time>2026-01-16T20:40:19.000Z</time></trkpt>
        <trkpt lat="28.716197" lon="104.731281"><ele>593.8999</ele><time>2026-01-16T20:40:24.000Z</time></trkpt>
        <trkpt lat="28.716217" lon="104.731345"><ele>594.98395</ele><time>2026-01-16T20:40:29.000Z</time></trkpt>
        <trkpt lat="28.716242" lon="104.731398"><ele>595.6761</ele><time>2026-01-16T20:40:33.000Z</time></trkpt>
        <trkpt lat="28.716267" lon="104.73144"><ele>595.8223</ele><time>2026-01-16T20:40:38.000Z</time></trkpt>
        <trkpt lat="28.716304" lon="104.731481"><ele>596.7687</ele><time>2026-01-16T20:40:42.000Z</time></trkpt>
        <trkpt lat="28.71634" lon="104.731513"><ele>598.3316</ele><time>2026-01-16T20:40:47.000Z</time></trkpt>
        <trkpt lat="28.716372" lon="104.73156"><ele>598.3955</ele><time>2026-01-16T20:40:51.000Z</time></trkpt>
        <trkpt lat="28.716389" lon="104.731622"><ele>602.2667</ele><time>2026-01-16T20:40:56.000Z</time></trkpt>
        <trkpt lat="28.716371" lon="104.731674"><ele>601.78784</ele><time>2026-01-16T20:41:00.000Z</time></trkpt>
        <trkpt lat="28.716327" lon="104.731705"><ele>600.8021</ele><time>2026-01-16T20:41:03.000Z</time></trkpt>
        <trkpt lat="28.716283" lon="104.73172"><ele>600.1357</ele><time>2026-01-16T20:41:06.000Z</time></trkpt>
        <trkpt lat="28.716237" lon="104.731736"><ele>599.3046</ele><time>2026-01-16T20:41:10.000Z</time></trkpt>
        <trkpt lat="28.716185" lon="104.731745"><ele>598.02814</ele><time>2026-01-16T20:41:14.000Z</time></trkpt>
        <trkpt lat="28.716138" lon="104.731752"><ele>597.0551</ele><time>2026-01-16T20:41:17.000Z</time></trkpt>
        <trkpt lat="28.716083" lon="104.731753"><ele>595.89355</ele><time>2026-01-16T20:41:24.000Z</time></trkpt>
        <trkpt lat="28.716038" lon="104.731739"><ele>594.94073</ele><time>2026-01-16T20:41:29.000Z</time></trkpt>
        <trkpt lat="28.715988" lon="104.731728"><ele>593.68164</ele><time>2026-01-16T20:41:33.000Z</time></trkpt>
        <trkpt lat="28.715936" lon="104.731709"><ele>592.58966</ele><time>2026-01-16T20:41:38.000Z</time></trkpt>
        <trkpt lat="28.715891" lon="104.731675"><ele>590.8408</ele><time>2026-01-16T20:41:43.000Z</time></trkpt>
        <trkpt lat="28.715848" lon="104.731636"><ele>588.7191</ele><time>2026-01-16T20:41:49.000Z</time></trkpt>
        <trkpt lat="28.715813" lon="104.7316"><ele>587.34985</ele><time>2026-01-16T20:41:54.000Z</time></trkpt>
        <trkpt lat="28.715763" lon="104.731575"><ele>586.6021</ele><time>2026-01-16T20:41:59.000Z</time></trkpt>
        <trkpt lat="28.715717" lon="104.731554"><ele>586.4702</ele><time>2026-01-16T20:42:03.000Z</time></trkpt>
        <trkpt lat="28.715664" lon="104.731539"><ele>586.1551</ele><time>2026-01-16T20:42:08.000Z</time></trkpt>
        <trkpt lat="28.715607" lon="104.73153"><ele>585.92926</ele><time>2026-01-16T20:42:13.000Z</time></trkpt>
        <trkpt lat="28.715558" lon="104.731519"><ele>586.23676</ele><time>2026-01-16T20:42:16.000Z</time></trkpt>
        <trkpt lat="28.715506" lon="104.731526"><ele>586.42773</ele><time>2026-01-16T20:42:21.000Z</time></trkpt>
        <trkpt lat="28.715464" lon="104.731548"><ele>585.9581</ele><time>2026-01-16T20:42:25.000Z</time></trkpt>
        <trkpt lat="28.715417" lon="104.731549"><ele>586.1293</ele><time>2026-01-16T20:42:29.000Z</time></trkpt>
        <trkpt lat="28.715361" lon="104.731561"><ele>585.65375</ele><time>2026-01-16T20:42:34.000Z</time></trkpt>
        <trkpt lat="28.715315" lon="104.731582"><ele>585.65753</ele><time>2026-01-16T20:42:38.000Z</time></trkpt>
        <trkpt lat="28.715265" lon="104.731594"><ele>586.03796</ele><time>2026-01-16T20:42:42.000Z</time></trkpt>
        <trkpt lat="28.715221" lon="104.73161"><ele>586.2739</ele><time>2026-01-16T20:42:46.000Z</time></trkpt>
        <trkpt lat="28.715174" lon="104.731646"><ele>586.6665</ele><time>2026-01-16T20:42:52.000Z</time></trkpt>
        <trkpt lat="28.715132" lon="104.73168"><ele>586.70514</ele><time>2026-01-16T20:42:57.000Z</time></trkpt>
        <trkpt lat="28.715104" lon="104.731734"><ele>587.234</ele><time>2026-01-16T20:43:02.000Z</time></trkpt>
        <trkpt lat="28.715055" lon="104.731761"><ele>587.93945</ele><time>2026-01-16T20:43:07.000Z</time></trkpt>
        <trkpt lat="28.715006" lon="104.731773"><ele>588.4846</ele><time>2026-01-16T20:43:12.000Z</time></trkpt>
        <trkpt lat="28.714957" lon="104.731767"><ele>589.7445</ele><time>2026-01-16T20:43:18.000Z</time></trkpt>
        <trkpt lat="28.714907" lon="104.731768"><ele>590.2542</ele><time>2026-01-16T20:43:23.000Z</time></trkpt>
        <trkpt lat="28.71486" lon="104.73177"><ele>589.69006</ele><time>2026-01-16T20:43:28.000Z</time></trkpt>
        <trkpt lat="28.714804" lon="104.731788"><ele>589.11707</ele><time>2026-01-16T20:43:33.000Z</time></trkpt>
        <trkpt lat="28.71476" lon="104.731805"><ele>588.9085</ele><time>2026-01-16T20:43:38.000Z</time></trkpt>
        <trkpt lat="28.714723" lon="104.731845"><ele>588.25165</ele><time>2026-01-16T20:43:43.000Z</time></trkpt>
        <trkpt lat="28.714704" lon="104.731902"><ele>588.8924</ele><time>2026-01-16T20:43:48.000Z</time></trkpt>
        <trkpt lat="28.714697" lon="104.731956"><ele>589.7388</ele><time>2026-01-16T20:43:52.000Z</time></trkpt>
        <trkpt lat="28.714713" lon="104.732004"><ele>590.8063</ele><time>2026-01-16T20:43:57.000Z</time></trkpt>
        <trkpt lat="28.714713" lon="104.732057"><ele>590.9661</ele><time>2026-01-16T20:44:01.000Z</time></trkpt>
        <trkpt lat="28.71473" lon="104.73211"><ele>590.9247</ele><time>2026-01-16T20:44:05.000Z</time></trkpt>
        <trkpt lat="28.714733" lon="104.732169"><ele>592.6095</ele><time>2026-01-16T20:44:12.000Z</time></trkpt>
        <trkpt lat="28.71475" lon="104.732217"><ele>593.3119</ele><time>2026-01-16T20:44:16.000Z</time></trkpt>
        <trkpt lat="28.714746" lon="104.732279"><ele>594.1226</ele><time>2026-01-16T20:44:21.000Z</time></trkpt>
        <trkpt lat="28.714757" lon="104.732342"><ele>593.8076</ele><time>2026-01-16T20:44:26.000Z</time></trkpt>
        <trkpt lat="28.714781" lon="104.7324"><ele>590.95886</ele><time>2026-01-16T20:44:31.000Z</time></trkpt>
        <trkpt lat="28.714822" lon="104.732427"><ele>591.1629</ele><time>2026-01-16T20:44:36.000Z</time></trkpt>
        <trkpt lat="28.714867" lon="104.732445"><ele>590.76324</ele><time>2026-01-16T20:44:41.000Z</time></trkpt>
        <trkpt lat="28.714912" lon="104.732464"><ele>591.09106</ele><time>2026-01-16T20:44:46.000Z</time></trkpt>
        <trkpt lat="28.714963" lon="104.732474"><ele>591.0064</ele><time>2026-01-16T20:44:51.000Z</time></trkpt>
        <trkpt lat="28.715011" lon="104.7325"><ele>591.3818</ele><time>2026-01-16T20:44:56.000Z</time></trkpt>
        <trkpt lat="28.715059" lon="104.732517"><ele>590.99084</ele><time>2026-01-16T20:45:01.000Z</time></trkpt>
        <trkpt lat="28.715111" lon="104.732537"><ele>591.3117</ele><time>2026-01-16T20:45:07.000Z</time></trkpt>
        <trkpt lat="28.715152" lon="104.73256"><ele>592.148</ele><time>2026-01-16T20:45:11.000Z</time></trkpt>
        <trkpt lat="28.715195" lon="104.732581"><ele>592.9246</ele><time>2026-01-16T20:45:15.000Z</time></trkpt>
        <trkpt lat="28.715249" lon="104.732595"><ele>592.46844</ele><time>2026-01-16T20:45:22.000Z</time></trkpt>
        <trkpt lat="28.715295" lon="104.732614"><ele>594.012</ele><time>2026-01-16T20:45:26.000Z</time></trkpt>
        <trkpt lat="28.715337" lon="104.73264"><ele>595.5523</ele><time>2026-01-16T20:45:30.000Z</time></trkpt>
        <trkpt lat="28.715378" lon="104.732681"><ele>596.7137</ele><time>2026-01-16T20:45:35.000Z</time></trkpt>
        <trkpt lat="28.71539" lon="104.732741"><ele>595.5137</ele><time>2026-01-16T20:45:39.000Z</time></trkpt>
        <trkpt lat="28.715406" lon="104.732793"><ele>596.0418</ele><time>2026-01-16T20:45:43.000Z</time></trkpt>
        <trkpt lat="28.715404" lon="104.732858"><ele>595.56586</ele><time>2026-01-16T20:45:48.000Z</time></trkpt>
        <trkpt lat="28.715381" lon="104.73291"><ele>595.4024</ele><time>2026-01-16T20:45:52.000Z</time></trkpt>
        <trkpt lat="28.715348" lon="104.732955"><ele>594.72284</ele><time>2026-01-16T20:45:57.000Z</time></trkpt>
        <trkpt lat="28.715298" lon="104.732975"><ele>594.2158</ele><time>2026-01-16T20:46:01.000Z</time></trkpt>
        <trkpt lat="28.71527" lon="104.733025"><ele>592.67456</ele><time>2026-01-16T20:46:06.000Z</time></trkpt>
        <trkpt lat="28.715247" lon="104.733072"><ele>591.67474</ele><time>2026-01-16T20:46:10.000Z</time></trkpt>
        <trkpt lat="28.715221" lon="104.733123"><ele>592.11835</ele><time>2026-01-16T20:46:15.000Z</time></trkpt>
        <trkpt lat="28.715202" lon="104.733176"><ele>593.0136</ele><time>2026-01-16T20:46:20.000Z</time></trkpt>
        <trkpt lat="28.715161" lon="104.73322"><ele>591.5944</ele><time>2026-01-16T20:46:25.000Z</time></trkpt>
        <trkpt lat="28.715111" lon="104.73324"><ele>591.4483</ele><time>2026-01-16T20:46:28.000Z</time></trkpt>
        <trkpt lat="28.715058" lon="104.733257"><ele>590.7764</ele><time>2026-01-16T20:46:33.000Z</time></trkpt>
        <trkpt lat="28.715013" lon="104.733279"><ele>589.9238</ele><time>2026-01-16T20:46:38.000Z</time></trkpt>
        <trkpt lat="28.71497" lon="104.733297"><ele>589.539</ele><time>2026-01-16T20:46:42.000Z</time></trkpt>
        <trkpt lat="28.714932" lon="104.733339"><ele>588.9744</ele><time>2026-01-16T20:46:47.000Z</time></trkpt>
        <trkpt lat="28.714899" lon="104.73339"><ele>588.26416</ele><time>2026-01-16T20:46:53.000Z</time></trkpt>
        <trkpt lat="28.714876" lon="104.733439"><ele>587.10345</ele><time>2026-01-16T20:46:58.000Z</time></trkpt>
        <trkpt lat="28.714836" lon="104.733484"><ele>586.9439</ele><time>2026-01-16T20:47:04.000Z</time></trkpt>
        <trkpt lat="28.714822" lon="104.73354"><ele>586.67236</ele><time>2026-01-16T20:47:09.000Z</time></trkpt>
        <trkpt lat="28.714809" lon="104.73359"><ele>586.4811</ele><time>2026-01-16T20:47:14.000Z</time></trkpt>
        <trkpt lat="28.714792" lon="104.733638"><ele>585.5523</ele><time>2026-01-16T20:47:19.000Z</time></trkpt>
        <trkpt lat="28.714772" lon="104.733694"><ele>585.5265</ele><time>2026-01-16T20:47:26.000Z</time></trkpt>
        <trkpt lat="28.714756" lon="104.733744"><ele>584.56085</ele><time>2026-01-16T20:47:31.000Z</time></trkpt>
        <trkpt lat="28.714733" lon="104.733801"><ele>582.74243</ele><time>2026-01-16T20:47:37.000Z</time></trkpt>
        <trkpt lat="28.714742" lon="104.733862"><ele>582.4959</ele><time>2026-01-16T20:47:42.000Z</time></trkpt>
        <trkpt lat="28.714745" lon="104.733916"><ele>582.25824</ele><time>2026-01-16T20:47:47.000Z</time></trkpt>
        <trkpt lat="28.714771" lon="104.733958"><ele>581.25507</ele><time>2026-01-16T20:47:52.000Z</time></trkpt>
        <trkpt lat="28.714787" lon="104.73401"><ele>580.44116</ele><time>2026-01-16T20:47:57.000Z</time></trkpt>
        <trkpt lat="28.714802" lon="104.73406"><ele>580.1729</ele><time>2026-01-16T20:48:02.000Z</time></trkpt>
        <trkpt lat="28.714844" lon="104.734085"><ele>579.6652</ele><time>2026-01-16T20:48:06.000Z</time></trkpt>
        <trkpt lat="28.714855" lon="104.734141"><ele>579.60645</ele><time>2026-01-16T20:48:54.000Z</time></trkpt>
        <trkpt lat="28.714874" lon="104.734196"><ele>577.4096</ele><time>2026-01-16T20:49:10.000Z</time></trkpt>
        <trkpt lat="28.714885" lon="104.734248"><ele>576.2125</ele><time>2026-01-16T20:49:16.000Z</time></trkpt>
        <trkpt lat="28.714858" lon="104.734298"><ele>575.2079</ele><time>2026-01-16T20:49:21.000Z</time></trkpt>
        <trkpt lat="28.714835" lon="104.734342"><ele>573.03455</ele><time>2026-01-16T20:49:27.000Z</time></trkpt>
        <trkpt lat="28.714788" lon="104.734366"><ele>570.73596</ele><time>2026-01-16T20:49:37.000Z</time></trkpt>
        <trkpt lat="28.714744" lon="104.734381"><ele>569.2444</ele><time>2026-01-16T20:49:45.000Z</time></trkpt>
        <trkpt lat="28.714697" lon="104.734391"><ele>567.22626</ele><time>2026-01-16T20:49:52.000Z</time></trkpt>
        <trkpt lat="28.714653" lon="104.734409"><ele>566.2647</ele><time>2026-01-16T20:49:58.000Z</time></trkpt>
        <trkpt lat="28.714623" lon="104.734451"><ele>562.89856</ele><time>2026-01-16T20:50:12.000Z</time></trkpt>
        <trkpt lat="28.714596" lon="104.734498"><ele>560.4794</ele><time>2026-01-16T20:50:28.000Z</time></trkpt>
        <trkpt lat="28.714548" lon="104.73451"><ele>558.279</ele><time>2026-01-16T20:50:40.000Z</time></trkpt>
        <trkpt lat="28.714507" lon="104.734541"><ele>553.6133</ele><time>2026-01-16T20:50:59.000Z</time></trkpt>
        <trkpt lat="28.71448" lon="104.734584"><ele>550.3006</ele><time>2026-01-16T20:51:18.000Z</time></trkpt>
        <trkpt lat="28.714433" lon="104.734573"><ele>548.99347</ele><time>2026-01-16T20:51:28.000Z</time></trkpt>
        <trkpt lat="28.714399" lon="104.734608"><ele>546.6872</ele><time>2026-01-16T20:51:35.000Z</time></trkpt>
        <trkpt lat="28.714361" lon="104.734579"><ele>545.1843</ele><time>2026-01-16T20:51:44.000Z</time></trkpt>
        <trkpt lat="28.714355" lon="104.73463"><ele>542.4807</ele><time>2026-01-16T20:52:00.000Z</time></trkpt>
        <trkpt lat="28.71434" lon="104.734681"><ele>540.7805</ele><time>2026-01-16T20:52:10.000Z</time></trkpt>
        <trkpt lat="28.714293" lon="104.734682"><ele>536.3564</ele><time>2026-01-16T20:52:20.000Z</time></trkpt>
        <trkpt lat="28.714236" lon="104.734684"><ele>534.9479</ele><time>2026-01-16T20:52:29.000Z</time></trkpt>
        <trkpt lat="28.714209" lon="104.734643"><ele>535.3686</ele><time>2026-01-16T20:52:41.000Z</time></trkpt>
        <trkpt lat="28.714161" lon="104.73466"><ele>533.45404</ele><time>2026-01-16T20:52:51.000Z</time></trkpt>
        <trkpt lat="28.714173" lon="104.734712"><ele>528.1157</ele><time>2026-01-16T20:53:05.000Z</time></trkpt>
        <trkpt lat="28.714135" lon="104.734756"><ele>526.13104</ele><time>2026-01-16T20:53:12.000Z</time></trkpt>
        <trkpt lat="28.71411" lon="104.734804"><ele>521.1562</ele><time>2026-01-16T20:53:23.000Z</time></trkpt>
        <trkpt lat="28.714077" lon="104.73484"><ele>517.63824</ele><time>2026-01-16T20:53:34.000Z</time></trkpt>
        <trkpt lat="28.714038" lon="104.734873"><ele>514.9981</ele><time>2026-01-16T20:53:49.000Z</time></trkpt>
        <trkpt lat="28.714" lon="104.734906"><ele>512.025</ele><time>2026-01-16T20:53:59.000Z</time></trkpt>
        <trkpt lat="28.713954" lon="104.734907"><ele>508.9064</ele><time>2026-01-16T20:54:36.000Z</time></trkpt>
        <trkpt lat="28.71391" lon="104.734943"><ele>507.2982</ele><time>2026-01-16T20:56:16.000Z</time></trkpt>
        <trkpt lat="28.713862" lon="104.734941"><ele>505.01813</ele><time>2026-01-16T20:56:24.000Z</time></trkpt>
        <trkpt lat="28.713812" lon="104.734941"><ele>503.412</ele><time>2026-01-16T20:56:29.000Z</time></trkpt>
        <trkpt lat="28.713778" lon="104.734976"><ele>500.26978</ele><time>2026-01-16T20:56:35.000Z</time></trkpt>
        <trkpt lat="28.71374" lon="104.73501"><ele>498.94412</ele><time>2026-01-16T20:56:42.000Z</time></trkpt>
        <trkpt lat="28.713716" lon="104.735067"><ele>496.60873</ele><time>2026-01-16T20:56:51.000Z</time></trkpt>
        <trkpt lat="28.713668" lon="104.735096"><ele>494.12906</ele><time>2026-01-16T20:56:58.000Z</time></trkpt>
        <trkpt lat="28.713633" lon="104.735127"><ele>493.26627</ele><time>2026-01-16T20:57:11.000Z</time></trkpt>
        <trkpt lat="28.713649" lon="104.735176"><ele>491.32083</ele><time>2026-01-16T20:57:24.000Z</time></trkpt>
        <trkpt lat="28.713672" lon="104.73522"><ele>491.8043</ele><time>2026-01-16T20:57:32.000Z</time></trkpt>
        <trkpt lat="28.713652" lon="104.735269"><ele>489.672</ele><time>2026-01-16T20:57:43.000Z</time></trkpt>
        <trkpt lat="28.713613" lon="104.735299"><ele>488.25946</ele><time>2026-01-16T20:57:54.000Z</time></trkpt>
        <trkpt lat="28.713593" lon="104.735359"><ele>487.03555</ele><time>2026-01-16T20:58:04.000Z</time></trkpt>
        <trkpt lat="28.713547" lon="104.735386"><ele>485.21088</ele><time>2026-01-16T20:58:12.000Z</time></trkpt>
        <trkpt lat="28.713517" lon="104.735426"><ele>482.68378</ele><time>2026-01-16T20:58:30.000Z</time></trkpt>
        <trkpt lat="28.713474" lon="104.73545"><ele>480.83368</ele><time>2026-01-16T20:58:37.000Z</time></trkpt>
        <trkpt lat="28.71343" lon="104.735476"><ele>481.1561</ele><time>2026-01-16T20:58:41.000Z</time></trkpt>
        <trkpt lat="28.713398" lon="104.735513"><ele>478.5169</ele><time>2026-01-16T20:58:51.000Z</time></trkpt>
        <trkpt lat="28.713357" lon="104.735544"><ele>477.06686</ele><time>2026-01-16T20:59:01.000Z</time></trkpt>
        <trkpt lat="28.713318" lon="104.735515"><ele>477.27148</ele><time>2026-01-16T20:59:06.000Z</time></trkpt>
        <trkpt lat="28.713272" lon="104.735505"><ele>476.6736</ele><time>2026-01-16T20:59:11.000Z</time></trkpt>
        <trkpt lat="28.713228" lon="104.73549"><ele>474.67032</ele><time>2026-01-16T20:59:22.000Z</time></trkpt>
        <trkpt lat="28.713186" lon="104.735511"><ele>473.42206</ele><time>2026-01-16T20:59:34.000Z</time></trkpt>
        <trkpt lat="28.713139" lon="104.735527"><ele>473.05435</ele><time>2026-01-16T20:59:41.000Z</time></trkpt>
        <trkpt lat="28.713078" lon="104.735496"><ele>471.85693</ele><time>2026-01-16T20:59:59.000Z</time></trkpt>
        <trkpt lat="28.713084" lon="104.735548"><ele>471.559</ele><time>2026-01-16T21:00:08.000Z</time></trkpt>
        <trkpt lat="28.713065" lon="104.735597"><ele>470.9682</ele><time>2026-01-16T21:00:19.000Z</time></trkpt>
        <trkpt lat="28.713019" lon="104.73562"><ele>469.4205</ele><time>2026-01-16T21:00:26.000Z</time></trkpt>
        <trkpt lat="28.713054" lon="104.735662"><ele>468.59555</ele><time>2026-01-16T21:00:41.000Z</time></trkpt>
        <trkpt lat="28.713074" lon="104.735713"><ele>468.46094</ele><time>2026-01-16T21:00:45.000Z</time></trkpt>
        <trkpt lat="28.713078" lon="104.735769"><ele>467.28586</ele><time>2026-01-16T21:00:50.000Z</time></trkpt>
        <trkpt lat="28.713084" lon="104.735834"><ele>465.99164</ele><time>2026-01-16T21:00:56.000Z</time></trkpt>
        <trkpt lat="28.713091" lon="104.735891"><ele>464.54626</ele><time>2026-01-16T21:01:04.000Z</time></trkpt>
        <trkpt lat="28.713095" lon="104.735943"><ele>465.00534</ele><time>2026-01-16T21:01:08.000Z</time></trkpt>
        <trkpt lat="28.71314" lon="104.735959"><ele>464.9216</ele><time>2026-01-16T21:01:12.000Z</time></trkpt>
        <trkpt lat="28.713195" lon="104.73597"><ele>465.35538</ele><time>2026-01-16T21:01:18.000Z</time></trkpt>
        <trkpt lat="28.713247" lon="104.735979"><ele>465.72818</ele><time>2026-01-16T21:01:24.000Z</time></trkpt>
        <trkpt lat="28.713303" lon="104.735988"><ele>466.83844</ele><time>2026-01-16T21:01:28.000Z</time></trkpt>
        <trkpt lat="28.713356" lon="104.735994"><ele>467.40353</ele><time>2026-01-16T21:01:34.000Z</time></trkpt>
        <trkpt lat="28.713403" lon="104.736021"><ele>468.44803</ele><time>2026-01-16T21:01:39.000Z</time></trkpt>
        <trkpt lat="28.71344" lon="104.736055"><ele>468.45306</ele><time>2026-01-16T21:01:44.000Z</time></trkpt>
        <trkpt lat="28.713479" lon="104.736093"><ele>467.36673</ele><time>2026-01-16T21:01:49.000Z</time></trkpt>
        <trkpt lat="28.713504" lon="104.736137"><ele>465.8484</ele><time>2026-01-16T21:01:54.000Z</time></trkpt>
        <trkpt lat="28.713532" lon="104.73619"><ele>464.93948</ele><time>2026-01-16T21:01:59.000Z</time></trkpt>
        <trkpt lat="28.713551" lon="104.736244"><ele>463.47043</ele><time>2026-01-16T21:02:16.000Z</time></trkpt>
        <trkpt lat="28.713585" lon="104.736287"><ele>463.09824</ele><time>2026-01-16T21:02:21.000Z</time></trkpt>
        <trkpt lat="28.713609" lon="104.736332"><ele>462.53134</ele><time>2026-01-16T21:02:25.000Z</time></trkpt>
        <trkpt lat="28.713631" lon="104.736384"><ele>461.97318</ele><time>2026-01-16T21:02:30.000Z</time></trkpt>
        <trkpt lat="28.713664" lon="104.736432"><ele>462.05484</ele><time>2026-01-16T21:02:35.000Z</time></trkpt>
        <trkpt lat="28.713681" lon="104.736482"><ele>462.30908</ele><time>2026-01-16T21:02:39.000Z</time></trkpt>
        <trkpt lat="28.713684" lon="104.736544"><ele>462.6926</ele><time>2026-01-16T21:02:44.000Z</time></trkpt>
        <trkpt lat="28.713684" lon="104.736596"><ele>464.79434</ele><time>2026-01-16T21:02:48.000Z</time></trkpt>
        <trkpt lat="28.713679" lon="104.736656"><ele>467.06738</ele><time>2026-01-16T21:02:53.000Z</time></trkpt>
        <trkpt lat="28.713668" lon="104.736708"><ele>467.76007</ele><time>2026-01-16T21:02:57.000Z</time></trkpt>
        <trkpt lat="28.713642" lon="104.736763"><ele>467.97995</ele><time>2026-01-16T21:03:02.000Z</time></trkpt>
        <trkpt lat="28.713616" lon="104.736809"><ele>467.5042</ele><time>2026-01-16T21:03:06.000Z</time></trkpt>
        <trkpt lat="28.713598" lon="104.73686"><ele>467.22086</ele><time>2026-01-16T21:03:11.000Z</time></trkpt>
        <trkpt lat="28.713585" lon="104.736912"><ele>467.03397</ele><time>2026-01-16T21:03:17.000Z</time></trkpt>
        <trkpt lat="28.713596" lon="104.73697"><ele>467.64612</ele><time>2026-01-16T21:03:22.000Z</time></trkpt>
        <trkpt lat="28.713627" lon="104.737017"><ele>467.4096</ele><time>2026-01-16T21:03:28.000Z</time></trkpt>
        <trkpt lat="28.713636" lon="104.737078"><ele>469.96982</ele><time>2026-01-16T21:03:33.000Z</time></trkpt>
        <trkpt lat="28.713641" lon="104.737133"><ele>469.02432</ele><time>2026-01-16T21:03:38.000Z</time></trkpt>
        <trkpt lat="28.713638" lon="104.737188"><ele>469.42484</ele><time>2026-01-16T21:03:43.000Z</time></trkpt>
        <trkpt lat="28.713624" lon="104.737247"><ele>469.41623</ele><time>2026-01-16T21:03:48.000Z</time></trkpt>
        <trkpt lat="28.713573" lon="104.737284"><ele>468.96228</ele><time>2026-01-16T21:03:52.000Z</time></trkpt>
        <trkpt lat="28.713532" lon="104.737308"><ele>468.8713</ele><time>2026-01-16T21:03:55.000Z</time></trkpt>
        <trkpt lat="28.713493" lon="104.737335"><ele>468.46793</ele><time>2026-01-16T21:03:58.000Z</time></trkpt>
        <trkpt lat="28.713455" lon="104.737374"><ele>467.597</ele><time>2026-01-16T21:04:02.000Z</time></trkpt>
        <trkpt lat="28.713427" lon="104.737425"><ele>466.4906</ele><time>2026-01-16T21:04:07.000Z</time></trkpt>
        <trkpt lat="28.713411" lon="104.73748"><ele>466.8929</ele><time>2026-01-16T21:04:14.000Z</time></trkpt>
        <trkpt lat="28.713401" lon="104.737537"><ele>465.84442</ele><time>2026-01-16T21:04:18.000Z</time></trkpt>
        <trkpt lat="28.713395" lon="104.737592"><ele>465.99146</ele><time>2026-01-16T21:04:22.000Z</time></trkpt>
        <trkpt lat="28.71339" lon="104.737647"><ele>465.31763</ele><time>2026-01-16T21:04:26.000Z</time></trkpt>
        <trkpt lat="28.713393" lon="104.737707"><ele>465.827</ele><time>2026-01-16T21:04:31.000Z</time></trkpt>
        <trkpt lat="28.713392" lon="104.73777"><ele>466.18445</ele><time>2026-01-16T21:04:36.000Z</time></trkpt>
        <trkpt lat="28.713392" lon="104.737822"><ele>465.64383</ele><time>2026-01-16T21:04:48.000Z</time></trkpt>
        <trkpt lat="28.7134" lon="104.737877"><ele>465.54794</ele><time>2026-01-16T21:04:52.000Z</time></trkpt>
        <trkpt lat="28.713426" lon="104.737926"><ele>465.31345</ele><time>2026-01-16T21:04:56.000Z</time></trkpt>
        <trkpt lat="28.71344" lon="104.73798"><ele>465.0284</ele><time>2026-01-16T21:05:00.000Z</time></trkpt>
        <trkpt lat="28.713468" lon="104.738024"><ele>464.80887</ele><time>2026-01-16T21:05:04.000Z</time></trkpt>
        <trkpt lat="28.713501" lon="104.738065"><ele>465.17386</ele><time>2026-01-16T21:05:12.000Z</time></trkpt>
        <trkpt lat="28.713528" lon="104.738107"><ele>465.1941</ele><time>2026-01-16T21:05:17.000Z</time></trkpt>
        <trkpt lat="28.713571" lon="104.738142"><ele>465.14648</ele><time>2026-01-16T21:05:23.000Z</time></trkpt>
        <trkpt lat="28.713608" lon="104.738181"><ele>465.3667</ele><time>2026-01-16T21:05:28.000Z</time></trkpt>
        <trkpt lat="28.713646" lon="104.738221"><ele>465.32803</ele><time>2026-01-16T21:05:33.000Z</time></trkpt>
        <trkpt lat="28.713682" lon="104.738257"><ele>464.83136</ele><time>2026-01-16T21:05:37.000Z</time></trkpt>
        <trkpt lat="28.713726" lon="104.73829"><ele>464.55347</ele><time>2026-01-16T21:05:41.000Z</time></trkpt>
        <trkpt lat="28.713774" lon="104.738303"><ele>464.55945</ele><time>2026-01-16T21:05:46.000Z</time></trkpt>
        <trkpt lat="28.713823" lon="104.738323"><ele>464.49387</ele><time>2026-01-16T21:05:51.000Z</time></trkpt>
        <trkpt lat="28.713873" lon="104.738321"><ele>464.44315</ele><time>2026-01-16T21:05:56.000Z</time></trkpt>
        <trkpt lat="28.713918" lon="104.738332"><ele>463.72894</ele><time>2026-01-16T21:06:00.000Z</time></trkpt>
        <trkpt lat="28.71397" lon="104.738346"><ele>464.76608</ele><time>2026-01-16T21:06:05.000Z</time></trkpt>
        <trkpt lat="28.714017" lon="104.738371"><ele>464.81143</ele><time>2026-01-16T21:06:10.000Z</time></trkpt>
        <trkpt lat="28.714063" lon="104.73841"><ele>464.9063</ele><time>2026-01-16T21:06:15.000Z</time></trkpt>
        <trkpt lat="28.714101" lon="104.738443"><ele>464.96512</ele><time>2026-01-16T21:06:21.000Z</time></trkpt>
        <trkpt lat="28.714133" lon="104.738482"><ele>464.8579</ele><time>2026-01-16T21:06:26.000Z</time></trkpt>
        <trkpt lat="28.714149" lon="104.738531"><ele>465.02234</ele><time>2026-01-16T21:06:31.000Z</time></trkpt>
        <trkpt lat="28.714153" lon="104.73859"><ele>464.6942</ele><time>2026-01-16T21:06:36.000Z</time></trkpt>
        <trkpt lat="28.714158" lon="104.738645"><ele>464.08502</ele><time>2026-01-16T21:06:41.000Z</time></trkpt>
        <trkpt lat="28.714171" lon="104.738694"><ele>462.97717</ele><time>2026-01-16T21:06:45.000Z</time></trkpt>
        <trkpt lat="28.714185" lon="104.738743"><ele>463.95767</ele><time>2026-01-16T21:06:49.000Z</time></trkpt>
        <trkpt lat="28.71421" lon="104.738797"><ele>462.61432</ele><time>2026-01-16T21:06:54.000Z</time></trkpt>
        <trkpt lat="28.714237" lon="104.738845"><ele>462.0888</ele><time>2026-01-16T21:06:59.000Z</time></trkpt>
        <trkpt lat="28.714259" lon="104.73889"><ele>462.16522</ele><time>2026-01-16T21:07:03.000Z</time></trkpt>
        <trkpt lat="28.7143" lon="104.738914"><ele>461.3753</ele><time>2026-01-16T21:07:08.000Z</time></trkpt>
        <trkpt lat="28.714333" lon="104.73895"><ele>461.73013</ele><time>2026-01-16T21:07:12.000Z</time></trkpt>
        <trkpt lat="28.714382" lon="104.738976"><ele>462.9791</ele><time>2026-01-16T21:07:17.000Z</time></trkpt>
        <trkpt lat="28.714427" lon="104.738997"><ele>464.03848</ele><time>2026-01-16T21:07:22.000Z</time></trkpt>
        <trkpt lat="28.714482" lon="104.739005"><ele>465.43524</ele><time>2026-01-16T21:07:28.000Z</time></trkpt>
        <trkpt lat="28.71453" lon="104.739004"><ele>466.37686</ele><time>2026-01-16T21:07:33.000Z</time></trkpt>
        <trkpt lat="28.714578" lon="104.739016"><ele>467.89337</ele><time>2026-01-16T21:07:38.000Z</time></trkpt>
        <trkpt lat="28.714614" lon="104.739054"><ele>469.0357</ele><time>2026-01-16T21:07:43.000Z</time></trkpt>
        <trkpt lat="28.714649" lon="104.739089"><ele>469.145</ele><time>2026-01-16T21:07:48.000Z</time></trkpt>
        <trkpt lat="28.714684" lon="104.739134"><ele>469.78717</ele><time>2026-01-16T21:07:54.000Z</time></trkpt>
        <trkpt lat="28.714707" lon="104.739181"><ele>469.82233</ele><time>2026-01-16T21:08:00.000Z</time></trkpt>
        <trkpt lat="28.714716" lon="104.739233"><ele>469.69095</ele><time>2026-01-16T21:08:06.000Z</time></trkpt>
        <trkpt lat="28.714696" lon="104.73929"><ele>470.84567</ele><time>2026-01-16T21:08:12.000Z</time></trkpt>
        <trkpt lat="28.714691" lon="104.739341"><ele>469.2326</ele><time>2026-01-16T21:08:17.000Z</time></trkpt>
        <trkpt lat="28.714674" lon="104.739405"><ele>468.58795</ele><time>2026-01-16T21:08:23.000Z</time></trkpt>
        <trkpt lat="28.714675" lon="104.73946"><ele>467.24402</ele><time>2026-01-16T21:08:29.000Z</time></trkpt>
        <trkpt lat="28.714665" lon="104.739519"><ele>466.7198</ele><time>2026-01-16T21:08:34.000Z</time></trkpt>
        <trkpt lat="28.714658" lon="104.739575"><ele>467.512</ele><time>2026-01-16T21:08:46.000Z</time></trkpt>
        <trkpt lat="28.714645" lon="104.739626"><ele>467.08908</ele><time>2026-01-16T21:08:51.000Z</time></trkpt>
        <trkpt lat="28.714617" lon="104.739675"><ele>467.39264</ele><time>2026-01-16T21:08:56.000Z</time></trkpt>
        <trkpt lat="28.714603" lon="104.739727"><ele>467.40515</ele><time>2026-01-16T21:09:01.000Z</time></trkpt>
        <trkpt lat="28.714567" lon="104.73977"><ele>467.29608</ele><time>2026-01-16T21:09:06.000Z</time></trkpt>
        <trkpt lat="28.714539" lon="104.739821"><ele>467.67963</ele><time>2026-01-16T21:09:14.000Z</time></trkpt>
        <trkpt lat="28.714528" lon="104.739877"><ele>466.97034</ele><time>2026-01-16T21:09:19.000Z</time></trkpt>
        <trkpt lat="28.714524" lon="104.73993"><ele>468.15927</ele><time>2026-01-16T21:09:23.000Z</time></trkpt>
        <trkpt lat="28.714486" lon="104.739964"><ele>467.70206</ele><time>2026-01-16T21:09:27.000Z</time></trkpt>
        <trkpt lat="28.714451" lon="104.740015"><ele>468.13626</ele><time>2026-01-16T21:09:31.000Z</time></trkpt>
        <trkpt lat="28.714419" lon="104.74006"><ele>467.245</ele><time>2026-01-16T21:09:36.000Z</time></trkpt>
        <trkpt lat="28.714366" lon="104.740075"><ele>466.5043</ele><time>2026-01-16T21:09:41.000Z</time></trkpt>
        <trkpt lat="28.71435" lon="104.740127"><ele>465.9139</ele><time>2026-01-16T21:09:46.000Z</time></trkpt>
        <trkpt lat="28.714314" lon="104.740179"><ele>465.4717</ele><time>2026-01-16T21:09:51.000Z</time></trkpt>
        <trkpt lat="28.714285" lon="104.740224"><ele>463.8017</ele><time>2026-01-16T21:09:55.000Z</time></trkpt>
        <trkpt lat="28.714255" lon="104.740266"><ele>463.24088</ele><time>2026-01-16T21:10:00.000Z</time></trkpt>
        <trkpt lat="28.714246" lon="104.740317"><ele>462.70416</ele><time>2026-01-16T21:10:04.000Z</time></trkpt>
        <trkpt lat="28.714254" lon="104.740374"><ele>462.05295</ele><time>2026-01-16T21:10:08.000Z</time></trkpt>
        <trkpt lat="28.714274" lon="104.740421"><ele>461.66095</ele><time>2026-01-16T21:10:12.000Z</time></trkpt>
        <trkpt lat="28.714317" lon="104.740458"><ele>461.35922</ele><time>2026-01-16T21:10:17.000Z</time></trkpt>
        <trkpt lat="28.714362" lon="104.740491"><ele>460.8755</ele><time>2026-01-16T21:10:23.000Z</time></trkpt>
        <trkpt lat="28.714422" lon="104.740505"><ele>461.2575</ele><time>2026-01-16T21:10:28.000Z</time></trkpt>
        <trkpt lat="28.714477" lon="104.740495"><ele>462.139</ele><time>2026-01-16T21:10:34.000Z</time></trkpt>
        <trkpt lat="28.714527" lon="104.740503"><ele>462.13385</ele><time>2026-01-16T21:10:39.000Z</time></trkpt>
        <trkpt lat="28.714579" lon="104.740523"><ele>462.40607</ele><time>2026-01-16T21:10:43.000Z</time></trkpt>
        <trkpt lat="28.714624" lon="104.740523"><ele>463.14706</ele><time>2026-01-16T21:10:47.000Z</time></trkpt>
        <trkpt lat="28.714679" lon="104.740544"><ele>463.77966</ele><time>2026-01-16T21:10:52.000Z</time></trkpt>
        <trkpt lat="28.714724" lon="104.740573"><ele>463.467</ele><time>2026-01-16T21:10:57.000Z</time></trkpt>
        <trkpt lat="28.714771" lon="104.740595"><ele>463.68976</ele><time>2026-01-16T21:11:01.000Z</time></trkpt>
        <trkpt lat="28.714817" lon="104.740606"><ele>463.69165</ele><time>2026-01-16T21:11:05.000Z</time></trkpt>
        <trkpt lat="28.714868" lon="104.740607"><ele>463.209</ele><time>2026-01-16T21:11:09.000Z</time></trkpt>
        <trkpt lat="28.71492" lon="104.740611"><ele>463.4903</ele><time>2026-01-16T21:11:13.000Z</time></trkpt>
        <trkpt lat="28.714965" lon="104.740623"><ele>463.79254</ele><time>2026-01-16T21:11:19.000Z</time></trkpt>
        <trkpt lat="28.715009" lon="104.740637"><ele>463.13324</ele><time>2026-01-16T21:11:22.000Z</time></trkpt>
        <trkpt lat="28.715062" lon="104.740625"><ele>462.66376</ele><time>2026-01-16T21:11:26.000Z</time></trkpt>
        <trkpt lat="28.715113" lon="104.740627"><ele>462.52478</ele><time>2026-01-16T21:11:30.000Z</time></trkpt>
        <trkpt lat="28.715158" lon="104.740639"><ele>462.60806</ele><time>2026-01-16T21:11:33.000Z</time></trkpt>
        <trkpt lat="28.715209" lon="104.740651"><ele>462.22577</ele><time>2026-01-16T21:11:38.000Z</time></trkpt>
        <trkpt lat="28.715249" lon="104.740695"><ele>462.01688</ele><time>2026-01-16T21:11:43.000Z</time></trkpt>
        <trkpt lat="28.715282" lon="104.74074"><ele>461.87137</ele><time>2026-01-16T21:11:47.000Z</time></trkpt>
        <trkpt lat="28.715299" lon="104.740788"><ele>461.98285</ele><time>2026-01-16T21:11:50.000Z</time></trkpt>
        <trkpt lat="28.715316" lon="104.740841"><ele>462.26315</ele><time>2026-01-16T21:11:54.000Z</time></trkpt>
        <trkpt lat="28.715335" lon="104.740895"><ele>463.28964</ele><time>2026-01-16T21:11:58.000Z</time></trkpt>
        <trkpt lat="28.715371" lon="104.740944"><ele>461.88522</ele><time>2026-01-16T21:12:03.000Z</time></trkpt>
        <trkpt lat="28.715393" lon="104.740998"><ele>462.00244</ele><time>2026-01-16T21:12:07.000Z</time></trkpt>
        <trkpt lat="28.715452" lon="104.741032"><ele>461.60516</ele><time>2026-01-16T21:12:12.000Z</time></trkpt>
        <trkpt lat="28.715515" lon="104.741051"><ele>461.01447</ele><time>2026-01-16T21:12:18.000Z</time></trkpt>
        <trkpt lat="28.715565" lon="104.741034"><ele>460.83963</ele><time>2026-01-16T21:12:23.000Z</time></trkpt>
        <trkpt lat="28.715613" lon="104.741019"><ele>462.0529</ele><time>2026-01-16T21:12:27.000Z</time></trkpt>
        <trkpt lat="28.715661" lon="104.741036"><ele>463.39453</ele><time>2026-01-16T21:12:30.000Z</time></trkpt>
        <trkpt lat="28.715705" lon="104.741071"><ele>463.441</ele><time>2026-01-16T21:12:35.000Z</time></trkpt>
        <trkpt lat="28.715736" lon="104.741111"><ele>463.07956</ele><time>2026-01-16T21:12:39.000Z</time></trkpt>
        <trkpt lat="28.715762" lon="104.741171"><ele>463.37344</ele><time>2026-01-16T21:12:44.000Z</time></trkpt>
        <trkpt lat="28.715772" lon="104.741232"><ele>465.5634</ele><time>2026-01-16T21:12:48.000Z</time></trkpt>
        <trkpt lat="28.715752" lon="104.741286"><ele>464.88693</ele><time>2026-01-16T21:12:53.000Z</time></trkpt>
        <trkpt lat="28.715726" lon="104.741329"><ele>465.67056</ele><time>2026-01-16T21:12:57.000Z</time></trkpt>
        <trkpt lat="28.715722" lon="104.741391"><ele>465.00754</ele><time>2026-01-16T21:13:01.000Z</time></trkpt>
        <trkpt lat="28.71575" lon="104.741451"><ele>465.89783</ele><time>2026-01-16T21:13:06.000Z</time></trkpt>
        <trkpt lat="28.715746" lon="104.741504"><ele>465.7878</ele><time>2026-01-16T21:13:09.000Z</time></trkpt>
        <trkpt lat="28.715741" lon="104.74156"><ele>465.86032</ele><time>2026-01-16T21:13:13.000Z</time></trkpt>
        <trkpt lat="28.71574" lon="104.741615"><ele>464.55634</ele><time>2026-01-16T21:13:17.000Z</time></trkpt>
        <trkpt lat="28.715755" lon="104.74168"><ele>464.04224</ele><time>2026-01-16T21:13:22.000Z</time></trkpt>
        <trkpt lat="28.715778" lon="104.741729"><ele>464.01038</ele><time>2026-01-16T21:13:26.000Z</time></trkpt>
        <trkpt lat="28.715814" lon="104.741777"><ele>464.0699</ele><time>2026-01-16T21:13:30.000Z</time></trkpt>
        <trkpt lat="28.715858" lon="104.741802"><ele>464.3731</ele><time>2026-01-16T21:13:35.000Z</time></trkpt>
        <trkpt lat="28.715913" lon="104.74181"><ele>465.02118</ele><time>2026-01-16T21:13:39.000Z</time></trkpt>
        <trkpt lat="28.71596" lon="104.741816"><ele>466.19772</ele><time>2026-01-16T21:13:43.000Z</time></trkpt>
        <trkpt lat="28.716011" lon="104.741835"><ele>467.07077</ele><time>2026-01-16T21:13:49.000Z</time></trkpt>
        <trkpt lat="28.716048" lon="104.741875"><ele>467.57736</ele><time>2026-01-16T21:13:52.000Z</time></trkpt>
        <trkpt lat="28.716081" lon="104.741915"><ele>467.4409</ele><time>2026-01-16T21:13:56.000Z</time></trkpt>
        <trkpt lat="28.716085" lon="104.741975"><ele>466.19128</ele><time>2026-01-16T21:13:59.000Z</time></trkpt>
        <trkpt lat="28.716078" lon="104.742036"><ele>465.77414</ele><time>2026-01-16T21:14:03.000Z</time></trkpt>
        <trkpt lat="28.716085" lon="104.742087"><ele>464.98703</ele><time>2026-01-16T21:14:07.000Z</time></trkpt>
        <trkpt lat="28.716093" lon="104.742143"><ele>463.89612</ele><time>2026-01-16T21:14:11.000Z</time></trkpt>
        <trkpt lat="28.716094" lon="104.742197"><ele>462.6926</ele><time>2026-01-16T21:14:16.000Z</time></trkpt>
        <trkpt lat="28.716123" lon="104.742247"><ele>463.30994</ele><time>2026-01-16T21:14:20.000Z</time></trkpt>
        <trkpt lat="28.716169" lon="104.742283"><ele>462.9623</ele><time>2026-01-16T21:14:25.000Z</time></trkpt>
        <trkpt lat="28.71623" lon="104.742291"><ele>464.28967</ele><time>2026-01-16T21:14:30.000Z</time></trkpt>
        <trkpt lat="28.716275" lon="104.742307"><ele>465.1615</ele><time>2026-01-16T21:14:34.000Z</time></trkpt>
        <trkpt lat="28.716317" lon="104.742329"><ele>465.95474</ele><time>2026-01-16T21:14:37.000Z</time></trkpt>
        <trkpt lat="28.716342" lon="104.742373"><ele>466.17346</ele><time>2026-01-16T21:14:42.000Z</time></trkpt>
        <trkpt lat="28.716377" lon="104.742408"><ele>465.57654</ele><time>2026-01-16T21:14:47.000Z</time></trkpt>
        <trkpt lat="28.716411" lon="104.742443"><ele>465.03247</ele><time>2026-01-16T21:14:51.000Z</time></trkpt>
        <trkpt lat="28.716457" lon="104.742474"><ele>464.95984</ele><time>2026-01-16T21:14:56.000Z</time></trkpt>
        <trkpt lat="28.716497" lon="104.7425"><ele>464.26025</ele><time>2026-01-16T21:14:59.000Z</time></trkpt>
        <trkpt lat="28.71654" lon="104.742537"><ele>465.56415</ele><time>2026-01-16T21:15:04.000Z</time></trkpt>
        <trkpt lat="28.716579" lon="104.742583"><ele>465.9521</ele><time>2026-01-16T21:15:08.000Z</time></trkpt>
        <trkpt lat="28.716617" lon="104.742624"><ele>467.6519</ele><time>2026-01-16T21:15:13.000Z</time></trkpt>
        <trkpt lat="28.716645" lon="104.742677"><ele>467.74506</ele><time>2026-01-16T21:15:17.000Z</time></trkpt>
        <trkpt lat="28.716662" lon="104.742737"><ele>465.65042</ele><time>2026-01-16T21:15:22.000Z</time></trkpt>
        <trkpt lat="28.716677" lon="104.742791"><ele>465.59558</ele><time>2026-01-16T21:15:26.000Z</time></trkpt>
        <trkpt lat="28.716693" lon="104.74284"><ele>464.51083</ele><time>2026-01-16T21:15:30.000Z</time></trkpt>
        <trkpt lat="28.716663" lon="104.742885"><ele>464.68985</ele><time>2026-01-16T21:15:33.000Z</time></trkpt>
        <trkpt lat="28.716653" lon="104.742937"><ele>463.03235</ele><time>2026-01-16T21:15:37.000Z</time></trkpt>
        <trkpt lat="28.716643" lon="104.74299"><ele>462.54172</ele><time>2026-01-16T21:15:42.000Z</time></trkpt>
        <trkpt lat="28.716626" lon="104.743039"><ele>461.65378</ele><time>2026-01-16T21:15:46.000Z</time></trkpt>
        <trkpt lat="28.716609" lon="104.743102"><ele>460.2281</ele><time>2026-01-16T21:15:52.000Z</time></trkpt>
        <trkpt lat="28.716611" lon="104.743157"><ele>459.06677</ele><time>2026-01-16T21:15:57.000Z</time></trkpt>
        <trkpt lat="28.716629" lon="104.743205"><ele>458.63007</ele><time>2026-01-16T21:16:00.000Z</time></trkpt>
        <trkpt lat="28.716654" lon="104.743248"><ele>458.8416</ele><time>2026-01-16T21:16:04.000Z</time></trkpt>
        <trkpt lat="28.716703" lon="104.74325"><ele>458.45523</ele><time>2026-01-16T21:16:08.000Z</time></trkpt>
        <trkpt lat="28.716751" lon="104.743224"><ele>459.1752</ele><time>2026-01-16T21:16:13.000Z</time></trkpt>
        <trkpt lat="28.716802" lon="104.743205"><ele>458.50504</ele><time>2026-01-16T21:16:17.000Z</time></trkpt>
        <trkpt lat="28.71685" lon="104.743184"><ele>458.90866</ele><time>2026-01-16T21:16:22.000Z</time></trkpt>
        <trkpt lat="28.716896" lon="104.743158"><ele>459.09647</ele><time>2026-01-16T21:16:26.000Z</time></trkpt>
        <trkpt lat="28.716943" lon="104.74315"><ele>458.95193</ele><time>2026-01-16T21:16:30.000Z</time></trkpt>
        <trkpt lat="28.716985" lon="104.743126"><ele>458.6387</ele><time>2026-01-16T21:16:35.000Z</time></trkpt>
        <trkpt lat="28.717018" lon="104.743083"><ele>458.7966</ele><time>2026-01-16T21:16:39.000Z</time></trkpt>
        <trkpt lat="28.717059" lon="104.743058"><ele>458.58603</ele><time>2026-01-16T21:16:44.000Z</time></trkpt>
        <trkpt lat="28.717102" lon="104.743028"><ele>458.6338</ele><time>2026-01-16T21:16:48.000Z</time></trkpt>
        <trkpt lat="28.717157" lon="104.743014"><ele>458.022</ele><time>2026-01-16T21:16:54.000Z</time></trkpt>
        <trkpt lat="28.717205" lon="104.743002"><ele>458.58673</ele><time>2026-01-16T21:16:59.000Z</time></trkpt>
        <trkpt lat="28.71725" lon="104.742993"><ele>458.10028</ele><time>2026-01-16T21:17:09.000Z</time></trkpt>
        <trkpt lat="28.717297" lon="104.743031"><ele>457.2564</ele><time>2026-01-16T21:17:13.000Z</time></trkpt>
        <trkpt lat="28.717339" lon="104.74307"><ele>456.39868</ele><time>2026-01-16T21:17:18.000Z</time></trkpt>
        <trkpt lat="28.717383" lon="104.743102"><ele>456.22372</ele><time>2026-01-16T21:17:22.000Z</time></trkpt>
        <trkpt lat="28.717428" lon="104.743136"><ele>456.40918</ele><time>2026-01-16T21:17:26.000Z</time></trkpt>
        <trkpt lat="28.71747" lon="104.74317"><ele>457.16974</ele><time>2026-01-16T21:17:31.000Z</time></trkpt>
        <trkpt lat="28.71751" lon="104.743211"><ele>457.3459</ele><time>2026-01-16T21:17:35.000Z</time></trkpt>
        <trkpt lat="28.717553" lon="104.74325"><ele>458.93246</ele><time>2026-01-16T21:17:39.000Z</time></trkpt>
        <trkpt lat="28.71758" lon="104.743293"><ele>460.86362</ele><time>2026-01-16T21:17:43.000Z</time></trkpt>
        <trkpt lat="28.717603" lon="104.74334"><ele>463.56232</ele><time>2026-01-16T21:17:49.000Z</time></trkpt>
        <trkpt lat="28.717633" lon="104.743385"><ele>466.163</ele><time>2026-01-16T21:17:59.000Z</time></trkpt>
        <trkpt lat="28.717629" lon="104.74345"><ele>465.96738</ele><time>2026-01-16T21:18:05.000Z</time></trkpt>
        <trkpt lat="28.717635" lon="104.743501"><ele>467.14136</ele><time>2026-01-16T21:18:10.000Z</time></trkpt>
        <trkpt lat="28.717615" lon="104.743566"><ele>467.22287</ele><time>2026-01-16T21:18:16.000Z</time></trkpt>
        <trkpt lat="28.717598" lon="104.743618"><ele>466.8285</ele><time>2026-01-16T21:18:21.000Z</time></trkpt>
        <trkpt lat="28.717576" lon="104.743673"><ele>466.05746</ele><time>2026-01-16T21:18:25.000Z</time></trkpt>
        <trkpt lat="28.717547" lon="104.743731"><ele>465.5759</ele><time>2026-01-16T21:18:30.000Z</time></trkpt>
        <trkpt lat="28.717541" lon="104.743789"><ele>464.06857</ele><time>2026-01-16T21:18:42.000Z</time></trkpt>
        <trkpt lat="28.717528" lon="104.743841"><ele>463.51715</ele><time>2026-01-16T21:18:53.000Z</time></trkpt>
        <trkpt lat="28.717512" lon="104.743898"><ele>463.20767</ele><time>2026-01-16T21:18:58.000Z</time></trkpt>
        <trkpt lat="28.717494" lon="104.743946"><ele>462.85123</ele><time>2026-01-16T21:19:02.000Z</time></trkpt>
        <trkpt lat="28.717482" lon="104.744002"><ele>462.41183</ele><time>2026-01-16T21:19:07.000Z</time></trkpt>
        <trkpt lat="28.717463" lon="104.744052"><ele>461.83823</ele><time>2026-01-16T21:19:12.000Z</time></trkpt>
        <trkpt lat="28.71745" lon="104.744115"><ele>460.6423</ele><time>2026-01-16T21:19:18.000Z</time></trkpt>
        <trkpt lat="28.717443" lon="104.744166"><ele>460.32825</ele><time>2026-01-16T21:19:21.000Z</time></trkpt>
        <trkpt lat="28.717449" lon="104.744219"><ele>460.05502</ele><time>2026-01-16T21:19:25.000Z</time></trkpt>
        <trkpt lat="28.717456" lon="104.744281"><ele>459.38217</ele><time>2026-01-16T21:19:29.000Z</time></trkpt>
        <trkpt lat="28.7175" lon="104.744325"><ele>459.1547</ele><time>2026-01-16T21:19:33.000Z</time></trkpt>
        <trkpt lat="28.717535" lon="104.744358"><ele>458.34177</ele><time>2026-01-16T21:19:36.000Z</time></trkpt>
        <trkpt lat="28.717558" lon="104.744404"><ele>458.572</ele><time>2026-01-16T21:19:40.000Z</time></trkpt>
        <trkpt lat="28.717596" lon="104.744436"><ele>457.00452</ele><time>2026-01-16T21:19:45.000Z</time></trkpt>
        <trkpt lat="28.717631" lon="104.744481"><ele>456.6031</ele><time>2026-01-16T21:19:50.000Z</time></trkpt>
        <trkpt lat="28.717683" lon="104.744512"><ele>456.81396</ele><time>2026-01-16T21:19:54.000Z</time></trkpt>
        <trkpt lat="28.71772" lon="104.744551"><ele>456.95868</ele><time>2026-01-16T21:19:57.000Z</time></trkpt>
        <trkpt lat="28.717754" lon="104.744591"><ele>456.9402</ele><time>2026-01-16T21:20:01.000Z</time></trkpt>
        <trkpt lat="28.717786" lon="104.744628"><ele>456.82913</ele><time>2026-01-16T21:20:05.000Z</time></trkpt>
        <trkpt lat="28.717809" lon="104.744688"><ele>456.49875</ele><time>2026-01-16T21:20:11.000Z</time></trkpt>
        <trkpt lat="28.717826" lon="104.744739"><ele>456.5086</ele><time>2026-01-16T21:20:15.000Z</time></trkpt>
        <trkpt lat="28.717812" lon="104.744791"><ele>458.12817</ele><time>2026-01-16T21:20:25.000Z</time></trkpt>
        <trkpt lat="28.717805" lon="104.74485"><ele>457.57416</ele><time>2026-01-16T21:20:39.000Z</time></trkpt>
        <trkpt lat="28.717845" lon="104.744889"><ele>457.48636</ele><time>2026-01-16T21:20:44.000Z</time></trkpt>
        <trkpt lat="28.717884" lon="104.744935"><ele>458.36087</ele><time>2026-01-16T21:20:48.000Z</time></trkpt>
        <trkpt lat="28.717912" lon="104.744976"><ele>458.80936</ele><time>2026-01-16T21:20:52.000Z</time></trkpt>
        <trkpt lat="28.717912" lon="104.745036"><ele>459.45413</ele><time>2026-01-16T21:20:56.000Z</time></trkpt>
        <trkpt lat="28.717915" lon="104.745089"><ele>460.60013</ele><time>2026-01-16T21:21:00.000Z</time></trkpt>
        <trkpt lat="28.717921" lon="104.745157"><ele>461.76132</ele><time>2026-01-16T21:21:05.000Z</time></trkpt>
        <trkpt lat="28.717916" lon="104.745216"><ele>462.15985</ele><time>2026-01-16T21:21:09.000Z</time></trkpt>
        <trkpt lat="28.717882" lon="104.745262"><ele>462.08826</ele><time>2026-01-16T21:21:12.000Z</time></trkpt>
        <trkpt lat="28.71785" lon="104.745318"><ele>460.76675</ele><time>2026-01-16T21:21:16.000Z</time></trkpt>
        <trkpt lat="28.717818" lon="104.745355"><ele>459.1099</ele><time>2026-01-16T21:21:19.000Z</time></trkpt>
        <trkpt lat="28.717791" lon="104.745397"><ele>458.99347</ele><time>2026-01-16T21:21:22.000Z</time></trkpt>
        <trkpt lat="28.717759" lon="104.745461"><ele>458.10934</ele><time>2026-01-16T21:21:27.000Z</time></trkpt>
        <trkpt lat="28.717726" lon="104.745509"><ele>456.4147</ele><time>2026-01-16T21:21:32.000Z</time></trkpt>
        <trkpt lat="28.717691" lon="104.745559"><ele>457.11185</ele><time>2026-01-16T21:21:36.000Z</time></trkpt>
        <trkpt lat="28.717659" lon="104.745604"><ele>457.2558</ele><time>2026-01-16T21:21:40.000Z</time></trkpt>
        <trkpt lat="28.717621" lon="104.745633"><ele>458.21832</ele><time>2026-01-16T21:21:44.000Z</time></trkpt>
        <trkpt lat="28.717587" lon="104.74568"><ele>458.12393</ele><time>2026-01-16T21:21:56.000Z</time></trkpt>
        <trkpt lat="28.717574" lon="104.745732"><ele>458.03018</ele><time>2026-01-16T21:22:02.000Z</time></trkpt>
        <trkpt lat="28.717537" lon="104.745761"><ele>457.2207</ele><time>2026-01-16T21:22:06.000Z</time></trkpt>
        <trkpt lat="28.717479" lon="104.745758"><ele>457.25998</ele><time>2026-01-16T21:22:26.000Z</time></trkpt>
        <trkpt lat="28.717438" lon="104.745799"><ele>457.2463</ele><time>2026-01-16T21:22:30.000Z</time></trkpt>
        <trkpt lat="28.717399" lon="104.745855"><ele>457.84094</ele><time>2026-01-16T21:22:34.000Z</time></trkpt>
        <trkpt lat="28.717359" lon="104.745885"><ele>457.68222</ele><time>2026-01-16T21:22:38.000Z</time></trkpt>
        <trkpt lat="28.717312" lon="104.745926"><ele>458.11542</ele><time>2026-01-16T21:22:43.000Z</time></trkpt>
        <trkpt lat="28.717282" lon="104.745977"><ele>458.47208</ele><time>2026-01-16T21:22:47.000Z</time></trkpt>
        <trkpt lat="28.71723" lon="104.74601"><ele>457.94308</ele><time>2026-01-16T21:22:52.000Z</time></trkpt>
        <trkpt lat="28.717194" lon="104.746041"><ele>458.3672</ele><time>2026-01-16T21:22:56.000Z</time></trkpt>
        <trkpt lat="28.717158" lon="104.746078"><ele>458.8852</ele><time>2026-01-16T21:23:00.000Z</time></trkpt>
        <trkpt lat="28.717126" lon="104.746115"><ele>459.1517</ele><time>2026-01-16T21:23:04.000Z</time></trkpt>
        <trkpt lat="28.717173" lon="104.746161"><ele>459.5388</ele><time>2026-01-16T21:23:11.000Z</time></trkpt>
        <trkpt lat="28.717188" lon="104.746227"><ele>459.36334</ele><time>2026-01-16T21:23:17.000Z</time></trkpt>
        <trkpt lat="28.717165" lon="104.746283"><ele>459.30777</ele><time>2026-01-16T21:23:22.000Z</time></trkpt>
        <trkpt lat="28.71713" lon="104.746332"><ele>459.49896</ele><time>2026-01-16T21:23:26.000Z</time></trkpt>
        <trkpt lat="28.717121" lon="104.746385"><ele>460.29108</ele><time>2026-01-16T21:23:30.000Z</time></trkpt>
        <trkpt lat="28.717119" lon="104.746444"><ele>461.765</ele><time>2026-01-16T21:23:35.000Z</time></trkpt>
        <trkpt lat="28.717111" lon="104.746502"><ele>461.36774</ele><time>2026-01-16T21:23:40.000Z</time></trkpt>
        <trkpt lat="28.717098" lon="104.746553"><ele>462.31476</ele><time>2026-01-16T21:23:45.000Z</time></trkpt>
        <trkpt lat="28.71711" lon="104.746606"><ele>463.0276</ele><time>2026-01-16T21:23:49.000Z</time></trkpt>
        <trkpt lat="28.717127" lon="104.746665"><ele>463.0807</ele><time>2026-01-16T21:23:54.000Z</time></trkpt>
        <trkpt lat="28.717143" lon="104.746715"><ele>464.08005</ele><time>2026-01-16T21:23:58.000Z</time></trkpt>
        <trkpt lat="28.717153" lon="104.746765"><ele>463.1143</ele><time>2026-01-16T21:24:02.000Z</time></trkpt>
        <trkpt lat="28.717138" lon="104.746826"><ele>463.55954</ele><time>2026-01-16T21:24:06.000Z</time></trkpt>
        <trkpt lat="28.717096" lon="104.746874"><ele>462.7151</ele><time>2026-01-16T21:24:10.000Z</time></trkpt>
        <trkpt lat="28.717065" lon="104.74692"><ele>461.18222</ele><time>2026-01-16T21:24:14.000Z</time></trkpt>
        <trkpt lat="28.717061" lon="104.746973"><ele>460.3051</ele><time>2026-01-16T21:24:18.000Z</time></trkpt>
        <trkpt lat="28.71707" lon="104.747024"><ele>459.10245</ele><time>2026-01-16T21:24:22.000Z</time></trkpt>
        <trkpt lat="28.717112" lon="104.747065"><ele>459.19055</ele><time>2026-01-16T21:24:29.000Z</time></trkpt>
        <trkpt lat="28.717127" lon="104.747114"><ele>459.20645</ele><time>2026-01-16T21:24:33.000Z</time></trkpt>
        <trkpt lat="28.717116" lon="104.747176"><ele>458.95392</ele><time>2026-01-16T21:24:38.000Z</time></trkpt>
        <trkpt lat="28.71709" lon="104.747234"><ele>458.79404</ele><time>2026-01-16T21:24:42.000Z</time></trkpt>
        <trkpt lat="28.71706" lon="104.747278"><ele>457.98663</ele><time>2026-01-16T21:24:46.000Z</time></trkpt>
        <trkpt lat="28.717071" lon="104.747329"><ele>457.26358</ele><time>2026-01-16T21:24:51.000Z</time></trkpt>
        <trkpt lat="28.717102" lon="104.747384"><ele>456.38504</ele><time>2026-01-16T21:24:55.000Z</time></trkpt>
        <trkpt lat="28.717132" lon="104.747435"><ele>457.78687</ele><time>2026-01-16T21:25:01.000Z</time></trkpt>
        <trkpt lat="28.717168" lon="104.74748"><ele>458.23837</ele><time>2026-01-16T21:25:07.000Z</time></trkpt>
        <trkpt lat="28.717216" lon="104.747522"><ele>459.19415</ele><time>2026-01-16T21:25:16.000Z</time></trkpt>
        <trkpt lat="28.717231" lon="104.747581"><ele>458.36722</ele><time>2026-01-16T21:25:27.000Z</time></trkpt>
        <trkpt lat="28.717211" lon="104.747638"><ele>459.03094</ele><time>2026-01-16T21:25:30.000Z</time></trkpt>
        <trkpt lat="28.717208" lon="104.747705"><ele>458.15152</ele><time>2026-01-16T21:25:34.000Z</time></trkpt>
        <trkpt lat="28.717209" lon="104.747759"><ele>458.67453</ele><time>2026-01-16T21:25:38.000Z</time></trkpt>
        <trkpt lat="28.717207" lon="104.747819"><ele>458.6263</ele><time>2026-01-16T21:25:44.000Z</time></trkpt>
        <trkpt lat="28.71722" lon="104.747871"><ele>459.14636</ele><time>2026-01-16T21:25:48.000Z</time></trkpt>
        <trkpt lat="28.717206" lon="104.747933"><ele>459.28833</ele><time>2026-01-16T21:25:51.000Z</time></trkpt>
        <trkpt lat="28.717224" lon="104.747982"><ele>459.44418</ele><time>2026-01-16T21:25:54.000Z</time></trkpt>
        <trkpt lat="28.717231" lon="104.748033"><ele>459.50058</ele><time>2026-01-16T21:25:58.000Z</time></trkpt>
        <trkpt lat="28.717251" lon="104.74808"><ele>459.81683</ele><time>2026-01-16T21:26:01.000Z</time></trkpt>
        <trkpt lat="28.717271" lon="104.748132"><ele>460.2167</ele><time>2026-01-16T21:26:05.000Z</time></trkpt>
        <trkpt lat="28.717284" lon="104.748196"><ele>460.56805</ele><time>2026-01-16T21:26:09.000Z</time></trkpt>
        <trkpt lat="28.717284" lon="104.748251"><ele>459.64047</ele><time>2026-01-16T21:26:13.000Z</time></trkpt>
        <trkpt lat="28.71727" lon="104.748304"><ele>459.65857</ele><time>2026-01-16T21:26:17.000Z</time></trkpt>
        <trkpt lat="28.717259" lon="104.748357"><ele>458.9043</ele><time>2026-01-16T21:26:21.000Z</time></trkpt>
        <trkpt lat="28.71723" lon="104.748397"><ele>458.47217</ele><time>2026-01-16T21:26:24.000Z</time></trkpt>
        <trkpt lat="28.7172" lon="104.748441"><ele>458.42493</ele><time>2026-01-16T21:26:28.000Z</time></trkpt>
        <trkpt lat="28.717172" lon="104.748483"><ele>457.6135</ele><time>2026-01-16T21:26:32.000Z</time></trkpt>
        <trkpt lat="28.717179" lon="104.748534"><ele>457.5216</ele><time>2026-01-16T21:26:35.000Z</time></trkpt>
        <trkpt lat="28.717203" lon="104.748588"><ele>457.54553</ele><time>2026-01-16T21:26:40.000Z</time></trkpt>
        <trkpt lat="28.717236" lon="104.748635"><ele>457.0866</ele><time>2026-01-16T21:26:44.000Z</time></trkpt>
        <trkpt lat="28.717245" lon="104.748686"><ele>457.4534</ele><time>2026-01-16T21:26:50.000Z</time></trkpt>
        <trkpt lat="28.717285" lon="104.748713"><ele>458.09418</ele><time>2026-01-16T21:26:56.000Z</time></trkpt>
        <trkpt lat="28.71731" lon="104.748767"><ele>457.681</ele><time>2026-01-16T21:27:02.000Z</time></trkpt>
        <trkpt lat="28.717355" lon="104.748782"><ele>458.5318</ele><time>2026-01-16T21:27:07.000Z</time></trkpt>
        <trkpt lat="28.717408" lon="104.748786"><ele>459.21344</ele><time>2026-01-16T21:27:11.000Z</time></trkpt>
        <trkpt lat="28.717455" lon="104.748766"><ele>460.33612</ele><time>2026-01-16T21:27:16.000Z</time></trkpt>
        <trkpt lat="28.7175" lon="104.748745"><ele>459.2926</ele><time>2026-01-16T21:27:53.000Z</time></trkpt>
        <trkpt lat="28.717549" lon="104.748731"><ele>459.28644</ele><time>2026-01-16T21:27:58.000Z</time></trkpt>
        <trkpt lat="28.717596" lon="104.748703"><ele>458.67883</ele><time>2026-01-16T21:28:03.000Z</time></trkpt>
        <trkpt lat="28.717649" lon="104.748693"><ele>458.3236</ele><time>2026-01-16T21:28:08.000Z</time></trkpt>
        <trkpt lat="28.717689" lon="104.748667"><ele>458.518</ele><time>2026-01-16T21:28:12.000Z</time></trkpt>
        <trkpt lat="28.71774" lon="104.74866"><ele>457.85626</ele><time>2026-01-16T21:28:16.000Z</time></trkpt>
        <trkpt lat="28.717791" lon="104.74865"><ele>457.86426</ele><time>2026-01-16T21:28:20.000Z</time></trkpt>
        <trkpt lat="28.717836" lon="104.748652"><ele>457.07596</ele><time>2026-01-16T21:28:24.000Z</time></trkpt>
        <trkpt lat="28.717875" lon="104.748618"><ele>457.70245</ele><time>2026-01-16T21:28:28.000Z</time></trkpt>
        <trkpt lat="28.717927" lon="104.748598"><ele>456.97247</ele><time>2026-01-16T21:28:33.000Z</time></trkpt>
        <trkpt lat="28.717972" lon="104.748587"><ele>457.61493</ele><time>2026-01-16T21:28:37.000Z</time></trkpt>
        <trkpt lat="28.718008" lon="104.748536"><ele>457.10822</ele><time>2026-01-16T21:28:41.000Z</time></trkpt>
        <trkpt lat="28.718065" lon="104.748534"><ele>457.39703</ele><time>2026-01-16T21:28:46.000Z</time></trkpt>
        <trkpt lat="28.718118" lon="104.748516"><ele>456.97183</ele><time>2026-01-16T21:28:51.000Z</time></trkpt>
        <trkpt lat="28.718165" lon="104.748513"><ele>456.71994</ele><time>2026-01-16T21:28:55.000Z</time></trkpt>
        <trkpt lat="28.718214" lon="104.748495"><ele>456.84036</ele><time>2026-01-16T21:28:59.000Z</time></trkpt>
        <trkpt lat="28.718266" lon="104.748485"><ele>456.685</ele><time>2026-01-16T21:29:03.000Z</time></trkpt>
        <trkpt lat="28.718317" lon="104.748492"><ele>455.66312</ele><time>2026-01-16T21:29:07.000Z</time></trkpt>
        <trkpt lat="28.718372" lon="104.748474"><ele>456.25864</ele><time>2026-01-16T21:29:11.000Z</time></trkpt>
        <trkpt lat="28.718428" lon="104.748484"><ele>456.26614</ele><time>2026-01-16T21:29:16.000Z</time></trkpt>
        <trkpt lat="28.718481" lon="104.748472"><ele>455.92065</ele><time>2026-01-16T21:29:21.000Z</time></trkpt>
        <trkpt lat="28.718511" lon="104.748431"><ele>457.04776</ele><time>2026-01-16T21:29:34.000Z</time></trkpt>
        <trkpt lat="28.71856" lon="104.748433"><ele>456.33072</ele><time>2026-01-16T21:29:40.000Z</time></trkpt>
        <trkpt lat="28.718609" lon="104.748445"><ele>455.93933</ele><time>2026-01-16T21:29:43.000Z</time></trkpt>
        <trkpt lat="28.718663" lon="104.748434"><ele>456.57486</ele><time>2026-01-16T21:29:49.000Z</time></trkpt>
        <trkpt lat="28.718699" lon="104.748401"><ele>455.94064</ele><time>2026-01-16T21:29:52.000Z</time></trkpt>
        <trkpt lat="28.718748" lon="104.748382"><ele>456.15604</ele><time>2026-01-16T21:29:57.000Z</time></trkpt>
        <trkpt lat="28.718799" lon="104.748395"><ele>455.86453</ele><time>2026-01-16T21:30:01.000Z</time></trkpt>
        <trkpt lat="28.718845" lon="104.748411"><ele>455.83096</ele><time>2026-01-16T21:30:05.000Z</time></trkpt>
        <trkpt lat="28.718897" lon="104.748427"><ele>455.53226</ele><time>2026-01-16T21:30:09.000Z</time></trkpt>
        <trkpt lat="28.718941" lon="104.748453"><ele>454.93597</ele><time>2026-01-16T21:30:13.000Z</time></trkpt>
        <trkpt lat="28.718982" lon="104.748494"><ele>455.70782</ele><time>2026-01-16T21:30:17.000Z</time></trkpt>
        <trkpt lat="28.719008" lon="104.748536"><ele>455.8636</ele><time>2026-01-16T21:30:20.000Z</time></trkpt>
        <trkpt lat="28.719049" lon="104.748565"><ele>457.02686</ele><time>2026-01-16T21:30:23.000Z</time></trkpt>
        <trkpt lat="28.719083" lon="104.74862"><ele>457.6997</ele><time>2026-01-16T21:30:27.000Z</time></trkpt>
        <trkpt lat="28.719086" lon="104.748678"><ele>458.58673</ele><time>2026-01-16T21:30:31.000Z</time></trkpt>
        <trkpt lat="28.719062" lon="104.748734"><ele>458.98627</ele><time>2026-01-16T21:30:35.000Z</time></trkpt>
        <trkpt lat="28.719037" lon="104.748788"><ele>459.53973</ele><time>2026-01-16T21:30:40.000Z</time></trkpt>
        <trkpt lat="28.71905" lon="104.748841"><ele>459.89264</ele><time>2026-01-16T21:30:44.000Z</time></trkpt>
        <trkpt lat="28.71904" lon="104.748903"><ele>460.16776</ele><time>2026-01-16T21:30:49.000Z</time></trkpt>
        <trkpt lat="28.719025" lon="104.748957"><ele>459.59885</ele><time>2026-01-16T21:30:54.000Z</time></trkpt>
        <trkpt lat="28.719006" lon="104.749005"><ele>459.3566</ele><time>2026-01-16T21:30:57.000Z</time></trkpt>
        <trkpt lat="28.719002" lon="104.749064"><ele>459.06293</ele><time>2026-01-16T21:31:03.000Z</time></trkpt>
        <trkpt lat="28.719008" lon="104.749116"><ele>458.92825</ele><time>2026-01-16T21:31:07.000Z</time></trkpt>
        <trkpt lat="28.718995" lon="104.749169"><ele>457.885</ele><time>2026-01-16T21:31:14.000Z</time></trkpt>
        <trkpt lat="28.718984" lon="104.749222"><ele>457.3146</ele><time>2026-01-16T21:31:18.000Z</time></trkpt>
        <trkpt lat="28.718977" lon="104.749285"><ele>457.4824</ele><time>2026-01-16T21:31:23.000Z</time></trkpt>
        <trkpt lat="28.718983" lon="104.749338"><ele>456.5525</ele><time>2026-01-16T21:31:28.000Z</time></trkpt>
        <trkpt lat="28.718997" lon="104.749392"><ele>456.31412</ele><time>2026-01-16T21:31:34.000Z</time></trkpt>
        <trkpt lat="28.719019" lon="104.749447"><ele>456.18002</ele><time>2026-01-16T21:31:39.000Z</time></trkpt>
        <trkpt lat="28.71906" lon="104.749476"><ele>456.64978</ele><time>2026-01-16T21:31:44.000Z</time></trkpt>
        <trkpt lat="28.719102" lon="104.749505"><ele>456.66623</ele><time>2026-01-16T21:31:48.000Z</time></trkpt>
        <trkpt lat="28.719148" lon="104.749534"><ele>456.8483</ele><time>2026-01-16T21:31:52.000Z</time></trkpt>
        <trkpt lat="28.719198" lon="104.749567"><ele>457.0249</ele><time>2026-01-16T21:31:57.000Z</time></trkpt>
        <trkpt lat="28.719243" lon="104.749582"><ele>458.0431</ele><time>2026-01-16T21:32:02.000Z</time></trkpt>
        <trkpt lat="28.719265" lon="104.749636"><ele>458.00702</ele><time>2026-01-16T21:32:07.000Z</time></trkpt>
        <trkpt lat="28.719279" lon="104.749692"><ele>457.99716</ele><time>2026-01-16T21:32:11.000Z</time></trkpt>
        <trkpt lat="28.719291" lon="104.749749"><ele>457.72256</ele><time>2026-01-16T21:32:15.000Z</time></trkpt>
        <trkpt lat="28.719297" lon="104.749806"><ele>457.61105</ele><time>2026-01-16T21:32:19.000Z</time></trkpt>
        <trkpt lat="28.719296" lon="104.749857"><ele>457.42365</ele><time>2026-01-16T21:32:23.000Z</time></trkpt>
        <trkpt lat="28.719257" lon="104.749892"><ele>457.31354</ele><time>2026-01-16T21:32:27.000Z</time></trkpt>
        <trkpt lat="28.719213" lon="104.749913"><ele>457.2714</ele><time>2026-01-16T21:32:31.000Z</time></trkpt>
        <trkpt lat="28.719194" lon="104.749969"><ele>457.7274</ele><time>2026-01-16T21:32:36.000Z</time></trkpt>
        <trkpt lat="28.719214" lon="104.750017"><ele>458.37247</ele><time>2026-01-16T21:32:41.000Z</time></trkpt>
        <trkpt lat="28.719242" lon="104.750058"><ele>458.70477</ele><time>2026-01-16T21:32:47.000Z</time></trkpt>
        <trkpt lat="28.71929" lon="104.750092"><ele>458.8752</ele><time>2026-01-16T21:32:53.000Z</time></trkpt>
        <trkpt lat="28.719337" lon="104.750115"><ele>459.7302</ele><time>2026-01-16T21:32:57.000Z</time></trkpt>
        <trkpt lat="28.719364" lon="104.750166"><ele>460.8572</ele><time>2026-01-16T21:33:01.000Z</time></trkpt>
        <trkpt lat="28.71936" lon="104.750218"><ele>462.1565</ele><time>2026-01-16T21:33:05.000Z</time></trkpt>
        <trkpt lat="28.719339" lon="104.750278"><ele>463.0495</ele><time>2026-01-16T21:33:10.000Z</time></trkpt>
        <trkpt lat="28.719311" lon="104.750329"><ele>463.72897</ele><time>2026-01-16T21:33:15.000Z</time></trkpt>
        <trkpt lat="28.719305" lon="104.750384"><ele>463.75803</ele><time>2026-01-16T21:33:19.000Z</time></trkpt>
        <trkpt lat="28.719295" lon="104.75044"><ele>465.25946</ele><time>2026-01-16T21:33:24.000Z</time></trkpt>
        <trkpt lat="28.719302" lon="104.750493"><ele>465.86755</ele><time>2026-01-16T21:33:28.000Z</time></trkpt>
        <trkpt lat="28.719321" lon="104.750542"><ele>467.66052</ele><time>2026-01-16T21:33:34.000Z</time></trkpt>
        <trkpt lat="28.719328" lon="104.7506"><ele>469.64703</ele><time>2026-01-16T21:33:41.000Z</time></trkpt>
        <trkpt lat="28.71933" lon="104.750662"><ele>470.7648</ele><time>2026-01-16T21:33:47.000Z</time></trkpt>
        <trkpt lat="28.719345" lon="104.750715"><ele>471.4576</ele><time>2026-01-16T21:33:55.000Z</time></trkpt>
        <trkpt lat="28.719353" lon="104.750774"><ele>471.42905</ele><time>2026-01-16T21:34:01.000Z</time></trkpt>
        <trkpt lat="28.719349" lon="104.750833"><ele>472.08005</ele><time>2026-01-16T21:34:07.000Z</time></trkpt>
        <trkpt lat="28.719345" lon="104.750888"><ele>471.64474</ele><time>2026-01-16T21:34:22.000Z</time></trkpt>
        <trkpt lat="28.719348" lon="104.750954"><ele>472.40073</ele><time>2026-01-16T21:34:28.000Z</time></trkpt>
        <trkpt lat="28.719336" lon="104.751012"><ele>472.19138</ele><time>2026-01-16T21:34:34.000Z</time></trkpt>
        <trkpt lat="28.719313" lon="104.751057"><ele>470.11597</ele><time>2026-01-16T21:34:46.000Z</time></trkpt>
        <trkpt lat="28.719276" lon="104.751096"><ele>470.56055</ele><time>2026-01-16T21:35:04.000Z</time></trkpt>
        <trkpt lat="28.719254" lon="104.751156"><ele>469.6169</ele><time>2026-01-16T21:35:20.000Z</time></trkpt>
        <trkpt lat="28.719233" lon="104.751206"><ele>470.1509</ele><time>2026-01-16T21:35:25.000Z</time></trkpt>
        <trkpt lat="28.719206" lon="104.751257"><ele>471.2574</ele><time>2026-01-16T21:35:30.000Z</time></trkpt>
        <trkpt lat="28.719188" lon="104.751311"><ele>471.3407</ele><time>2026-01-16T21:35:35.000Z</time></trkpt>
        <trkpt lat="28.719172" lon="104.751362"><ele>471.4952</ele><time>2026-01-16T21:35:41.000Z</time></trkpt>
        <trkpt lat="28.719143" lon="104.751412"><ele>471.75943</ele><time>2026-01-16T21:35:46.000Z</time></trkpt>
        <trkpt lat="28.719118" lon="104.751467"><ele>472.4354</ele><time>2026-01-16T21:35:55.000Z</time></trkpt>
        <trkpt lat="28.719089" lon="104.75152"><ele>472.61047</ele><time>2026-01-16T21:36:00.000Z</time></trkpt>
        <trkpt lat="28.719065" lon="104.751564"><ele>471.7875</ele><time>2026-01-16T21:36:18.000Z</time></trkpt>
        <trkpt lat="28.719016" lon="104.751573"><ele>471.18155</ele><time>2026-01-16T21:36:31.000Z</time></trkpt>
        <trkpt lat="28.718971" lon="104.751564"><ele>470.8757</ele><time>2026-01-16T21:36:37.000Z</time></trkpt>
        <trkpt lat="28.718921" lon="104.751551"><ele>471.44598</ele><time>2026-01-16T21:36:43.000Z</time></trkpt>
        <trkpt lat="28.718871" lon="104.751534"><ele>470.8811</ele><time>2026-01-16T21:36:50.000Z</time></trkpt>
        <trkpt lat="28.718824" lon="104.75154"><ele>470.70035</ele><time>2026-01-16T21:36:53.000Z</time></trkpt>
        <trkpt lat="28.718775" lon="104.751541"><ele>469.78156</ele><time>2026-01-16T21:36:58.000Z</time></trkpt>
        <trkpt lat="28.718726" lon="104.75155"><ele>469.93823</ele><time>2026-01-16T21:37:03.000Z</time></trkpt>
        <trkpt lat="28.718673" lon="104.751533"><ele>469.85822</ele><time>2026-01-16T21:37:08.000Z</time></trkpt>
        <trkpt lat="28.718626" lon="104.751529"><ele>469.27222</ele><time>2026-01-16T21:37:13.000Z</time></trkpt>
        <trkpt lat="28.718574" lon="104.751528"><ele>469.01605</ele><time>2026-01-16T21:37:18.000Z</time></trkpt>
        <trkpt lat="28.71853" lon="104.751542"><ele>468.07877</ele><time>2026-01-16T21:37:22.000Z</time></trkpt>
        <trkpt lat="28.718478" lon="104.751552"><ele>467.69217</ele><time>2026-01-16T21:37:27.000Z</time></trkpt>
        <trkpt lat="28.718434" lon="104.751571"><ele>467.7576</ele><time>2026-01-16T21:37:32.000Z</time></trkpt>
        <trkpt lat="28.718386" lon="104.751577"><ele>468.04453</ele><time>2026-01-16T21:37:38.000Z</time></trkpt>
        <trkpt lat="28.71834" lon="104.751611"><ele>467.49338</ele><time>2026-01-16T21:37:44.000Z</time></trkpt>
        <trkpt lat="28.718298" lon="104.751639"><ele>467.13806</ele><time>2026-01-16T21:37:51.000Z</time></trkpt>
        <trkpt lat="28.718262" lon="104.751673"><ele>467.33374</ele><time>2026-01-16T21:38:01.000Z</time></trkpt>
        <trkpt lat="28.718277" lon="104.751623"><ele>468.1392</ele><time>2026-01-16T21:38:27.000Z</time></trkpt>
        <trkpt lat="28.718318" lon="104.751595"><ele>468.39938</ele><time>2026-01-16T21:38:45.000Z</time></trkpt>
        <trkpt lat="28.718355" lon="104.751566"><ele>468.626</ele><time>2026-01-16T21:38:49.000Z</time></trkpt>
        <trkpt lat="28.718396" lon="104.751526"><ele>469.23932</ele><time>2026-01-16T21:38:53.000Z</time></trkpt>
        <trkpt lat="28.718444" lon="104.751524"><ele>469.34506</ele><time>2026-01-16T21:38:57.000Z</time></trkpt>
        <trkpt lat="28.718488" lon="104.751508"><ele>469.48645</ele><time>2026-01-16T21:39:01.000Z</time></trkpt>
        <trkpt lat="28.718532" lon="104.75149"><ele>469.60654</ele><time>2026-01-16T21:39:05.000Z</time></trkpt>
        <trkpt lat="28.718587" lon="104.751481"><ele>470.1143</ele><time>2026-01-16T21:39:10.000Z</time></trkpt>
        <trkpt lat="28.718636" lon="104.751481"><ele>469.9685</ele><time>2026-01-16T21:39:14.000Z</time></trkpt>
        <trkpt lat="28.718689" lon="104.751491"><ele>470.67657</ele><time>2026-01-16T21:39:19.000Z</time></trkpt>
        <trkpt lat="28.718749" lon="104.751506"><ele>470.07507</ele><time>2026-01-16T21:39:24.000Z</time></trkpt>
        <trkpt lat="28.718803" lon="104.751507"><ele>470.32477</ele><time>2026-01-16T21:39:30.000Z</time></trkpt>
        <trkpt lat="28.718848" lon="104.751498"><ele>471.37888</ele><time>2026-01-16T21:39:50.000Z</time></trkpt>
        <trkpt lat="28.718893" lon="104.751499"><ele>471.3565</ele><time>2026-01-16T21:39:55.000Z</time></trkpt>
        <trkpt lat="28.718934" lon="104.751523"><ele>471.78452</ele><time>2026-01-16T21:40:01.000Z</time></trkpt>
        <trkpt lat="28.718983" lon="104.751537"><ele>471.4066</ele><time>2026-01-16T21:40:07.000Z</time></trkpt>
        <trkpt lat="28.719032" lon="104.751536"><ele>471.38977</ele><time>2026-01-16T21:40:12.000Z</time></trkpt>
        <trkpt lat="28.719082" lon="104.751516"><ele>471.5527</ele><time>2026-01-16T21:40:17.000Z</time></trkpt>
        <trkpt lat="28.719107" lon="104.75147"><ele>472.10663</ele><time>2026-01-16T21:40:22.000Z</time></trkpt>
        <trkpt lat="28.719131" lon="104.751424"><ele>472.57968</ele><time>2026-01-16T21:40:27.000Z</time></trkpt>
        <trkpt lat="28.719139" lon="104.751369"><ele>472.62708</ele><time>2026-01-16T21:40:32.000Z</time></trkpt>
        <trkpt lat="28.71916" lon="104.751321"><ele>472.50385</ele><time>2026-01-16T21:40:37.000Z</time></trkpt>
        <trkpt lat="28.719176" lon="104.751273"><ele>472.48676</ele><time>2026-01-16T21:40:42.000Z</time></trkpt>
        <trkpt lat="28.719191" lon="104.751215"><ele>471.4816</ele><time>2026-01-16T21:40:47.000Z</time></trkpt>
        <trkpt lat="28.719211" lon="104.75116"><ele>470.74884</ele><time>2026-01-16T21:40:52.000Z</time></trkpt>
        <trkpt lat="28.719232" lon="104.751113"><ele>469.8661</ele><time>2026-01-16T21:40:57.000Z</time></trkpt>
        <trkpt lat="28.719261" lon="104.751072"><ele>469.9001</ele><time>2026-01-16T21:41:01.000Z</time></trkpt>
        <trkpt lat="28.7193" lon="104.751103"><ele>470.11182</ele><time>2026-01-16T21:41:13.000Z</time></trkpt>
        <trkpt lat="28.719292" lon="104.751157"><ele>469.10922</ele><time>2026-01-16T21:41:18.000Z</time></trkpt>
        <trkpt lat="28.719277" lon="104.751214"><ele>469.0356</ele><time>2026-01-16T21:41:23.000Z</time></trkpt>
        <trkpt lat="28.719268" lon="104.751267"><ele>469.2136</ele><time>2026-01-16T21:41:28.000Z</time></trkpt>
        <trkpt lat="28.719254" lon="104.751326"><ele>469.9071</ele><time>2026-01-16T21:41:33.000Z</time></trkpt>
        <trkpt lat="28.719255" lon="104.75138"><ele>470.52536</ele><time>2026-01-16T21:41:38.000Z</time></trkpt>
        <trkpt lat="28.71926" lon="104.751433"><ele>470.14288</ele><time>2026-01-16T21:41:43.000Z</time></trkpt>
        <trkpt lat="28.719276" lon="104.751492"><ele>468.96045</ele><time>2026-01-16T21:41:47.000Z</time></trkpt>
        <trkpt lat="28.71926" lon="104.751546"><ele>469.04507</ele><time>2026-01-16T21:41:51.000Z</time></trkpt>
        <trkpt lat="28.719265" lon="104.751613"><ele>468.49033</ele><time>2026-01-16T21:41:56.000Z</time></trkpt>
        <trkpt lat="28.719261" lon="104.751673"><ele>467.5825</ele><time>2026-01-16T21:42:02.000Z</time></trkpt>
        <trkpt lat="28.719275" lon="104.751722"><ele>467.64948</ele><time>2026-01-16T21:42:07.000Z</time></trkpt>
        <trkpt lat="28.719297" lon="104.751779"><ele>466.38217</ele><time>2026-01-16T21:42:13.000Z</time></trkpt>
        <trkpt lat="28.719321" lon="104.751829"><ele>464.66382</ele><time>2026-01-16T21:42:18.000Z</time></trkpt>
        <trkpt lat="28.719336" lon="104.75188"><ele>461.9345</ele><time>2026-01-16T21:42:27.000Z</time></trkpt>
        <trkpt lat="28.719292" lon="104.751867"><ele>461.55646</ele><time>2026-01-16T21:42:38.000Z</time></trkpt>
        <trkpt lat="28.719318" lon="104.751916"><ele>461.4023</ele><time>2026-01-16T21:42:42.000Z</time></trkpt>
        <trkpt lat="28.71935" lon="104.751957"><ele>459.47607</ele><time>2026-01-16T21:42:52.000Z</time></trkpt>
        <trkpt lat="28.719375" lon="104.752017"><ele>457.58615</ele><time>2026-01-16T21:42:59.000Z</time></trkpt>
        <trkpt lat="28.719397" lon="104.752062"><ele>457.90613</ele><time>2026-01-16T21:43:03.000Z</time></trkpt>
        <trkpt lat="28.719414" lon="104.752111"><ele>456.9798</ele><time>2026-01-16T21:43:11.000Z</time></trkpt>
        <trkpt lat="28.719417" lon="104.752171"><ele>456.84268</ele><time>2026-01-16T21:43:15.000Z</time></trkpt>
        <trkpt lat="28.719448" lon="104.752214"><ele>456.55673</ele><time>2026-01-16T21:43:18.000Z</time></trkpt>
        <trkpt lat="28.719475" lon="104.752258"><ele>456.58817</ele><time>2026-01-16T21:43:22.000Z</time></trkpt>
        <trkpt lat="28.719512" lon="104.752303"><ele>457.73706</ele><time>2026-01-16T21:43:27.000Z</time></trkpt>
        <trkpt lat="28.719553" lon="104.752341"><ele>459.73242</ele><time>2026-01-16T21:43:42.000Z</time></trkpt>
        <trkpt lat="28.719599" lon="104.752371"><ele>460.69293</ele><time>2026-01-16T21:43:46.000Z</time></trkpt>
        <trkpt lat="28.719614" lon="104.752433"><ele>462.00476</ele><time>2026-01-16T21:43:52.000Z</time></trkpt>
        <trkpt lat="28.719619" lon="104.752488"><ele>463.67017</ele><time>2026-01-16T21:43:56.000Z</time></trkpt>
        <trkpt lat="28.719631" lon="104.752541"><ele>464.5006</ele><time>2026-01-16T21:44:04.000Z</time></trkpt>
        <trkpt lat="28.719639" lon="104.752593"><ele>465.41776</ele><time>2026-01-16T21:44:14.000Z</time></trkpt>
        <trkpt lat="28.719641" lon="104.752657"><ele>465.76648</ele><time>2026-01-16T21:44:19.000Z</time></trkpt>
        <trkpt lat="28.719648" lon="104.752722"><ele>464.9088</ele><time>2026-01-16T21:44:23.000Z</time></trkpt>
        <trkpt lat="28.719653" lon="104.752774"><ele>465.3594</ele><time>2026-01-16T21:44:27.000Z</time></trkpt>
        <trkpt lat="28.719635" lon="104.752821"><ele>464.5403</ele><time>2026-01-16T21:44:31.000Z</time></trkpt>
        <trkpt lat="28.719632" lon="104.752873"><ele>463.59592</ele><time>2026-01-16T21:44:35.000Z</time></trkpt>
        <trkpt lat="28.719618" lon="104.752922"><ele>461.91495</ele><time>2026-01-16T21:44:40.000Z</time></trkpt>
        <trkpt lat="28.719608" lon="104.752974"><ele>461.2267</ele><time>2026-01-16T21:44:44.000Z</time></trkpt>
        <trkpt lat="28.719609" lon="104.753036"><ele>460.1684</ele><time>2026-01-16T21:44:49.000Z</time></trkpt>
        <trkpt lat="28.719606" lon="104.753093"><ele>458.88757</ele><time>2026-01-16T21:44:54.000Z</time></trkpt>
        <trkpt lat="28.719618" lon="104.753145"><ele>459.40506</ele><time>2026-01-16T21:44:59.000Z</time></trkpt>
        <trkpt lat="28.719646" lon="104.753195"><ele>457.81213</ele><time>2026-01-16T21:45:06.000Z</time></trkpt>
        <trkpt lat="28.719701" lon="104.753206"><ele>458.73306</ele><time>2026-01-16T21:45:11.000Z</time></trkpt>
        <trkpt lat="28.719749" lon="104.753222"><ele>458.23123</ele><time>2026-01-16T21:45:16.000Z</time></trkpt>
        <trkpt lat="28.7198" lon="104.753225"><ele>458.73923</ele><time>2026-01-16T21:45:20.000Z</time></trkpt>
        <trkpt lat="28.719854" lon="104.753213"><ele>459.12683</ele><time>2026-01-16T21:45:25.000Z</time></trkpt>
        <trkpt lat="28.7199" lon="104.753196"><ele>459.96283</ele><time>2026-01-16T21:45:31.000Z</time></trkpt>
        <trkpt lat="28.719945" lon="104.753186"><ele>458.97855</ele><time>2026-01-16T21:45:35.000Z</time></trkpt>
        <trkpt lat="28.719995" lon="104.753178"><ele>459.11862</ele><time>2026-01-16T21:45:39.000Z</time></trkpt>
        <trkpt lat="28.720052" lon="104.753164"><ele>458.52286</ele><time>2026-01-16T21:45:44.000Z</time></trkpt>
        <trkpt lat="28.720104" lon="104.753141"><ele>459.47665</ele><time>2026-01-16T21:45:49.000Z</time></trkpt>
        <trkpt lat="28.720147" lon="104.753111"><ele>459.42664</ele><time>2026-01-16T21:45:56.000Z</time></trkpt>
        <trkpt lat="28.720191" lon="104.753075"><ele>459.9242</ele><time>2026-01-16T21:46:01.000Z</time></trkpt>
        <trkpt lat="28.720234" lon="104.753041"><ele>459.67004</ele><time>2026-01-16T21:46:05.000Z</time></trkpt>
        <trkpt lat="28.720212" lon="104.753092"><ele>459.94257</ele><time>2026-01-16T21:46:13.000Z</time></trkpt>
        <trkpt lat="28.720197" lon="104.75315"><ele>459.77316</ele><time>2026-01-16T21:46:17.000Z</time></trkpt>
        <trkpt lat="28.720161" lon="104.753194"><ele>460.0133</ele><time>2026-01-16T21:46:21.000Z</time></trkpt>
        <trkpt lat="28.720114" lon="104.753215"><ele>459.7177</ele><time>2026-01-16T21:46:26.000Z</time></trkpt>
        <trkpt lat="28.720072" lon="104.753234"><ele>459.60437</ele><time>2026-01-16T21:46:33.000Z</time></trkpt>
        <trkpt lat="28.720026" lon="104.753239"><ele>458.89255</ele><time>2026-01-16T21:46:37.000Z</time></trkpt>
        <trkpt lat="28.71998" lon="104.753251"><ele>457.9188</ele><time>2026-01-16T21:46:41.000Z</time></trkpt>
        <trkpt lat="28.719935" lon="104.75326"><ele>457.48343</ele><time>2026-01-16T21:46:45.000Z</time></trkpt>
        <trkpt lat="28.719889" lon="104.753277"><ele>456.21262</ele><time>2026-01-16T21:46:50.000Z</time></trkpt>
        <trkpt lat="28.719839" lon="104.753297"><ele>456.2917</ele><time>2026-01-16T21:46:54.000Z</time></trkpt>
        <trkpt lat="28.719793" lon="104.753293"><ele>456.28278</ele><time>2026-01-16T21:46:58.000Z</time></trkpt>
        <trkpt lat="28.719733" lon="104.753282"><ele>457.19412</ele><time>2026-01-16T21:47:03.000Z</time></trkpt>
        <trkpt lat="28.71969" lon="104.753259"><ele>456.1031</ele><time>2026-01-16T21:47:07.000Z</time></trkpt>
        <trkpt lat="28.719741" lon="104.753236"><ele>457.461</ele><time>2026-01-16T21:47:25.000Z</time></trkpt>
        <trkpt lat="28.719788" lon="104.753248"><ele>457.30942</ele><time>2026-01-16T21:47:30.000Z</time></trkpt>
        <trkpt lat="28.719775" lon="104.753305"><ele>456.00626</ele><time>2026-01-16T21:47:38.000Z</time></trkpt>
        <trkpt lat="28.719733" lon="104.753331"><ele>455.14618</ele><time>2026-01-16T21:47:44.000Z</time></trkpt>
        <trkpt lat="28.719723" lon="104.753382"><ele>454.1927</ele><time>2026-01-16T21:47:56.000Z</time></trkpt>
        <trkpt lat="28.719736" lon="104.753438"><ele>454.37088</ele><time>2026-01-16T21:48:13.000Z</time></trkpt>
        <trkpt lat="28.719707" lon="104.75348"><ele>452.83493</ele><time>2026-01-16T21:48:19.000Z</time></trkpt>
        <trkpt lat="28.719741" lon="104.753524"><ele>452.75284</ele><time>2026-01-16T21:48:25.000Z</time></trkpt>
        <trkpt lat="28.71974" lon="104.753577"><ele>452.35162</ele><time>2026-01-16T21:48:32.000Z</time></trkpt>
        <trkpt lat="28.719713" lon="104.753628"><ele>451.65115</ele><time>2026-01-16T21:48:37.000Z</time></trkpt>
        <trkpt lat="28.7197" lon="104.753679"><ele>451.8094</ele><time>2026-01-16T21:48:40.000Z</time></trkpt>
        <trkpt lat="28.719686" lon="104.753732"><ele>451.62518</ele><time>2026-01-16T21:48:43.000Z</time></trkpt>
        <trkpt lat="28.719692" lon="104.753799"><ele>452.90073</ele><time>2026-01-16T21:48:47.000Z</time></trkpt>
        <trkpt lat="28.719688" lon="104.753856"><ele>453.14636</ele><time>2026-01-16T21:48:53.000Z</time></trkpt>
        <trkpt lat="28.719729" lon="104.753884"><ele>452.147</ele><time>2026-01-16T21:48:59.000Z</time></trkpt>
        <trkpt lat="28.719776" lon="104.753906"><ele>451.6323</ele><time>2026-01-16T21:49:08.000Z</time></trkpt>
        <trkpt lat="28.719803" lon="104.75396"><ele>452.1536</ele><time>2026-01-16T21:49:16.000Z</time></trkpt>
        <trkpt lat="28.719753" lon="104.753971"><ele>452.86807</ele><time>2026-01-16T21:49:23.000Z</time></trkpt>
        <trkpt lat="28.719711" lon="104.753995"><ele>452.14948</ele><time>2026-01-16T21:49:31.000Z</time></trkpt>
        <trkpt lat="28.719731" lon="104.754044"><ele>452.88354</ele><time>2026-01-16T21:49:37.000Z</time></trkpt>
        <trkpt lat="28.719709" lon="104.754092"><ele>451.95602</ele><time>2026-01-16T21:49:42.000Z</time></trkpt>
        <trkpt lat="28.719745" lon="104.754138"><ele>452.62817</ele><time>2026-01-16T21:49:47.000Z</time></trkpt>
        <trkpt lat="28.719763" lon="104.754192"><ele>454.05383</ele><time>2026-01-16T21:49:52.000Z</time></trkpt>
        <trkpt lat="28.719732" lon="104.754245"><ele>455.45862</ele><time>2026-01-16T21:49:59.000Z</time></trkpt>
        <trkpt lat="28.719687" lon="104.754294"><ele>454.76468</ele><time>2026-01-16T21:50:05.000Z</time></trkpt>
        <trkpt lat="28.719643" lon="104.754322"><ele>455.0962</ele><time>2026-01-16T21:50:09.000Z</time></trkpt>
        <trkpt lat="28.719605" lon="104.754353"><ele>454.38113</ele><time>2026-01-16T21:50:13.000Z</time></trkpt>
        <trkpt lat="28.719581" lon="104.754399"><ele>454.14948</ele><time>2026-01-16T21:50:16.000Z</time></trkpt>
        <trkpt lat="28.719561" lon="104.754452"><ele>452.92883</ele><time>2026-01-16T21:50:20.000Z</time></trkpt>
        <trkpt lat="28.719543" lon="104.754512"><ele>451.9468</ele><time>2026-01-16T21:50:26.000Z</time></trkpt>
        <trkpt lat="28.719534" lon="104.754567"><ele>450.40253</ele><time>2026-01-16T21:50:30.000Z</time></trkpt>
        <trkpt lat="28.719518" lon="104.754619"><ele>448.70703</ele><time>2026-01-16T21:50:35.000Z</time></trkpt>
        <trkpt lat="28.719522" lon="104.754675"><ele>447.21973</ele><time>2026-01-16T21:50:39.000Z</time></trkpt>
        <trkpt lat="28.719528" lon="104.754727"><ele>444.9793</ele><time>2026-01-16T21:50:44.000Z</time></trkpt>
        <trkpt lat="28.719557" lon="104.754776"><ele>443.87152</ele><time>2026-01-16T21:50:49.000Z</time></trkpt>
        <trkpt lat="28.719567" lon="104.754828"><ele>442.59045</ele><time>2026-01-16T21:50:54.000Z</time></trkpt>
        <trkpt lat="28.71957" lon="104.754885"><ele>441.69882</ele><time>2026-01-16T21:50:58.000Z</time></trkpt>
        <trkpt lat="28.719552" lon="104.754947"><ele>440.36288</ele><time>2026-01-16T21:51:03.000Z</time></trkpt>
        <trkpt lat="28.719558" lon="104.755001"><ele>438.26828</ele><time>2026-01-16T21:51:07.000Z</time></trkpt>
        <trkpt lat="28.719577" lon="104.755054"><ele>438.01108</ele><time>2026-01-16T21:51:10.000Z</time></trkpt>
        <trkpt lat="28.719607" lon="104.755102"><ele>436.78104</ele><time>2026-01-16T21:51:15.000Z</time></trkpt>
        <trkpt lat="28.719645" lon="104.755144"><ele>435.4334</ele><time>2026-01-16T21:51:19.000Z</time></trkpt>
        <trkpt lat="28.719695" lon="104.755174"><ele>435.97064</ele><time>2026-01-16T21:51:23.000Z</time></trkpt>
        <trkpt lat="28.719748" lon="104.755173"><ele>435.97397</ele><time>2026-01-16T21:51:27.000Z</time></trkpt>
        <trkpt lat="28.719808" lon="104.755177"><ele>436.62665</ele><time>2026-01-16T21:51:31.000Z</time></trkpt>
        <trkpt lat="28.719857" lon="104.755162"><ele>436.0022</ele><time>2026-01-16T21:51:35.000Z</time></trkpt>
        <trkpt lat="28.719892" lon="104.755127"><ele>436.31458</ele><time>2026-01-16T21:51:38.000Z</time></trkpt>
        <trkpt lat="28.719933" lon="104.755083"><ele>437.86447</ele><time>2026-01-16T21:51:42.000Z</time></trkpt>
        <trkpt lat="28.719988" lon="104.755073"><ele>439.61548</ele><time>2026-01-16T21:51:50.000Z</time></trkpt>
        <trkpt lat="28.720044" lon="104.75506"><ele>440.7039</ele><time>2026-01-16T21:51:55.000Z</time></trkpt>
        <trkpt lat="28.720092" lon="104.755084"><ele>442.0167</ele><time>2026-01-16T21:52:00.000Z</time></trkpt>
        <trkpt lat="28.720121" lon="104.755124"><ele>442.7442</ele><time>2026-01-16T21:52:03.000Z</time></trkpt>
        <trkpt lat="28.720155" lon="104.755163"><ele>444.08273</ele><time>2026-01-16T21:52:06.000Z</time></trkpt>
        <trkpt lat="28.720193" lon="104.755191"><ele>443.39896</ele><time>2026-01-16T21:52:10.000Z</time></trkpt>
        <trkpt lat="28.720241" lon="104.75521"><ele>444.0597</ele><time>2026-01-16T21:52:14.000Z</time></trkpt>
        <trkpt lat="28.720284" lon="104.755231"><ele>443.7909</ele><time>2026-01-16T21:52:18.000Z</time></trkpt>
        <trkpt lat="28.720328" lon="104.755249"><ele>444.1326</ele><time>2026-01-16T21:52:21.000Z</time></trkpt>
        <trkpt lat="28.720366" lon="104.755278"><ele>444.7433</ele><time>2026-01-16T21:52:26.000Z</time></trkpt>
        <trkpt lat="28.720407" lon="104.755325"><ele>446.07248</ele><time>2026-01-16T21:52:32.000Z</time></trkpt>
        <trkpt lat="28.720428" lon="104.755378"><ele>445.02975</ele><time>2026-01-16T21:52:37.000Z</time></trkpt>
        <trkpt lat="28.720446" lon="104.755438"><ele>445.48022</ele><time>2026-01-16T21:52:41.000Z</time></trkpt>
        <trkpt lat="28.72048" lon="104.755481"><ele>445.6261</ele><time>2026-01-16T21:52:45.000Z</time></trkpt>
        <trkpt lat="28.720477" lon="104.75555"><ele>444.3488</ele><time>2026-01-16T21:52:50.000Z</time></trkpt>
        <trkpt lat="28.720517" lon="104.755587"><ele>441.20914</ele><time>2026-01-16T21:52:54.000Z</time></trkpt>
        <trkpt lat="28.720561" lon="104.755605"><ele>438.48032</ele><time>2026-01-16T21:53:01.000Z</time></trkpt>
        <trkpt lat="28.720609" lon="104.755629"><ele>439.08575</ele><time>2026-01-16T21:53:04.000Z</time></trkpt>
        <trkpt lat="28.720645" lon="104.75567"><ele>440.04916</ele><time>2026-01-16T21:53:08.000Z</time></trkpt>
        <trkpt lat="28.720663" lon="104.755722"><ele>439.55765</ele><time>2026-01-16T21:53:12.000Z</time></trkpt>
        <trkpt lat="28.720679" lon="104.755771"><ele>439.18304</ele><time>2026-01-16T21:53:17.000Z</time></trkpt>
        <trkpt lat="28.720695" lon="104.755824"><ele>438.26065</ele><time>2026-01-16T21:53:23.000Z</time></trkpt>
        <trkpt lat="28.720704" lon="104.755891"><ele>436.29987</ele><time>2026-01-16T21:53:30.000Z</time></trkpt>
        <trkpt lat="28.72073" lon="104.755949"><ele>435.21463</ele><time>2026-01-16T21:53:35.000Z</time></trkpt>
        <trkpt lat="28.720777" lon="104.755943"><ele>435.16687</ele><time>2026-01-16T21:53:41.000Z</time></trkpt>
        <trkpt lat="28.720827" lon="104.755945"><ele>435.3635</ele><time>2026-01-16T21:53:46.000Z</time></trkpt>
        <trkpt lat="28.720872" lon="104.755935"><ele>436.03156</ele><time>2026-01-16T21:53:50.000Z</time></trkpt>
        <trkpt lat="28.720925" lon="104.755938"><ele>436.3454</ele><time>2026-01-16T21:53:55.000Z</time></trkpt>
        <trkpt lat="28.721002" lon="104.75594"><ele>435.5672</ele><time>2026-01-16T21:54:19.000Z</time></trkpt>
        <trkpt lat="28.721018" lon="104.755885"><ele>435.71902</ele><time>2026-01-16T21:54:43.000Z</time></trkpt>
        <trkpt lat="28.721054" lon="104.755836"><ele>436.9912</ele><time>2026-01-16T21:54:48.000Z</time></trkpt>
        <trkpt lat="28.7211" lon="104.755822"><ele>435.82025</ele><time>2026-01-16T21:54:51.000Z</time></trkpt>
        <trkpt lat="28.72114" lon="104.755799"><ele>436.63403</ele><time>2026-01-16T21:54:58.000Z</time></trkpt>
        <trkpt lat="28.721175" lon="104.755764"><ele>437.54803</ele><time>2026-01-16T21:55:02.000Z</time></trkpt>
        <trkpt lat="28.72122" lon="104.755755"><ele>438.229</ele><time>2026-01-16T21:55:06.000Z</time></trkpt>
        <trkpt lat="28.721266" lon="104.755747"><ele>439.42798</ele><time>2026-01-16T21:55:09.000Z</time></trkpt>
        <trkpt lat="28.721317" lon="104.755748"><ele>439.76157</ele><time>2026-01-16T21:55:14.000Z</time></trkpt>
        <trkpt lat="28.721372" lon="104.755745"><ele>439.08344</ele><time>2026-01-16T21:55:18.000Z</time></trkpt>
        <trkpt lat="28.721417" lon="104.755733"><ele>439.51526</ele><time>2026-01-16T21:55:22.000Z</time></trkpt>
        <trkpt lat="28.721462" lon="104.755757"><ele>439.16394</ele><time>2026-01-16T21:55:26.000Z</time></trkpt>
        <trkpt lat="28.721503" lon="104.755781"><ele>439.49432</ele><time>2026-01-16T21:55:30.000Z</time></trkpt>
        <trkpt lat="28.72155" lon="104.75582"><ele>439.12997</ele><time>2026-01-16T21:55:36.000Z</time></trkpt>
        <trkpt lat="28.721588" lon="104.755851"><ele>439.12735</ele><time>2026-01-16T21:55:39.000Z</time></trkpt>
        <trkpt lat="28.721632" lon="104.755868"><ele>438.92596</ele><time>2026-01-16T21:55:43.000Z</time></trkpt>
        <trkpt lat="28.721673" lon="104.755895"><ele>439.28473</ele><time>2026-01-16T21:55:46.000Z</time></trkpt>
        <trkpt lat="28.721718" lon="104.755933"><ele>438.3948</ele><time>2026-01-16T21:55:50.000Z</time></trkpt>
        <trkpt lat="28.721754" lon="104.755971"><ele>439.45605</ele><time>2026-01-16T21:55:53.000Z</time></trkpt>
        <trkpt lat="28.721794" lon="104.756007"><ele>438.7154</ele><time>2026-01-16T21:55:58.000Z</time></trkpt>
        <trkpt lat="28.721837" lon="104.756047"><ele>438.4613</ele><time>2026-01-16T21:56:02.000Z</time></trkpt>
        <trkpt lat="28.721875" lon="104.756082"><ele>438.39957</ele><time>2026-01-16T21:56:07.000Z</time></trkpt>
        <trkpt lat="28.721925" lon="104.756115"><ele>437.76038</ele><time>2026-01-16T21:56:13.000Z</time></trkpt>
        <trkpt lat="28.721956" lon="104.75616"><ele>437.80286</ele><time>2026-01-16T21:56:17.000Z</time></trkpt>
        <trkpt lat="28.721984" lon="104.756204"><ele>437.87738</ele><time>2026-01-16T21:56:21.000Z</time></trkpt>
        <trkpt lat="28.721984" lon="104.756258"><ele>437.94357</ele><time>2026-01-16T21:56:26.000Z</time></trkpt>
        <trkpt lat="28.721985" lon="104.756319"><ele>436.77173</ele><time>2026-01-16T21:56:32.000Z</time></trkpt>
        <trkpt lat="28.721986" lon="104.756376"><ele>436.05588</ele><time>2026-01-16T21:56:39.000Z</time></trkpt>
        <trkpt lat="28.721985" lon="104.756434"><ele>435.34482</ele><time>2026-01-16T21:56:45.000Z</time></trkpt>
        <trkpt lat="28.721989" lon="104.756488"><ele>434.01215</ele><time>2026-01-16T21:56:51.000Z</time></trkpt>
        <trkpt lat="28.721982" lon="104.75655"><ele>434.09393</ele><time>2026-01-16T21:56:57.000Z</time></trkpt>
        <trkpt lat="28.721974" lon="104.756607"><ele>432.67157</ele><time>2026-01-16T21:57:02.000Z</time></trkpt>
        <trkpt lat="28.721975" lon="104.756671"><ele>432.4556</ele><time>2026-01-16T21:57:07.000Z</time></trkpt>
        <trkpt lat="28.721955" lon="104.756722"><ele>431.7241</ele><time>2026-01-16T21:57:11.000Z</time></trkpt>
        <trkpt lat="28.721953" lon="104.756773"><ele>431.37994</ele><time>2026-01-16T21:57:16.000Z</time></trkpt>
        <trkpt lat="28.721932" lon="104.756825"><ele>431.41592</ele><time>2026-01-16T21:57:20.000Z</time></trkpt>
        <trkpt lat="28.721918" lon="104.756878"><ele>431.74765</ele><time>2026-01-16T21:57:24.000Z</time></trkpt>
        <trkpt lat="28.721903" lon="104.756933"><ele>431.76343</ele><time>2026-01-16T21:57:28.000Z</time></trkpt>
        <trkpt lat="28.721887" lon="104.756982"><ele>432.52475</ele><time>2026-01-16T21:57:32.000Z</time></trkpt>
        <trkpt lat="28.721875" lon="104.757035"><ele>432.9232</ele><time>2026-01-16T21:57:37.000Z</time></trkpt>
        <trkpt lat="28.721883" lon="104.757093"><ele>432.485</ele><time>2026-01-16T21:57:42.000Z</time></trkpt>
        <trkpt lat="28.721913" lon="104.757132"><ele>432.26138</ele><time>2026-01-16T21:57:46.000Z</time></trkpt>
        <trkpt lat="28.721944" lon="104.757171"><ele>432.4707</ele><time>2026-01-16T21:57:50.000Z</time></trkpt>
        <trkpt lat="28.721977" lon="104.757212"><ele>431.5549</ele><time>2026-01-16T21:57:56.000Z</time></trkpt>
        <trkpt lat="28.722022" lon="104.757248"><ele>431.1564</ele><time>2026-01-16T21:58:00.000Z</time></trkpt>
        <trkpt lat="28.722055" lon="104.757284"><ele>431.53885</ele><time>2026-01-16T21:58:05.000Z</time></trkpt>
        <trkpt lat="28.722097" lon="104.757319"><ele>431.07465</ele><time>2026-01-16T21:58:10.000Z</time></trkpt>
        <trkpt lat="28.722146" lon="104.757342"><ele>430.19415</ele><time>2026-01-16T21:58:18.000Z</time></trkpt>
        <trkpt lat="28.722198" lon="104.757332"><ele>431.14746</ele><time>2026-01-16T21:58:23.000Z</time></trkpt>
        <trkpt lat="28.722257" lon="104.757326"><ele>431.36722</ele><time>2026-01-16T21:58:28.000Z</time></trkpt>
        <trkpt lat="28.722303" lon="104.757315"><ele>432.1027</ele><time>2026-01-16T21:58:34.000Z</time></trkpt>
        <trkpt lat="28.722348" lon="104.757323"><ele>431.96335</ele><time>2026-01-16T21:58:38.000Z</time></trkpt>
        <trkpt lat="28.722391" lon="104.757343"><ele>431.8331</ele><time>2026-01-16T21:58:42.000Z</time></trkpt>
        <trkpt lat="28.722437" lon="104.757358"><ele>431.88376</ele><time>2026-01-16T21:58:46.000Z</time></trkpt>
        <trkpt lat="28.722483" lon="104.757386"><ele>431.93942</ele><time>2026-01-16T21:58:51.000Z</time></trkpt>
        <trkpt lat="28.722516" lon="104.757431"><ele>432.0369</ele><time>2026-01-16T21:58:56.000Z</time></trkpt>
        <trkpt lat="28.722542" lon="104.757475"><ele>431.68008</ele><time>2026-01-16T21:59:00.000Z</time></trkpt>
        <trkpt lat="28.722551" lon="104.75753"><ele>431.43866</ele><time>2026-01-16T21:59:04.000Z</time></trkpt>
        <trkpt lat="28.722558" lon="104.757585"><ele>430.53836</ele><time>2026-01-16T21:59:09.000Z</time></trkpt>
        <trkpt lat="28.722559" lon="104.757643"><ele>430.25778</ele><time>2026-01-16T21:59:14.000Z</time></trkpt>
        <trkpt lat="28.722593" lon="104.757678"><ele>429.6632</ele><time>2026-01-16T21:59:19.000Z</time></trkpt>
        <trkpt lat="28.72264" lon="104.757694"><ele>428.94113</ele><time>2026-01-16T21:59:24.000Z</time></trkpt>
        <trkpt lat="28.722693" lon="104.75769"><ele>429.6732</ele><time>2026-01-16T21:59:30.000Z</time></trkpt>
        <trkpt lat="28.72274" lon="104.757695"><ele>429.78192</ele><time>2026-01-16T21:59:35.000Z</time></trkpt>
        <trkpt lat="28.722787" lon="104.757713"><ele>430.46573</ele><time>2026-01-16T22:00:07.000Z</time></trkpt>
        <trkpt lat="28.722833" lon="104.757745"><ele>430.25717</ele><time>2026-01-16T22:00:11.000Z</time></trkpt>
        <trkpt lat="28.722871" lon="104.757786"><ele>430.504</ele><time>2026-01-16T22:00:16.000Z</time></trkpt>
        <trkpt lat="28.722914" lon="104.75782"><ele>430.4428</ele><time>2026-01-16T22:00:21.000Z</time></trkpt>
        <trkpt lat="28.722962" lon="104.757839"><ele>431.24997</ele><time>2026-01-16T22:00:28.000Z</time></trkpt>
        <trkpt lat="28.722969" lon="104.757785"><ele>429.46997</ele><time>2026-01-16T22:01:09.000Z</time></trkpt>
        <trkpt lat="28.722971" lon="104.75773"><ele>429.5698</ele><time>2026-01-16T22:01:12.000Z</time></trkpt>
        <trkpt lat="28.722939" lon="104.757682"><ele>430.07526</ele><time>2026-01-16T22:01:16.000Z</time></trkpt>
        <trkpt lat="28.722909" lon="104.75763"><ele>431.86606</ele><time>2026-01-16T22:01:22.000Z</time></trkpt>
        <trkpt lat="28.722945" lon="104.757591"><ele>432.98422</ele><time>2026-01-16T22:01:29.000Z</time></trkpt>
        <trkpt lat="28.72299" lon="104.757571"><ele>432.6852</ele><time>2026-01-16T22:01:33.000Z</time></trkpt>
        <trkpt lat="28.723035" lon="104.757545"><ele>432.05743</ele><time>2026-01-16T22:01:39.000Z</time></trkpt>
        <trkpt lat="28.723061" lon="104.757502"><ele>432.94052</ele><time>2026-01-16T22:01:44.000Z</time></trkpt>
        <trkpt lat="28.723099" lon="104.757466"><ele>432.38297</ele><time>2026-01-16T22:01:48.000Z</time></trkpt>
        <trkpt lat="28.723128" lon="104.757424"><ele>432.46603</ele><time>2026-01-16T22:01:52.000Z</time></trkpt>
        <trkpt lat="28.723157" lon="104.757385"><ele>431.61758</ele><time>2026-01-16T22:01:56.000Z</time></trkpt>
        <trkpt lat="28.723163" lon="104.757326"><ele>431.34058</ele><time>2026-01-16T22:02:00.000Z</time></trkpt>
        <trkpt lat="28.723155" lon="104.757266"><ele>431.80243</ele><time>2026-01-16T22:02:06.000Z</time></trkpt>
        <trkpt lat="28.723159" lon="104.75721"><ele>433.12372</ele><time>2026-01-16T22:02:14.000Z</time></trkpt>
        <trkpt lat="28.723159" lon="104.757154"><ele>433.17526</ele><time>2026-01-16T22:02:20.000Z</time></trkpt>
        <trkpt lat="28.723206" lon="104.757112"><ele>433.87106</ele><time>2026-01-16T22:02:24.000Z</time></trkpt>
        <trkpt lat="28.723256" lon="104.757128"><ele>434.347</ele><time>2026-01-16T22:02:30.000Z</time></trkpt>
        <trkpt lat="28.723302" lon="104.757144"><ele>434.23465</ele><time>2026-01-16T22:02:33.000Z</time></trkpt>
        <trkpt lat="28.72334" lon="104.757173"><ele>433.94135</ele><time>2026-01-16T22:02:38.000Z</time></trkpt>
        <trkpt lat="28.723391" lon="104.757176"><ele>434.46954</ele><time>2026-01-16T22:02:43.000Z</time></trkpt>
        <trkpt lat="28.723444" lon="104.757171"><ele>433.92294</ele><time>2026-01-16T22:02:49.000Z</time></trkpt>
        <trkpt lat="28.72349" lon="104.757174"><ele>436.75742</ele><time>2026-01-16T22:02:58.000Z</time></trkpt>
        <trkpt lat="28.723539" lon="104.757171"><ele>438.4889</ele><time>2026-01-16T22:03:04.000Z</time></trkpt>
        <trkpt lat="28.723602" lon="104.757183"><ele>438.3198</ele><time>2026-01-16T22:03:09.000Z</time></trkpt>
        <trkpt lat="28.72365" lon="104.757184"><ele>438.10788</ele><time>2026-01-16T22:03:13.000Z</time></trkpt>
        <trkpt lat="28.723698" lon="104.757186"><ele>438.79523</ele><time>2026-01-16T22:03:17.000Z</time></trkpt>
        <trkpt lat="28.723752" lon="104.757175"><ele>440.51114</ele><time>2026-01-16T22:03:24.000Z</time></trkpt>
        <trkpt lat="28.723801" lon="104.757193"><ele>441.98883</ele><time>2026-01-16T22:03:28.000Z</time></trkpt>
        <trkpt lat="28.723844" lon="104.757234"><ele>442.20316</ele><time>2026-01-16T22:03:33.000Z</time></trkpt>
        <trkpt lat="28.723879" lon="104.757271"><ele>441.7717</ele><time>2026-01-16T22:03:37.000Z</time></trkpt>
        <trkpt lat="28.72393" lon="104.757291"><ele>442.04306</ele><time>2026-01-16T22:03:42.000Z</time></trkpt>
        <trkpt lat="28.723972" lon="104.757323"><ele>442.25558</ele><time>2026-01-16T22:03:47.000Z</time></trkpt>
        <trkpt lat="28.724017" lon="104.757352"><ele>442.0669</ele><time>2026-01-16T22:03:52.000Z</time></trkpt>
        <trkpt lat="28.724052" lon="104.757387"><ele>441.40652</ele><time>2026-01-16T22:03:56.000Z</time></trkpt>
        <trkpt lat="28.72408" lon="104.757434"><ele>440.3036</ele><time>2026-01-16T22:04:00.000Z</time></trkpt>
        <trkpt lat="28.724112" lon="104.757494"><ele>439.03564</ele><time>2026-01-16T22:04:05.000Z</time></trkpt>
        <trkpt lat="28.724164" lon="104.757501"><ele>438.9231</ele><time>2026-01-16T22:04:10.000Z</time></trkpt>
        <trkpt lat="28.724214" lon="104.757484"><ele>436.84464</ele><time>2026-01-16T22:04:16.000Z</time></trkpt>
        <trkpt lat="28.724245" lon="104.757438"><ele>436.75378</ele><time>2026-01-16T22:04:21.000Z</time></trkpt>
        <trkpt lat="28.724279" lon="104.757393"><ele>438.16666</ele><time>2026-01-16T22:04:25.000Z</time></trkpt>
        <trkpt lat="28.724313" lon="104.757344"><ele>439.6908</ele><time>2026-01-16T22:04:31.000Z</time></trkpt>
        <trkpt lat="28.724361" lon="104.75736"><ele>440.24493</ele><time>2026-01-16T22:04:34.000Z</time></trkpt>
        <trkpt lat="28.724404" lon="104.75739"><ele>439.3975</ele><time>2026-01-16T22:04:39.000Z</time></trkpt>
        <trkpt lat="28.724434" lon="104.757444"><ele>439.98245</ele><time>2026-01-16T22:04:44.000Z</time></trkpt>
        <trkpt lat="28.72446" lon="104.75749"><ele>440.44574</ele><time>2026-01-16T22:04:49.000Z</time></trkpt>
        <trkpt lat="28.724463" lon="104.757554"><ele>440.99902</ele><time>2026-01-16T22:04:56.000Z</time></trkpt>
        <trkpt lat="28.724456" lon="104.757611"><ele>439.28696</ele><time>2026-01-16T22:05:01.000Z</time></trkpt>
        <trkpt lat="28.724468" lon="104.757674"><ele>439.17215</ele><time>2026-01-16T22:05:07.000Z</time></trkpt>
        <trkpt lat="28.724456" lon="104.757744"><ele>438.8596</ele><time>2026-01-16T22:05:12.000Z</time></trkpt>
        <trkpt lat="28.724457" lon="104.757806"><ele>437.81424</ele><time>2026-01-16T22:05:17.000Z</time></trkpt>
        <trkpt lat="28.724494" lon="104.757853"><ele>437.16797</ele><time>2026-01-16T22:05:22.000Z</time></trkpt>
        <trkpt lat="28.72453" lon="104.757891"><ele>439.02762</ele><time>2026-01-16T22:05:27.000Z</time></trkpt>
        <trkpt lat="28.724578" lon="104.757905"><ele>443.70767</ele><time>2026-01-16T22:05:36.000Z</time></trkpt>
        <trkpt lat="28.724628" lon="104.757906"><ele>445.1097</ele><time>2026-01-16T22:05:42.000Z</time></trkpt>
        <trkpt lat="28.724676" lon="104.757904"><ele>447.44022</ele><time>2026-01-16T22:05:48.000Z</time></trkpt>
        <trkpt lat="28.724719" lon="104.757958"><ele>448.91888</ele><time>2026-01-16T22:05:52.000Z</time></trkpt>
        <trkpt lat="28.724746" lon="104.758015"><ele>449.48914</ele><time>2026-01-16T22:05:57.000Z</time></trkpt>
        <trkpt lat="28.724753" lon="104.758068"><ele>449.427</ele><time>2026-01-16T22:06:06.000Z</time></trkpt>
        <trkpt lat="28.724743" lon="104.758127"><ele>448.9276</ele><time>2026-01-16T22:06:11.000Z</time></trkpt>
        <trkpt lat="28.724728" lon="104.758183"><ele>448.98502</ele><time>2026-01-16T22:06:16.000Z</time></trkpt>
        <trkpt lat="28.724725" lon="104.758242"><ele>448.84094</ele><time>2026-01-16T22:06:21.000Z</time></trkpt>
        <trkpt lat="28.724742" lon="104.758291"><ele>447.39697</ele><time>2026-01-16T22:06:27.000Z</time></trkpt>
        <trkpt lat="28.724769" lon="104.758333"><ele>448.87918</ele><time>2026-01-16T22:06:34.000Z</time></trkpt>
        <trkpt lat="28.724784" lon="104.758392"><ele>448.92908</ele><time>2026-01-16T22:06:40.000Z</time></trkpt>
        <trkpt lat="28.724798" lon="104.758449"><ele>448.2873</ele><time>2026-01-16T22:06:45.000Z</time></trkpt>
        <trkpt lat="28.724837" lon="104.758477"><ele>448.78995</ele><time>2026-01-16T22:06:53.000Z</time></trkpt>
        <trkpt lat="28.724874" lon="104.758512"><ele>449.04898</ele><time>2026-01-16T22:07:02.000Z</time></trkpt>
        <trkpt lat="28.724903" lon="104.758564"><ele>450.03384</ele><time>2026-01-16T22:07:07.000Z</time></trkpt>
        <trkpt lat="28.724948" lon="104.758578"><ele>450.46927</ele><time>2026-01-16T22:07:13.000Z</time></trkpt>
        <trkpt lat="28.724999" lon="104.758588"><ele>450.62085</ele><time>2026-01-16T22:07:17.000Z</time></trkpt>
        <trkpt lat="28.725043" lon="104.758603"><ele>451.2057</ele><time>2026-01-16T22:07:24.000Z</time></trkpt>
        <trkpt lat="28.725089" lon="104.758625"><ele>450.34592</ele><time>2026-01-16T22:07:30.000Z</time></trkpt>
        <trkpt lat="28.725148" lon="104.75862"><ele>450.19064</ele><time>2026-01-16T22:07:35.000Z</time></trkpt>
        <trkpt lat="28.725204" lon="104.758604"><ele>450.7822</ele><time>2026-01-16T22:07:40.000Z</time></trkpt>
        <trkpt lat="28.725253" lon="104.758587"><ele>451.21753</ele><time>2026-01-16T22:07:44.000Z</time></trkpt>
        <trkpt lat="28.725299" lon="104.758592"><ele>450.91064</ele><time>2026-01-16T22:07:47.000Z</time></trkpt>
        <trkpt lat="28.725348" lon="104.758612"><ele>450.5685</ele><time>2026-01-16T22:07:51.000Z</time></trkpt>
        <trkpt lat="28.725396" lon="104.758619"><ele>450.87497</ele><time>2026-01-16T22:07:56.000Z</time></trkpt>
        <trkpt lat="28.725426" lon="104.758667"><ele>451.29242</ele><time>2026-01-16T22:08:00.000Z</time></trkpt>
        <trkpt lat="28.725432" lon="104.758718"><ele>451.94058</ele><time>2026-01-16T22:08:03.000Z</time></trkpt>
        <trkpt lat="28.725402" lon="104.758764"><ele>452.82535</ele><time>2026-01-16T22:08:08.000Z</time></trkpt>
        <trkpt lat="28.725376" lon="104.758812"><ele>453.54846</ele><time>2026-01-16T22:08:12.000Z</time></trkpt>
        <trkpt lat="28.725348" lon="104.758858"><ele>454.9149</ele><time>2026-01-16T22:08:17.000Z</time></trkpt>
        <trkpt lat="28.725339" lon="104.758913"><ele>455.61142</ele><time>2026-01-16T22:08:22.000Z</time></trkpt>
        <trkpt lat="28.725354" lon="104.758964"><ele>454.7688</ele><time>2026-01-16T22:08:27.000Z</time></trkpt>
        <trkpt lat="28.725355" lon="104.759033"><ele>454.22626</ele><time>2026-01-16T22:08:32.000Z</time></trkpt>
        <trkpt lat="28.725331" lon="104.759084"><ele>454.59833</ele><time>2026-01-16T22:08:37.000Z</time></trkpt>
        <trkpt lat="28.725358" lon="104.759138"><ele>454.72223</ele><time>2026-01-16T22:08:43.000Z</time></trkpt>
        <trkpt lat="28.725378" lon="104.759188"><ele>455.1133</ele><time>2026-01-16T22:08:47.000Z</time></trkpt>
        <trkpt lat="28.72545" lon="104.759209"><ele>456.78836</ele><time>2026-01-16T22:08:54.000Z</time></trkpt>
        <trkpt lat="28.725497" lon="104.759241"><ele>457.88428</ele><time>2026-01-16T22:08:59.000Z</time></trkpt>
        <trkpt lat="28.725515" lon="104.759299"><ele>458.2641</ele><time>2026-01-16T22:09:01.000Z</time></trkpt>
        <trkpt lat="28.725511" lon="104.759364"><ele>458.53867</ele><time>2026-01-16T22:09:05.000Z</time></trkpt>
        <trkpt lat="28.725503" lon="104.759423"><ele>458.95633</ele><time>2026-01-16T22:09:08.000Z</time></trkpt>
        <trkpt lat="28.72547" lon="104.759475"><ele>458.33914</ele><time>2026-01-16T22:09:12.000Z</time></trkpt>
        <trkpt lat="28.725434" lon="104.759518"><ele>457.75125</ele><time>2026-01-16T22:09:16.000Z</time></trkpt>
        <trkpt lat="28.7254" lon="104.759565"><ele>456.78195</ele><time>2026-01-16T22:09:21.000Z</time></trkpt>
        <trkpt lat="28.725384" lon="104.759614"><ele>455.2681</ele><time>2026-01-16T22:09:26.000Z</time></trkpt>
        <trkpt lat="28.72538" lon="104.759673"><ele>454.92902</ele><time>2026-01-16T22:09:31.000Z</time></trkpt>
        <trkpt lat="28.72537" lon="104.759733"><ele>454.27792</ele><time>2026-01-16T22:09:36.000Z</time></trkpt>
        <trkpt lat="28.725358" lon="104.759792"><ele>454.11157</ele><time>2026-01-16T22:09:40.000Z</time></trkpt>
        <trkpt lat="28.725353" lon="104.759845"><ele>452.98917</ele><time>2026-01-16T22:09:44.000Z</time></trkpt>
        <trkpt lat="28.725345" lon="104.759897"><ele>452.76346</ele><time>2026-01-16T22:10:02.000Z</time></trkpt>
        <trkpt lat="28.7253" lon="104.759923"><ele>450.60535</ele><time>2026-01-16T22:10:37.000Z</time></trkpt>
        <trkpt lat="28.725275" lon="104.75997"><ele>450.35358</ele><time>2026-01-16T22:10:41.000Z</time></trkpt>
        <trkpt lat="28.725264" lon="104.760027"><ele>451.1189</ele><time>2026-01-16T22:10:44.000Z</time></trkpt>
        <trkpt lat="28.725247" lon="104.760086"><ele>448.67252</ele><time>2026-01-16T22:10:50.000Z</time></trkpt>
        <trkpt lat="28.725239" lon="104.760145"><ele>447.48856</ele><time>2026-01-16T22:10:54.000Z</time></trkpt>
        <trkpt lat="28.72522" lon="104.7602"><ele>444.37976</ele><time>2026-01-16T22:10:59.000Z</time></trkpt>
        <trkpt lat="28.725195" lon="104.760253"><ele>442.44672</ele><time>2026-01-16T22:11:03.000Z</time></trkpt>
        <trkpt lat="28.725162" lon="104.760295"><ele>440.41614</ele><time>2026-01-16T22:11:07.000Z</time></trkpt>
        <trkpt lat="28.725139" lon="104.760344"><ele>439.02112</ele><time>2026-01-16T22:11:11.000Z</time></trkpt>
        <trkpt lat="28.725138" lon="104.760403"><ele>436.06018</ele><time>2026-01-16T22:11:18.000Z</time></trkpt>
        <trkpt lat="28.725107" lon="104.76045"><ele>435.44714</ele><time>2026-01-16T22:11:25.000Z</time></trkpt>
        <trkpt lat="28.725069" lon="104.760492"><ele>433.92273</ele><time>2026-01-16T22:11:31.000Z</time></trkpt>
        <trkpt lat="28.725039" lon="104.76054"><ele>432.5592</ele><time>2026-01-16T22:11:36.000Z</time></trkpt>
        <trkpt lat="28.725031" lon="104.760608"><ele>431.66763</ele><time>2026-01-16T22:11:41.000Z</time></trkpt>
        <trkpt lat="28.725036" lon="104.760666"><ele>430.3966</ele><time>2026-01-16T22:11:46.000Z</time></trkpt>
        <trkpt lat="28.725014" lon="104.760716"><ele>429.0307</ele><time>2026-01-16T22:11:52.000Z</time></trkpt>
        <trkpt lat="28.725021" lon="104.760767"><ele>427.6098</ele><time>2026-01-16T22:12:04.000Z</time></trkpt>
        <trkpt lat="28.72504" lon="104.760817"><ele>428.25226</ele><time>2026-01-16T22:12:11.000Z</time></trkpt>
        <trkpt lat="28.725074" lon="104.760866"><ele>427.70844</ele><time>2026-01-16T22:12:19.000Z</time></trkpt>
        <trkpt lat="28.725079" lon="104.760918"><ele>426.90768</ele><time>2026-01-16T22:12:30.000Z</time></trkpt>
        <trkpt lat="28.725076" lon="104.760976"><ele>425.93436</ele><time>2026-01-16T22:12:36.000Z</time></trkpt>
        <trkpt lat="28.725076" lon="104.761029"><ele>424.6994</ele><time>2026-01-16T22:12:41.000Z</time></trkpt>
        <trkpt lat="28.7251" lon="104.760983"><ele>424.70956</ele><time>2026-01-16T22:12:48.000Z</time></trkpt>
        <trkpt lat="28.725115" lon="104.760931"><ele>425.19098</ele><time>2026-01-16T22:12:51.000Z</time></trkpt>
        <trkpt lat="28.725147" lon="104.760879"><ele>426.52997</ele><time>2026-01-16T22:12:56.000Z</time></trkpt>
        <trkpt lat="28.725184" lon="104.760844"><ele>428.45844</ele><time>2026-01-16T22:12:59.000Z</time></trkpt>
        <trkpt lat="28.725222" lon="104.760816"><ele>429.59583</ele><time>2026-01-16T22:13:02.000Z</time></trkpt>
        <trkpt lat="28.725266" lon="104.760807"><ele>431.5467</ele><time>2026-01-16T22:13:05.000Z</time></trkpt>
        <trkpt lat="28.72532" lon="104.760789"><ele>433.54904</ele><time>2026-01-16T22:13:09.000Z</time></trkpt>
        <trkpt lat="28.72537" lon="104.760788"><ele>435.26373</ele><time>2026-01-16T22:13:12.000Z</time></trkpt>
        <trkpt lat="28.725424" lon="104.760789"><ele>436.69492</ele><time>2026-01-16T22:13:16.000Z</time></trkpt>
        <trkpt lat="28.725476" lon="104.760798"><ele>438.35077</ele><time>2026-01-16T22:13:21.000Z</time></trkpt>
        <trkpt lat="28.725517" lon="104.760853"><ele>438.8528</ele><time>2026-01-16T22:13:26.000Z</time></trkpt>
        <trkpt lat="28.72554" lon="104.76091"><ele>438.07526</ele><time>2026-01-16T22:13:31.000Z</time></trkpt>
        <trkpt lat="28.72556" lon="104.760969"><ele>436.5908</ele><time>2026-01-16T22:13:35.000Z</time></trkpt>
        <trkpt lat="28.725575" lon="104.761029"><ele>435.36267</ele><time>2026-01-16T22:13:39.000Z</time></trkpt>
        <trkpt lat="28.72556" lon="104.761079"><ele>434.39667</ele><time>2026-01-16T22:13:42.000Z</time></trkpt>
        <trkpt lat="28.725559" lon="104.761146"><ele>432.59464</ele><time>2026-01-16T22:13:46.000Z</time></trkpt>
        <trkpt lat="28.725555" lon="104.76121"><ele>430.37848</ele><time>2026-01-16T22:13:51.000Z</time></trkpt>
        <trkpt lat="28.725573" lon="104.761265"><ele>428.3639</ele><time>2026-01-16T22:13:56.000Z</time></trkpt>
        <trkpt lat="28.725602" lon="104.761314"><ele>426.72607</ele><time>2026-01-16T22:14:00.000Z</time></trkpt>
        <trkpt lat="28.725635" lon="104.76136"><ele>424.75653</ele><time>2026-01-16T22:14:05.000Z</time></trkpt>
        <trkpt lat="28.725675" lon="104.761402"><ele>423.78574</ele><time>2026-01-16T22:14:10.000Z</time></trkpt>
        <trkpt lat="28.725732" lon="104.761403"><ele>422.73117</ele><time>2026-01-16T22:14:16.000Z</time></trkpt>
        <trkpt lat="28.725777" lon="104.761421"><ele>423.1428</ele><time>2026-01-16T22:14:21.000Z</time></trkpt>
        <trkpt lat="28.725826" lon="104.761437"><ele>423.47482</ele><time>2026-01-16T22:14:26.000Z</time></trkpt>
        <trkpt lat="28.725871" lon="104.76147"><ele>423.56998</ele><time>2026-01-16T22:14:31.000Z</time></trkpt>
        <trkpt lat="28.725915" lon="104.761511"><ele>423.0324</ele><time>2026-01-16T22:14:36.000Z</time></trkpt>
        <trkpt lat="28.725958" lon="104.761543"><ele>422.26807</ele><time>2026-01-16T22:14:40.000Z</time></trkpt>
        <trkpt lat="28.72599" lon="104.761581"><ele>422.9468</ele><time>2026-01-16T22:14:44.000Z</time></trkpt>
        <trkpt lat="28.726027" lon="104.761618"><ele>422.5993</ele><time>2026-01-16T22:14:51.000Z</time></trkpt>
        <trkpt lat="28.726085" lon="104.761626"><ele>422.69974</ele><time>2026-01-16T22:14:57.000Z</time></trkpt>
        <trkpt lat="28.726126" lon="104.761653"><ele>422.55658</ele><time>2026-01-16T22:15:01.000Z</time></trkpt>
        <trkpt lat="28.726165" lon="104.761697"><ele>422.43286</ele><time>2026-01-16T22:15:06.000Z</time></trkpt>
        <trkpt lat="28.726217" lon="104.761724"><ele>421.90283</ele><time>2026-01-16T22:15:11.000Z</time></trkpt>
        <trkpt lat="28.726236" lon="104.761773"><ele>421.81827</ele><time>2026-01-16T22:15:15.000Z</time></trkpt>
        <trkpt lat="28.72626" lon="104.761818"><ele>421.67508</ele><time>2026-01-16T22:15:19.000Z</time></trkpt>
        <trkpt lat="28.726263" lon="104.761876"><ele>420.0068</ele><time>2026-01-16T22:15:23.000Z</time></trkpt>
        <trkpt lat="28.726267" lon="104.761943"><ele>418.34555</ele><time>2026-01-16T22:15:28.000Z</time></trkpt>
        <trkpt lat="28.726281" lon="104.762004"><ele>416.661</ele><time>2026-01-16T22:15:33.000Z</time></trkpt>
        <trkpt lat="28.726299" lon="104.762053"><ele>415.32834</ele><time>2026-01-16T22:15:39.000Z</time></trkpt>
        <trkpt lat="28.726319" lon="104.7621"><ele>415.03723</ele><time>2026-01-16T22:15:43.000Z</time></trkpt>
        <trkpt lat="28.72633" lon="104.762152"><ele>414.30402</ele><time>2026-01-16T22:15:47.000Z</time></trkpt>
        <trkpt lat="28.726355" lon="104.762206"><ele>414.21368</ele><time>2026-01-16T22:15:52.000Z</time></trkpt>
        <trkpt lat="28.726373" lon="104.762262"><ele>413.2553</ele><time>2026-01-16T22:15:57.000Z</time></trkpt>
        <trkpt lat="28.726395" lon="104.762313"><ele>413.19727</ele><time>2026-01-16T22:16:01.000Z</time></trkpt>
        <trkpt lat="28.726434" lon="104.762349"><ele>413.76758</ele><time>2026-01-16T22:16:05.000Z</time></trkpt>
        <trkpt lat="28.726483" lon="104.762369"><ele>413.39514</ele><time>2026-01-16T22:16:10.000Z</time></trkpt>
        <trkpt lat="28.726542" lon="104.762357"><ele>412.80453</ele><time>2026-01-16T22:16:14.000Z</time></trkpt>
        <trkpt lat="28.726593" lon="104.762352"><ele>412.89755</ele><time>2026-01-16T22:16:19.000Z</time></trkpt>
        <trkpt lat="28.726632" lon="104.76232"><ele>413.6377</ele><time>2026-01-16T22:16:23.000Z</time></trkpt>
        <trkpt lat="28.726669" lon="104.76228"><ele>413.01694</ele><time>2026-01-16T22:16:28.000Z</time></trkpt>
        <trkpt lat="28.72671" lon="104.762259"><ele>413.14246</ele><time>2026-01-16T22:16:33.000Z</time></trkpt>
        <trkpt lat="28.726754" lon="104.762239"><ele>413.07736</ele><time>2026-01-16T22:16:37.000Z</time></trkpt>
        <trkpt lat="28.726804" lon="104.76223"><ele>412.62314</ele><time>2026-01-16T22:16:42.000Z</time></trkpt>
        <trkpt lat="28.726863" lon="104.762219"><ele>412.45764</ele><time>2026-01-16T22:16:46.000Z</time></trkpt>
        <trkpt lat="28.726915" lon="104.762214"><ele>412.1351</ele><time>2026-01-16T22:16:50.000Z</time></trkpt>
        <trkpt lat="28.726951" lon="104.762258"><ele>410.2008</ele><time>2026-01-16T22:17:45.000Z</time></trkpt>
        <trkpt lat="28.727" lon="104.762241"><ele>410.61105</ele><time>2026-01-16T22:17:49.000Z</time></trkpt>
        <trkpt lat="28.727053" lon="104.762253"><ele>411.6719</ele><time>2026-01-16T22:17:54.000Z</time></trkpt>
        <trkpt lat="28.727098" lon="104.76224"><ele>412.29922</ele><time>2026-01-16T22:17:58.000Z</time></trkpt>
        <trkpt lat="28.727146" lon="104.762257"><ele>413.38794</ele><time>2026-01-16T22:18:02.000Z</time></trkpt>
        <trkpt lat="28.727194" lon="104.762256"><ele>413.2663</ele><time>2026-01-16T22:18:06.000Z</time></trkpt>
        <trkpt lat="28.727239" lon="104.762242"><ele>413.82928</ele><time>2026-01-16T22:18:10.000Z</time></trkpt>
        <trkpt lat="28.727287" lon="104.762236"><ele>414.96423</ele><time>2026-01-16T22:18:15.000Z</time></trkpt>
        <trkpt lat="28.727341" lon="104.762249"><ele>415.69467</ele><time>2026-01-16T22:18:21.000Z</time></trkpt>
        <trkpt lat="28.727388" lon="104.762237"><ele>416.19766</ele><time>2026-01-16T22:18:25.000Z</time></trkpt>
        <trkpt lat="28.727446" lon="104.762251"><ele>416.0803</ele><time>2026-01-16T22:18:30.000Z</time></trkpt>
        <trkpt lat="28.727498" lon="104.762253"><ele>417.11902</ele><time>2026-01-16T22:18:35.000Z</time></trkpt>
        <trkpt lat="28.727543" lon="104.762266"><ele>417.98602</ele><time>2026-01-16T22:18:39.000Z</time></trkpt>
        <trkpt lat="28.727591" lon="104.762281"><ele>417.97812</ele><time>2026-01-16T22:18:43.000Z</time></trkpt>
        <trkpt lat="28.727634" lon="104.762301"><ele>418.3014</ele><time>2026-01-16T22:18:46.000Z</time></trkpt>
        <trkpt lat="28.72768" lon="104.762335"><ele>419.02374</ele><time>2026-01-16T22:18:50.000Z</time></trkpt>
        <trkpt lat="28.727727" lon="104.762383"><ele>418.6901</ele><time>2026-01-16T22:18:55.000Z</time></trkpt>
        <trkpt lat="28.727751" lon="104.762442"><ele>417.81372</ele><time>2026-01-16T22:18:58.000Z</time></trkpt>
        <trkpt lat="28.72776" lon="104.7625"><ele>417.01727</ele><time>2026-01-16T22:19:02.000Z</time></trkpt>
        <trkpt lat="28.727765" lon="104.762551"><ele>415.61926</ele><time>2026-01-16T22:19:06.000Z</time></trkpt>
        <trkpt lat="28.727756" lon="104.762614"><ele>414.5884</ele><time>2026-01-16T22:19:10.000Z</time></trkpt>
        <trkpt lat="28.72774" lon="104.762673"><ele>412.87265</ele><time>2026-01-16T22:19:15.000Z</time></trkpt>
        <trkpt lat="28.727718" lon="104.762722"><ele>409.37872</ele><time>2026-01-16T22:19:27.000Z</time></trkpt>
        <trkpt lat="28.72773" lon="104.762775"><ele>408.9609</ele><time>2026-01-16T22:19:30.000Z</time></trkpt>
        <trkpt lat="28.727725" lon="104.762831"><ele>408.53067</ele><time>2026-01-16T22:19:34.000Z</time></trkpt>
        <trkpt lat="28.727734" lon="104.762881"><ele>408.2021</ele><time>2026-01-16T22:19:38.000Z</time></trkpt>
        <trkpt lat="28.727745" lon="104.762934"><ele>408.3047</ele><time>2026-01-16T22:19:42.000Z</time></trkpt>
        <trkpt lat="28.727763" lon="104.762992"><ele>407.97156</ele><time>2026-01-16T22:19:48.000Z</time></trkpt>
        <trkpt lat="28.727786" lon="104.763042"><ele>408.37576</ele><time>2026-01-16T22:19:51.000Z</time></trkpt>
        <trkpt lat="28.727791" lon="104.763106"><ele>408.9184</ele><time>2026-01-16T22:19:56.000Z</time></trkpt>
        <trkpt lat="28.727793" lon="104.763165"><ele>409.29993</ele><time>2026-01-16T22:20:03.000Z</time></trkpt>
        <trkpt lat="28.72782" lon="104.763216"><ele>410.16187</ele><time>2026-01-16T22:20:08.000Z</time></trkpt>
        <trkpt lat="28.727844" lon="104.763264"><ele>410.59558</ele><time>2026-01-16T22:20:12.000Z</time></trkpt>
        <trkpt lat="28.727868" lon="104.763318"><ele>411.4657</ele><time>2026-01-16T22:20:19.000Z</time></trkpt>
        <trkpt lat="28.727897" lon="104.763362"><ele>412.38968</ele><time>2026-01-16T22:20:23.000Z</time></trkpt>
        <trkpt lat="28.727935" lon="104.763408"><ele>413.10205</ele><time>2026-01-16T22:20:28.000Z</time></trkpt>
        <trkpt lat="28.727978" lon="104.76345"><ele>413.93085</ele><time>2026-01-16T22:20:33.000Z</time></trkpt>
        <trkpt lat="28.728016" lon="104.763478"><ele>413.09933</ele><time>2026-01-16T22:20:39.000Z</time></trkpt>
        <trkpt lat="28.72806" lon="104.763502"><ele>413.8898</ele><time>2026-01-16T22:20:44.000Z</time></trkpt>
        <trkpt lat="28.728106" lon="104.763538"><ele>413.71918</ele><time>2026-01-16T22:20:49.000Z</time></trkpt>
        <trkpt lat="28.72815" lon="104.763558"><ele>413.34955</ele><time>2026-01-16T22:20:54.000Z</time></trkpt>
        <trkpt lat="28.728193" lon="104.763581"><ele>412.14987</ele><time>2026-01-16T22:20:59.000Z</time></trkpt>
        <trkpt lat="28.728249" lon="104.763609"><ele>412.54086</ele><time>2026-01-16T22:21:04.000Z</time></trkpt>
        <trkpt lat="28.728305" lon="104.763621"><ele>412.05267</ele><time>2026-01-16T22:21:08.000Z</time></trkpt>
        <trkpt lat="28.72835" lon="104.763624"><ele>411.99216</ele><time>2026-01-16T22:21:12.000Z</time></trkpt>
        <trkpt lat="28.728398" lon="104.763627"><ele>412.02112</ele><time>2026-01-16T22:21:16.000Z</time></trkpt>
        <trkpt lat="28.728431" lon="104.763583"><ele>411.3877</ele><time>2026-01-16T22:21:28.000Z</time></trkpt>
        <trkpt lat="28.728459" lon="104.763538"><ele>412.20538</ele><time>2026-01-16T22:21:33.000Z</time></trkpt>
        <trkpt lat="28.728482" lon="104.763486"><ele>412.3674</ele><time>2026-01-16T22:21:39.000Z</time></trkpt>
        <trkpt lat="28.7285" lon="104.763437"><ele>412.2549</ele><time>2026-01-16T22:21:44.000Z</time></trkpt>
        <trkpt lat="28.728512" lon="104.763381"><ele>413.50574</ele><time>2026-01-16T22:21:50.000Z</time></trkpt>
        <trkpt lat="28.728536" lon="104.763327"><ele>414.27753</ele><time>2026-01-16T22:21:56.000Z</time></trkpt>
        <trkpt lat="28.728536" lon="104.763275"><ele>415.26367</ele><time>2026-01-16T22:22:00.000Z</time></trkpt>
        <trkpt lat="28.728566" lon="104.763231"><ele>415.658</ele><time>2026-01-16T22:22:04.000Z</time></trkpt>
        <trkpt lat="28.728584" lon="104.763177"><ele>416.26843</ele><time>2026-01-16T22:22:08.000Z</time></trkpt>
        <trkpt lat="28.728598" lon="104.763122"><ele>416.5419</ele><time>2026-01-16T22:22:13.000Z</time></trkpt>
        <trkpt lat="28.728621" lon="104.763073"><ele>417.7972</ele><time>2026-01-16T22:22:16.000Z</time></trkpt>
        <trkpt lat="28.728653" lon="104.763015"><ele>417.9317</ele><time>2026-01-16T22:22:21.000Z</time></trkpt>
        <trkpt lat="28.728686" lon="104.762976"><ele>418.57968</ele><time>2026-01-16T22:22:25.000Z</time></trkpt>
        <trkpt lat="28.728714" lon="104.762925"><ele>419.39325</ele><time>2026-01-16T22:22:30.000Z</time></trkpt>
        <trkpt lat="28.728753" lon="104.762878"><ele>419.95337</ele><time>2026-01-16T22:22:34.000Z</time></trkpt>
        <trkpt lat="28.728801" lon="104.762836"><ele>419.77118</ele><time>2026-01-16T22:22:40.000Z</time></trkpt>
        <trkpt lat="28.728842" lon="104.762804"><ele>420.13754</ele><time>2026-01-16T22:22:44.000Z</time></trkpt>
        <trkpt lat="28.728885" lon="104.762774"><ele>419.06137</ele><time>2026-01-16T22:22:49.000Z</time></trkpt>
        <trkpt lat="28.72892" lon="104.762735"><ele>418.55188</ele><time>2026-01-16T22:22:53.000Z</time></trkpt>
        <trkpt lat="28.728963" lon="104.762707"><ele>417.50778</ele><time>2026-01-16T22:22:58.000Z</time></trkpt>
        <trkpt lat="28.728998" lon="104.76266"><ele>417.41382</ele><time>2026-01-16T22:23:02.000Z</time></trkpt>
        <trkpt lat="28.729027" lon="104.762614"><ele>417.8801</ele><time>2026-01-16T22:23:07.000Z</time></trkpt>
        <trkpt lat="28.72906" lon="104.762573"><ele>418.7025</ele><time>2026-01-16T22:23:11.000Z</time></trkpt>
        <trkpt lat="28.729081" lon="104.762515"><ele>418.951</ele><time>2026-01-16T22:23:15.000Z</time></trkpt>
        <trkpt lat="28.72913" lon="104.762472"><ele>419.94363</ele><time>2026-01-16T22:23:21.000Z</time></trkpt>
        <trkpt lat="28.72917" lon="104.762434"><ele>420.4421</ele><time>2026-01-16T22:23:25.000Z</time></trkpt>
        <trkpt lat="28.729215" lon="104.762405"><ele>420.72827</ele><time>2026-01-16T22:23:30.000Z</time></trkpt>
        <trkpt lat="28.729259" lon="104.762377"><ele>420.1458</ele><time>2026-01-16T22:23:35.000Z</time></trkpt>
        <trkpt lat="28.729312" lon="104.762345"><ele>419.54993</ele><time>2026-01-16T22:23:40.000Z</time></trkpt>
        <trkpt lat="28.729358" lon="104.76233"><ele>419.11127</ele><time>2026-01-16T22:23:44.000Z</time></trkpt>
        <trkpt lat="28.729403" lon="104.76231"><ele>417.23172</ele><time>2026-01-16T22:23:48.000Z</time></trkpt>
        <trkpt lat="28.72945" lon="104.76229"><ele>415.74823</ele><time>2026-01-16T22:23:52.000Z</time></trkpt>
        <trkpt lat="28.729495" lon="104.762259"><ele>414.19138</ele><time>2026-01-16T22:23:56.000Z</time></trkpt>
        <trkpt lat="28.729544" lon="104.762217"><ele>413.11642</ele><time>2026-01-16T22:24:02.000Z</time></trkpt>
        <trkpt lat="28.72958" lon="104.762184"><ele>412.10422</ele><time>2026-01-16T22:24:06.000Z</time></trkpt>
        <trkpt lat="28.729619" lon="104.762142"><ele>410.92584</ele><time>2026-01-16T22:24:11.000Z</time></trkpt>
        <trkpt lat="28.729657" lon="104.762099"><ele>410.29047</ele><time>2026-01-16T22:24:16.000Z</time></trkpt>
        <trkpt lat="28.72969" lon="104.762045"><ele>409.81668</ele><time>2026-01-16T22:24:21.000Z</time></trkpt>
        <trkpt lat="28.729722" lon="104.761995"><ele>409.32977</ele><time>2026-01-16T22:24:26.000Z</time></trkpt>
        <trkpt lat="28.729764" lon="104.761956"><ele>410.07642</ele><time>2026-01-16T22:24:31.000Z</time></trkpt>
        <trkpt lat="28.729793" lon="104.761916"><ele>409.329</ele><time>2026-01-16T22:24:36.000Z</time></trkpt>
        <trkpt lat="28.729828" lon="104.76188"><ele>409.4694</ele><time>2026-01-16T22:24:40.000Z</time></trkpt>
        <trkpt lat="28.72986" lon="104.761844"><ele>409.5618</ele><time>2026-01-16T22:24:44.000Z</time></trkpt>
        <trkpt lat="28.729899" lon="104.761801"><ele>408.85794</ele><time>2026-01-16T22:24:49.000Z</time></trkpt>
        <trkpt lat="28.729932" lon="104.761764"><ele>406.82608</ele><time>2026-01-16T22:24:55.000Z</time></trkpt>
        <trkpt lat="28.729969" lon="104.761712"><ele>407.97815</ele><time>2026-01-16T22:24:58.000Z</time></trkpt>
        <trkpt lat="28.730003" lon="104.761661"><ele>407.00186</ele><time>2026-01-16T22:25:04.000Z</time></trkpt>
        <trkpt lat="28.730033" lon="104.761617"><ele>406.71252</ele><time>2026-01-16T22:25:08.000Z</time></trkpt>
        <trkpt lat="28.73005" lon="104.761565"><ele>406.1637</ele><time>2026-01-16T22:25:13.000Z</time></trkpt>
        <trkpt lat="28.730088" lon="104.761506"><ele>405.88516</ele><time>2026-01-16T22:25:18.000Z</time></trkpt>
        <trkpt lat="28.730104" lon="104.761455"><ele>404.89948</ele><time>2026-01-16T22:25:24.000Z</time></trkpt>
        <trkpt lat="28.730122" lon="104.761408"><ele>404.4534</ele><time>2026-01-16T22:25:27.000Z</time></trkpt>
        <trkpt lat="28.730154" lon="104.761364"><ele>404.0602</ele><time>2026-01-16T22:25:32.000Z</time></trkpt>
        <trkpt lat="28.730189" lon="104.761315"><ele>402.83575</ele><time>2026-01-16T22:25:38.000Z</time></trkpt>
        <trkpt lat="28.730209" lon="104.76126"><ele>401.6143</ele><time>2026-01-16T22:25:43.000Z</time></trkpt>
        <trkpt lat="28.730247" lon="104.761193"><ele>399.946</ele><time>2026-01-16T22:25:49.000Z</time></trkpt>
        <trkpt lat="28.730257" lon="104.761137"><ele>396.8422</ele><time>2026-01-16T22:25:55.000Z</time></trkpt>
        <trkpt lat="28.730273" lon="104.761078"><ele>395.50052</ele><time>2026-01-16T22:25:59.000Z</time></trkpt>
        <trkpt lat="28.730297" lon="104.761023"><ele>394.48386</ele><time>2026-01-16T22:26:04.000Z</time></trkpt>
        <trkpt lat="28.730314" lon="104.760972"><ele>394.15955</ele><time>2026-01-16T22:26:10.000Z</time></trkpt>
        <trkpt lat="28.730332" lon="104.760919"><ele>393.09506</ele><time>2026-01-16T22:26:15.000Z</time></trkpt>
        <trkpt lat="28.73036" lon="104.760878"><ele>391.2377</ele><time>2026-01-16T22:26:20.000Z</time></trkpt>
        <trkpt lat="28.730361" lon="104.760816"><ele>389.25418</ele><time>2026-01-16T22:26:27.000Z</time></trkpt>
        <trkpt lat="28.730365" lon="104.760763"><ele>388.04727</ele><time>2026-01-16T22:26:32.000Z</time></trkpt>
        <trkpt lat="28.730366" lon="104.760703"><ele>386.98523</ele><time>2026-01-16T22:26:38.000Z</time></trkpt>
        <trkpt lat="28.730364" lon="104.760643"><ele>385.88193</ele><time>2026-01-16T22:26:43.000Z</time></trkpt>
        <trkpt lat="28.730363" lon="104.760585"><ele>384.60968</ele><time>2026-01-16T22:26:49.000Z</time></trkpt>
        <trkpt lat="28.73036" lon="104.760527"><ele>383.17676</ele><time>2026-01-16T22:26:54.000Z</time></trkpt>
        <trkpt lat="28.730372" lon="104.760477"><ele>382.4932</ele><time>2026-01-16T22:26:59.000Z</time></trkpt>
        <trkpt lat="28.730389" lon="104.760419"><ele>382.28754</ele><time>2026-01-16T22:27:05.000Z</time></trkpt>
        <trkpt lat="28.730402" lon="104.760369"><ele>381.68707</ele><time>2026-01-16T22:27:10.000Z</time></trkpt>
        <trkpt lat="28.730416" lon="104.760313"><ele>381.69263</ele><time>2026-01-16T22:27:15.000Z</time></trkpt>
        <trkpt lat="28.730424" lon="104.760258"><ele>381.57455</ele><time>2026-01-16T22:27:18.000Z</time></trkpt>
        <trkpt lat="28.730443" lon="104.760201"><ele>380.6845</ele><time>2026-01-16T22:27:24.000Z</time></trkpt>
        <trkpt lat="28.730442" lon="104.760145"><ele>380.28644</ele><time>2026-01-16T22:27:29.000Z</time></trkpt>
        <trkpt lat="28.730469" lon="104.760093"><ele>379.97797</ele><time>2026-01-16T22:27:34.000Z</time></trkpt>
        <trkpt lat="28.73048" lon="104.760031"><ele>380.23654</ele><time>2026-01-16T22:27:38.000Z</time></trkpt>
        <trkpt lat="28.730505" lon="104.759982"><ele>380.16934</ele><time>2026-01-16T22:27:42.000Z</time></trkpt>
        <trkpt lat="28.730512" lon="104.759916"><ele>379.13782</ele><time>2026-01-16T22:27:48.000Z</time></trkpt>
        <trkpt lat="28.73053" lon="104.759866"><ele>379.5676</ele><time>2026-01-16T22:27:52.000Z</time></trkpt>
        <trkpt lat="28.730564" lon="104.759817"><ele>379.4359</ele><time>2026-01-16T22:27:56.000Z</time></trkpt>
        <trkpt lat="28.73058" lon="104.759764"><ele>379.0982</ele><time>2026-01-16T22:28:01.000Z</time></trkpt>
        <trkpt lat="28.730594" lon="104.759715"><ele>379.69028</ele><time>2026-01-16T22:28:05.000Z</time></trkpt>
        <trkpt lat="28.730622" lon="104.759669"><ele>379.2553</ele><time>2026-01-16T22:28:10.000Z</time></trkpt>
        <trkpt lat="28.730624" lon="104.759608"><ele>379.94138</ele><time>2026-01-16T22:28:15.000Z</time></trkpt>
        <trkpt lat="28.730639" lon="104.759559"><ele>380.0943</ele><time>2026-01-16T22:28:19.000Z</time></trkpt>
        <trkpt lat="28.730676" lon="104.759527"><ele>380.73648</ele><time>2026-01-16T22:28:23.000Z</time></trkpt>
        <trkpt lat="28.730699" lon="104.759479"><ele>379.4864</ele><time>2026-01-16T22:28:28.000Z</time></trkpt>
        <trkpt lat="28.730735" lon="104.759445"><ele>378.6131</ele><time>2026-01-16T22:28:31.000Z</time></trkpt>
        <trkpt lat="28.730785" lon="104.759414"><ele>376.94287</ele><time>2026-01-16T22:28:36.000Z</time></trkpt>
        <trkpt lat="28.730822" lon="104.759381"><ele>373.94513</ele><time>2026-01-16T22:28:40.000Z</time></trkpt>
        <trkpt lat="28.730852" lon="104.759336"><ele>372.88583</ele><time>2026-01-16T22:28:44.000Z</time></trkpt>
        <trkpt lat="28.730896" lon="104.75929"><ele>370.1247</ele><time>2026-01-16T22:28:50.000Z</time></trkpt>
        <trkpt lat="28.730932" lon="104.759256"><ele>368.31946</ele><time>2026-01-16T22:28:54.000Z</time></trkpt>
        <trkpt lat="28.730986" lon="104.759219"><ele>366.10974</ele><time>2026-01-16T22:28:59.000Z</time></trkpt>
        <trkpt lat="28.731024" lon="104.759173"><ele>363.36108</ele><time>2026-01-16T22:29:04.000Z</time></trkpt>
        <trkpt lat="28.731048" lon="104.759122"><ele>362.01788</ele><time>2026-01-16T22:29:08.000Z</time></trkpt>
        <trkpt lat="28.731082" lon="104.759076"><ele>359.5595</ele><time>2026-01-16T22:29:13.000Z</time></trkpt>
        <trkpt lat="28.731101" lon="104.759027"><ele>358.2957</ele><time>2026-01-16T22:29:17.000Z</time></trkpt>
        <trkpt lat="28.731126" lon="104.758979"><ele>357.13663</ele><time>2026-01-16T22:29:21.000Z</time></trkpt>
        <trkpt lat="28.731152" lon="104.758923"><ele>357.29105</ele><time>2026-01-16T22:29:25.000Z</time></trkpt>
        <trkpt lat="28.731181" lon="104.758876"><ele>355.68018</ele><time>2026-01-16T22:29:29.000Z</time></trkpt>
        <trkpt lat="28.731215" lon="104.758836"><ele>355.44803</ele><time>2026-01-16T22:29:33.000Z</time></trkpt>
        <trkpt lat="28.731226" lon="104.758782"><ele>355.35312</ele><time>2026-01-16T22:29:37.000Z</time></trkpt>
        <trkpt lat="28.731255" lon="104.758736"><ele>355.72562</ele><time>2026-01-16T22:29:41.000Z</time></trkpt>
        <trkpt lat="28.731288" lon="104.758692"><ele>355.09497</ele><time>2026-01-16T22:29:45.000Z</time></trkpt>
        <trkpt lat="28.731319" lon="104.758653"><ele>354.17438</ele><time>2026-01-16T22:29:48.000Z</time></trkpt>
        <trkpt lat="28.73135" lon="104.758605"><ele>353.15622</ele><time>2026-01-16T22:29:52.000Z</time></trkpt>
        <trkpt lat="28.731366" lon="104.758555"><ele>352.2786</ele><time>2026-01-16T22:29:57.000Z</time></trkpt>
        <trkpt lat="28.731403" lon="104.758519"><ele>353.14615</ele><time>2026-01-16T22:30:23.000Z</time></trkpt>
        <trkpt lat="28.731422" lon="104.758469"><ele>352.38687</ele><time>2026-01-16T22:30:29.000Z</time></trkpt>
        <trkpt lat="28.731435" lon="104.758419"><ele>352.0251</ele><time>2026-01-16T22:30:34.000Z</time></trkpt>
        <trkpt lat="28.731447" lon="104.758369"><ele>352.75226</ele><time>2026-01-16T22:30:39.000Z</time></trkpt>
        <trkpt lat="28.731448" lon="104.758308"><ele>353.00256</ele><time>2026-01-16T22:30:45.000Z</time></trkpt>
        <trkpt lat="28.731452" lon="104.75825"><ele>353.4428</ele><time>2026-01-16T22:30:50.000Z</time></trkpt>
        <trkpt lat="28.731464" lon="104.758195"><ele>354.14383</ele><time>2026-01-16T22:30:54.000Z</time></trkpt>
        <trkpt lat="28.731482" lon="104.758133"><ele>354.63776</ele><time>2026-01-16T22:30:58.000Z</time></trkpt>
        <trkpt lat="28.731501" lon="104.758079"><ele>355.79376</ele><time>2026-01-16T22:31:01.000Z</time></trkpt>
        <trkpt lat="28.73153" lon="104.758025"><ele>356.76364</ele><time>2026-01-16T22:31:05.000Z</time></trkpt>
        <trkpt lat="28.731556" lon="104.757964"><ele>357.55725</ele><time>2026-01-16T22:31:10.000Z</time></trkpt>
        <trkpt lat="28.731589" lon="104.757928"><ele>358.27777</ele><time>2026-01-16T22:31:14.000Z</time></trkpt>
        <trkpt lat="28.731634" lon="104.757893"><ele>357.46063</ele><time>2026-01-16T22:31:21.000Z</time></trkpt>
        <trkpt lat="28.731661" lon="104.757852"><ele>357.54428</ele><time>2026-01-16T22:31:25.000Z</time></trkpt>
        <trkpt lat="28.731702" lon="104.757819"><ele>355.4965</ele><time>2026-01-16T22:31:31.000Z</time></trkpt>
        <trkpt lat="28.731736" lon="104.757767"><ele>355.5972</ele><time>2026-01-16T22:31:35.000Z</time></trkpt>
        <trkpt lat="28.731769" lon="104.757724"><ele>355.84747</ele><time>2026-01-16T22:31:39.000Z</time></trkpt>
        <trkpt lat="28.7318" lon="104.757684"><ele>354.26556</ele><time>2026-01-16T22:31:43.000Z</time></trkpt>
        <trkpt lat="28.731829" lon="104.757641"><ele>353.594</ele><time>2026-01-16T22:31:47.000Z</time></trkpt>
        <trkpt lat="28.731854" lon="104.75759"><ele>353.04855</ele><time>2026-01-16T22:31:51.000Z</time></trkpt>
        <trkpt lat="28.731882" lon="104.757548"><ele>352.38766</ele><time>2026-01-16T22:31:55.000Z</time></trkpt>
        <trkpt lat="28.731925" lon="104.757521"><ele>351.03275</ele><time>2026-01-16T22:32:00.000Z</time></trkpt>
        <trkpt lat="28.731971" lon="104.757522"><ele>350.84198</ele><time>2026-01-16T22:32:03.000Z</time></trkpt>
        <trkpt lat="28.732024" lon="104.757545"><ele>349.36002</ele><time>2026-01-16T22:32:07.000Z</time></trkpt>
        <trkpt lat="28.732075" lon="104.75755"><ele>348.51382</ele><time>2026-01-16T22:32:10.000Z</time></trkpt>
        <trkpt lat="28.732122" lon="104.757562"><ele>347.57355</ele><time>2026-01-16T22:32:13.000Z</time></trkpt>
        <trkpt lat="28.732171" lon="104.757566"><ele>346.95944</ele><time>2026-01-16T22:32:17.000Z</time></trkpt>
        <trkpt lat="28.732213" lon="104.757523"><ele>345.8012</ele><time>2026-01-16T22:32:22.000Z</time></trkpt>
        <trkpt lat="28.732231" lon="104.757471"><ele>346.3401</ele><time>2026-01-16T22:32:26.000Z</time></trkpt>
        <trkpt lat="28.732239" lon="104.757415"><ele>346.5294</ele><time>2026-01-16T22:32:30.000Z</time></trkpt>
        <trkpt lat="28.732239" lon="104.757353"><ele>345.64023</ele><time>2026-01-16T22:32:35.000Z</time></trkpt>
        <trkpt lat="28.732255" lon="104.757303"><ele>345.88077</ele><time>2026-01-16T22:32:38.000Z</time></trkpt>
        <trkpt lat="28.732267" lon="104.757244"><ele>346.2826</ele><time>2026-01-16T22:32:42.000Z</time></trkpt>
        <trkpt lat="28.732283" lon="104.757193"><ele>345.8231</ele><time>2026-01-16T22:32:47.000Z</time></trkpt>
        <trkpt lat="28.732304" lon="104.757146"><ele>346.49905</ele><time>2026-01-16T22:32:50.000Z</time></trkpt>
        <trkpt lat="28.732318" lon="104.757093"><ele>347.22318</ele><time>2026-01-16T22:32:54.000Z</time></trkpt>
        <trkpt lat="28.732348" lon="104.757053"><ele>347.9039</ele><time>2026-01-16T22:32:58.000Z</time></trkpt>
        <trkpt lat="28.732369" lon="104.756996"><ele>349.30933</ele><time>2026-01-16T22:33:02.000Z</time></trkpt>
        <trkpt lat="28.732407" lon="104.756965"><ele>349.87326</ele><time>2026-01-16T22:33:07.000Z</time></trkpt>
        <trkpt lat="28.732436" lon="104.756914"><ele>350.5145</ele><time>2026-01-16T22:33:13.000Z</time></trkpt>
        <trkpt lat="28.732457" lon="104.756859"><ele>349.18192</ele><time>2026-01-16T22:33:20.000Z</time></trkpt>
        <trkpt lat="28.732478" lon="104.756801"><ele>348.8062</ele><time>2026-01-16T22:33:25.000Z</time></trkpt>
        <trkpt lat="28.732499" lon="104.756745"><ele>347.41254</ele><time>2026-01-16T22:33:32.000Z</time></trkpt>
        <trkpt lat="28.732516" lon="104.756686"><ele>346.03116</ele><time>2026-01-16T22:33:38.000Z</time></trkpt>
        <trkpt lat="28.732518" lon="104.756634"><ele>345.48697</ele><time>2026-01-16T22:33:43.000Z</time></trkpt>
        <trkpt lat="28.732509" lon="104.756581"><ele>345.60236</ele><time>2026-01-16T22:33:48.000Z</time></trkpt>
        <trkpt lat="28.73246" lon="104.756573"><ele>344.94342</ele><time>2026-01-16T22:33:57.000Z</time></trkpt>
        <trkpt lat="28.732472" lon="104.75651"><ele>344.87454</ele><time>2026-01-16T22:34:01.000Z</time></trkpt>
        <trkpt lat="28.732473" lon="104.756457"><ele>345.16898</ele><time>2026-01-16T22:34:05.000Z</time></trkpt>
        <trkpt lat="28.732486" lon="104.756401"><ele>345.9438</ele><time>2026-01-16T22:34:10.000Z</time></trkpt>
        <trkpt lat="28.732493" lon="104.756344"><ele>347.25742</ele><time>2026-01-16T22:34:15.000Z</time></trkpt>
        <trkpt lat="28.732505" lon="104.756294"><ele>347.13974</ele><time>2026-01-16T22:34:18.000Z</time></trkpt>
        <trkpt lat="28.732508" lon="104.756231"><ele>348.23956</ele><time>2026-01-16T22:34:22.000Z</time></trkpt>
        <trkpt lat="28.732522" lon="104.756171"><ele>348.4806</ele><time>2026-01-16T22:34:27.000Z</time></trkpt>
        <trkpt lat="28.732528" lon="104.756109"><ele>348.46112</ele><time>2026-01-16T22:34:35.000Z</time></trkpt>
        <trkpt lat="28.732545" lon="104.756059"><ele>349.499</ele><time>2026-01-16T22:34:39.000Z</time></trkpt>
        <trkpt lat="28.732562" lon="104.756012"><ele>349.941</ele><time>2026-01-16T22:34:43.000Z</time></trkpt>
        <trkpt lat="28.732584" lon="104.755961"><ele>350.56107</ele><time>2026-01-16T22:34:47.000Z</time></trkpt>
        <trkpt lat="28.732607" lon="104.755914"><ele>351.53976</ele><time>2026-01-16T22:34:50.000Z</time></trkpt>
        <trkpt lat="28.732635" lon="104.755869"><ele>352.82785</ele><time>2026-01-16T22:34:53.000Z</time></trkpt>
        <trkpt lat="28.732667" lon="104.755818"><ele>352.99142</ele><time>2026-01-16T22:34:57.000Z</time></trkpt>
        <trkpt lat="28.732702" lon="104.755763"><ele>352.6768</ele><time>2026-01-16T22:35:01.000Z</time></trkpt>
        <trkpt lat="28.732739" lon="104.755713"><ele>352.52704</ele><time>2026-01-16T22:35:05.000Z</time></trkpt>
        <trkpt lat="28.732764" lon="104.755667"><ele>351.96063</ele><time>2026-01-16T22:35:08.000Z</time></trkpt>
        <trkpt lat="28.732793" lon="104.755624"><ele>350.42783</ele><time>2026-01-16T22:35:12.000Z</time></trkpt>
        <trkpt lat="28.732822" lon="104.755575"><ele>349.40933</ele><time>2026-01-16T22:35:16.000Z</time></trkpt>
        <trkpt lat="28.732854" lon="104.755522"><ele>349.0729</ele><time>2026-01-16T22:35:20.000Z</time></trkpt>
        <trkpt lat="28.732894" lon="104.755481"><ele>348.74875</ele><time>2026-01-16T22:35:22.000Z</time></trkpt>
        <trkpt lat="28.732927" lon="104.755423"><ele>348.10556</ele><time>2026-01-16T22:35:27.000Z</time></trkpt>
        <trkpt lat="28.732962" lon="104.755368"><ele>348.40744</ele><time>2026-01-16T22:35:31.000Z</time></trkpt>
        <trkpt lat="28.733" lon="104.75533"><ele>348.2102</ele><time>2026-01-16T22:35:35.000Z</time></trkpt>
        <trkpt lat="28.733045" lon="104.755293"><ele>347.69574</ele><time>2026-01-16T22:35:40.000Z</time></trkpt>
        <trkpt lat="28.733084" lon="104.755253"><ele>347.03455</ele><time>2026-01-16T22:35:45.000Z</time></trkpt>
        <trkpt lat="28.733119" lon="104.755219"><ele>346.89767</ele><time>2026-01-16T22:35:48.000Z</time></trkpt>
        <trkpt lat="28.733139" lon="104.755164"><ele>345.94266</ele><time>2026-01-16T22:35:53.000Z</time></trkpt>
        <trkpt lat="28.733155" lon="104.755107"><ele>345.70694</ele><time>2026-01-16T22:35:59.000Z</time></trkpt>
        <trkpt lat="28.733162" lon="104.755053"><ele>345.15094</ele><time>2026-01-16T22:36:03.000Z</time></trkpt>
        <trkpt lat="28.733191" lon="104.755012"><ele>345.35657</ele><time>2026-01-16T22:36:08.000Z</time></trkpt>
        <trkpt lat="28.733232" lon="104.754987"><ele>343.32147</ele><time>2026-01-16T22:36:15.000Z</time></trkpt>
        <trkpt lat="28.733274" lon="104.754962"><ele>342.2139</ele><time>2026-01-16T22:36:21.000Z</time></trkpt>
        <trkpt lat="28.733315" lon="104.754919"><ele>342.41016</ele><time>2026-01-16T22:36:26.000Z</time></trkpt>
        <trkpt lat="28.733344" lon="104.754876"><ele>343.4082</ele><time>2026-01-16T22:36:32.000Z</time></trkpt>
        <trkpt lat="28.733378" lon="104.754836"><ele>343.24896</ele><time>2026-01-16T22:36:37.000Z</time></trkpt>
        <trkpt lat="28.733413" lon="104.754798"><ele>343.65103</ele><time>2026-01-16T22:36:42.000Z</time></trkpt>
        <trkpt lat="28.733458" lon="104.754781"><ele>344.02698</ele><time>2026-01-16T22:36:47.000Z</time></trkpt>
        <trkpt lat="28.733491" lon="104.754741"><ele>342.16815</ele><time>2026-01-16T22:36:54.000Z</time></trkpt>
        <trkpt lat="28.733532" lon="104.754704"><ele>342.75632</ele><time>2026-01-16T22:36:58.000Z</time></trkpt>
        <trkpt lat="28.73357" lon="104.754665"><ele>342.68506</ele><time>2026-01-16T22:37:03.000Z</time></trkpt>
        <trkpt lat="28.733615" lon="104.754627"><ele>342.90598</ele><time>2026-01-16T22:37:08.000Z</time></trkpt>
        <trkpt lat="28.733658" lon="104.754591"><ele>341.9388</ele><time>2026-01-16T22:37:12.000Z</time></trkpt>
        <trkpt lat="28.733703" lon="104.754563"><ele>342.3942</ele><time>2026-01-16T22:37:17.000Z</time></trkpt>
        <trkpt lat="28.733744" lon="104.75452"><ele>342.12134</ele><time>2026-01-16T22:37:22.000Z</time></trkpt>
        <trkpt lat="28.733781" lon="104.754489"><ele>341.76398</ele><time>2026-01-16T22:37:25.000Z</time></trkpt>
        <trkpt lat="28.733819" lon="104.754446"><ele>341.8748</ele><time>2026-01-16T22:37:29.000Z</time></trkpt>
        <trkpt lat="28.733859" lon="104.754422"><ele>340.84592</ele><time>2026-01-16T22:37:33.000Z</time></trkpt>
        <trkpt lat="28.733896" lon="104.754382"><ele>340.84332</ele><time>2026-01-16T22:37:37.000Z</time></trkpt>
        <trkpt lat="28.733934" lon="104.754343"><ele>340.6662</ele><time>2026-01-16T22:37:41.000Z</time></trkpt>
        <trkpt lat="28.733972" lon="104.754307"><ele>341.21188</ele><time>2026-01-16T22:37:45.000Z</time></trkpt>
        <trkpt lat="28.734017" lon="104.754291"><ele>340.69052</ele><time>2026-01-16T22:37:49.000Z</time></trkpt>
        <trkpt lat="28.734053" lon="104.754247"><ele>339.66806</ele><time>2026-01-16T22:37:55.000Z</time></trkpt>
        <trkpt lat="28.734087" lon="104.754212"><ele>339.80853</ele><time>2026-01-16T22:37:59.000Z</time></trkpt>
        <trkpt lat="28.734121" lon="104.754164"><ele>339.4266</ele><time>2026-01-16T22:38:02.000Z</time></trkpt>
        <trkpt lat="28.734161" lon="104.754131"><ele>339.12292</ele><time>2026-01-16T22:38:06.000Z</time></trkpt>
        <trkpt lat="28.734194" lon="104.75409"><ele>339.03247</ele><time>2026-01-16T22:38:10.000Z</time></trkpt>
        <trkpt lat="28.734227" lon="104.754051"><ele>338.2813</ele><time>2026-01-16T22:38:16.000Z</time></trkpt>
        <trkpt lat="28.734267" lon="104.754019"><ele>338.91348</ele><time>2026-01-16T22:38:22.000Z</time></trkpt>
        <trkpt lat="28.734316" lon="104.754002"><ele>338.2517</ele><time>2026-01-16T22:38:27.000Z</time></trkpt>
        <trkpt lat="28.734365" lon="104.753969"><ele>337.329</ele><time>2026-01-16T22:38:31.000Z</time></trkpt>
        <trkpt lat="28.734401" lon="104.753939"><ele>338.5597</ele><time>2026-01-16T22:38:34.000Z</time></trkpt>
        <trkpt lat="28.734451" lon="104.753919"><ele>338.14938</ele><time>2026-01-16T22:38:38.000Z</time></trkpt>
        <trkpt lat="28.7345" lon="104.753895"><ele>336.85754</ele><time>2026-01-16T22:38:43.000Z</time></trkpt>
        <trkpt lat="28.734554" lon="104.753883"><ele>336.5392</ele><time>2026-01-16T22:38:48.000Z</time></trkpt>
        <trkpt lat="28.73461" lon="104.753868"><ele>336.65317</ele><time>2026-01-16T22:38:52.000Z</time></trkpt>
        <trkpt lat="28.734654" lon="104.753857"><ele>337.0881</ele><time>2026-01-16T22:38:56.000Z</time></trkpt>
        <trkpt lat="28.734698" lon="104.753837"><ele>337.17282</ele><time>2026-01-16T22:39:00.000Z</time></trkpt>
        <trkpt lat="28.734742" lon="104.753808"><ele>337.55673</ele><time>2026-01-16T22:39:05.000Z</time></trkpt>
        <trkpt lat="28.73478" lon="104.753779"><ele>337.77582</ele><time>2026-01-16T22:39:08.000Z</time></trkpt>
        <trkpt lat="28.734819" lon="104.753741"><ele>337.8813</ele><time>2026-01-16T22:39:13.000Z</time></trkpt>
        <trkpt lat="28.734851" lon="104.7537"><ele>336.95566</ele><time>2026-01-16T22:39:18.000Z</time></trkpt>
        <trkpt lat="28.734873" lon="104.753655"><ele>336.4231</ele><time>2026-01-16T22:39:23.000Z</time></trkpt>
        <trkpt lat="28.734903" lon="104.753617"><ele>335.55823</ele><time>2026-01-16T22:39:28.000Z</time></trkpt>
        <trkpt lat="28.734934" lon="104.753575"><ele>335.6679</ele><time>2026-01-16T22:39:32.000Z</time></trkpt>
        <trkpt lat="28.734978" lon="104.753548"><ele>335.05777</ele><time>2026-01-16T22:39:37.000Z</time></trkpt>
        <trkpt lat="28.735028" lon="104.753525"><ele>334.7678</ele><time>2026-01-16T22:39:43.000Z</time></trkpt>
        <trkpt lat="28.735067" lon="104.753487"><ele>334.4452</ele><time>2026-01-16T22:39:48.000Z</time></trkpt>
        <trkpt lat="28.735104" lon="104.753455"><ele>333.1366</ele><time>2026-01-16T22:39:53.000Z</time></trkpt>
        <trkpt lat="28.735108" lon="104.753395"><ele>333.07285</ele><time>2026-01-16T22:39:59.000Z</time></trkpt>
        <trkpt lat="28.735123" lon="104.75334"><ele>332.32407</ele><time>2026-01-16T22:40:03.000Z</time></trkpt>
        <trkpt lat="28.735157" lon="104.753287"><ele>332.00516</ele><time>2026-01-16T22:40:08.000Z</time></trkpt>
        <trkpt lat="28.73519" lon="104.753238"><ele>330.48102</ele><time>2026-01-16T22:40:11.000Z</time></trkpt>
        <trkpt lat="28.735238" lon="104.753214"><ele>329.99164</ele><time>2026-01-16T22:40:15.000Z</time></trkpt>
        <trkpt lat="28.735291" lon="104.753211"><ele>328.881</ele><time>2026-01-16T22:40:19.000Z</time></trkpt>
        <trkpt lat="28.735351" lon="104.753221"><ele>328.89163</ele><time>2026-01-16T22:40:24.000Z</time></trkpt>
        <trkpt lat="28.735398" lon="104.753246"><ele>328.38715</ele><time>2026-01-16T22:40:28.000Z</time></trkpt>
        <trkpt lat="28.735441" lon="104.753269"><ele>328.65308</ele><time>2026-01-16T22:40:32.000Z</time></trkpt>
        <trkpt lat="28.73549" lon="104.753287"><ele>328.68744</ele><time>2026-01-16T22:40:37.000Z</time></trkpt>
        <trkpt lat="28.735535" lon="104.753295"><ele>328.16125</ele><time>2026-01-16T22:40:41.000Z</time></trkpt>
        <trkpt lat="28.735583" lon="104.753293"><ele>329.20807</ele><time>2026-01-16T22:40:45.000Z</time></trkpt>
        <trkpt lat="28.735641" lon="104.753282"><ele>329.84937</ele><time>2026-01-16T22:40:50.000Z</time></trkpt>
        <trkpt lat="28.735693" lon="104.753262"><ele>330.14304</ele><time>2026-01-16T22:40:55.000Z</time></trkpt>
        <trkpt lat="28.735737" lon="104.753237"><ele>330.8918</ele><time>2026-01-16T22:40:59.000Z</time></trkpt>
        <trkpt lat="28.735783" lon="104.753224"><ele>330.65918</ele><time>2026-01-16T22:41:03.000Z</time></trkpt>
        <trkpt lat="28.735825" lon="104.753193"><ele>330.1199</ele><time>2026-01-16T22:41:09.000Z</time></trkpt>
        <trkpt lat="28.735872" lon="104.753189"><ele>329.87585</ele><time>2026-01-16T22:41:19.000Z</time></trkpt>
        <trkpt lat="28.735923" lon="104.753177"><ele>330.1713</ele><time>2026-01-16T22:41:28.000Z</time></trkpt>
        <trkpt lat="28.735945" lon="104.75313"><ele>329.28824</ele><time>2026-01-16T22:41:34.000Z</time></trkpt>
        <trkpt lat="28.735981" lon="104.753089"><ele>328.11212</ele><time>2026-01-16T22:41:39.000Z</time></trkpt>
        <trkpt lat="28.736019" lon="104.753048"><ele>327.23404</ele><time>2026-01-16T22:41:43.000Z</time></trkpt>
        <trkpt lat="28.736055" lon="104.753015"><ele>327.09616</ele><time>2026-01-16T22:41:47.000Z</time></trkpt>
        <trkpt lat="28.736077" lon="104.752968"><ele>327.01593</ele><time>2026-01-16T22:41:51.000Z</time></trkpt>
        <trkpt lat="28.736109" lon="104.752917"><ele>326.68927</ele><time>2026-01-16T22:41:55.000Z</time></trkpt>
        <trkpt lat="28.736128" lon="104.752869"><ele>326.1574</ele><time>2026-01-16T22:41:59.000Z</time></trkpt>
        <trkpt lat="28.736154" lon="104.752818"><ele>326.00754</ele><time>2026-01-16T22:42:03.000Z</time></trkpt>
        <trkpt lat="28.736193" lon="104.752778"><ele>326.03717</ele><time>2026-01-16T22:42:07.000Z</time></trkpt>
        <trkpt lat="28.736248" lon="104.752754"><ele>325.3132</ele><time>2026-01-16T22:42:12.000Z</time></trkpt>
        <trkpt lat="28.736304" lon="104.752737"><ele>325.00397</ele><time>2026-01-16T22:42:17.000Z</time></trkpt>
        <trkpt lat="28.736357" lon="104.752728"><ele>324.85425</ele><time>2026-01-16T22:42:21.000Z</time></trkpt>
        <trkpt lat="28.736403" lon="104.752719"><ele>325.36862</ele><time>2026-01-16T22:42:25.000Z</time></trkpt>
        <trkpt lat="28.736454" lon="104.752714"><ele>325.56396</ele><time>2026-01-16T22:42:29.000Z</time></trkpt>
        <trkpt lat="28.736508" lon="104.752712"><ele>325.10754</ele><time>2026-01-16T22:42:36.000Z</time></trkpt>
        <trkpt lat="28.736555" lon="104.752676"><ele>324.25345</ele><time>2026-01-16T22:42:40.000Z</time></trkpt>
        <trkpt lat="28.736602" lon="104.752653"><ele>324.10333</ele><time>2026-01-16T22:42:44.000Z</time></trkpt>
        <trkpt lat="28.736651" lon="104.752622"><ele>324.18582</ele><time>2026-01-16T22:42:48.000Z</time></trkpt>
        <trkpt lat="28.736693" lon="104.752593"><ele>324.15848</ele><time>2026-01-16T22:42:52.000Z</time></trkpt>
        <trkpt lat="28.736737" lon="104.752559"><ele>323.077</ele><time>2026-01-16T22:42:58.000Z</time></trkpt>
        <trkpt lat="28.736782" lon="104.752537"><ele>323.0265</ele><time>2026-01-16T22:43:02.000Z</time></trkpt>
        <trkpt lat="28.736833" lon="104.752535"><ele>323.0705</ele><time>2026-01-16T22:43:06.000Z</time></trkpt>
        <trkpt lat="28.736878" lon="104.752517"><ele>323.6277</ele><time>2026-01-16T22:43:11.000Z</time></trkpt>
        <trkpt lat="28.736925" lon="104.752507"><ele>323.52213</ele><time>2026-01-16T22:43:16.000Z</time></trkpt>
        <trkpt lat="28.736966" lon="104.752482"><ele>323.7687</ele><time>2026-01-16T22:43:20.000Z</time></trkpt>
        <trkpt lat="28.737019" lon="104.752474"><ele>324.01868</ele><time>2026-01-16T22:43:24.000Z</time></trkpt>
        <trkpt lat="28.737062" lon="104.752452"><ele>323.589</ele><time>2026-01-16T22:43:28.000Z</time></trkpt>
        <trkpt lat="28.737113" lon="104.752444"><ele>323.84427</ele><time>2026-01-16T22:43:32.000Z</time></trkpt>
        <trkpt lat="28.737165" lon="104.752448"><ele>324.57904</ele><time>2026-01-16T22:43:37.000Z</time></trkpt>
        <trkpt lat="28.737213" lon="104.752441"><ele>324.43042</ele><time>2026-01-16T22:43:41.000Z</time></trkpt>
        <trkpt lat="28.737261" lon="104.752436"><ele>325.05444</ele><time>2026-01-16T22:43:45.000Z</time></trkpt>
        <trkpt lat="28.737311" lon="104.752431"><ele>325.9076</ele><time>2026-01-16T22:43:49.000Z</time></trkpt>
        <trkpt lat="28.737362" lon="104.75243"><ele>325.5572</ele><time>2026-01-16T22:43:52.000Z</time></trkpt>
        <trkpt lat="28.737407" lon="104.752418"><ele>325.7999</ele><time>2026-01-16T22:43:55.000Z</time></trkpt>
        <trkpt lat="28.737455" lon="104.752408"><ele>325.75143</ele><time>2026-01-16T22:44:00.000Z</time></trkpt>
        <trkpt lat="28.737508" lon="104.752397"><ele>325.88684</ele><time>2026-01-16T22:44:03.000Z</time></trkpt>
        <trkpt lat="28.737555" lon="104.752394"><ele>325.3768</ele><time>2026-01-16T22:44:07.000Z</time></trkpt>
        <trkpt lat="28.737607" lon="104.7524"><ele>325.3868</ele><time>2026-01-16T22:44:11.000Z</time></trkpt>
        <trkpt lat="28.737648" lon="104.752425"><ele>324.19632</ele><time>2026-01-16T22:44:16.000Z</time></trkpt>
        <trkpt lat="28.737693" lon="104.752432"><ele>325.11954</ele><time>2026-01-16T22:44:19.000Z</time></trkpt>
        <trkpt lat="28.737742" lon="104.752441"><ele>325.43484</ele><time>2026-01-16T22:44:23.000Z</time></trkpt>
        <trkpt lat="28.737791" lon="104.752453"><ele>325.61502</ele><time>2026-01-16T22:44:27.000Z</time></trkpt>
        <trkpt lat="28.737845" lon="104.752458"><ele>326.16013</ele><time>2026-01-16T22:44:31.000Z</time></trkpt>
        <trkpt lat="28.7379" lon="104.752462"><ele>326.4527</ele><time>2026-01-16T22:44:35.000Z</time></trkpt>
        <trkpt lat="28.737957" lon="104.752452"><ele>326.77084</ele><time>2026-01-16T22:44:39.000Z</time></trkpt>
        <trkpt lat="28.738009" lon="104.752451"><ele>326.7522</ele><time>2026-01-16T22:44:43.000Z</time></trkpt>
        <trkpt lat="28.738054" lon="104.752439"><ele>326.11862</ele><time>2026-01-16T22:44:47.000Z</time></trkpt>
        <trkpt lat="28.738098" lon="104.752423"><ele>326.7404</ele><time>2026-01-16T22:44:51.000Z</time></trkpt>
        <trkpt lat="28.738141" lon="104.752395"><ele>326.4905</ele><time>2026-01-16T22:44:56.000Z</time></trkpt>
        <trkpt lat="28.738184" lon="104.752376"><ele>327.04666</ele><time>2026-01-16T22:45:01.000Z</time></trkpt>
        <trkpt lat="28.738226" lon="104.752331"><ele>328.1493</ele><time>2026-01-16T22:45:05.000Z</time></trkpt>
        <trkpt lat="28.73827" lon="104.752302"><ele>328.42673</ele><time>2026-01-16T22:45:09.000Z</time></trkpt>
        <trkpt lat="28.738308" lon="104.752261"><ele>328.835</ele><time>2026-01-16T22:45:13.000Z</time></trkpt>
        <trkpt lat="28.738358" lon="104.752227"><ele>330.20993</ele><time>2026-01-16T22:45:17.000Z</time></trkpt>
        <trkpt lat="28.738389" lon="104.752178"><ele>330.25595</ele><time>2026-01-16T22:45:21.000Z</time></trkpt>
        <trkpt lat="28.738407" lon="104.752123"><ele>329.4611</ele><time>2026-01-16T22:45:26.000Z</time></trkpt>
        <trkpt lat="28.738403" lon="104.752069"><ele>328.41876</ele><time>2026-01-16T22:45:31.000Z</time></trkpt>
        <trkpt lat="28.738409" lon="104.752015"><ele>327.30078</ele><time>2026-01-16T22:45:36.000Z</time></trkpt>
        <trkpt lat="28.738429" lon="104.751956"><ele>326.0785</ele><time>2026-01-16T22:45:41.000Z</time></trkpt>
        <trkpt lat="28.738454" lon="104.751906"><ele>324.10416</ele><time>2026-01-16T22:45:46.000Z</time></trkpt>
        <trkpt lat="28.738477" lon="104.751851"><ele>325.47864</ele><time>2026-01-16T22:45:51.000Z</time></trkpt>
        <trkpt lat="28.738504" lon="104.751804"><ele>325.068</ele><time>2026-01-16T22:46:00.000Z</time></trkpt>
        <trkpt lat="28.738537" lon="104.751752"><ele>325.04175</ele><time>2026-01-16T22:46:05.000Z</time></trkpt>
        <trkpt lat="28.738559" lon="104.751707"><ele>325.27097</ele><time>2026-01-16T22:46:09.000Z</time></trkpt>
        <trkpt lat="28.738584" lon="104.751657"><ele>324.94467</ele><time>2026-01-16T22:46:14.000Z</time></trkpt>
        <trkpt lat="28.738607" lon="104.751603"><ele>325.3298</ele><time>2026-01-16T22:46:17.000Z</time></trkpt>
        <trkpt lat="28.73864" lon="104.751564"><ele>325.30722</ele><time>2026-01-16T22:46:21.000Z</time></trkpt>
        <trkpt lat="28.738673" lon="104.751508"><ele>326.02344</ele><time>2026-01-16T22:46:25.000Z</time></trkpt>
        <trkpt lat="28.738696" lon="104.751457"><ele>325.88354</ele><time>2026-01-16T22:46:29.000Z</time></trkpt>
        <trkpt lat="28.738719" lon="104.751412"><ele>326.14114</ele><time>2026-01-16T22:46:33.000Z</time></trkpt>
        <trkpt lat="28.738743" lon="104.751368"><ele>325.58072</ele><time>2026-01-16T22:46:37.000Z</time></trkpt>
        <trkpt lat="28.738776" lon="104.751324"><ele>325.8452</ele><time>2026-01-16T22:46:41.000Z</time></trkpt>
        <trkpt lat="28.738802" lon="104.751278"><ele>326.24457</ele><time>2026-01-16T22:46:45.000Z</time></trkpt>
        <trkpt lat="28.738839" lon="104.751232"><ele>325.83026</ele><time>2026-01-16T22:46:50.000Z</time></trkpt>
        <trkpt lat="28.738865" lon="104.751187"><ele>326.6851</ele><time>2026-01-16T22:46:54.000Z</time></trkpt>
        <trkpt lat="28.738895" lon="104.751145"><ele>326.59442</ele><time>2026-01-16T22:46:58.000Z</time></trkpt>
        <trkpt lat="28.738928" lon="104.751106"><ele>326.48987</ele><time>2026-01-16T22:47:02.000Z</time></trkpt>
        <trkpt lat="28.738959" lon="104.751059"><ele>326.7371</ele><time>2026-01-16T22:47:07.000Z</time></trkpt>
        <trkpt lat="28.738981" lon="104.751007"><ele>326.34784</ele><time>2026-01-16T22:47:11.000Z</time></trkpt>
        <trkpt lat="28.739007" lon="104.750951"><ele>326.50497</ele><time>2026-01-16T22:47:16.000Z</time></trkpt>
        <trkpt lat="28.739041" lon="104.750908"><ele>326.99365</ele><time>2026-01-16T22:47:21.000Z</time></trkpt>
        <trkpt lat="28.739077" lon="104.750875"><ele>327.39844</ele><time>2026-01-16T22:47:35.000Z</time></trkpt>
        <trkpt lat="28.739115" lon="104.750845"><ele>327.44098</ele><time>2026-01-16T22:47:39.000Z</time></trkpt>
        <trkpt lat="28.739164" lon="104.750818"><ele>328.90924</ele><time>2026-01-16T22:47:45.000Z</time></trkpt>
        <trkpt lat="28.739211" lon="104.750799"><ele>328.8488</ele><time>2026-01-16T22:47:49.000Z</time></trkpt>
        <trkpt lat="28.739258" lon="104.750804"><ele>328.38065</ele><time>2026-01-16T22:47:52.000Z</time></trkpt>
        <trkpt lat="28.739303" lon="104.750807"><ele>328.3578</ele><time>2026-01-16T22:47:56.000Z</time></trkpt>
        <trkpt lat="28.739355" lon="104.750812"><ele>328.38797</ele><time>2026-01-16T22:48:00.000Z</time></trkpt>
        <trkpt lat="28.739401" lon="104.750794"><ele>328.08347</ele><time>2026-01-16T22:48:04.000Z</time></trkpt>
        <trkpt lat="28.739452" lon="104.750779"><ele>327.85477</ele><time>2026-01-16T22:48:09.000Z</time></trkpt>
        <trkpt lat="28.739499" lon="104.75076"><ele>327.05704</ele><time>2026-01-16T22:48:13.000Z</time></trkpt>
        <trkpt lat="28.739546" lon="104.750745"><ele>327.09064</ele><time>2026-01-16T22:48:17.000Z</time></trkpt>
        <trkpt lat="28.739592" lon="104.750743"><ele>326.7588</ele><time>2026-01-16T22:48:21.000Z</time></trkpt>
        <trkpt lat="28.739639" lon="104.750725"><ele>327.119</ele><time>2026-01-16T22:48:41.000Z</time></trkpt>
        <trkpt lat="28.73969" lon="104.750733"><ele>327.04443</ele><time>2026-01-16T22:48:45.000Z</time></trkpt>
        <trkpt lat="28.739739" lon="104.750738"><ele>327.01678</ele><time>2026-01-16T22:48:49.000Z</time></trkpt>
        <trkpt lat="28.739794" lon="104.750734"><ele>327.29218</ele><time>2026-01-16T22:48:54.000Z</time></trkpt>
        <trkpt lat="28.739843" lon="104.750733"><ele>327.6809</ele><time>2026-01-16T22:48:58.000Z</time></trkpt>
        <trkpt lat="28.739883" lon="104.750701"><ele>327.77628</ele><time>2026-01-16T22:49:02.000Z</time></trkpt>
        <trkpt lat="28.739933" lon="104.750662"><ele>327.3361</ele><time>2026-01-16T22:49:07.000Z</time></trkpt>
        <trkpt lat="28.739973" lon="104.750617"><ele>326.8693</ele><time>2026-01-16T22:49:13.000Z</time></trkpt>
        <trkpt lat="28.740013" lon="104.750575"><ele>325.50168</ele><time>2026-01-16T22:49:18.000Z</time></trkpt>
        <trkpt lat="28.740048" lon="104.750538"><ele>325.6216</ele><time>2026-01-16T22:49:32.000Z</time></trkpt>
        <trkpt lat="28.740101" lon="104.750546"><ele>324.7989</ele><time>2026-01-16T22:49:37.000Z</time></trkpt>
        <trkpt lat="28.740146" lon="104.750547"><ele>324.82214</ele><time>2026-01-16T22:49:40.000Z</time></trkpt>
        <trkpt lat="28.74019" lon="104.750567"><ele>326.3237</ele><time>2026-01-16T22:49:44.000Z</time></trkpt>
        <trkpt lat="28.740239" lon="104.750579"><ele>326.37595</ele><time>2026-01-16T22:49:48.000Z</time></trkpt>
        <trkpt lat="28.740287" lon="104.750591"><ele>326.61288</ele><time>2026-01-16T22:49:52.000Z</time></trkpt>
        <trkpt lat="28.740342" lon="104.750596"><ele>326.51285</ele><time>2026-01-16T22:49:56.000Z</time></trkpt>
        <trkpt lat="28.740389" lon="104.750612"><ele>326.24863</ele><time>2026-01-16T22:50:00.000Z</time></trkpt>
        <trkpt lat="28.740442" lon="104.750614"><ele>326.28088</ele><time>2026-01-16T22:50:04.000Z</time></trkpt>
        <trkpt lat="28.74049" lon="104.750603"><ele>326.80518</ele><time>2026-01-16T22:50:08.000Z</time></trkpt>
        <trkpt lat="28.74054" lon="104.750596"><ele>326.5281</ele><time>2026-01-16T22:50:12.000Z</time></trkpt>
        <trkpt lat="28.74059" lon="104.750595"><ele>326.50104</ele><time>2026-01-16T22:50:16.000Z</time></trkpt>
        <trkpt lat="28.740639" lon="104.750596"><ele>326.9669</ele><time>2026-01-16T22:50:19.000Z</time></trkpt>
        <trkpt lat="28.740691" lon="104.750581"><ele>327.19907</ele><time>2026-01-16T22:50:23.000Z</time></trkpt>
        <trkpt lat="28.740741" lon="104.750571"><ele>327.5481</ele><time>2026-01-16T22:50:27.000Z</time></trkpt>
        <trkpt lat="28.740785" lon="104.750557"><ele>327.9792</ele><time>2026-01-16T22:50:30.000Z</time></trkpt>
        <trkpt lat="28.740839" lon="104.75054"><ele>328.3309</ele><time>2026-01-16T22:50:35.000Z</time></trkpt>
        <trkpt lat="28.740895" lon="104.750535"><ele>329.25262</ele><time>2026-01-16T22:50:40.000Z</time></trkpt>
        <trkpt lat="28.740949" lon="104.750529"><ele>330.01837</ele><time>2026-01-16T22:50:45.000Z</time></trkpt>
        <trkpt lat="28.741004" lon="104.750525"><ele>330.81982</ele><time>2026-01-16T22:50:50.000Z</time></trkpt>
        <trkpt lat="28.741053" lon="104.750522"><ele>331.33875</ele><time>2026-01-16T22:50:54.000Z</time></trkpt>
        <trkpt lat="28.741111" lon="104.750516"><ele>332.56042</ele><time>2026-01-16T22:51:00.000Z</time></trkpt>
        <trkpt lat="28.741166" lon="104.750514"><ele>333.22577</ele><time>2026-01-16T22:51:06.000Z</time></trkpt>
        <trkpt lat="28.741209" lon="104.750499"><ele>334.38098</ele><time>2026-01-16T22:51:11.000Z</time></trkpt>
        <trkpt lat="28.741257" lon="104.750501"><ele>335.0809</ele><time>2026-01-16T22:51:16.000Z</time></trkpt>
        <trkpt lat="28.741311" lon="104.750505"><ele>335.8347</ele><time>2026-01-16T22:51:22.000Z</time></trkpt>
        <trkpt lat="28.74136" lon="104.750503"><ele>336.8136</ele><time>2026-01-16T22:51:27.000Z</time></trkpt>
        <trkpt lat="28.741409" lon="104.750507"><ele>337.70642</ele><time>2026-01-16T22:51:32.000Z</time></trkpt>
        <trkpt lat="28.74145" lon="104.750528"><ele>336.9534</ele><time>2026-01-16T22:51:38.000Z</time></trkpt>
        <trkpt lat="28.741475" lon="104.750586"><ele>336.35596</ele><time>2026-01-16T22:51:42.000Z</time></trkpt>
        <trkpt lat="28.741494" lon="104.75064"><ele>336.6899</ele><time>2026-01-16T22:51:46.000Z</time></trkpt>
        <trkpt lat="28.741504" lon="104.750694"><ele>336.70456</ele><time>2026-01-16T22:51:50.000Z</time></trkpt>
        <trkpt lat="28.741506" lon="104.750759"><ele>337.25574</ele><time>2026-01-16T22:51:55.000Z</time></trkpt>
        <trkpt lat="28.741517" lon="104.750814"><ele>337.65048</ele><time>2026-01-16T22:52:00.000Z</time></trkpt>
        <trkpt lat="28.741549" lon="104.750868"><ele>338.41034</ele><time>2026-01-16T22:52:05.000Z</time></trkpt>
        <trkpt lat="28.74159" lon="104.750896"><ele>339.4969</ele><time>2026-01-16T22:52:10.000Z</time></trkpt>
        <trkpt lat="28.741641" lon="104.750918"><ele>338.28873</ele><time>2026-01-16T22:52:15.000Z</time></trkpt>
        <trkpt lat="28.741696" lon="104.750929"><ele>337.8651</ele><time>2026-01-16T22:52:20.000Z</time></trkpt>
        <trkpt lat="28.741742" lon="104.750934"><ele>337.70004</ele><time>2026-01-16T22:52:24.000Z</time></trkpt>
        <trkpt lat="28.74178" lon="104.750968"><ele>336.96893</ele><time>2026-01-16T22:52:28.000Z</time></trkpt>
        <trkpt lat="28.741824" lon="104.750998"><ele>337.0155</ele><time>2026-01-16T22:52:31.000Z</time></trkpt>
        <trkpt lat="28.741879" lon="104.751026"><ele>337.19006</ele><time>2026-01-16T22:52:36.000Z</time></trkpt>
        <trkpt lat="28.74193" lon="104.751034"><ele>337.66904</ele><time>2026-01-16T22:52:41.000Z</time></trkpt>
        <trkpt lat="28.741986" lon="104.751033"><ele>337.52347</ele><time>2026-01-16T22:52:46.000Z</time></trkpt>
        <trkpt lat="28.742034" lon="104.751043"><ele>337.37512</ele><time>2026-01-16T22:52:50.000Z</time></trkpt>
        <trkpt lat="28.742076" lon="104.751066"><ele>337.59363</ele><time>2026-01-16T22:52:58.000Z</time></trkpt>
        <trkpt lat="28.742123" lon="104.751084"><ele>337.24292</ele><time>2026-01-16T22:53:03.000Z</time></trkpt>
        <trkpt lat="28.74217" lon="104.751072"><ele>337.16483</ele><time>2026-01-16T22:53:07.000Z</time></trkpt>
        <trkpt lat="28.742223" lon="104.751054"><ele>336.71985</ele><time>2026-01-16T22:53:12.000Z</time></trkpt>
        <trkpt lat="28.742271" lon="104.751035"><ele>336.62918</ele><time>2026-01-16T22:53:16.000Z</time></trkpt>
        <trkpt lat="28.74232" lon="104.751029"><ele>336.63138</ele><time>2026-01-16T22:53:20.000Z</time></trkpt>
        <trkpt lat="28.742368" lon="104.751026"><ele>337.76627</ele><time>2026-01-16T22:53:25.000Z</time></trkpt>
        <trkpt lat="28.742414" lon="104.751022"><ele>338.81873</ele><time>2026-01-16T22:53:29.000Z</time></trkpt>
        <trkpt lat="28.742464" lon="104.750997"><ele>339.0725</ele><time>2026-01-16T22:53:33.000Z</time></trkpt>
        <trkpt lat="28.742507" lon="104.750979"><ele>339.32187</ele><time>2026-01-16T22:53:37.000Z</time></trkpt>
        <trkpt lat="28.742552" lon="104.750955"><ele>339.13055</ele><time>2026-01-16T22:53:41.000Z</time></trkpt>
        <trkpt lat="28.742594" lon="104.750932"><ele>338.63742</ele><time>2026-01-16T22:53:45.000Z</time></trkpt>
        <trkpt lat="28.742631" lon="104.750893"><ele>338.5282</ele><time>2026-01-16T22:53:49.000Z</time></trkpt>
        <trkpt lat="28.742674" lon="104.750859"><ele>337.67505</ele><time>2026-01-16T22:53:53.000Z</time></trkpt>
        <trkpt lat="28.742714" lon="104.750814"><ele>337.2118</ele><time>2026-01-16T22:53:57.000Z</time></trkpt>
        <trkpt lat="28.742755" lon="104.750784"><ele>336.74658</ele><time>2026-01-16T22:54:01.000Z</time></trkpt>
        <trkpt lat="28.742809" lon="104.750752"><ele>336.04214</ele><time>2026-01-16T22:54:06.000Z</time></trkpt>
        <trkpt lat="28.742856" lon="104.750721"><ele>336.45883</ele><time>2026-01-16T22:54:10.000Z</time></trkpt>
        <trkpt lat="28.742911" lon="104.750714"><ele>336.45224</ele><time>2026-01-16T22:54:14.000Z</time></trkpt>
        <trkpt lat="28.742967" lon="104.750708"><ele>336.64642</ele><time>2026-01-16T22:54:18.000Z</time></trkpt>
        <trkpt lat="28.743018" lon="104.750728"><ele>337.63748</ele><time>2026-01-16T22:54:23.000Z</time></trkpt>
        <trkpt lat="28.743051" lon="104.750781"><ele>339.84445</ele><time>2026-01-16T22:54:27.000Z</time></trkpt>
        <trkpt lat="28.743076" lon="104.750827"><ele>339.69955</ele><time>2026-01-16T22:54:32.000Z</time></trkpt>
        <trkpt lat="28.743094" lon="104.750876"><ele>340.13196</ele><time>2026-01-16T22:54:35.000Z</time></trkpt>
        <trkpt lat="28.743122" lon="104.75093"><ele>340.65887</ele><time>2026-01-16T22:54:41.000Z</time></trkpt>
        <trkpt lat="28.743148" lon="104.75098"><ele>340.50327</ele><time>2026-01-16T22:54:46.000Z</time></trkpt>
        <trkpt lat="28.743172" lon="104.751039"><ele>341.4722</ele><time>2026-01-16T22:54:50.000Z</time></trkpt>
        <trkpt lat="28.743159" lon="104.751092"><ele>341.51395</ele><time>2026-01-16T22:54:54.000Z</time></trkpt>
        <trkpt lat="28.743137" lon="104.751145"><ele>341.85477</ele><time>2026-01-16T22:54:58.000Z</time></trkpt>
        <trkpt lat="28.743114" lon="104.751203"><ele>341.97696</ele><time>2026-01-16T22:55:03.000Z</time></trkpt>
        <trkpt lat="28.74311" lon="104.751264"><ele>342.9732</ele><time>2026-01-16T22:55:07.000Z</time></trkpt>
        <trkpt lat="28.743088" lon="104.75133"><ele>342.70416</ele><time>2026-01-16T22:55:12.000Z</time></trkpt>
        <trkpt lat="28.743095" lon="104.751383"><ele>343.47305</ele><time>2026-01-16T22:55:15.000Z</time></trkpt>
        <trkpt lat="28.743108" lon="104.751437"><ele>342.97903</ele><time>2026-01-16T22:55:19.000Z</time></trkpt>
        <trkpt lat="28.743126" lon="104.751495"><ele>343.45078</ele><time>2026-01-16T22:55:23.000Z</time></trkpt>
        <trkpt lat="28.743148" lon="104.751554"><ele>343.6922</ele><time>2026-01-16T22:55:28.000Z</time></trkpt>
        <trkpt lat="28.743184" lon="104.751597"><ele>343.32324</ele><time>2026-01-16T22:55:33.000Z</time></trkpt>
        <trkpt lat="28.74321" lon="104.75164"><ele>343.48672</ele><time>2026-01-16T22:55:37.000Z</time></trkpt>
        <trkpt lat="28.743254" lon="104.751677"><ele>342.84766</ele><time>2026-01-16T22:55:41.000Z</time></trkpt>
        <trkpt lat="28.743289" lon="104.751714"><ele>341.71848</ele><time>2026-01-16T22:55:45.000Z</time></trkpt>
        <trkpt lat="28.74333" lon="104.751751"><ele>341.53653</ele><time>2026-01-16T22:55:49.000Z</time></trkpt>
        <trkpt lat="28.743378" lon="104.751779"><ele>341.35437</ele><time>2026-01-16T22:55:53.000Z</time></trkpt>
        <trkpt lat="28.743424" lon="104.751795"><ele>340.7907</ele><time>2026-01-16T22:55:56.000Z</time></trkpt>
        <trkpt lat="28.743478" lon="104.751809"><ele>340.7081</ele><time>2026-01-16T22:56:00.000Z</time></trkpt>
        <trkpt lat="28.743536" lon="104.751817"><ele>340.553</ele><time>2026-01-16T22:56:04.000Z</time></trkpt>
        <trkpt lat="28.743582" lon="104.751827"><ele>340.7324</ele><time>2026-01-16T22:56:07.000Z</time></trkpt>
        <trkpt lat="28.743628" lon="104.75184"><ele>341.44592</ele><time>2026-01-16T22:56:10.000Z</time></trkpt>
        <trkpt lat="28.74367" lon="104.751862"><ele>340.60303</ele><time>2026-01-16T22:56:13.000Z</time></trkpt>
        <trkpt lat="28.743703" lon="104.751907"><ele>340.69064</ele><time>2026-01-16T22:56:16.000Z</time></trkpt>
        <trkpt lat="28.743734" lon="104.751948"><ele>340.77298</ele><time>2026-01-16T22:56:19.000Z</time></trkpt>
        <trkpt lat="28.743774" lon="104.751996"><ele>341.42767</ele><time>2026-01-16T22:56:23.000Z</time></trkpt>
        <trkpt lat="28.743822" lon="104.752028"><ele>341.31592</ele><time>2026-01-16T22:56:27.000Z</time></trkpt>
        <trkpt lat="28.743866" lon="104.752055"><ele>341.62357</ele><time>2026-01-16T22:56:31.000Z</time></trkpt>
        <trkpt lat="28.743916" lon="104.75208"><ele>341.38388</ele><time>2026-01-16T22:56:35.000Z</time></trkpt>
        <trkpt lat="28.743968" lon="104.752103"><ele>340.7852</ele><time>2026-01-16T22:56:39.000Z</time></trkpt>
        <trkpt lat="28.744019" lon="104.752124"><ele>340.47397</ele><time>2026-01-16T22:56:43.000Z</time></trkpt>
        <trkpt lat="28.744069" lon="104.752142"><ele>339.60822</ele><time>2026-01-16T22:56:46.000Z</time></trkpt>
        <trkpt lat="28.744123" lon="104.752154"><ele>340.2341</ele><time>2026-01-16T22:56:50.000Z</time></trkpt>
        <trkpt lat="28.744172" lon="104.752181"><ele>339.70102</ele><time>2026-01-16T22:56:54.000Z</time></trkpt>
        <trkpt lat="28.744223" lon="104.7522"><ele>339.48947</ele><time>2026-01-16T22:56:58.000Z</time></trkpt>
        <trkpt lat="28.744283" lon="104.75221"><ele>339.612</ele><time>2026-01-16T22:57:04.000Z</time></trkpt>
        <trkpt lat="28.744336" lon="104.752199"><ele>339.70795</ele><time>2026-01-16T22:57:10.000Z</time></trkpt>
        <trkpt lat="28.744377" lon="104.752178"><ele>340.04846</ele><time>2026-01-16T22:57:14.000Z</time></trkpt>
        <trkpt lat="28.744417" lon="104.752147"><ele>339.96503</ele><time>2026-01-16T22:57:18.000Z</time></trkpt>
        <trkpt lat="28.744457" lon="104.752118"><ele>339.67944</ele><time>2026-01-16T22:57:22.000Z</time></trkpt>
        <trkpt lat="28.744507" lon="104.752085"><ele>338.1186</ele><time>2026-01-16T22:57:27.000Z</time></trkpt>
        <trkpt lat="28.74454" lon="104.752038"><ele>338.0761</ele><time>2026-01-16T22:57:31.000Z</time></trkpt>
        <trkpt lat="28.744575" lon="104.751999"><ele>337.54395</ele><time>2026-01-16T22:57:36.000Z</time></trkpt>
        <trkpt lat="28.744608" lon="104.751964"><ele>337.38315</ele><time>2026-01-16T22:57:40.000Z</time></trkpt>
        <trkpt lat="28.744626" lon="104.751911"><ele>338.03732</ele><time>2026-01-16T22:57:44.000Z</time></trkpt>
        <trkpt lat="28.744659" lon="104.751866"><ele>337.8644</ele><time>2026-01-16T22:57:49.000Z</time></trkpt>
        <trkpt lat="28.744682" lon="104.751821"><ele>338.3194</ele><time>2026-01-16T22:57:53.000Z</time></trkpt>
        <trkpt lat="28.744704" lon="104.751773"><ele>339.0683</ele><time>2026-01-16T22:57:57.000Z</time></trkpt>
        <trkpt lat="28.744724" lon="104.751694"><ele>340.34125</ele><time>2026-01-16T22:58:02.000Z</time></trkpt>
        <trkpt lat="28.744758" lon="104.751661"><ele>340.96872</ele><time>2026-01-16T22:58:07.000Z</time></trkpt>
        <trkpt lat="28.744786" lon="104.751613"><ele>341.16357</ele><time>2026-01-16T22:58:11.000Z</time></trkpt>
        <trkpt lat="28.744816" lon="104.751573"><ele>341.72314</ele><time>2026-01-16T22:58:15.000Z</time></trkpt>
        <trkpt lat="28.744858" lon="104.751532"><ele>341.0331</ele><time>2026-01-16T22:58:20.000Z</time></trkpt>
        <trkpt lat="28.744892" lon="104.751498"><ele>341.8946</ele><time>2026-01-16T22:58:25.000Z</time></trkpt>
        <trkpt lat="28.744934" lon="104.751463"><ele>342.48068</ele><time>2026-01-16T22:58:29.000Z</time></trkpt>
        <trkpt lat="28.744978" lon="104.751442"><ele>342.45612</ele><time>2026-01-16T22:58:33.000Z</time></trkpt>
        <trkpt lat="28.745026" lon="104.751425"><ele>343.56296</ele><time>2026-01-16T22:58:37.000Z</time></trkpt>
        <trkpt lat="28.745084" lon="104.751407"><ele>342.3391</ele><time>2026-01-16T22:58:42.000Z</time></trkpt>
        <trkpt lat="28.745132" lon="104.751413"><ele>341.94437</ele><time>2026-01-16T22:58:46.000Z</time></trkpt>
        <trkpt lat="28.745189" lon="104.751408"><ele>340.9194</ele><time>2026-01-16T22:58:49.000Z</time></trkpt>
        <trkpt lat="28.745244" lon="104.751392"><ele>339.5693</ele><time>2026-01-16T22:58:55.000Z</time></trkpt>
        <trkpt lat="28.745296" lon="104.751385"><ele>339.0438</ele><time>2026-01-16T22:58:59.000Z</time></trkpt>
        <trkpt lat="28.745342" lon="104.751382"><ele>338.6445</ele><time>2026-01-16T22:59:03.000Z</time></trkpt>
        <trkpt lat="28.745388" lon="104.751388"><ele>337.7446</ele><time>2026-01-16T22:59:07.000Z</time></trkpt>
        <trkpt lat="28.745435" lon="104.751385"><ele>336.9785</ele><time>2026-01-16T22:59:11.000Z</time></trkpt>
        <trkpt lat="28.745488" lon="104.751378"><ele>336.42828</ele><time>2026-01-16T22:59:16.000Z</time></trkpt>
        <trkpt lat="28.745536" lon="104.751352"><ele>336.58612</ele><time>2026-01-16T22:59:20.000Z</time></trkpt>
        <trkpt lat="28.745578" lon="104.751313"><ele>336.69278</ele><time>2026-01-16T22:59:24.000Z</time></trkpt>
        <trkpt lat="28.745611" lon="104.751268"><ele>336.4223</ele><time>2026-01-16T22:59:29.000Z</time></trkpt>
        <trkpt lat="28.745646" lon="104.751217"><ele>335.0541</ele><time>2026-01-16T22:59:34.000Z</time></trkpt>
        <trkpt lat="28.74568" lon="104.751172"><ele>334.46664</ele><time>2026-01-16T22:59:38.000Z</time></trkpt>
        <trkpt lat="28.745705" lon="104.751122"><ele>333.60068</ele><time>2026-01-16T22:59:43.000Z</time></trkpt>
        <trkpt lat="28.745733" lon="104.75108"><ele>333.5192</ele><time>2026-01-16T22:59:47.000Z</time></trkpt>
        <trkpt lat="28.74577" lon="104.751042"><ele>332.25122</ele><time>2026-01-16T22:59:51.000Z</time></trkpt>
        <trkpt lat="28.745812" lon="104.751006"><ele>331.14734</ele><time>2026-01-16T22:59:55.000Z</time></trkpt>
        <trkpt lat="28.74585" lon="104.750972"><ele>329.83017</ele><time>2026-01-16T22:59:59.000Z</time></trkpt>
        <trkpt lat="28.745889" lon="104.750936"><ele>329.19858</ele><time>2026-01-16T23:00:03.000Z</time></trkpt>
        <trkpt lat="28.745923" lon="104.750891"><ele>327.58762</ele><time>2026-01-16T23:00:08.000Z</time></trkpt>
        <trkpt lat="28.745955" lon="104.750837"><ele>327.41425</ele><time>2026-01-16T23:00:12.000Z</time></trkpt>
        <trkpt lat="28.745984" lon="104.750775"><ele>326.23737</ele><time>2026-01-16T23:00:17.000Z</time></trkpt>
        <trkpt lat="28.746016" lon="104.750727"><ele>325.1843</ele><time>2026-01-16T23:00:22.000Z</time></trkpt>
        <trkpt lat="28.746041" lon="104.750676"><ele>325.15973</ele><time>2026-01-16T23:00:26.000Z</time></trkpt>
        <trkpt lat="28.746072" lon="104.750637"><ele>324.17017</ele><time>2026-01-16T23:00:30.000Z</time></trkpt>
        <trkpt lat="28.746107" lon="104.750584"><ele>324.18997</ele><time>2026-01-16T23:00:34.000Z</time></trkpt>
        <trkpt lat="28.746142" lon="104.75055"><ele>323.50958</ele><time>2026-01-16T23:00:38.000Z</time></trkpt>
        <trkpt lat="28.746175" lon="104.750512"><ele>323.50174</ele><time>2026-01-16T23:00:42.000Z</time></trkpt>
        <trkpt lat="28.746218" lon="104.750476"><ele>323.77518</ele><time>2026-01-16T23:00:46.000Z</time></trkpt>
        <trkpt lat="28.746252" lon="104.750434"><ele>323.9845</ele><time>2026-01-16T23:00:50.000Z</time></trkpt>
        <trkpt lat="28.746279" lon="104.75039"><ele>323.97153</ele><time>2026-01-16T23:00:54.000Z</time></trkpt>
        <trkpt lat="28.746312" lon="104.750339"><ele>324.2791</ele><time>2026-01-16T23:00:58.000Z</time></trkpt>
        <trkpt lat="28.746345" lon="104.750286"><ele>325.01288</ele><time>2026-01-16T23:01:03.000Z</time></trkpt>
        <trkpt lat="28.746385" lon="104.75026"><ele>326.30426</ele><time>2026-01-16T23:01:06.000Z</time></trkpt>
        <trkpt lat="28.746434" lon="104.75025"><ele>326.1004</ele><time>2026-01-16T23:01:11.000Z</time></trkpt>
        <trkpt lat="28.746482" lon="104.75025"><ele>324.9972</ele><time>2026-01-16T23:01:15.000Z</time></trkpt>
        <trkpt lat="28.746538" lon="104.750236"><ele>325.11038</ele><time>2026-01-16T23:01:20.000Z</time></trkpt>
        <trkpt lat="28.746585" lon="104.750215"><ele>325.19485</ele><time>2026-01-16T23:01:24.000Z</time></trkpt>
        <trkpt lat="28.746627" lon="104.750191"><ele>324.64847</ele><time>2026-01-16T23:01:28.000Z</time></trkpt>
        <trkpt lat="28.746676" lon="104.750163"><ele>324.5598</ele><time>2026-01-16T23:01:33.000Z</time></trkpt>
        <trkpt lat="28.746719" lon="104.750132"><ele>324.2816</ele><time>2026-01-16T23:01:37.000Z</time></trkpt>
        <trkpt lat="28.746758" lon="104.750097"><ele>324.25986</ele><time>2026-01-16T23:01:41.000Z</time></trkpt>
        <trkpt lat="28.746792" lon="104.750055"><ele>323.6438</ele><time>2026-01-16T23:01:46.000Z</time></trkpt>
        <trkpt lat="28.746818" lon="104.750009"><ele>323.55484</ele><time>2026-01-16T23:01:51.000Z</time></trkpt>
        <trkpt lat="28.746845" lon="104.749963"><ele>323.2923</ele><time>2026-01-16T23:01:55.000Z</time></trkpt>
        <trkpt lat="28.746875" lon="104.749914"><ele>323.9258</ele><time>2026-01-16T23:02:00.000Z</time></trkpt>
        <trkpt lat="28.746913" lon="104.749877"><ele>324.27182</ele><time>2026-01-16T23:02:04.000Z</time></trkpt>
        <trkpt lat="28.746957" lon="104.749846"><ele>324.36444</ele><time>2026-01-16T23:02:08.000Z</time></trkpt>
        <trkpt lat="28.747005" lon="104.749824"><ele>324.46594</ele><time>2026-01-16T23:02:13.000Z</time></trkpt>
        <trkpt lat="28.747049" lon="104.749793"><ele>324.79544</ele><time>2026-01-16T23:02:17.000Z</time></trkpt>
        <trkpt lat="28.74709" lon="104.749768"><ele>324.9268</ele><time>2026-01-16T23:02:21.000Z</time></trkpt>
        <trkpt lat="28.747131" lon="104.749744"><ele>324.6029</ele><time>2026-01-16T23:02:25.000Z</time></trkpt>
        <trkpt lat="28.747178" lon="104.749723"><ele>324.38828</ele><time>2026-01-16T23:02:29.000Z</time></trkpt>
        <trkpt lat="28.747222" lon="104.749691"><ele>323.9221</ele><time>2026-01-16T23:02:33.000Z</time></trkpt>
        <trkpt lat="28.74727" lon="104.749677"><ele>323.043</ele><time>2026-01-16T23:02:37.000Z</time></trkpt>
        <trkpt lat="28.747312" lon="104.749694"><ele>321.9442</ele><time>2026-01-16T23:02:50.000Z</time></trkpt>
        <trkpt lat="28.747361" lon="104.749675"><ele>321.64587</ele><time>2026-01-16T23:03:37.000Z</time></trkpt>
        <trkpt lat="28.747406" lon="104.749655"><ele>320.34317</ele><time>2026-01-16T23:03:42.000Z</time></trkpt>
        <trkpt lat="28.747442" lon="104.74961"><ele>319.50613</ele><time>2026-01-16T23:03:47.000Z</time></trkpt>
        <trkpt lat="28.747471" lon="104.749557"><ele>318.44247</ele><time>2026-01-16T23:03:52.000Z</time></trkpt>
        <trkpt lat="28.747501" lon="104.7495"><ele>316.9738</ele><time>2026-01-16T23:03:58.000Z</time></trkpt>
        <trkpt lat="28.747538" lon="104.749457"><ele>317.23126</ele><time>2026-01-16T23:04:02.000Z</time></trkpt>
        <trkpt lat="28.747575" lon="104.749413"><ele>316.53577</ele><time>2026-01-16T23:04:07.000Z</time></trkpt>
        <trkpt lat="28.747614" lon="104.749367"><ele>316.55106</ele><time>2026-01-16T23:04:11.000Z</time></trkpt>
        <trkpt lat="28.747654" lon="104.749345"><ele>316.15292</ele><time>2026-01-16T23:04:15.000Z</time></trkpt>
        <trkpt lat="28.747698" lon="104.74931"><ele>316.72083</ele><time>2026-01-16T23:04:19.000Z</time></trkpt>
        <trkpt lat="28.747741" lon="104.749279"><ele>316.6801</ele><time>2026-01-16T23:04:23.000Z</time></trkpt>
        <trkpt lat="28.747794" lon="104.749256"><ele>316.76675</ele><time>2026-01-16T23:04:28.000Z</time></trkpt>
        <trkpt lat="28.747831" lon="104.749223"><ele>315.74457</ele><time>2026-01-16T23:04:32.000Z</time></trkpt>
        <trkpt lat="28.747875" lon="104.749194"><ele>315.99768</ele><time>2026-01-16T23:04:36.000Z</time></trkpt>
        <trkpt lat="28.747923" lon="104.749169"><ele>315.69678</ele><time>2026-01-16T23:04:40.000Z</time></trkpt>
        <trkpt lat="28.747967" lon="104.749144"><ele>315.3966</ele><time>2026-01-16T23:04:43.000Z</time></trkpt>
        <trkpt lat="28.748028" lon="104.749131"><ele>316.47418</ele><time>2026-01-16T23:04:47.000Z</time></trkpt>
        <trkpt lat="28.748084" lon="104.749105"><ele>315.83304</ele><time>2026-01-16T23:04:51.000Z</time></trkpt>
        <trkpt lat="28.748132" lon="104.749075"><ele>316.65634</ele><time>2026-01-16T23:04:55.000Z</time></trkpt>
        <trkpt lat="28.748179" lon="104.749044"><ele>315.42117</ele><time>2026-01-16T23:04:59.000Z</time></trkpt>
        <trkpt lat="28.748223" lon="104.749026"><ele>314.94882</ele><time>2026-01-16T23:05:04.000Z</time></trkpt>
        <trkpt lat="28.748272" lon="104.749012"><ele>313.9285</ele><time>2026-01-16T23:05:09.000Z</time></trkpt>
        <trkpt lat="28.748316" lon="104.749039"><ele>312.9065</ele><time>2026-01-16T23:05:13.000Z</time></trkpt>
        <trkpt lat="28.748362" lon="104.749066"><ele>312.01392</ele><time>2026-01-16T23:05:17.000Z</time></trkpt>
        <trkpt lat="28.748411" lon="104.749079"><ele>311.31995</ele><time>2026-01-16T23:05:21.000Z</time></trkpt>
        <trkpt lat="28.748457" lon="104.749068"><ele>310.71375</ele><time>2026-01-16T23:05:25.000Z</time></trkpt>
        <trkpt lat="28.748506" lon="104.749059"><ele>309.03857</ele><time>2026-01-16T23:05:30.000Z</time></trkpt>
        <trkpt lat="28.748563" lon="104.749051"><ele>306.91653</ele><time>2026-01-16T23:05:35.000Z</time></trkpt>
        <trkpt lat="28.748618" lon="104.74905"><ele>307.485</ele><time>2026-01-16T23:05:39.000Z</time></trkpt>
        <trkpt lat="28.748672" lon="104.749046"><ele>306.6379</ele><time>2026-01-16T23:05:43.000Z</time></trkpt>
        <trkpt lat="28.748725" lon="104.749044"><ele>307.63837</ele><time>2026-01-16T23:05:47.000Z</time></trkpt>
        <trkpt lat="28.748771" lon="104.749044"><ele>306.7626</ele><time>2026-01-16T23:05:51.000Z</time></trkpt>
        <trkpt lat="28.748818" lon="104.749018"><ele>307.23553</ele><time>2026-01-16T23:05:56.000Z</time></trkpt>
        <trkpt lat="28.748864" lon="104.749001"><ele>306.31744</ele><time>2026-01-16T23:06:01.000Z</time></trkpt>
        <trkpt lat="28.748923" lon="104.748978"><ele>306.12888</ele><time>2026-01-16T23:06:06.000Z</time></trkpt>
        <trkpt lat="28.748975" lon="104.748956"><ele>307.29062</ele><time>2026-01-16T23:06:11.000Z</time></trkpt>
        <trkpt lat="28.749022" lon="104.748951"><ele>309.16196</ele><time>2026-01-16T23:06:15.000Z</time></trkpt>
        <trkpt lat="28.749074" lon="104.748931"><ele>310.53964</ele><time>2026-01-16T23:06:21.000Z</time></trkpt>
        <trkpt lat="28.749126" lon="104.748929"><ele>311.64615</ele><time>2026-01-16T23:06:26.000Z</time></trkpt>
        <trkpt lat="28.74917" lon="104.748952"><ele>312.2597</ele><time>2026-01-16T23:06:30.000Z</time></trkpt>
        <trkpt lat="28.749219" lon="104.748979"><ele>312.3844</ele><time>2026-01-16T23:06:50.000Z</time></trkpt>
        <trkpt lat="28.749266" lon="104.749008"><ele>312.61197</ele><time>2026-01-16T23:06:55.000Z</time></trkpt>
        <trkpt lat="28.74931" lon="104.749019"><ele>312.48138</ele><time>2026-01-16T23:06:59.000Z</time></trkpt>
        <trkpt lat="28.749359" lon="104.74903"><ele>312.8234</ele><time>2026-01-16T23:07:03.000Z</time></trkpt>
        <trkpt lat="28.749405" lon="104.749033"><ele>313.40692</ele><time>2026-01-16T23:07:07.000Z</time></trkpt>
        <trkpt lat="28.749451" lon="104.749043"><ele>313.0612</ele><time>2026-01-16T23:07:11.000Z</time></trkpt>
        <trkpt lat="28.749499" lon="104.749056"><ele>313.31424</ele><time>2026-01-16T23:07:15.000Z</time></trkpt>
        <trkpt lat="28.749545" lon="104.749072"><ele>314.8615</ele><time>2026-01-16T23:07:19.000Z</time></trkpt>
        <trkpt lat="28.749587" lon="104.749096"><ele>314.68607</ele><time>2026-01-16T23:07:22.000Z</time></trkpt>
        <trkpt lat="28.749638" lon="104.749112"><ele>315.89886</ele><time>2026-01-16T23:07:26.000Z</time></trkpt>
        <trkpt lat="28.749692" lon="104.749129"><ele>316.78772</ele><time>2026-01-16T23:07:31.000Z</time></trkpt>
        <trkpt lat="28.749731" lon="104.749159"><ele>316.20148</ele><time>2026-01-16T23:07:36.000Z</time></trkpt>
        <trkpt lat="28.749778" lon="104.749178"><ele>317.13873</ele><time>2026-01-16T23:07:41.000Z</time></trkpt>
        <trkpt lat="28.749833" lon="104.749185"><ele>316.68546</ele><time>2026-01-16T23:07:47.000Z</time></trkpt>
        <trkpt lat="28.749879" lon="104.749181"><ele>316.13492</ele><time>2026-01-16T23:07:53.000Z</time></trkpt>
        <trkpt lat="28.749922" lon="104.749151"><ele>316.5746</ele><time>2026-01-16T23:07:58.000Z</time></trkpt>
        <trkpt lat="28.74996" lon="104.74912"><ele>317.05386</ele><time>2026-01-16T23:08:03.000Z</time></trkpt>
        <trkpt lat="28.750004" lon="104.749098"><ele>317.29016</ele><time>2026-01-16T23:08:09.000Z</time></trkpt>
        <trkpt lat="28.750053" lon="104.749087"><ele>317.55145</ele><time>2026-01-16T23:08:14.000Z</time></trkpt>
        <trkpt lat="28.750102" lon="104.749083"><ele>317.66156</ele><time>2026-01-16T23:08:19.000Z</time></trkpt>
        <trkpt lat="28.750156" lon="104.749068"><ele>317.60022</ele><time>2026-01-16T23:08:24.000Z</time></trkpt>
        <trkpt lat="28.750205" lon="104.749064"><ele>317.89603</ele><time>2026-01-16T23:08:29.000Z</time></trkpt>
        <trkpt lat="28.750259" lon="104.749042"><ele>318.55725</ele><time>2026-01-16T23:08:37.000Z</time></trkpt>
        <trkpt lat="28.750309" lon="104.749015"><ele>319.30368</ele><time>2026-01-16T23:08:42.000Z</time></trkpt>
        <trkpt lat="28.750362" lon="104.748984"><ele>319.90604</ele><time>2026-01-16T23:08:47.000Z</time></trkpt>
        <trkpt lat="28.750404" lon="104.748963"><ele>320.04947</ele><time>2026-01-16T23:08:51.000Z</time></trkpt>
        <trkpt lat="28.750449" lon="104.748941"><ele>321.2582</ele><time>2026-01-16T23:08:55.000Z</time></trkpt>
        <trkpt lat="28.750502" lon="104.748913"><ele>322.4514</ele><time>2026-01-16T23:08:59.000Z</time></trkpt>
        <trkpt lat="28.750549" lon="104.748894"><ele>323.1741</ele><time>2026-01-16T23:09:04.000Z</time></trkpt>
        <trkpt lat="28.750588" lon="104.748864"><ele>323.9857</ele><time>2026-01-16T23:09:09.000Z</time></trkpt>
        <trkpt lat="28.750626" lon="104.74883"><ele>325.58923</ele><time>2026-01-16T23:09:15.000Z</time></trkpt>
        <trkpt lat="28.750644" lon="104.748772"><ele>325.79553</ele><time>2026-01-16T23:09:20.000Z</time></trkpt>
        <trkpt lat="28.750656" lon="104.748714"><ele>325.90732</ele><time>2026-01-16T23:09:25.000Z</time></trkpt>
        <trkpt lat="28.750653" lon="104.748658"><ele>325.37863</ele><time>2026-01-16T23:09:30.000Z</time></trkpt>
        <trkpt lat="28.750645" lon="104.748599"><ele>325.65665</ele><time>2026-01-16T23:09:35.000Z</time></trkpt>
        <trkpt lat="28.750634" lon="104.74854"><ele>324.41757</ele><time>2026-01-16T23:09:39.000Z</time></trkpt>
        <trkpt lat="28.750616" lon="104.748486"><ele>325.6549</ele><time>2026-01-16T23:09:42.000Z</time></trkpt>
        <trkpt lat="28.750573" lon="104.748443"><ele>325.8679</ele><time>2026-01-16T23:09:46.000Z</time></trkpt>
        <trkpt lat="28.750542" lon="104.748397"><ele>325.31415</ele><time>2026-01-16T23:09:50.000Z</time></trkpt>
        <trkpt lat="28.750503" lon="104.748351"><ele>325.79886</ele><time>2026-01-16T23:09:54.000Z</time></trkpt>
        <trkpt lat="28.750489" lon="104.748295"><ele>324.63257</ele><time>2026-01-16T23:09:58.000Z</time></trkpt>
        <trkpt lat="28.750474" lon="104.748238"><ele>323.7113</ele><time>2026-01-16T23:10:02.000Z</time></trkpt>
        <trkpt lat="28.750461" lon="104.748177"><ele>322.96353</ele><time>2026-01-16T23:10:06.000Z</time></trkpt>
        <trkpt lat="28.750453" lon="104.748113"><ele>322.0073</ele><time>2026-01-16T23:10:10.000Z</time></trkpt>
        <trkpt lat="28.750459" lon="104.748062"><ele>321.78452</ele><time>2026-01-16T23:10:14.000Z</time></trkpt>
        <trkpt lat="28.750464" lon="104.747997"><ele>322.35364</ele><time>2026-01-16T23:10:18.000Z</time></trkpt>
        <trkpt lat="28.750478" lon="104.747933"><ele>322.4157</ele><time>2026-01-16T23:10:22.000Z</time></trkpt>
        <trkpt lat="28.750475" lon="104.747869"><ele>322.74924</ele><time>2026-01-16T23:10:26.000Z</time></trkpt>
        <trkpt lat="28.750457" lon="104.747813"><ele>322.37424</ele><time>2026-01-16T23:10:42.000Z</time></trkpt>
        <trkpt lat="28.750421" lon="104.747767"><ele>321.94592</ele><time>2026-01-16T23:10:47.000Z</time></trkpt>
        <trkpt lat="28.750388" lon="104.747717"><ele>321.7146</ele><time>2026-01-16T23:10:51.000Z</time></trkpt>
        <trkpt lat="28.750345" lon="104.747675"><ele>321.57443</ele><time>2026-01-16T23:10:55.000Z</time></trkpt>
        <trkpt lat="28.750309" lon="104.747639"><ele>321.70718</ele><time>2026-01-16T23:10:59.000Z</time></trkpt>
        <trkpt lat="28.750261" lon="104.747612"><ele>321.34464</ele><time>2026-01-16T23:11:03.000Z</time></trkpt>
        <trkpt lat="28.750224" lon="104.747582"><ele>320.98602</ele><time>2026-01-16T23:11:07.000Z</time></trkpt>
        <trkpt lat="28.750258" lon="104.747541"><ele>321.51083</ele><time>2026-01-16T23:11:15.000Z</time></trkpt>
        <trkpt lat="28.750247" lon="104.747485"><ele>322.01016</ele><time>2026-01-16T23:11:21.000Z</time></trkpt>
        <trkpt lat="28.750288" lon="104.747452"><ele>322.65387</ele><time>2026-01-16T23:11:32.000Z</time></trkpt>
        <trkpt lat="28.750337" lon="104.747439"><ele>323.4119</ele><time>2026-01-16T23:11:37.000Z</time></trkpt>
        <trkpt lat="28.750331" lon="104.747385"><ele>324.26355</ele><time>2026-01-16T23:11:46.000Z</time></trkpt>
        <trkpt lat="28.750371" lon="104.747358"><ele>325.9222</ele><time>2026-01-16T23:11:51.000Z</time></trkpt>
        <trkpt lat="28.750384" lon="104.747298"><ele>326.27115</ele><time>2026-01-16T23:11:59.000Z</time></trkpt>
        <trkpt lat="28.750369" lon="104.747246"><ele>326.14822</ele><time>2026-01-16T23:12:04.000Z</time></trkpt>
        <trkpt lat="28.750398" lon="104.747199"><ele>327.1551</ele><time>2026-01-16T23:12:09.000Z</time></trkpt>
        <trkpt lat="28.750436" lon="104.747163"><ele>328.61145</ele><time>2026-01-16T23:12:16.000Z</time></trkpt>
        <trkpt lat="28.750486" lon="104.747172"><ele>329.7632</ele><time>2026-01-16T23:12:24.000Z</time></trkpt>
        <trkpt lat="28.750512" lon="104.747122"><ele>329.5303</ele><time>2026-01-16T23:13:08.000Z</time></trkpt>
        <trkpt lat="28.750507" lon="104.747068"><ele>330.06387</ele><time>2026-01-16T23:13:22.000Z</time></trkpt>
        <trkpt lat="28.750477" lon="104.747026"><ele>329.4554</ele><time>2026-01-16T23:13:27.000Z</time></trkpt>
        <trkpt lat="28.750467" lon="104.74697"><ele>330.5532</ele><time>2026-01-16T23:13:33.000Z</time></trkpt>
        <trkpt lat="28.750481" lon="104.746919"><ele>330.55865</ele><time>2026-01-16T23:13:38.000Z</time></trkpt>
        <trkpt lat="28.750502" lon="104.746862"><ele>332.3398</ele><time>2026-01-16T23:13:51.000Z</time></trkpt>
        <trkpt lat="28.750513" lon="104.746805"><ele>333.2395</ele><time>2026-01-16T23:13:56.000Z</time></trkpt>
        <trkpt lat="28.750562" lon="104.74678"><ele>334.24222</ele><time>2026-01-16T23:14:08.000Z</time></trkpt>
        <trkpt lat="28.750606" lon="104.746752"><ele>335.70856</ele><time>2026-01-16T23:14:15.000Z</time></trkpt>
        <trkpt lat="28.750642" lon="104.7467"><ele>338.5617</ele><time>2026-01-16T23:14:27.000Z</time></trkpt>
        <trkpt lat="28.750686" lon="104.74668"><ele>339.86865</ele><time>2026-01-16T23:14:57.000Z</time></trkpt>
        <trkpt lat="28.750668" lon="104.746625"><ele>339.7621</ele><time>2026-01-16T23:15:08.000Z</time></trkpt>
        <trkpt lat="28.750638" lon="104.746584"><ele>339.7009</ele><time>2026-01-16T23:15:13.000Z</time></trkpt>
        <trkpt lat="28.750636" lon="104.746526"><ele>339.3515</ele><time>2026-01-16T23:15:19.000Z</time></trkpt>
        <trkpt lat="28.750672" lon="104.746494"><ele>341.1967</ele><time>2026-01-16T23:15:31.000Z</time></trkpt>
        <trkpt lat="28.750716" lon="104.746485"><ele>340.9022</ele><time>2026-01-16T23:15:45.000Z</time></trkpt>
        <trkpt lat="28.750763" lon="104.746471"><ele>343.03296</ele><time>2026-01-16T23:16:10.000Z</time></trkpt>
        <trkpt lat="28.750748" lon="104.746417"><ele>342.5652</ele><time>2026-01-16T23:16:20.000Z</time></trkpt>
        <trkpt lat="28.750752" lon="104.746364"><ele>343.1704</ele><time>2026-01-16T23:16:25.000Z</time></trkpt>
        <trkpt lat="28.750777" lon="104.746312"><ele>343.99393</ele><time>2026-01-16T23:16:42.000Z</time></trkpt>
        <trkpt lat="28.750818" lon="104.74629"><ele>345.41833</ele><time>2026-01-16T23:16:46.000Z</time></trkpt>
        <trkpt lat="28.75087" lon="104.746279"><ele>346.3212</ele><time>2026-01-16T23:16:51.000Z</time></trkpt>
        <trkpt lat="28.750911" lon="104.746323"><ele>346.72125</ele><time>2026-01-16T23:16:57.000Z</time></trkpt>
        <trkpt lat="28.750943" lon="104.746362"><ele>347.29608</ele><time>2026-01-16T23:17:36.000Z</time></trkpt>
        <trkpt lat="28.750959" lon="104.746424"><ele>347.2526</ele><time>2026-01-16T23:17:40.000Z</time></trkpt>
        <trkpt lat="28.750984" lon="104.746467"><ele>347.49466</ele><time>2026-01-16T23:17:44.000Z</time></trkpt>
        <trkpt lat="28.751013" lon="104.746521"><ele>347.77148</ele><time>2026-01-16T23:17:49.000Z</time></trkpt>
        <trkpt lat="28.751033" lon="104.746569"><ele>347.89313</ele><time>2026-01-16T23:17:53.000Z</time></trkpt>
        <trkpt lat="28.751054" lon="104.746615"><ele>347.72925</ele><time>2026-01-16T23:17:57.000Z</time></trkpt>
        <trkpt lat="28.751088" lon="104.746659"><ele>347.6722</ele><time>2026-01-16T23:18:01.000Z</time></trkpt>
        <trkpt lat="28.751126" lon="104.746701"><ele>348.04553</ele><time>2026-01-16T23:18:06.000Z</time></trkpt>
        <trkpt lat="28.751171" lon="104.746734"><ele>348.39938</ele><time>2026-01-16T23:18:10.000Z</time></trkpt>
        <trkpt lat="28.751207" lon="104.746768"><ele>348.45227</ele><time>2026-01-16T23:18:14.000Z</time></trkpt>
        <trkpt lat="28.751253" lon="104.746766"><ele>350.81915</ele><time>2026-01-16T23:18:29.000Z</time></trkpt>
        <trkpt lat="28.751282" lon="104.746719"><ele>352.51364</ele><time>2026-01-16T23:18:39.000Z</time></trkpt>
        <trkpt lat="28.751283" lon="104.746661"><ele>352.90988</ele><time>2026-01-16T23:19:27.000Z</time></trkpt>
        <trkpt lat="28.751335" lon="104.74664"><ele>353.18796</ele><time>2026-01-16T23:19:32.000Z</time></trkpt>
        <trkpt lat="28.751378" lon="104.746671"><ele>352.78516</ele><time>2026-01-16T23:19:36.000Z</time></trkpt>
        <trkpt lat="28.751425" lon="104.746691"><ele>353.1269</ele><time>2026-01-16T23:19:40.000Z</time></trkpt>
        <trkpt lat="28.751471" lon="104.746721"><ele>353.5245</ele><time>2026-01-16T23:19:45.000Z</time></trkpt>
        <trkpt lat="28.751515" lon="104.746734"><ele>353.90622</ele><time>2026-01-16T23:19:49.000Z</time></trkpt>
        <trkpt lat="28.751559" lon="104.746744"><ele>354.29333</ele><time>2026-01-16T23:19:53.000Z</time></trkpt>
        <trkpt lat="28.751582" lon="104.746693"><ele>354.87286</ele><time>2026-01-16T23:19:58.000Z</time></trkpt>
        <trkpt lat="28.75157" lon="104.74664"><ele>354.48584</ele><time>2026-01-16T23:20:03.000Z</time></trkpt>
        <trkpt lat="28.751565" lon="104.746584"><ele>354.75616</ele><time>2026-01-16T23:20:08.000Z</time></trkpt>
        <trkpt lat="28.751561" lon="104.74653"><ele>355.1272</ele><time>2026-01-16T23:20:13.000Z</time></trkpt>
        <trkpt lat="28.751568" lon="104.746475"><ele>356.20337</ele><time>2026-01-16T23:20:18.000Z</time></trkpt>
        <trkpt lat="28.751562" lon="104.746412"><ele>356.14514</ele><time>2026-01-16T23:20:23.000Z</time></trkpt>
        <trkpt lat="28.751554" lon="104.746356"><ele>356.58176</ele><time>2026-01-16T23:20:28.000Z</time></trkpt>
        <trkpt lat="28.751548" lon="104.746303"><ele>356.41486</ele><time>2026-01-16T23:20:32.000Z</time></trkpt>
        <trkpt lat="28.751537" lon="104.746246"><ele>356.47867</ele><time>2026-01-16T23:20:36.000Z</time></trkpt>
        <trkpt lat="28.751535" lon="104.746183"><ele>356.51022</ele><time>2026-01-16T23:20:42.000Z</time></trkpt>
        <trkpt lat="28.751541" lon="104.746126"><ele>356.69827</ele><time>2026-01-16T23:20:46.000Z</time></trkpt>
        <trkpt lat="28.751552" lon="104.746069"><ele>356.6505</ele><time>2026-01-16T23:20:50.000Z</time></trkpt>
        <trkpt lat="28.751572" lon="104.746014"><ele>357.13232</ele><time>2026-01-16T23:20:54.000Z</time></trkpt>
        <trkpt lat="28.751603" lon="104.745972"><ele>357.50708</ele><time>2026-01-16T23:20:58.000Z</time></trkpt>
        <trkpt lat="28.751627" lon="104.74592"><ele>358.1942</ele><time>2026-01-16T23:21:03.000Z</time></trkpt>
        <trkpt lat="28.751645" lon="104.745861"><ele>358.06638</ele><time>2026-01-16T23:21:07.000Z</time></trkpt>
        <trkpt lat="28.751665" lon="104.745803"><ele>358.1515</ele><time>2026-01-16T23:21:11.000Z</time></trkpt>
        <trkpt lat="28.751689" lon="104.745754"><ele>358.2011</ele><time>2026-01-16T23:21:15.000Z</time></trkpt>
        <trkpt lat="28.75172" lon="104.745712"><ele>359.12546</ele><time>2026-01-16T23:21:18.000Z</time></trkpt>
        <trkpt lat="28.751757" lon="104.74568"><ele>359.32593</ele><time>2026-01-16T23:21:22.000Z</time></trkpt>
        <trkpt lat="28.751807" lon="104.745655"><ele>359.86612</ele><time>2026-01-16T23:21:26.000Z</time></trkpt>
        <trkpt lat="28.751839" lon="104.745605"><ele>360.02203</ele><time>2026-01-16T23:21:31.000Z</time></trkpt>
        <trkpt lat="28.751863" lon="104.745558"><ele>360.7785</ele><time>2026-01-16T23:21:35.000Z</time></trkpt>
        <trkpt lat="28.751895" lon="104.745511"><ele>361.0057</ele><time>2026-01-16T23:21:39.000Z</time></trkpt>
        <trkpt lat="28.751931" lon="104.745464"><ele>361.35425</ele><time>2026-01-16T23:21:43.000Z</time></trkpt>
        <trkpt lat="28.751962" lon="104.745421"><ele>362.1099</ele><time>2026-01-16T23:21:47.000Z</time></trkpt>
        <trkpt lat="28.752003" lon="104.745382"><ele>362.6803</ele><time>2026-01-16T23:21:52.000Z</time></trkpt>
        <trkpt lat="28.752035" lon="104.745341"><ele>363.54282</ele><time>2026-01-16T23:21:57.000Z</time></trkpt>
      </trkseg>
  </trk>
</gpx>